# Wetter Temperatur Luftdruck Luftfeuchtigkeit Sichtweite Windgeschwindigkeit Windrichtung Zeit
1 Clear 18 1028 36 10000 2.1 130 11:42 08.04.2020
2 Clear 18 1028 42 10000 2.1 160 11:23 08.04.2020
3 Clear 17 1028 42 10000 2.1 110 10:58 08.04.2020
4 Clear 16 1028 48 10000 1 0 10:40 08.04.2020
5 Clear 16 1028 48 10000 1 0 10:21 08.04.2020
6 Clear 15 1028 54 10000 0.5 0 09:57 08.04.2020
7 Clear 14 1028 54 10000 0.5 0 09:39 08.04.2020
8 Clear 13 1028 58 10000 1 10 09:18 08.04.2020
9 Clear 11 1028 61 10000 1.5 10 08:56 08.04.2020
10 Clear 10 1028 61 10000 1.5 10 08:38 08.04.2020
11 Clear 9 1028 61 10000 1 0 08:20 08.04.2020
12 Clear 9 1028 61 10000 1 360 07:42 08.04.2020
13 Clear 8 1028 61 10000 2.1 360 07:20 08.04.2020
14 Clear 9 1028 75 10000 1.5 350 06:23 08.04.2020
15 Clear 9 1028 65 10000 1.5 350 04:54 08.04.2020
16 Clear 11 1029 66 10000 1.23 73 02:50 08.04.2020
17 Clear 11 1029 57 10000 1 360 02:21 08.04.2020
18 Clear 12 1029 53 10000 1 0 01:56 08.04.2020
19 Clear 12 1029 43 10000 1.5 30 01:27 08.04.2020
20 Clear 12 1029 53 10000 1.5 50 00:44 08.04.2020
21 Clear 13 1029 52 10000 2.6 60 00:23 08.04.2020
22 Clear 13 1028 52 10000 2.6 90 23:40 07.04.2020
23 Clear 14 1028 36 10000 2.6 100 23:22 07.04.2020
24 Clear 14 1028 41 10000 2.1 90 22:58 07.04.2020
25 Clear 14 1028 41 10000 2.1 90 22:40 07.04.2020
26 Clear 15 1028 38 10000 1 50 22:20 07.04.2020
27 Clear 15 1028 38 10000 2.1 140 21:57 07.04.2020
28 Clear 16 1028 38 10000 2.1 140 21:39 07.04.2020
29 Clear 17 1027 48 10000 2.1 120 21:20 07.04.2020
30 Clear 17 1027 29 10000 1.5 110 20:57 07.04.2020
31 Clear 18 1027 48 10000 2.6 120 20:38 07.04.2020
32 Clear 19 1027 48 10000 2.6 120 20:20 07.04.2020
33 Clear 19 1027 48 10000 3.1 120 19:57 07.04.2020
34 Clear 20 1027 28 10000 3.1 140 19:36 07.04.2020
35 Clear 21 1027 24 10000 3.1 110 19:18 07.04.2020
36 Clear 21 1027 24 10000 3.1 110 18:54 07.04.2020
37 Clear 21 1027 48 10000 4.1 110 18:36 07.04.2020
38 Clear 22 1027 26 10000 2.6 140 18:18 07.04.2020
39 Clear 22 1027 26 10000 3.1 90 17:44 07.04.2020
40 Clear 22 1027 26 10000 3.1 90 17:20 07.04.2020
41 Clear 22 1027 26 10000 1.5 200 16:46 07.04.2020
42 Clear 22 1027 26 10000 1.5 200 16:27 07.04.2020
43 Clear 22 1028 30 10000 1.5 0 15:55 07.04.2020
44 Clear 22 1028 28 10000 1.5 0 15:36 07.04.2020
45 Clear 21 1028 32 10000 1.5 0 15:18 07.04.2020
46 Clear 21 1028 32 10000 1.5 0 14:39 07.04.2020
47 Clear 20 1029 30 10000 1.5 210 14:21 07.04.2020
48 Clear 20 1029 32 10000 2.6 170 13:54 07.04.2020
49 Clear 20 1029 32 10000 2.6 170 13:36 07.04.2020
50 Clear 20 1029 34 10000 2.6 180 13:18 07.04.2020
51 Clear 19 1029 32 10000 3.1 160 12:40 07.04.2020
52 Clear 18 1029 31 10000 2.6 180 12:22 07.04.2020
53 Clear 18 1030 34 10000 2.6 140 11:59 07.04.2020
54 Clear 18 1030 34 10000 2.6 140 11:59 07.04.2020
55 Clear 17 1030 34 10000 2.6 140 11:41 07.04.2020
56 Clear 17 1029 33 10000 2.1 180 11:21 07.04.2020
57 Clear 16 1029 41 10000 1.5 0 10:55 07.04.2020
58 Clear 16 1029 41 10000 1.5 0 10:36 07.04.2020
59 Clear 15 1029 51 10000 1.5 80 10:18 07.04.2020
60 Clear 14 1029 62 10000 1.5 50 09:43 07.04.2020
61 Clear 12 1029 71 10000 2.6 360 09:18 07.04.2020
62 Clear 11 1029 76 10000 2.1 360 08:41 07.04.2020
63 Clear 9 1029 81 10000 1 20 08:23 07.04.2020
64 Clear 9 1028 87 10000 0.5 0 07:57 07.04.2020
65 Clear 9 1028 87 10000 0.5 0 07:38 07.04.2020
66 Clear 9 1028 75 10000 1 0 07:20 07.04.2020
67 Clear 9 1028 81 10000 3.1 150 06:42 07.04.2020
68 Clear 9 1028 87 10000 0.5 340 06:18 07.04.2020
69 Clear 9 1028 81 10000 0.5 0 05:29 07.04.2020
70 Clear 9 1028 75 10000 0.5 0 04:35 07.04.2020
71 Clear 10 1028 66 10000 0.5 0 03:24 07.04.2020
72 Clear 10 1028 66 10000 0.5 130 02:47 07.04.2020
73 Clear 11 1028 66 10000 1 140 01:43 07.04.2020
74 Clear 11 1028 58 10000 1 0 01:23 07.04.2020
75 Clear 12 1027 57 10000 2.1 340 00:26 07.04.2020
76 Clear 13 1027 58 10000 1 350 23:44 06.04.2020
77 Clear 13 1027 50 10000 1 10 23:23 06.04.2020
78 Clear 13 1027 58 10000 0.5 0 22:56 06.04.2020
79 Clear 13 1027 58 10000 0.5 0 22:37 06.04.2020
80 Clear 14 1027 54 10000 0.92 1 22:19 06.04.2020
81 Clear 13 1027 47 10000 0.5 260 21:56 06.04.2020
82 Clear 14 1027 47 10000 0.5 260 21:37 06.04.2020
83 Clear 15 1026 41 10000 1 0 21:18 06.04.2020
84 Clear 16 1026 36 10000 1 180 20:42 06.04.2020
85 Clear 17 1026 32 10000 1 170 20:21 06.04.2020
86 Clear 18 1025 34 10000 1.5 170 19:58 06.04.2020
87 Clear 19 1025 34 10000 1.5 170 19:39 06.04.2020
88 Clear 19 1025 30 10000 3.1 150 19:20 06.04.2020
89 Clear 20 1025 28 10000 2.6 200 18:45 06.04.2020
90 Clear 20 1025 30 10000 1.5 180 18:24 06.04.2020
91 Clear 20 1025 30 10000 1.5 180 18:24 06.04.2020
92 Clear 20 1025 30 10000 2.1 100 17:59 06.04.2020
93 Clear 20 1025 30 10000 2.1 100 17:41 06.04.2020
94 Clear 20 1026 28 10000 2.1 170 17:19 06.04.2020
95 Clear 20 1026 26 10000 1.5 0 16:49 06.04.2020
96 Clear 20 1026 30 10000 1.5 0 16:30 06.04.2020
97 Clear 20 1027 28 10000 2.1 0 14:59 06.04.2020
98 Clear 20 1027 28 10000 2.1 0 14:59 06.04.2020
99 Clear 20 1027 28 10000 2.1 0 14:59 06.04.2020
100 Clear 20 1027 28 10000 2.1 0 14:59 06.04.2020
101 Clear 20 1027 28 10000 2.1 0 14:59 06.04.2020
102 Clear 19 1027 29 10000 2.6 210 13:45 06.04.2020
103 Clear 19 1027 32 10000 2.6 0 13:22 06.04.2020
104 Clear 18 1027 31 10000 2.6 140 12:46 06.04.2020
105 Clear 18 1027 34 10000 1.5 0 12:20 06.04.2020
106 Clear 17 1027 33 10000 1.5 160 11:43 06.04.2020
107 Clear 17 1028 38 10000 2.1 170 11:25 06.04.2020
108 Clear 17 1027 33 10000 1.5 160 11:25 06.04.2020
109 Clear 17 1027 33 10000 1.5 160 11:25 06.04.2020
110 Clear 17 1027 33 10000 1.5 160 11:25 06.04.2020
111 Clear 17 1028 38 10000 2.1 170 11:25 06.04.2020
112 Clear 16 1027 51 10000 2.6 160 10:43 06.04.2020
113 Clear 16 1027 51 10000 2.6 160 10:43 06.04.2020
114 Clear 16 1027 51 10000 2.6 160 10:43 06.04.2020
115 Clear 16 1027 51 10000 2.6 160 10:43 06.04.2020
116 Clear 16 1027 51 10000 2.6 160 10:43 06.04.2020
117 Clear 15 1027 47 10000 1 0 10:21 06.04.2020
118 Clear 15 1027 47 10000 1 0 10:21 06.04.2020
119 Clear 15 1027 47 10000 1 0 10:21 06.04.2020
120 Clear 15 1027 47 10000 1 0 10:21 06.04.2020
121 Clear 15 1027 47 10000 1 0 10:21 06.04.2020
122 Clear 14 1027 47 10000 1 0 09:41 06.04.2020
123 Clear 14 1027 47 10000 1 0 09:40 06.04.2020
124 Clear 12 1027 54 10000 0.5 0 09:20 06.04.2020
125 Clear 11 1027 66 10000 1 0 08:47 06.04.2020
126 Clear 10 1027 66 10000 1 0 08:29 06.04.2020
127 Clear 10 1027 66 10000 1 0 08:29 06.04.2020
128 Clear 10 1027 66 10000 1 0 08:29 06.04.2020
129 Clear 10 1027 66 10000 1 0 08:29 06.04.2020
130 Clear 10 1027 66 10000 1 0 08:29 06.04.2020
131 Clear 7 1026 75 10000 0.5 0 07:23 06.04.2020
132 Clear 7 1025 70 10000 0.5 0 06:27 06.04.2020
133 Clear 8 1025 81 10000 1 0 05:54 06.04.2020
134 Clear 9 1025 65 10000 1 0 03:57 06.04.2020
135 Clear 9 1025 75 10000 1.5 60 02:52 06.04.2020
136 Clear 10 1025 66 10000 1 10 01:56 06.04.2020
137 Clear 10 1025 66 10000 1 10 01:56 06.04.2020
138 Clear 10 1025 66 10000 1 10 01:56 06.04.2020
139 Clear 10 1025 61 10000 1.5 10 00:55 06.04.2020
140 Clear 11 1025 66 10000 0.5 20 00:28 06.04.2020
141 Clear 10 1025 61 10000 1.5 10 00:28 06.04.2020
142 Clear 11 1025 61 10000 0.5 0 23:52 05.04.2020
143 Clear 11 1025 61 10000 0.5 0 23:33 05.04.2020
144 Clear 11 1025 61 10000 1 0 22:58 05.04.2020
145 Clear 11 1025 61 10000 1 0 22:58 05.04.2020
146 Clear 12 1024 62 10000 0.5 0 22:40 05.04.2020
147 Clear 12 1024 58 10000 1 20 22:22 05.04.2020
148 Clear 12 1024 58 10000 1 20 21:59 05.04.2020
149 Clear 13 1023 50 10000 0.5 0 21:41 05.04.2020
150 Clear 13 1023 50 10000 0.5 0 21:41 05.04.2020
151 Clear 14 1023 44 10000 0.5 280 21:23 05.04.2020
152 Clear 15 1023 41 10000 1.5 180 20:22 05.04.2020
153 Clear 17 1023 39 10000 2.1 170 19:43 05.04.2020
154 Clear 17 1022 34 10000 3.1 140 19:22 05.04.2020
155 Clear 18 1022 31 10000 2.1 130 18:48 05.04.2020
156 Clear 19 1022 31 10000 2.6 100 18:18 05.04.2020
157 Clear 19 1023 34 10000 3.1 140 17:43 05.04.2020
158 Clear 19 1023 34 10000 3.1 140 17:43 05.04.2020
159 Clear 19 1023 34 10000 3.1 140 17:43 05.04.2020
160 Clear 19 1023 34 10000 3.1 140 17:43 05.04.2020
161 Clear 19 1023 34 10000 3.1 140 17:21 05.04.2020
162 Clear 19 1023 31 10000 2.1 0 17:21 05.04.2020
163 Clear 19 1023 34 10000 3.1 140 17:21 05.04.2020
164 Clear 18 1023 31 10000 2.1 0 16:47 05.04.2020
165 Clear 18 1023 31 10000 2.1 0 16:47 05.04.2020
166 Clear 18 1023 31 10000 2.1 0 16:47 05.04.2020
167 Clear 18 1023 34 10000 2.1 0 16:18 05.04.2020
168 Clear 18 1024 34 10000 2.6 0 15:45 05.04.2020
169 Clouds 18 1024 34 10000 2.1 0 15:25 05.04.2020
170 Clouds 17 1025 33 10000 1.5 0 14:48 05.04.2020
171 Clouds 17 1025 33 10000 1.5 0 14:48 05.04.2020
172 Clouds 17 1025 33 10000 1.5 0 14:48 05.04.2020
173 Clouds 17 1025 33 10000 1.5 0 14:48 05.04.2020
174 Clouds 17 1025 33 10000 1.5 0 14:48 05.04.2020
175 Clouds 17 1025 37 10000 1.5 0 13:59 05.04.2020
176 Clouds 17 1025 33 10000 3.1 110 13:40 05.04.2020
177 Clouds 17 1025 33 10000 3.1 110 13:40 05.04.2020
178 Clouds 17 1025 33 10000 3.1 110 13:40 05.04.2020
179 Clouds 17 1025 33 10000 3.1 110 13:40 05.04.2020
180 Clouds 17 1025 33 10000 3.1 110 13:40 05.04.2020
181 Clouds 15 1026 43 10000 4.6 130 11:58 05.04.2020
182 Clouds 15 1026 43 10000 2.6 110 11:39 05.04.2020
183 Clouds 15 1026 41 10000 2.6 140 11:19 05.04.2020
184 Clouds 14 1026 41 10000 2.1 140 10:46 05.04.2020
185 Clouds 14 1026 43 10000 3.1 140 10:22 05.04.2020
186 Clouds 13 1026 46 10000 2.6 100 09:52 05.04.2020
187 Clouds 13 1026 46 10000 2.6 100 09:52 05.04.2020
188 Clouds 12 1026 54 10000 1.5 120 09:25 05.04.2020
189 Clear 12 1026 46 10000 2.6 100 09:25 05.04.2020
190 Clouds 12 1026 54 10000 1.5 120 09:25 05.04.2020
191 Clear 12 1026 46 10000 2.6 100 09:25 05.04.2020
192 Clouds 12 1026 54 10000 1.5 120 09:25 05.04.2020
193 Clouds 9 1025 75 10000 0.5 260 07:58 05.04.2020
194 Clouds 9 1024 57 10000 2.1 80 05:12 05.04.2020
195 Clouds 9 1024 65 10000 1 60 03:58 05.04.2020
196 Clear 9 1024 65 10000 1 30 02:56 05.04.2020
197 Clear 10 1024 57 10000 1.5 60 01:52 05.04.2020
198 Clear 10 1024 57 10000 1.5 60 01:52 05.04.2020
199 Clear 10 1024 57 10000 1.5 60 01:33 05.04.2020
200 Clear 10 1023 57 10000 1 0 00:52 05.04.2020
201 Clear 11 1023 50 10000 1 40 00:22 05.04.2020
202 Clear 11 1023 50 10000 1 40 23:58 04.04.2020
203 Clear 11 1023 50 10000 1 40 23:58 04.04.2020
204 Clear 11 1023 53 10000 1 20 23:38 04.04.2020
205 Clear 11 1022 57 10000 0.5 0 23:20 04.04.2020
206 Clear 11 1022 57 10000 0.5 0 22:56 04.04.2020
207 Clear 11 1022 53 10000 1 0 22:38 04.04.2020
208 Clear 12 1022 43 10000 1.5 100 22:19 04.04.2020
209 Clear 12 1022 43 10000 1.5 100 22:19 04.04.2020
210 Clear 12 1022 43 10000 1.5 100 21:55 04.04.2020
211 Clear 13 1021 41 10000 1.5 120 21:36 04.04.2020
212 Clear 13 1021 50 10000 2.1 120 21:18 04.04.2020
213 Clear 14 1020 53 10000 2.1 120 20:42 04.04.2020
214 Clear 15 1020 53 10000 2.6 120 20:23 04.04.2020
215 Clear 16 1020 53 10000 2.6 120 19:59 04.04.2020
216 Clear 16 1020 53 10000 2.6 120 19:59 04.04.2020
217 Clear 16 1020 53 10000 2.6 120 19:38 04.04.2020
218 Clear 17 1019 31 10000 2.1 140 19:19 04.04.2020
219 Clear 17 1019 31 10000 2.1 140 18:57 04.04.2020
220 Clear 18 1019 31 10000 1.5 80 18:38 04.04.2020
221 Clear 18 1019 38 10000 1.5 0 18:19 04.04.2020
222 Clear 18 1019 38 10000 1.5 0 18:19 04.04.2020
223 Clear 18 1019 29 10000 2.1 130 17:56 04.04.2020
224 Clear 18 1019 29 10000 2.1 130 17:38 04.04.2020
225 Clear 18 1020 31 10000 2.6 70 17:18 04.04.2020
226 Clear 18 1020 38 10000 2.1 0 16:42 04.04.2020
227 Clear 18 1020 38 10000 2.1 0 16:22 04.04.2020
228 Clear 18 1020 38 10000 1.5 0 15:56 04.04.2020
229 Clear 18 1020 27 10000 2.6 140 15:38 04.04.2020
230 Clear 18 1021 36 10000 2.1 190 15:19 04.04.2020
231 Clear 17 1021 36 10000 2.1 0 14:43 04.04.2020
232 Clear 17 1021 33 10000 2.1 0 14:23 04.04.2020
233 Clear 17 1021 33 10000 2.1 0 13:56 04.04.2020
234 Clear 17 1022 33 10000 2.1 0 13:38 04.04.2020
235 Clear 16 1022 41 10000 2.6 150 13:19 04.04.2020
236 Clear 16 1022 41 10000 1.5 0 12:45 04.04.2020
237 Clear 15 1022 41 10000 1.5 120 12:27 04.04.2020
238 Clear 15 1022 50 10000 1.5 110 11:59 04.04.2020
239 Clear 15 1022 50 10000 1.5 110 11:39 04.04.2020
240 Clear 14 1022 58 10000 2.1 150 11:20 04.04.2020
241 Clear 14 1022 58 10000 2.1 150 11:20 04.04.2020
242 Clear 14 1022 58 10000 2.1 150 10:56 04.04.2020
243 Clear 13 1022 58 10000 2.1 150 10:38 04.04.2020
244 Clear 12 1021 62 10000 1 0 10:19 04.04.2020
245 Clear 11 1021 61 10000 1 0 09:54 04.04.2020
246 Clear 10 1021 61 10000 1 0 09:36 04.04.2020
247 Clear 9 1021 70 10000 1.5 270 09:18 04.04.2020
248 Clear 7 1020 81 8000 0.5 200 08:41 04.04.2020
249 Clear 6 1020 86 7000 0.28 13 08:21 04.04.2020
250 Clear 6 1019 93 7000 0.28 13 07:44 04.04.2020
251 Clear 5 1019 86 7000 0.5 30 07:26 04.04.2020
252 Clear 6 1019 86 8000 0.28 13 06:53 04.04.2020
253 Clear 6 1019 86 10000 0.5 0 06:20 04.04.2020
254 Clear 6 1019 86 9000 0.5 20 05:42 04.04.2020
255 Clear 6 1019 86 9000 0.5 20 05:23 04.04.2020
256 Clear 6 1018 75 10000 0.5 0 04:30 04.04.2020
257 Clear 7 1018 80 10000 1 320 03:49 04.04.2020
258 Clear 7 1018 70 10000 1 0 02:51 04.04.2020
259 Clear 7 1018 80 10000 0.5 340 02:32 04.04.2020
260 Clear 7 1018 75 10000 1 350 01:55 04.04.2020
261 Clear 8 1017 65 10000 1 360 01:25 04.04.2020
262 Clear 8 1017 70 10000 1.5 360 00:48 04.04.2020
263 Clear 8 1017 70 10000 1.5 360 00:29 04.04.2020
264 Clear 10 1017 65 10000 1 20 23:40 03.04.2020
265 Clear 10 1016 61 10000 1 20 23:21 03.04.2020
266 Clear 10 1016 61 10000 1 20 22:58 03.04.2020
267 Clear 10 1016 61 10000 0.5 230 22:39 03.04.2020
268 Clear 11 1016 57 10000 1 160 22:18 03.04.2020
269 Clear 11 1015 46 10000 2.1 130 21:44 03.04.2020
270 Clear 12 1015 41 10000 2.1 130 21:24 03.04.2020
271 Clear 12 1015 41 10000 2.1 130 20:57 03.04.2020
272 Clear 13 1014 41 10000 2.6 130 20:37 03.04.2020
273 Clear 14 1014 38 10000 2.6 130 20:19 03.04.2020
274 Clear 14 1014 38 10000 2.6 130 19:57 03.04.2020
275 Clear 15 1014 38 10000 3.1 130 19:38 03.04.2020
276 Clear 15 1013 36 10000 3.1 140 19:20 03.04.2020
277 Clear 16 1013 36 10000 3.1 120 18:58 03.04.2020
278 Clear 16 1013 36 10000 3.1 120 18:40 03.04.2020
279 Clear 16 1013 36 10000 2.1 0 18:22 03.04.2020
280 Clear 16 1013 33 10000 2.6 180 17:54 03.04.2020
281 Clear 16 1013 33 10000 2.6 180 17:36 03.04.2020
282 Clear 16 1013 38 10000 1 0 17:18 03.04.2020
283 Clear 16 1013 36 10000 2.6 140 16:42 03.04.2020
284 Clear 16 1014 38 10000 1.5 0 16:21 03.04.2020
285 Clear 16 1014 38 10000 1.5 0 15:58 03.04.2020
286 Clear 16 1014 38 10000 1.5 0 15:39 03.04.2020
287 Clear 16 1014 36 10000 1.5 0 15:20 03.04.2020
288 Clear 15 1015 35 10000 1.5 0 14:55 03.04.2020
289 Clear 15 1015 35 10000 1.5 0 14:55 03.04.2020
290 Clear 15 1015 35 10000 1.5 0 14:37 03.04.2020
291 Clear 15 1015 35 10000 1.5 0 14:19 03.04.2020
292 Clear 14 1015 35 10000 1.5 0 13:42 03.04.2020
293 Clear 14 1015 38 10000 1.5 0 13:24 03.04.2020
294 Clear 14 1015 37 10000 1.5 0 12:44 03.04.2020
295 Clear 13 1015 43 10000 1.5 160 12:20 03.04.2020
296 Clear 12 1015 43 10000 1.5 160 11:57 03.04.2020
297 Clear 12 1015 43 10000 1.5 160 11:39 03.04.2020
298 Clear 11 1015 43 10000 1.5 0 11:20 03.04.2020
299 Clear 11 1015 43 10000 1.5 0 10:59 03.04.2020
300 Clear 10 1014 53 10000 2.1 140 10:38 03.04.2020
301 Clear 10 1014 43 10000 2.1 90 10:20 03.04.2020
302 Clear 9 1014 43 10000 2.1 90 09:59 03.04.2020
303 Clear 8 1014 61 10000 1.5 80 09:40 03.04.2020
304 Clear 8 1014 61 10000 1.5 80 09:40 03.04.2020
305 Clear 7 1014 61 10000 0.5 0 09:21 03.04.2020
306 Clear 6 1014 61 10000 0.5 360 08:55 03.04.2020
307 Clear 5 1014 61 10000 0.5 360 08:37 03.04.2020
308 Clear 5 1014 61 10000 0.5 360 08:37 03.04.2020
309 Clear 4 1013 61 10000 0.5 0 08:18 03.04.2020
310 Clear 3 1013 74 10000 0.5 350 07:46 03.04.2020
311 Clear 3 1013 80 10000 0.5 10 07:27 03.04.2020
312 Clear 3 1013 61 10000 0.5 0 06:40 03.04.2020
313 Clear 3 1012 80 10000 0.5 10 06:21 03.04.2020
314 Clear 3 1012 80 10000 0.5 340 05:34 03.04.2020
315 Clear 4 1012 61 10000 0.5 50 03:40 03.04.2020
316 Clear 4 1012 58 10000 0.5 0 02:55 03.04.2020
317 Clear 5 1012 57 10000 0.5 10 01:53 03.04.2020
318 Clear 6 1012 65 10000 1 10 01:18 03.04.2020
319 Clear 6 1012 57 10000 0.5 10 00:34 03.04.2020
320 Clear 6 1012 65 10000 0.5 40 23:57 02.04.2020
321 Clear 6 1012 53 10000 0.77 146 23:39 02.04.2020
322 Clear 7 1012 53 10000 0.5 0 23:19 02.04.2020
323 Clear 7 1012 53 10000 0.5 0 23:19 02.04.2020
324 Clear 7 1012 60 10000 0.5 180 22:43 02.04.2020
325 Clear 8 1012 60 10000 0.5 180 22:25 02.04.2020
326 Clear 8 1012 53 10000 0.5 190 21:59 02.04.2020
327 Clear 8 1012 56 10000 0.5 0 21:38 02.04.2020
328 Clear 9 1012 45 10000 0.5 0 21:19 02.04.2020
329 Clear 9 1012 37 10000 1 180 20:55 02.04.2020
330 Clear 10 1012 37 10000 1 180 20:37 02.04.2020
331 Clear 10 1012 37 10000 1.5 180 20:18 02.04.2020
332 Clear 11 1012 34 10000 1.5 170 19:42 02.04.2020
333 Clear 12 1012 35 10000 1.5 160 19:20 02.04.2020
334 Clear 12 1012 35 10000 1.5 160 18:56 02.04.2020
335 Clear 13 1012 32 10000 1 0 18:38 02.04.2020
336 Clear 13 1012 32 10000 2.1 200 18:19 02.04.2020
337 Clear 13 1012 35 10000 1.5 0 17:44 02.04.2020
338 Clear 13 1012 35 10000 1.5 0 17:26 02.04.2020
339 Clear 13 1013 35 10000 1.5 0 16:59 02.04.2020
340 Clear 13 1013 32 10000 1.5 0 16:40 02.04.2020
341 Clear 13 1013 32 10000 1.5 0 16:22 02.04.2020
342 Clear 13 1013 32 10000 1.5 220 15:57 02.04.2020
343 Clear 12 1014 37 10000 2.6 210 15:39 02.04.2020
344 Clear 12 1014 37 10000 1 0 15:19 02.04.2020
345 Clear 12 1014 37 10000 1 0 14:57 02.04.2020
346 Clear 12 1014 37 10000 2.1 160 14:38 02.04.2020
347 Clear 12 1015 40 10000 1.5 80 14:18 02.04.2020
348 Clear 11 1015 43 10000 1.5 0 13:55 02.04.2020
349 Clear 11 1015 43 10000 1.5 0 13:37 02.04.2020
350 Clear 11 1016 40 10000 2.1 280 13:18 02.04.2020
351 Clear 10 1016 43 10000 2.1 0 12:45 02.04.2020
352 Clear 10 1016 48 10000 1.5 0 12:19 02.04.2020
353 Clear 9 1016 49 10000 1 0 11:58 02.04.2020
354 Clear 9 1016 49 10000 1 0 11:58 02.04.2020
355 Clear 9 1016 49 10000 1 0 11:39 02.04.2020
356 Clear 9 1016 49 10000 1 0 11:20 02.04.2020
357 Clear 9 1016 49 10000 1 0 11:20 02.04.2020
358 Clear 8 1016 49 10000 1 0 10:56 02.04.2020
359 Clear 8 1016 48 10000 1.5 140 10:38 02.04.2020
360 Clear 8 1016 48 10000 1.5 140 10:38 02.04.2020
361 Clear 7 1016 48 10000 1 0 10:20 02.04.2020
362 Clear 7 1016 48 10000 1 0 09:58 02.04.2020
363 Clear 6 1016 48 10000 0.5 0 09:39 02.04.2020
364 Clear 5 1016 67 10000 0.94 209 09:20 02.04.2020
365 Clear 4 1016 80 10000 0.5 0 08:47 02.04.2020
366 Clear 3 1016 80 10000 0.5 0 08:27 02.04.2020
367 Clear 1 1016 67 10000 0.5 260 07:47 02.04.2020
368 Clear 1 1015 92 10000 2.1 10 07:22 02.04.2020
369 Clear 1 1016 92 10000 1.5 20 06:59 02.04.2020
370 Clear 1 1016 86 10000 2.6 20 06:23 02.04.2020
371 Clear 2 1016 86 10000 2.6 20 05:45 02.04.2020
372 Clear 2 1016 86 10000 2.6 20 04:47 02.04.2020
373 Clear 3 1017 86 10000 2.1 20 02:18 02.04.2020
374 Clear 3 1018 86 10000 1.5 30 00:54 02.04.2020
375 Clear 3 1018 63 10000 1.5 10 00:31 02.04.2020
376 Clear 4 1019 60 10000 0.5 190 23:59 01.04.2020
377 Clear 4 1019 60 10000 0.5 190 23:37 01.04.2020
378 Clear 5 1019 60 10000 0.5 190 23:18 01.04.2020
379 Clear 5 1018 60 10000 0.5 200 22:41 01.04.2020
380 Clear 5 1018 56 10000 1 210 22:22 01.04.2020
381 Clear 6 1018 56 10000 1 210 21:58 01.04.2020
382 Clear 6 1018 56 10000 1 210 21:58 01.04.2020
383 Clear 6 1018 56 10000 2.1 160 21:39 01.04.2020
384 Clear 6 1018 48 10000 2.6 150 21:19 01.04.2020
385 Clear 6 1018 48 10000 2.6 150 21:19 01.04.2020
386 Clear 7 1018 48 10000 2.6 150 20:55 01.04.2020
387 Clear 7 1018 48 10000 2.1 160 20:37 01.04.2020
388 Clear 7 1018 45 10000 2.1 130 20:18 01.04.2020
389 Clear 8 1018 45 10000 2.1 170 19:43 01.04.2020
390 Clear 9 1018 39 10000 2.1 120 19:22 01.04.2020
391 Clear 9 1018 39 10000 2.1 120 18:59 01.04.2020
392 Clear 9 1018 39 10000 2.1 120 18:59 01.04.2020
393 Clear 9 1018 39 10000 2.1 120 18:59 01.04.2020
394 Clear 9 1018 39 10000 2.1 120 18:59 01.04.2020
395 Clear 9 1018 39 10000 2.6 90 18:40 01.04.2020
396 Clouds 10 1019 37 10000 1.5 80 18:21 01.04.2020
397 Clouds 10 1019 39 10000 2.1 30 17:56 01.04.2020
398 Clouds 10 1019 37 10000 1.5 80 17:56 01.04.2020
399 Clouds 10 1019 39 10000 2.1 30 17:36 01.04.2020
400 Clouds 10 1019 39 10000 2.1 80 17:18 01.04.2020
401 Clouds 10 1019 39 10000 1 0 16:43 01.04.2020
402 Clouds 10 1019 39 10000 1 0 16:43 01.04.2020
403 Clouds 10 1019 39 10000 1 0 16:25 01.04.2020
404 Clouds 9 1020 39 10000 3.6 110 15:59 01.04.2020
405 Clouds 9 1020 42 10000 2.1 100 15:41 01.04.2020
406 Clouds 9 1021 42 10000 2.1 0 15:22 01.04.2020
407 Clouds 9 1021 42 10000 3.6 0 14:58 01.04.2020
408 Clouds 9 1021 42 10000 3.6 0 14:39 01.04.2020
409 Clouds 9 1021 42 10000 3.1 90 14:20 01.04.2020
410 Clouds 9 1021 42 10000 3.1 90 13:58 01.04.2020
411 Clouds 9 1022 39 10000 3.1 100 13:38 01.04.2020
412 Clouds 8 1022 39 10000 2.1 180 13:19 01.04.2020
413 Clouds 8 1022 42 10000 3.6 110 12:56 01.04.2020
414 Clouds 8 1022 42 10000 3.6 110 12:36 01.04.2020
415 Clouds 8 1023 42 10000 3.6 140 12:18 01.04.2020
416 Clouds 7 1023 42 10000 3.1 140 11:44 01.04.2020
417 Clouds 7 1023 45 10000 2.6 130 11:24 01.04.2020
418 Clouds 6 1023 45 10000 3.1 120 10:59 01.04.2020
419 Clouds 6 1023 45 10000 3.1 120 10:38 01.04.2020
420 Clouds 6 1023 52 10000 2.6 120 10:19 01.04.2020
421 Clouds 6 1023 52 10000 2.6 120 09:57 01.04.2020
422 Clouds 6 1023 52 10000 2.6 120 09:57 01.04.2020
423 Clouds 5 1023 60 10000 2.6 140 09:38 01.04.2020
424 Clouds 5 1023 60 10000 2.6 120 09:18 01.04.2020
425 Clouds 4 1023 65 10000 2.6 120 08:40 01.04.2020
426 Clouds 4 1023 66 10000 2.1 110 08:18 01.04.2020
427 Clouds 4 1023 66 10000 1.5 100 07:43 01.04.2020
428 Clouds 4 1023 66 10000 2.1 130 07:21 01.04.2020
429 Clouds 4 1022 66 10000 1 0 06:48 01.04.2020
430 Clouds 4 1023 65 10000 1.5 10 06:24 01.04.2020
431 Clouds 4 1023 65 10000 1.5 10 05:56 01.04.2020
432 Clouds 3 1023 65 10000 1 350 04:32 01.04.2020
433 Clouds 3 1023 65 10000 0.5 10 03:30 01.04.2020
434 Clouds 4 1024 74 10000 1.5 360 02:49 01.04.2020
435 Clouds 4 1024 69 10000 1.5 350 01:57 01.04.2020
436 Clouds 4 1024 69 10000 2.1 360 01:38 01.04.2020
437 Clouds 4 1024 80 10000 1.5 350 01:18 01.04.2020
438 Clouds 4 1024 80 10000 1 340 00:45 01.04.2020
439 Clouds 4 1024 80 10000 1 340 00:20 01.04.2020
440 Clouds 4 1024 64 10000 1.5 20 23:42 31.03.2020
441 Clouds 4 1023 74 10000 0.5 0 23:23 31.03.2020
442 Clouds 4 1023 74 10000 0.5 0 23:23 31.03.2020
443 Clouds 5 1023 74 10000 1 10 22:58 31.03.2020
444 Clouds 5 1023 74 10000 1 10 22:37 31.03.2020
445 Clouds 5 1023 64 10000 1 20 22:19 31.03.2020
446 Clouds 5 1023 60 10000 1 40 21:56 31.03.2020
447 Clouds 5 1023 60 10000 1 40 21:37 31.03.2020
448 Clouds 6 1022 52 10000 1.5 50 21:19 31.03.2020
449 Clouds 6 1022 48 10000 2.1 70 20:55 31.03.2020
450 Clouds 6 1021 48 10000 2.6 60 20:36 31.03.2020
451 Clouds 6 1021 48 10000 2.6 60 20:18 31.03.2020
452 Clouds 7 1021 45 10000 2.1 70 19:41 31.03.2020
453 Clouds 8 1021 45 10000 3.1 60 19:22 31.03.2020
454 Clouds 8 1021 45 10000 4.1 80 18:56 31.03.2020
455 Clouds 8 1021 45 10000 4.1 80 18:37 31.03.2020
456 Clouds 8 1021 45 10000 4.1 90 18:18 31.03.2020
457 Clouds 8 1021 45 10000 4.1 90 17:54 31.03.2020
458 Clouds 8 1021 45 10000 4.1 90 17:36 31.03.2020
459 Clouds 8 1021 45 10000 4.1 90 17:36 31.03.2020
460 Clouds 8 1021 39 10000 4.1 80 17:18 31.03.2020
461 Clouds 8 1022 42 10000 3.6 120 16:39 31.03.2020
462 Clouds 8 1022 42 10000 3.6 100 16:19 31.03.2020
463 Clouds 8 1022 42 10000 3.6 100 15:57 31.03.2020
464 Clouds 8 1022 45 10000 3.6 90 15:39 31.03.2020
465 Clouds 8 1023 45 10000 3.6 90 15:20 31.03.2020
466 Clouds 8 1023 45 10000 4.6 100 14:57 31.03.2020
467 Clouds 7 1023 45 10000 4.6 100 14:38 31.03.2020
468 Clouds 7 1023 49 10000 5.1 130 14:20 31.03.2020
469 Clouds 7 1023 45 10000 5.7 130 13:42 31.03.2020
470 Clouds 6 1023 48 10000 5.1 100 13:19 31.03.2020
471 Clouds 6 1023 48 10000 5.1 100 12:55 31.03.2020
472 Clouds 6 1023 52 10000 5.7 100 12:37 31.03.2020
473 Clouds 6 1023 55 10000 4.1 90 12:18 31.03.2020
474 Clouds 5 1023 55 10000 4.1 100 11:39 31.03.2020
475 Clouds 5 1023 70 10000 3.6 90 11:20 31.03.2020
476 Clouds 5 1022 75 10000 3.6 90 10:58 31.03.2020
477 Clouds 5 1022 75 10000 3.6 90 10:39 31.03.2020
478 Clouds 5 1022 75 10000 3.6 90 10:21 31.03.2020
479 Clouds 4 1022 80 10000 3.1 70 09:56 31.03.2020
480 Clouds 4 1022 80 10000 3.1 70 09:37 31.03.2020
481 Clouds 4 1022 80 10000 3.1 70 09:37 31.03.2020
482 Clouds 4 1022 80 10000 3.1 70 09:37 31.03.2020
483 Clouds 4 1022 80 10000 2.6 70 09:19 31.03.2020
484 Clouds 4 1021 80 10000 2.6 80 08:55 31.03.2020
485 Clouds 4 1021 80 10000 2.6 80 08:37 31.03.2020
486 Clouds 4 1021 86 10000 3.6 70 08:18 31.03.2020
487 Clouds 4 1021 86 10000 3.6 70 08:18 31.03.2020
488 Clouds 4 1021 86 10000 3.6 80 07:44 31.03.2020
489 Clouds 4 1021 86 10000 3.6 80 07:44 31.03.2020
490 Snow 4 1021 86 10000 4.1 80 07:25 31.03.2020
491 Snow 4 1020 86 10000 5.1 90 06:59 31.03.2020
492 Snow 4 1020 86 10000 5.1 90 06:41 31.03.2020
493 Rain 4 1020 93 10000 5.7 110 05:44 31.03.2020
494 Rain 4 1020 93 10000 5.7 120 05:24 31.03.2020
495 Drizzle 5 1020 86 10000 6.2 130 02:56 31.03.2020
496 Rain 6 1019 87 10000 8.7 130 01:47 31.03.2020
497 Rain 6 1019 93 10000 7.2 120 01:22 31.03.2020
498 Rain 6 1018 87 10000 7.7 120 00:43 31.03.2020
499 Rain 7 1018 81 10000 8.2 120 00:23 31.03.2020
500 Drizzle 7 1017 75 10000 8.2 120 23:40 30.03.2020
501 Rain 8 1017 66 10000 6.7 110 23:20 30.03.2020
502 Rain 8 1017 66 10000 6.7 110 23:20 30.03.2020
503 Rain 8 1017 66 10000 6.7 110 22:58 30.03.2020
504 Rain 8 1016 66 10000 6.2 120 22:38 30.03.2020
505 Rain 9 1016 66 10000 5.1 110 22:19 30.03.2020
506 Rain 9 1015 66 10000 5.1 100 21:57 30.03.2020
507 Rain 9 1015 66 10000 5.1 100 21:38 30.03.2020
508 Rain 9 1015 62 10000 4.6 110 21:20 30.03.2020
509 Rain 9 1015 62 10000 4.6 110 20:58 30.03.2020
510 Rain 9 1014 62 10000 5.1 120 20:38 30.03.2020
511 Rain 9 1014 66 10000 3.1 110 20:19 30.03.2020
512 Rain 10 1014 66 10000 3.6 120 19:42 30.03.2020
513 Rain 10 1014 66 10000 3.6 120 19:23 30.03.2020
514 Rain 10 1014 62 10000 4.6 110 18:59 30.03.2020
515 Rain 10 1013 62 10000 4.6 130 18:41 30.03.2020
516 Rain 10 1013 62 10000 3.6 100 18:22 30.03.2020
517 Rain 10 1013 62 10000 3.6 100 17:57 30.03.2020
518 Rain 10 1013 62 10000 4.1 110 17:39 30.03.2020
519 Rain 10 1013 62 10000 4.1 110 17:39 30.03.2020
520 Clouds 10 1013 54 10000 4.1 110 17:19 30.03.2020
521 Clouds 10 1013 54 10000 4.1 110 16:57 30.03.2020
522 Rain 10 1013 54 10000 4.1 90 16:38 30.03.2020
523 Clouds 10 1013 51 10000 5.7 110 16:20 30.03.2020
524 Clouds 10 1013 51 10000 6.2 110 15:55 30.03.2020
525 Clouds 10 1013 51 10000 6.2 110 15:36 30.03.2020
526 Clouds 11 1013 51 10000 5.7 120 15:18 30.03.2020
527 Clouds 10 1013 51 10000 5.7 120 14:54 30.03.2020
528 Clouds 11 1013 54 10000 6.7 110 14:36 30.03.2020
529 Clouds 11 1013 54 10000 6.2 120 14:18 30.03.2020
530 Clouds 11 1014 54 10000 6.7 130 13:43 30.03.2020
531 Clouds 11 1014 58 10000 6.2 110 13:21 30.03.2020
532 Clouds 12 1014 58 10000 6.2 110 12:57 30.03.2020
533 Clouds 12 1014 58 10000 6.2 110 12:38 30.03.2020
534 Clouds 12 1014 58 10000 6.2 110 12:38 30.03.2020
535 Clouds 12 1014 62 10000 6.7 110 12:19 30.03.2020
536 Clouds 12 1014 62 10000 5.1 140 11:56 30.03.2020
537 Clouds 12 1014 62 10000 5.1 140 11:38 30.03.2020
538 Clouds 12 1014 66 10000 4.6 130 11:20 30.03.2020
539 Clouds 12 1014 67 10000 2.6 140 10:39 30.03.2020
540 Clouds 11 1013 76 10000 2.1 90 10:21 30.03.2020
541 Clouds 11 1013 76 10000 2.1 90 09:55 30.03.2020
542 Clouds 11 1013 76 10000 2.1 50 09:37 30.03.2020
543 Rain 11 1013 76 10000 1 0 09:18 30.03.2020
544 Clouds 10 1012 76 10000 1.5 60 08:40 30.03.2020
545 Clouds 10 1012 81 10000 2.1 50 08:22 30.03.2020
546 Clouds 9 1012 87 10000 1.5 50 07:49 30.03.2020
547 Rain 9 1012 87 10000 1.5 70 07:26 30.03.2020
548 Rain 9 1011 87 10000 2.1 30 06:54 30.03.2020
549 Rain 10 1011 87 10000 2.1 30 06:31 30.03.2020
550 Clouds 10 1011 87 10000 2.6 20 05:52 30.03.2020
551 Clouds 10 1012 87 10000 2.1 350 05:18 30.03.2020
552 Clouds 10 1011 87 10000 1.5 330 04:22 30.03.2020
553 Clouds 10 1011 87 10000 3.1 10 03:34 30.03.2020
554 Rain 11 1011 81 10000 3.1 360 02:37 30.03.2020
555 Rain 11 1011 81 10000 2.1 350 01:26 30.03.2020
556 Rain 12 1011 71 10000 4.6 70 00:33 30.03.2020
557 Rain 13 1011 58 10000 2.1 300 23:59 29.03.2020
558 Rain 13 1011 58 10000 2.1 300 23:41 29.03.2020
559 Clouds 13 1011 54 10000 3.1 70 23:22 29.03.2020
560 Clouds 13 1011 54 10000 3.1 70 22:56 29.03.2020
561 Clouds 13 1010 54 10000 2.6 60 22:37 29.03.2020
562 Clouds 13 1010 54 10000 2.1 50 22:18 29.03.2020
563 Clouds 14 1010 51 10000 3.6 50 21:40 29.03.2020
564 Clouds 14 1010 51 10000 3.6 70 21:21 29.03.2020
565 Clouds 14 1010 51 10000 3.6 70 20:56 29.03.2020
566 Clouds 14 1010 51 10000 3.6 70 20:38 29.03.2020
567 Clouds 15 1010 51 10000 3.1 60 20:19 29.03.2020
568 Clouds 15 1010 51 10000 3.1 60 19:59 29.03.2020
569 Clouds 15 1010 48 10000 3.6 60 19:41 29.03.2020
570 Clouds 16 1010 36 10000 2.6 80 19:23 29.03.2020
571 Clouds 16 1010 39 10000 2.6 90 18:57 29.03.2020
572 Clouds 17 1010 39 10000 2.6 90 18:38 29.03.2020
573 Clouds 17 1010 42 10000 2.6 150 18:20 29.03.2020
574 Clouds 17 1010 37 10000 3.1 120 17:56 29.03.2020
575 Clouds 17 1010 37 10000 3.1 120 17:38 29.03.2020
576 Clouds 17 1010 39 10000 2.1 140 17:19 29.03.2020
577 Clouds 18 1010 39 10000 2.1 140 16:56 29.03.2020
578 Clouds 18 1010 39 10000 2.6 0 16:38 29.03.2020
579 Clouds 17 1010 42 10000 2.1 0 16:19 29.03.2020
580 Clouds 18 1011 45 10000 2.6 190 15:42 29.03.2020
581 Clouds 18 1011 42 10000 2.1 180 15:24 29.03.2020
582 Clouds 17 1011 42 10000 2.1 180 14:58 29.03.2020
583 Clouds 18 1011 48 10000 2.6 190 14:40 29.03.2020
584 Clouds 17 1012 48 10000 3.1 130 14:20 29.03.2020
585 Clouds 17 1012 48 10000 2.6 100 13:58 29.03.2020
586 Clouds 17 1012 48 10000 2.6 100 13:39 29.03.2020
587 Clouds 16 1012 51 10000 1 0 13:20 29.03.2020
588 Clouds 16 1012 51 10000 1 0 12:55 29.03.2020
589 Clouds 16 1013 51 10000 1 0 12:37 29.03.2020
590 Clouds 16 1013 51 10000 1 0 12:19 29.03.2020
591 Clouds 15 1013 55 10000 1.5 170 11:55 29.03.2020
592 Clouds 15 1013 55 10000 1.5 170 11:36 29.03.2020
593 Clouds 14 1013 54 10000 1 0 11:18 29.03.2020
594 Clouds 14 1013 58 10000 0.5 0 10:38 29.03.2020
595 Clouds 13 1013 62 10000 0.5 0 10:18 29.03.2020
596 Clouds 13 1013 62 10000 0.5 0 10:18 29.03.2020
597 Clouds 11 1013 66 10000 0.5 0 09:41 29.03.2020
598 Clouds 11 1013 66 10000 0.5 0 09:41 29.03.2020
599 Clouds 11 1013 71 10000 0.5 0 09:20 29.03.2020
600 Clouds 10 1013 71 10000 0.5 0 08:54 29.03.2020
601 Clouds 10 1013 71 10000 0.5 0 08:54 29.03.2020
602 Clouds 10 1013 81 10000 1 0 08:30 29.03.2020
603 Clouds 9 1013 81 10000 1 0 07:59 29.03.2020
604 Clouds 9 1013 87 10000 1 260 07:41 29.03.2020
605 Clouds 9 1012 81 10000 2.1 150 07:20 29.03.2020
606 Clouds 9 1013 81 10000 1 360 05:41 29.03.2020
607 Clouds 9 1013 81 10000 0.5 350 03:58 29.03.2020
608 Clouds 9 1013 81 10000 0.5 0 03:28 29.03.2020
609 Clouds 9 1014 76 10000 1 350 01:51 29.03.2020
610 Clouds 10 1014 81 10000 1.5 10 01:23 29.03.2020
611 Clouds 10 1013 75 10000 1.5 360 00:55 29.03.2020
612 Clouds 10 1013 75 10000 1.5 360 00:31 29.03.2020
613 Clouds 11 1013 75 10000 2.1 20 23:43 28.03.2020
614 Clouds 11 1013 75 10000 2.1 20 23:43 28.03.2020
615 Clouds 11 1013 76 10000 0.5 0 23:24 28.03.2020
616 Clouds 11 1013 71 10000 0.5 0 22:58 28.03.2020
617 Clouds 11 1013 71 10000 0.5 0 22:38 28.03.2020
618 Clouds 11 1013 71 10000 0.5 0 22:20 28.03.2020
619 Clouds 12 1013 66 10000 1 20 21:43 28.03.2020
620 Clouds 12 1013 66 10000 0.5 0 21:24 28.03.2020
621 Clouds 13 1013 62 10000 0.5 0 20:59 28.03.2020
622 Clear 13 1013 62 10000 0.5 0 20:41 28.03.2020
623 Clouds 13 1013 58 10000 0.5 190 20:23 28.03.2020
624 Clouds 14 1013 47 10000 1.5 180 19:57 28.03.2020
625 Clouds 14 1013 47 10000 1.5 180 19:38 28.03.2020
626 Clouds 15 1012 44 10000 1.5 180 19:20 28.03.2020
627 Clouds 16 1012 48 10000 1.5 180 18:56 28.03.2020
628 Clouds 16 1012 48 10000 1.5 180 18:38 28.03.2020
629 Clouds 16 1012 48 10000 1.5 180 18:38 28.03.2020
630 Clouds 17 1012 45 10000 1.5 0 18:19 28.03.2020
631 Clouds 18 1012 39 10000 2.1 200 17:38 28.03.2020
632 Clouds 18 1012 37 10000 1.5 0 17:20 28.03.2020
633 Clouds 18 1012 37 10000 1.5 270 16:42 28.03.2020
634 Clouds 18 1013 39 10000 1.5 160 16:20 28.03.2020
635 Clouds 18 1013 39 10000 1.5 160 15:57 28.03.2020
636 Clouds 18 1013 39 10000 2.6 220 15:39 28.03.2020
637 Clouds 18 1013 39 10000 1.5 0 15:19 28.03.2020
638 Clouds 18 1014 36 10000 2.1 0 14:43 28.03.2020
639 Clouds 18 1014 42 10000 2.1 0 14:23 28.03.2020
640 Clouds 18 1014 42 10000 2.1 0 13:57 28.03.2020
641 Clouds 17 1014 45 10000 2.1 0 13:37 28.03.2020
642 Clouds 17 1015 42 10000 1.5 0 13:18 28.03.2020
643 Clouds 17 1015 48 10000 3.1 0 12:38 28.03.2020
644 Clouds 16 1015 44 10000 2.6 250 12:19 28.03.2020
645 Clouds 16 1015 44 10000 1.5 240 11:42 28.03.2020
646 Clouds 16 1015 44 10000 1.5 240 11:42 28.03.2020
647 Clear 15 1016 51 10000 1.5 0 11:21 28.03.2020
648 Clear 15 1016 58 10000 1.5 210 10:44 28.03.2020
649 Clear 14 1016 58 10000 1 0 10:25 28.03.2020
650 Clear 14 1016 58 10000 1 0 09:59 28.03.2020
651 Clear 13 1016 66 10000 1.5 250 09:40 28.03.2020
652 Clear 12 1016 71 10000 1 0 09:21 28.03.2020
653 Clear 11 1016 71 10000 1 0 08:43 28.03.2020
654 Clouds 10 1016 81 10000 1 0 08:24 28.03.2020
655 Clouds 9 1016 81 10000 1 0 07:53 28.03.2020
656 Clouds 8 1016 81 10000 1.5 250 07:35 28.03.2020
657 Clouds 7 1016 81 10000 2.1 260 06:52 28.03.2020
658 Clouds 8 1016 76 10000 1.5 240 06:23 28.03.2020
659 Clouds 8 1016 76 10000 1 0 05:30 28.03.2020
660 Clouds 8 1016 81 10000 1 210 04:53 28.03.2020
661 Clouds 8 1016 81 10000 1 210 04:35 28.03.2020
662 Clouds 9 1017 71 10000 2.1 350 02:51 28.03.2020
663 Clouds 9 1018 71 10000 2.1 360 01:47 28.03.2020
664 Clouds 9 1018 71 10000 1.5 350 01:23 28.03.2020
665 Clouds 9 1018 66 10000 2.6 340 00:49 28.03.2020
666 Clouds 9 1018 71 10000 2.1 340 00:24 28.03.2020
667 Clouds 9 1018 81 10000 0.5 0 23:44 27.03.2020
668 Clouds 9 1018 81 10000 0.5 280 23:25 27.03.2020
669 Clouds 9 1018 81 10000 0.5 280 22:57 27.03.2020
670 Clouds 9 1018 76 10000 1 200 22:39 27.03.2020
671 Clouds 10 1018 71 10000 1 170 22:20 27.03.2020
672 Clouds 10 1018 71 10000 1 170 21:57 27.03.2020
673 Clouds 10 1018 66 10000 2.1 300 21:38 27.03.2020
674 Clouds 10 1018 66 10000 1 200 21:20 27.03.2020
675 Clouds 10 1017 62 10000 1 0 20:55 27.03.2020
676 Clouds 10 1017 62 10000 1 0 20:55 27.03.2020
677 Clouds 10 1017 62 10000 1 0 20:37 27.03.2020
678 Clouds 10 1017 62 10000 1.5 240 20:18 27.03.2020
679 Clouds 11 1017 62 10000 2.1 210 19:42 27.03.2020
680 Clouds 11 1016 54 10000 2.1 220 19:23 27.03.2020
681 Clouds 11 1016 57 10000 2.6 190 18:56 27.03.2020
682 Clouds 11 1016 57 10000 2.6 190 18:38 27.03.2020
683 Clouds 11 1016 57 10000 2.6 190 18:38 27.03.2020
684 Clouds 11 1016 58 10000 2.1 180 18:19 27.03.2020
685 Clouds 12 1016 54 10000 2.1 180 17:40 27.03.2020
686 Clouds 12 1016 58 10000 2.1 180 17:20 27.03.2020
687 Clouds 12 1016 54 10000 2.6 170 16:54 27.03.2020
688 Clouds 12 1016 54 10000 2.6 170 16:36 27.03.2020
689 Clouds 12 1016 50 10000 2.1 170 16:18 27.03.2020
690 Clouds 13 1017 50 10000 2.6 180 15:42 27.03.2020
691 Clouds 13 1017 47 10000 3.1 120 15:24 27.03.2020
692 Clouds 13 1017 50 10000 3.1 120 14:46 27.03.2020
693 Clouds 13 1017 47 10000 2.6 150 14:25 27.03.2020
694 Clouds 13 1017 47 10000 2.6 150 13:57 27.03.2020
695 Clouds 13 1017 47 10000 2.6 110 13:37 27.03.2020
696 Clouds 13 1017 43 10000 1.5 0 13:19 27.03.2020
697 Clouds 13 1017 41 10000 2.6 0 12:55 27.03.2020
698 Clouds 13 1017 41 10000 2.6 0 12:37 27.03.2020
699 Clouds 13 1017 41 10000 2.1 280 12:18 27.03.2020
700 Clouds 13 1017 41 10000 1 0 11:41 27.03.2020
701 Clouds 12 1017 46 10000 2.1 30 11:22 27.03.2020
702 Clouds 12 1017 50 10000 2.1 10 10:54 27.03.2020
703 Clouds 11 1017 50 10000 2.1 10 10:36 27.03.2020
704 Clouds 11 1017 53 10000 2.6 360 10:18 27.03.2020
705 Clouds 10 1017 53 10000 2.6 360 09:56 27.03.2020
706 Clouds 10 1016 53 10000 3.6 360 09:37 27.03.2020
707 Clouds 10 1016 57 10000 3.6 350 09:18 27.03.2020
708 Clouds 9 1016 45 10000 3.6 340 08:54 27.03.2020
709 Clouds 9 1016 45 10000 3.6 340 08:36 27.03.2020
710 Clouds 8 1016 59 10000 2.6 330 08:18 27.03.2020
711 Clouds 8 1016 59 10000 2.6 350 07:43 27.03.2020
712 Clouds 7 1016 52 10000 3.1 340 07:21 27.03.2020
713 Clouds 6 1015 56 10000 2.1 350 06:41 27.03.2020
714 Clouds 6 1017 37 0 1.79 347 06:18 27.03.2020
715 Clouds 6 1015 56 10000 2.6 330 03:42 27.03.2020
716 Clouds 6 1016 56 10000 2.1 330 02:25 27.03.2020
717 Clouds 6 1017 56 10000 2.1 350 01:21 27.03.2020
718 Clouds 6 1017 52 10000 3.1 350 00:45 27.03.2020
719 Clouds 6 1017 56 10000 3.1 340 00:20 27.03.2020
720 Clouds 6 1017 56 10000 2.1 340 23:42 26.03.2020
721 Clouds 5 1017 56 10000 1.5 340 23:19 26.03.2020
722 Clouds 5 1017 56 10000 2.1 20 22:57 26.03.2020
723 Clouds 5 1017 56 10000 2.1 20 22:36 26.03.2020
724 Clouds 5 1017 61 10000 2.1 360 22:18 26.03.2020
725 Clouds 6 1017 61 10000 1 0 21:40 26.03.2020
726 Clouds 6 1017 70 10000 1 280 21:22 26.03.2020
727 Clouds 6 1017 70 10000 1 280 20:59 26.03.2020
728 Clouds 5 1017 70 10000 1 0 20:39 26.03.2020
729 Clouds 5 1017 70 10000 1 0 20:21 26.03.2020
730 Clouds 5 1016 75 10000 2.1 190 19:58 26.03.2020
731 Clouds 6 1016 70 10000 3.1 190 19:40 26.03.2020
732 Clouds 6 1016 59 10000 2.6 210 19:21 26.03.2020
733 Clouds 6 1016 59 10000 2.6 210 18:58 26.03.2020
734 Clouds 6 1015 59 10000 2.6 220 18:40 26.03.2020
735 Clouds 6 1015 59 10000 2.6 220 18:21 26.03.2020
736 Clouds 6 1015 60 10000 2.6 200 17:44 26.03.2020
737 Clouds 6 1015 60 10000 2.6 200 17:44 26.03.2020
738 Clouds 7 1015 56 10000 2.1 200 17:20 26.03.2020
739 Clouds 7 1015 52 10000 2.1 230 16:57 26.03.2020
740 Clouds 7 1015 52 10000 2.1 230 16:38 26.03.2020
741 Clouds 7 1015 52 10000 2.1 230 16:38 26.03.2020
742 Clouds 7 1015 48 10000 2.1 180 16:19 26.03.2020
743 Clouds 7 1015 48 10000 2.6 200 15:54 26.03.2020
744 Clouds 7 1015 48 10000 2.6 200 15:36 26.03.2020
745 Clouds 7 1015 48 10000 2.6 170 15:18 26.03.2020
746 Clouds 7 1015 48 10000 2.6 170 14:42 26.03.2020
747 Clouds 7 1016 45 10000 2.1 170 14:24 26.03.2020
748 Clouds 7 1016 45 10000 2.1 190 13:54 26.03.2020
749 Clouds 7 1016 45 10000 2.1 190 13:36 26.03.2020
750 Clouds 7 1016 42 10000 1 0 13:18 26.03.2020
751 Clouds 7 1016 42 10000 1 0 12:38 26.03.2020
752 Clouds 7 1016 42 10000 1 0 12:38 26.03.2020
753 Clouds 7 1016 45 10000 0.5 0 12:20 26.03.2020
754 Clouds 6 1016 45 10000 1 0 11:46 26.03.2020
755 Clouds 6 1016 48 10000 0.5 0 11:22 26.03.2020
756 Clouds 6 1016 48 10000 1 0 10:57 26.03.2020
757 Clouds 6 1016 48 10000 1 0 10:38 26.03.2020
758 Clouds 6 1016 48 10000 0.5 0 10:19 26.03.2020
759 Clouds 5 1016 48 10000 2.1 300 09:44 26.03.2020
760 Clouds 5 1016 48 10000 2.6 330 09:21 26.03.2020
761 Clouds 5 1016 48 10000 2.6 330 08:56 26.03.2020
762 Clouds 4 1016 55 10000 0.5 0 08:37 26.03.2020
763 Clouds 3 1016 55 10000 0.5 0 08:19 26.03.2020
764 Clouds 3 1016 69 10000 1 0 07:44 26.03.2020
765 Clouds 2 1016 69 10000 1 290 07:22 26.03.2020
766 Clouds 2 1016 64 10000 1.75 286 06:56 26.03.2020
767 Clouds 3 1016 59 10000 0.5 0 05:59 26.03.2020
768 Clouds 3 1017 59 10000 1 0 04:33 26.03.2020
769 Clouds 2 1017 64 10000 1.5 30 03:44 26.03.2020
770 Clouds 2 1018 55 10000 2.1 120 02:55 26.03.2020
771 Clouds 3 1018 51 10000 2.1 120 01:50 26.03.2020
772 Clouds 3 1019 51 10000 2.1 90 00:53 26.03.2020
773 Clouds 4 1019 51 10000 3.1 120 00:20 26.03.2020
774 Clouds 4 1019 48 10000 2.6 120 23:40 25.03.2020
775 Clouds 4 1020 48 10000 3.1 110 23:20 25.03.2020
776 Clouds 4 1020 44 10000 4.1 130 22:40 25.03.2020
777 Clouds 5 1020 41 10000 4.6 120 22:21 25.03.2020
778 Clouds 5 1020 41 10000 4.6 120 21:56 25.03.2020
779 Clouds 5 1020 60 10000 1.5 80 21:37 25.03.2020
780 Clouds 5 1020 65 10000 3.1 50 21:19 25.03.2020
781 Clouds 5 1020 65 10000 3.1 50 20:55 25.03.2020
782 Clouds 6 1020 56 10000 3.6 50 20:37 25.03.2020
783 Clouds 6 1019 45 10000 3.1 80 20:18 25.03.2020
784 Clouds 6 1019 42 10000 3.1 110 19:42 25.03.2020
785 Clouds 7 1019 42 10000 3.1 90 19:22 25.03.2020
786 Clouds 6 1019 42 10000 3.1 90 18:57 25.03.2020
787 Clouds 6 1019 42 10000 3.6 90 18:38 25.03.2020
788 Rain 7 1019 42 10000 5.1 100 18:19 25.03.2020
789 Rain 7 1019 42 10000 5.7 140 17:54 25.03.2020
790 Rain 7 1019 42 10000 5.7 140 17:36 25.03.2020
791 Rain 7 1019 39 10000 5.1 110 17:18 25.03.2020
792 Clouds 8 1018 34 10000 4.6 120 16:41 25.03.2020
793 Clouds 8 1019 36 10000 3.6 120 16:22 25.03.2020
794 Clouds 8 1019 36 10000 3.6 120 15:57 25.03.2020
795 Clouds 8 1019 42 10000 2.1 0 15:37 25.03.2020
796 Clouds 8 1019 45 10000 2.6 360 15:18 25.03.2020
797 Clouds 9 1019 45 10000 2.6 360 15:18 25.03.2020
798 Clouds 7 1020 52 10000 1.5 360 14:41 25.03.2020
799 Rain 7 1020 56 10000 2.6 350 14:21 25.03.2020
800 Rain 7 1020 56 10000 2.1 140 13:46 25.03.2020
801 Rain 7 1020 56 10000 2.1 140 13:26 25.03.2020
802 Clouds 8 1020 42 10000 2.1 0 12:55 25.03.2020
803 Clouds 8 1020 45 10000 1 0 12:37 25.03.2020
804 Clouds 8 1020 45 10000 2.1 0 12:18 25.03.2020
805 Clouds 8 1021 39 10000 2.1 110 11:41 25.03.2020
806 Clouds 8 1021 39 10000 1.5 0 11:21 25.03.2020
807 Clouds 8 1021 39 10000 1.5 0 11:21 25.03.2020
808 Clouds 8 1021 39 10000 1.5 0 10:59 25.03.2020
809 Clouds 8 1021 45 10000 2.6 0 10:40 25.03.2020
810 Clouds 8 1021 49 10000 3.6 350 10:19 25.03.2020
811 Clouds 8 1021 49 10000 3.6 350 10:19 25.03.2020
812 Clouds 7 1021 49 10000 3.6 350 09:59 25.03.2020
813 Clouds 7 1022 52 10000 2.6 360 09:40 25.03.2020
814 Clouds 6 1022 56 10000 3.1 10 09:21 25.03.2020
815 Clouds 5 1021 65 10000 2.1 10 08:43 25.03.2020
816 Clouds 5 1021 65 10000 2.1 10 08:25 25.03.2020
817 Clouds 5 1021 64 10000 2.6 360 07:58 25.03.2020
818 Clouds 4 1021 64 10000 2.6 360 07:38 25.03.2020
819 Clouds 4 1022 64 10000 2.1 360 07:18 25.03.2020
820 Clouds 4 1022 69 10000 2.6 360 06:43 25.03.2020
821 Clouds 3 1022 74 10000 2.1 360 06:25 25.03.2020
822 Clouds 3 1022 74 10000 1 360 05:47 25.03.2020
823 Clouds 3 1022 69 10000 1.5 30 04:46 25.03.2020
824 Clouds 4 1023 64 10000 2.6 50 03:58 25.03.2020
825 Clouds 4 1023 64 10000 2.6 50 03:34 25.03.2020
826 Clear 4 1024 60 10000 2.1 60 01:41 25.03.2020
827 Clear 4 1024 60 10000 2.1 60 01:41 25.03.2020
828 Clear 4 1024 60 10000 2.1 60 01:41 25.03.2020
829 Clear 5 1024 52 10000 3.6 110 00:51 25.03.2020
830 Clear 5 1024 52 10000 3.6 110 00:32 25.03.2020
831 Clear 5 1024 48 10000 4.6 120 23:59 24.03.2020
832 Clear 6 1024 45 10000 6.2 140 23:40 24.03.2020
833 Clouds 6 1024 39 10000 4.6 140 23:20 24.03.2020
834 Clouds 6 1023 39 10000 5.1 140 22:55 24.03.2020
835 Clouds 6 1023 39 10000 5.1 140 22:36 24.03.2020
836 Clouds 7 1023 33 10000 5.1 130 22:18 24.03.2020
837 Clouds 8 1023 33 10000 2.6 130 21:42 24.03.2020
838 Clear 8 1023 41 10000 1.5 150 21:19 24.03.2020
839 Clear 8 1023 39 10000 1.5 160 20:59 24.03.2020
840 Clear 8 1023 39 10000 1.5 160 20:41 24.03.2020
841 Clear 8 1023 39 10000 2.1 160 20:22 24.03.2020
842 Clear 9 1022 33 10000 1.5 170 19:48 24.03.2020
843 Clear 9 1022 33 10000 1.5 170 19:48 24.03.2020
844 Clear 9 1022 33 10000 2.6 180 19:22 24.03.2020
845 Clear 9 1022 33 10000 2.6 180 18:59 24.03.2020
846 Clear 10 1022 31 10000 3.1 190 18:39 24.03.2020
847 Clear 10 1022 23 10000 2.1 220 18:20 24.03.2020
848 Clear 11 1022 23 10000 2.1 220 17:58 24.03.2020
849 Clear 11 1022 25 10000 2.6 220 17:40 24.03.2020
850 Clear 11 1022 27 10000 2.6 200 17:22 24.03.2020
851 Clear 11 1023 23 10000 2.6 240 16:56 24.03.2020
852 Clear 11 1023 23 10000 2.6 240 16:37 24.03.2020
853 Clear 11 1023 20 10000 1.5 220 16:19 24.03.2020
854 Clear 11 1023 23 10000 2.1 240 15:42 24.03.2020
855 Clear 11 1023 23 10000 2.1 240 15:24 24.03.2020
856 Clear 11 1024 23 10000 1.5 0 14:44 24.03.2020
857 Clear 11 1024 23 10000 1.5 0 14:44 24.03.2020
858 Clear 11 1024 23 10000 2.1 270 14:23 24.03.2020
859 Clear 11 1024 23 10000 2.1 270 13:59 24.03.2020
860 Clear 11 1025 25 10000 3.1 220 13:40 24.03.2020
861 Clouds 11 1025 25 10000 2.1 0 13:22 24.03.2020
862 Clouds 11 1025 31 10000 2.1 230 12:42 24.03.2020
863 Clouds 10 1025 29 10000 2.6 0 12:24 24.03.2020
864 Clouds 10 1026 34 10000 1 0 11:42 24.03.2020
865 Clouds 9 1026 36 10000 1.5 0 11:22 24.03.2020
866 Clouds 9 1026 36 10000 1.5 0 11:22 24.03.2020
867 Clouds 8 1026 34 10000 1 0 10:59 24.03.2020
868 Clouds 8 1026 34 10000 1 0 10:41 24.03.2020
869 Clouds 7 1026 45 10000 1.5 180 10:18 24.03.2020
870 Clouds 6 1026 48 10000 0.5 0 09:46 24.03.2020
871 Clouds 6 1026 48 10000 0.5 0 09:27 24.03.2020
872 Clouds 5 1026 56 10000 0.5 0 08:57 24.03.2020
873 Clouds 4 1026 60 10000 0.5 0 08:38 24.03.2020
874 Clouds 3 1026 69 10000 0.5 0 08:19 24.03.2020
875 Clouds 2 1026 74 10000 0.5 0 07:44 24.03.2020
876 Clouds 0 1026 44 10000 1 360 07:22 24.03.2020
877 Clouds 0 1026 44 10000 1 360 07:22 24.03.2020
878 Clouds 0 1026 80 10000 1 360 06:42 24.03.2020
879 Clouds 0 1026 86 10000 1 360 06:21 24.03.2020
880 Clouds 1 1026 86 10000 1.5 360 04:52 24.03.2020
881 Clouds 1 1026 38 10000 1.67 127 03:32 24.03.2020
882 Clouds 2 1027 38 10000 1 10 02:43 24.03.2020
883 Clouds 3 1027 64 10000 1.5 20 00:57 24.03.2020
884 Clouds 3 1027 69 10000 1 20 00:28 24.03.2020
885 Clouds 3 1027 74 10000 1 350 23:58 23.03.2020
886 Clouds 3 1027 74 10000 0.5 0 23:38 23.03.2020
887 Clouds 4 1027 59 10000 0.5 0 23:19 23.03.2020
888 Clouds 4 1027 64 10000 0.5 0 22:44 23.03.2020
889 Clouds 4 1027 48 10000 1.5 70 22:23 23.03.2020
890 Clouds 4 1027 48 10000 1.5 70 21:55 23.03.2020
891 Clouds 4 1026 48 10000 1.5 20 21:37 23.03.2020
892 Clouds 4 1026 59 10000 2.6 10 21:18 23.03.2020
893 Clouds 4 1026 59 10000 2.6 10 21:18 23.03.2020
894 Clouds 4 1026 59 10000 2.1 360 20:44 23.03.2020
895 Clouds 4 1026 59 10000 2.1 360 20:26 23.03.2020
896 Clouds 4 1026 55 10000 2.1 40 19:59 23.03.2020
897 Clouds 5 1026 45 10000 2.1 70 19:41 23.03.2020
898 Clouds 5 1026 45 10000 2.1 60 19:22 23.03.2020
899 Clouds 5 1025 45 10000 2.6 90 18:54 23.03.2020
900 Clouds 5 1025 45 10000 2.6 90 18:36 23.03.2020
901 Clouds 6 1025 48 10000 2.1 70 18:18 23.03.2020
902 Clouds 6 1026 48 10000 2.1 50 17:41 23.03.2020
903 Clouds 6 1026 48 10000 1.5 0 17:20 23.03.2020
904 Clouds 6 1026 45 10000 2.1 80 16:44 23.03.2020
905 Clouds 6 1026 45 10000 2.1 80 16:25 23.03.2020
906 Clouds 6 1026 42 10000 1.5 0 15:59 23.03.2020
907 Clouds 6 1027 42 10000 1 0 15:39 23.03.2020
908 Clouds 6 1027 42 10000 1.5 80 15:18 23.03.2020
909 Clouds 6 1028 45 10000 2.6 80 14:37 23.03.2020
910 Clouds 6 1028 45 10000 2.6 80 14:37 23.03.2020
911 Clouds 6 1028 45 10000 2.6 0 14:19 23.03.2020
912 Clouds 6 1028 45 10000 2.6 110 13:57 23.03.2020
913 Clouds 6 1028 45 10000 2.6 110 13:38 23.03.2020
914 Clouds 6 1028 45 10000 2.6 110 13:38 23.03.2020
915 Clouds 5 1029 45 10000 4.6 120 13:20 23.03.2020
916 Clouds 5 1029 45 10000 5.7 120 12:43 23.03.2020
917 Clouds 5 1029 41 10000 6.7 110 12:23 23.03.2020
918 Clouds 5 1029 41 10000 6.7 120 11:56 23.03.2020
919 Clouds 5 1029 41 10000 6.7 120 11:37 23.03.2020
920 Clouds 5 1029 45 10000 7.7 120 11:19 23.03.2020
921 Clouds 5 1029 45 10000 7.2 120 10:42 23.03.2020
922 Clouds 4 1029 48 10000 8.7 120 10:23 23.03.2020
923 Clouds 4 1029 48 10000 8.7 120 09:59 23.03.2020
924 Clouds 4 1029 48 10000 8.2 110 09:41 23.03.2020
925 Clouds 4 1028 44 10000 8.7 110 09:19 23.03.2020
926 Clouds 4 1028 44 10000 7.2 110 08:38 23.03.2020
927 Clouds 4 1028 44 10000 7.7 110 08:20 23.03.2020
928 Clouds 4 1027 44 10000 6.7 100 07:52 23.03.2020
929 Clouds 4 1027 44 10000 6.7 100 07:33 23.03.2020
930 Clouds 5 1027 48 10000 6.7 100 06:56 23.03.2020
931 Clouds 5 1027 48 10000 6.7 100 06:34 23.03.2020
932 Clouds 5 1026 45 10000 6.2 100 05:44 23.03.2020
933 Snow 6 1025 45 10000 7.7 110 03:54 23.03.2020
934 Snow 7 1025 42 10000 8.2 110 02:45 23.03.2020
935 Clouds 8 1024 42 10000 8.7 120 01:50 23.03.2020
936 Clouds 9 1024 43 10000 6.2 110 00:46 23.03.2020
937 Clouds 9 1023 46 10000 5.1 100 00:26 23.03.2020
938 Clouds 9 1023 46 10000 5.1 120 23:42 22.03.2020
939 Clouds 10 1023 40 10000 5.7 120 23:24 22.03.2020
940 Clouds 10 1022 53 10000 5.7 120 22:41 22.03.2020
941 Clouds 10 1022 57 10000 3.6 130 22:20 22.03.2020
942 Clouds 11 1021 57 10000 4.6 130 21:41 22.03.2020
943 Clouds 11 1021 54 10000 4.1 120 21:23 22.03.2020
944 Clouds 11 1021 54 10000 4.1 120 20:58 22.03.2020
945 Clouds 11 1020 58 10000 1.5 100 20:40 22.03.2020
946 Clear 11 1020 57 10000 1.5 100 20:22 22.03.2020
947 Clear 11 1020 57 10000 1.5 100 19:56 22.03.2020
948 Clear 11 1019 54 10000 2.1 100 19:38 22.03.2020
949 Clear 11 1019 54 10000 2.1 110 19:19 22.03.2020
950 Clear 11 1019 54 10000 2.1 110 18:57 22.03.2020
951 Clear 12 1019 54 10000 2.6 100 18:39 22.03.2020
952 Clear 12 1019 54 10000 3.6 90 18:18 22.03.2020
953 Clear 13 1018 50 10000 4.1 90 17:56 22.03.2020
954 Clear 13 1018 50 10000 4.1 90 17:37 22.03.2020
955 Clear 13 1018 50 10000 4.1 80 17:19 22.03.2020
956 Clear 13 1019 50 10000 3.1 80 16:55 22.03.2020
957 Clear 13 1019 50 10000 3.1 80 16:37 22.03.2020
958 Clear 13 1019 50 10000 4.6 80 16:18 22.03.2020
959 Clear 13 1019 54 10000 4.1 70 15:39 22.03.2020
960 Clouds 13 1019 54 10000 4.1 90 14:55 22.03.2020
961 Clouds 13 1019 54 10000 4.1 80 14:37 22.03.2020
962 Clouds 12 1019 50 10000 5.1 100 14:18 22.03.2020
963 Clouds 12 1019 54 10000 5.1 80 13:41 22.03.2020
964 Clouds 12 1019 58 10000 5.1 90 13:19 22.03.2020
965 Clouds 12 1019 62 10000 5.7 110 12:47 22.03.2020
966 Clouds 11 1019 62 10000 6.2 120 12:23 22.03.2020
967 Clouds 11 1019 66 10000 5.1 110 11:58 22.03.2020
968 Clouds 11 1019 66 10000 5.1 110 11:39 22.03.2020
969 Clouds 11 1019 62 10000 4.6 100 11:21 22.03.2020
970 Clouds 10 1019 71 10000 3.6 100 10:44 22.03.2020
971 Clouds 10 1019 71 10000 3.6 100 10:24 22.03.2020
972 Clouds 10 1018 66 10000 4.1 100 10:24 22.03.2020
973 Clouds 10 1018 66 10000 4.1 100 10:00 22.03.2020
974 Clouds 10 1018 66 10000 5.1 100 09:40 22.03.2020
975 Clouds 10 1018 76 10000 4.1 110 09:19 22.03.2020
976 Clouds 10 1018 71 10000 6.7 110 08:42 22.03.2020
977 Clouds 10 1017 81 6000 5.1 100 08:24 22.03.2020
978 Drizzle 10 1017 87 3000 5.1 100 07:50 22.03.2020
979 Mist 10 1017 87 4000 4.1 80 07:22 22.03.2020
980 Mist 10 1016 87 4000 5.1 110 05:57 22.03.2020
981 Mist 10 1016 87 3600 5.1 110 05:21 22.03.2020
982 Mist 10 1015 93 4800 2.1 80 03:25 22.03.2020
983 Mist 11 1015 87 5000 2.1 80 01:26 22.03.2020
984 Mist 11 1015 87 5000 2.1 80 00:41 22.03.2020
985 Mist 11 1015 87 5000 2.6 70 00:23 22.03.2020
986 Mist 12 1015 87 5000 2.6 80 23:42 21.03.2020
987 Clouds 12 1015 81 10000 2.6 80 23:19 21.03.2020
988 Clouds 12 1014 81 10000 3.1 80 22:39 21.03.2020
989 Clouds 12 1014 81 10000 3.1 80 22:39 21.03.2020
990 Clouds 12 1014 71 10000 3.1 110 22:21 21.03.2020
991 Clouds 13 1014 71 10000 3.1 110 21:59 21.03.2020
992 Clouds 13 1014 67 10000 3.1 120 21:41 21.03.2020
993 Clouds 13 1014 62 10000 3.1 120 21:22 21.03.2020
994 Clouds 13 1014 62 10000 3.1 120 21:22 21.03.2020
995 Clouds 13 1014 62 10000 3.1 120 20:56 21.03.2020
996 Clouds 14 1014 58 10000 3.1 120 20:38 21.03.2020
997 Clear 14 1013 51 10000 2.1 120 20:18 21.03.2020
998 Clear 14 1013 48 10000 2.1 110 19:43 21.03.2020
999 Clear 15 1013 48 10000 2.1 100 19:23 21.03.2020
1000 Clear 16 1013 48 10000 2.1 100 18:55 21.03.2020
1001 Clear 16 1012 42 10000 2.6 120 18:37 21.03.2020
1002 Clear 17 1012 48 10000 1 170 18:19 21.03.2020
1003 Clear 18 1012 42 10000 2.1 160 17:43 21.03.2020
1004 Clear 18 1012 42 10000 2.1 160 17:43 21.03.2020
1005 Clear 18 1012 42 10000 2.6 170 17:24 21.03.2020
1006 Clear 18 1012 42 10000 2.6 150 16:57 21.03.2020
1007 Clear 19 1012 42 10000 2.6 150 16:39 21.03.2020
1008 Clear 19 1012 42 10000 2.1 160 16:18 21.03.2020
1009 Clear 19 1013 39 10000 0.5 0 15:43 21.03.2020
1010 Clear 19 1013 34 10000 1.5 0 15:23 21.03.2020
1011 Clear 19 1013 34 10000 1.5 0 14:58 21.03.2020
1012 Clear 19 1013 39 10000 2.6 220 14:40 21.03.2020
1013 Clear 18 1013 39 10000 2.1 270 14:20 21.03.2020
1014 Clear 18 1013 39 10000 2.1 270 13:59 21.03.2020
1015 Clear 18 1014 42 10000 2.1 0 13:40 21.03.2020
1016 Clear 18 1014 45 10000 1.5 250 13:22 21.03.2020
1017 Clear 17 1015 45 10000 1.5 0 12:59 21.03.2020
1018 Clear 17 1015 45 10000 1.5 0 12:38 21.03.2020
1019 Clear 17 1015 48 10000 2.1 180 12:19 21.03.2020
1020 Clear 17 1015 48 10000 2.1 180 12:19 21.03.2020
1021 Clear 17 1015 51 10000 1 0 11:56 21.03.2020
1022 Clear 16 1015 51 10000 1 0 11:38 21.03.2020
1023 Clear 15 1016 51 10000 0.5 0 11:19 21.03.2020
1024 Clear 15 1016 51 10000 0.5 0 11:19 21.03.2020
1025 Clear 15 1016 54 10000 1 0 10:57 21.03.2020
1026 Clear 15 1016 54 10000 1 0 10:38 21.03.2020
1027 Clear 14 1016 58 10000 1 0 10:19 21.03.2020
1028 Clear 13 1016 58 10000 0.5 0 09:55 21.03.2020
1029 Clear 13 1016 58 10000 0.5 0 09:37 21.03.2020
1030 Clear 12 1016 62 10000 0.5 0 09:18 21.03.2020
1031 Clear 11 1016 71 10000 1 150 08:43 21.03.2020
1032 Clear 10 1016 71 10000 1 150 08:24 21.03.2020
1033 Clear 8 1016 75 10000 0.5 160 07:43 21.03.2020
1034 Clear 8 1016 81 10000 1 170 07:23 21.03.2020
1035 Clear 7 1016 75 10000 0.5 0 06:47 21.03.2020
1036 Clear 7 1016 81 10000 1 0 06:27 21.03.2020
1037 Clear 8 1017 81 10000 0.5 0 05:46 21.03.2020
1038 Clear 8 1017 93 10000 0.5 0 04:46 21.03.2020
1039 Clear 9 1018 81 10000 1.5 360 02:48 21.03.2020
1040 Clear 9 1018 81 10000 1.5 360 02:30 21.03.2020
1041 Clear 9 1018 81 10000 1 270 01:32 21.03.2020
1042 Clear 10 1018 81 10000 0.5 0 00:48 21.03.2020
1043 Clear 10 1018 81 10000 0.5 0 00:25 21.03.2020
1044 Clear 11 1019 81 10000 1 320 23:49 20.03.2020
1045 Clear 11 1019 81 10000 1 320 23:26 20.03.2020
1046 Clouds 11 1019 81 10000 0.5 0 22:56 20.03.2020
1047 Clouds 11 1019 81 10000 0.5 0 22:37 20.03.2020
1048 Clouds 11 1019 71 10000 1 0 22:19 20.03.2020
1049 Clouds 12 1019 71 10000 1 0 21:54 20.03.2020
1050 Clouds 12 1019 81 10000 2.1 40 21:36 20.03.2020
1051 Clouds 12 1019 71 10000 1 170 21:18 20.03.2020
1052 Clouds 12 1019 71 10000 1 170 21:18 20.03.2020
1053 Clouds 13 1019 62 10000 1 170 20:42 20.03.2020
1054 Clouds 13 1019 62 10000 1.5 240 20:21 20.03.2020
1055 Clouds 14 1019 62 10000 1.5 260 19:59 20.03.2020
1056 Clouds 14 1019 62 10000 1.5 260 19:40 20.03.2020
1057 Clouds 15 1019 55 10000 1.5 220 19:18 20.03.2020
1058 Clouds 16 1019 55 10000 2.1 270 18:39 20.03.2020
1059 Clouds 16 1019 55 10000 2.1 270 18:39 20.03.2020
1060 Clouds 16 1019 55 10000 2.1 270 18:39 20.03.2020
1061 Clouds 16 1019 55 10000 2.1 240 18:20 20.03.2020
1062 Clouds 17 1019 55 10000 2.1 240 17:57 20.03.2020
1063 Clouds 17 1019 59 10000 2.1 190 17:39 20.03.2020
1064 Clouds 17 1019 63 10000 1.5 210 17:20 20.03.2020
1065 Clouds 17 1020 59 10000 2.1 260 16:43 20.03.2020
1066 Clouds 17 1020 59 10000 2.1 210 16:22 20.03.2020
1067 Clouds 17 1020 59 10000 2.1 210 15:59 20.03.2020
1068 Clouds 17 1020 59 10000 2.6 230 15:41 20.03.2020
1069 Clouds 17 1020 55 10000 3.6 220 15:20 20.03.2020
1070 Clouds 17 1021 48 10000 2.6 230 14:42 20.03.2020
1071 Clouds 17 1021 51 10000 1.5 160 14:21 20.03.2020
1072 Clouds 17 1021 51 10000 1.5 160 13:55 20.03.2020
1073 Clouds 17 1021 51 10000 2.1 160 13:36 20.03.2020
1074 Clouds 18 1022 59 10000 1.5 0 13:18 20.03.2020
1075 Clouds 17 1022 51 10000 2.1 140 12:39 20.03.2020
1076 Clouds 17 1022 55 10000 2.1 190 12:20 20.03.2020
1077 Clouds 17 1022 55 10000 1 0 11:42 20.03.2020
1078 Clouds 16 1023 58 10000 2.1 140 11:22 20.03.2020
1079 Clouds 16 1023 62 10000 2.1 130 10:59 20.03.2020
1080 Clouds 15 1023 62 10000 2.1 130 10:41 20.03.2020
1081 Clouds 15 1023 62 10000 2.1 130 10:20 20.03.2020
1082 Clouds 14 1023 62 10000 0.5 0 09:47 20.03.2020
1083 Clouds 14 1023 62 10000 0.5 0 09:47 20.03.2020
1084 Clouds 13 1023 71 8000 0.5 0 09:21 20.03.2020
1085 Clouds 12 1023 71 8000 0.5 0 08:59 20.03.2020
1086 Clouds 11 1023 81 8000 0.5 0 08:40 20.03.2020
1087 Clouds 10 1022 81 8000 0.5 40 08:19 20.03.2020
1088 Clouds 9 1022 81 8000 0.5 0 07:45 20.03.2020
1089 Clouds 9 1022 81 10000 0.5 0 07:26 20.03.2020
1090 Clouds 8 1022 87 10000 1 350 06:47 20.03.2020
1091 Clouds 8 1022 87 10000 1 350 06:29 20.03.2020
1092 Clear 9 1022 87 10000 1.5 10 04:49 20.03.2020
1093 Clear 9 1022 81 10000 1 10 03:18 20.03.2020
1094 Clear 10 1023 76 10000 1 10 01:51 20.03.2020
1095 Clear 10 1023 76 10000 1 350 00:46 20.03.2020
1096 Clear 11 1023 76 10000 1 350 00:24 20.03.2020
1097 Clear 11 1023 81 10000 1 340 23:42 19.03.2020
1098 Clear 11 1023 71 10000 1.5 20 23:23 19.03.2020
1099 Clear 12 1023 71 10000 1 20 22:55 19.03.2020
1100 Clear 12 1023 71 10000 1 20 22:37 19.03.2020
1101 Clear 13 1023 71 10000 1 10 22:18 19.03.2020
1102 Clear 13 1023 58 10000 1.5 30 21:40 19.03.2020
1103 Clear 13 1023 62 10000 0.5 40 21:20 19.03.2020
1104 Clear 14 1023 58 10000 0.5 0 20:55 19.03.2020
1105 Clear 13 1023 58 10000 0.5 0 20:37 19.03.2020
1106 Clear 15 1023 54 10000 1 180 20:19 19.03.2020
1107 Clear 15 1022 44 10000 1 180 19:54 19.03.2020
1108 Clear 15 1022 44 10000 1 180 19:36 19.03.2020
1109 Clear 16 1022 42 10000 1.5 170 19:18 19.03.2020
1110 Clear 17 1022 37 10000 2.1 160 18:41 19.03.2020
1111 Clear 18 1022 39 10000 2.1 170 18:22 19.03.2020
1112 Clear 19 1022 37 10000 2.6 150 17:56 19.03.2020
1113 Clear 19 1022 37 10000 2.6 150 17:37 19.03.2020
1114 Clear 20 1022 37 10000 2.6 150 17:18 19.03.2020
1115 Clear 20 1023 34 10000 2.1 190 16:43 19.03.2020
1116 Clear 20 1023 37 10000 2.1 160 16:22 19.03.2020
1117 Clear 20 1023 37 10000 1.5 180 15:44 19.03.2020
1118 Clear 20 1023 37 10000 1.5 180 15:25 19.03.2020
1119 Clear 20 1024 40 10000 1 0 14:54 19.03.2020
1120 Clear 20 1024 40 10000 1 0 14:36 19.03.2020
1121 Clear 20 1024 42 10000 1.5 180 14:18 19.03.2020
1122 Clear 20 1025 42 10000 1.5 230 13:38 19.03.2020
1123 Clear 19 1025 42 10000 1.5 0 13:18 19.03.2020
1124 Clear 19 1026 45 10000 1.5 200 12:42 19.03.2020
1125 Clear 18 1026 48 10000 1.5 250 12:24 19.03.2020
1126 Clear 18 1026 48 10000 1 0 11:58 19.03.2020
1127 Clear 18 1026 48 10000 1 0 11:40 19.03.2020
1128 Clear 17 1026 45 10000 0.5 0 11:22 19.03.2020
1129 Clear 16 1027 51 10000 0.5 0 10:43 19.03.2020
1130 Clear 15 1027 51 10000 0.5 0 10:22 19.03.2020
1131 Clear 15 1027 51 10000 0.5 0 09:58 19.03.2020
1132 Clear 14 1026 62 10000 1 0 09:39 19.03.2020
1133 Clear 13 1026 58 10000 3.1 360 09:19 19.03.2020
1134 Clear 11 1026 66 10000 0.5 0 08:46 19.03.2020
1135 Clear 10 1026 81 10000 0.5 0 08:21 19.03.2020
1136 Clear 9 1026 87 10000 0.5 0 07:47 19.03.2020
1137 Clear 8 1026 87 10000 0.5 0 07:28 19.03.2020
1138 Clear 7 1026 93 6000 0.5 0 06:49 19.03.2020
1139 Clear 7 1026 100 7000 0.5 0 05:52 19.03.2020
1140 Clear 8 1026 87 8000 0.5 0 04:59 19.03.2020
1141 Clear 8 1026 87 8000 1 350 04:40 19.03.2020
1142 Clear 9 1026 93 10000 0.5 40 02:50 19.03.2020
1143 Clear 9 1027 81 10000 1.5 360 01:25 19.03.2020
1144 Clear 10 1027 81 10000 1.5 360 00:32 19.03.2020
1145 Clear 10 1027 76 10000 1 10 23:57 18.03.2020
1146 Clear 10 1027 76 10000 1 10 23:30 18.03.2020
1147 Clear 11 1027 81 10000 0.5 0 22:58 18.03.2020
1148 Clear 11 1027 66 10000 1 10 22:39 18.03.2020
1149 Clear 11 1027 76 10000 0.5 0 22:21 18.03.2020
1150 Clear 12 1027 71 10000 1 350 21:42 18.03.2020
1151 Clear 13 1026 66 10000 1 30 21:22 18.03.2020
1152 Clear 13 1026 66 10000 1 30 20:59 18.03.2020
1153 Clear 13 1026 66 10000 1 30 20:59 18.03.2020
1154 Clear 13 1026 71 10000 0.5 0 20:40 18.03.2020
1155 Clear 13 1026 71 10000 0.5 0 20:40 18.03.2020
1156 Clear 14 1026 62 10000 0.5 0 20:20 18.03.2020
1157 Clear 14 1026 62 10000 0.5 0 19:58 18.03.2020
1158 Clear 15 1026 54 10000 0.5 0 19:39 18.03.2020
1159 Clear 15 1026 54 10000 1 160 19:20 18.03.2020
1160 Clear 17 1026 45 10000 1.5 170 18:41 18.03.2020
1161 Clear 17 1026 45 10000 1.5 170 18:21 18.03.2020
1162 Clear 17 1026 45 10000 1.5 170 18:21 18.03.2020
1163 Clear 18 1026 42 10000 2.1 180 17:59 18.03.2020
1164 Clear 18 1026 42 10000 2.1 180 17:40 18.03.2020
1165 Clear 19 1026 39 10000 2.1 160 17:21 18.03.2020
1166 Clear 19 1026 39 10000 2.1 160 16:58 18.03.2020
1167 Clear 19 1026 39 10000 1.5 170 16:39 18.03.2020
1168 Clear 19 1026 37 10000 1.5 0 16:20 18.03.2020
1169 Clear 19 1027 39 10000 2.1 100 15:45 18.03.2020
1170 Clear 19 1027 39 10000 2.1 80 15:20 18.03.2020
1171 Clear 19 1027 36 10000 2.6 60 14:45 18.03.2020
1172 Clear 19 1028 30 10000 2.1 150 14:22 18.03.2020
1173 Clear 19 1028 30 10000 2.1 150 13:59 18.03.2020
1174 Clear 18 1028 42 10000 2.1 90 13:37 18.03.2020
1175 Clear 18 1029 48 10000 1.5 140 13:19 18.03.2020
1176 Clear 17 1029 45 10000 1.5 0 12:41 18.03.2020
1177 Clear 17 1029 51 10000 1 0 12:20 18.03.2020
1178 Clear 16 1030 54 10000 1 0 11:40 18.03.2020
1179 Clear 15 1030 54 10000 0.5 0 11:21 18.03.2020
1180 Clear 15 1030 58 10000 0.5 0 10:58 18.03.2020
1181 Clear 14 1030 58 10000 0.5 0 10:39 18.03.2020
1182 Clear 14 1030 62 10000 1 0 10:20 18.03.2020
1183 Clear 13 1030 62 10000 1 0 09:56 18.03.2020
1184 Clear 12 1030 66 10000 1.5 80 09:38 18.03.2020
1185 Clear 11 1030 71 10000 1 0 09:20 18.03.2020
1186 Clear 10 1030 81 8000 1 40 08:39 18.03.2020
1187 Clear 8 1030 87 8000 1 360 08:21 18.03.2020
1188 Clear 7 1029 93 6000 1.28 96 07:49 18.03.2020
1189 Clear 7 1029 93 6000 1.28 96 07:30 18.03.2020
1190 Clear 6 1029 93 8000 0.5 0 06:50 18.03.2020
1191 Clear 6 1029 100 7000 0.5 330 06:24 18.03.2020
1192 Clear 6 1029 93 7000 0.5 360 05:35 18.03.2020
1193 Clear 6 1029 93 8000 1 350 04:27 18.03.2020
1194 Clear 7 1029 81 10000 1 10 02:49 18.03.2020
1195 Clear 8 1029 87 10000 1 350 01:48 18.03.2020
1196 Clear 8 1030 81 10000 1 10 01:27 18.03.2020
1197 Clear 8 1030 87 10000 1 350 00:26 18.03.2020
1198 Clear 9 1030 81 10000 1 10 23:57 17.03.2020
1199 Clear 9 1030 81 10000 1 10 23:37 17.03.2020
1200 Clear 9 1030 70 10000 1.5 10 23:18 17.03.2020
1201 Clear 10 1030 76 10000 1 30 22:41 17.03.2020
1202 Clear 10 1030 70 10000 1 40 22:22 17.03.2020
1203 Clear 10 1029 76 10000 0.5 30 21:40 17.03.2020
1204 Clear 10 1029 76 10000 0.5 190 21:21 17.03.2020
1205 Clear 11 1029 62 10000 1 150 20:41 17.03.2020
1206 Clear 11 1029 62 10000 1 150 20:22 17.03.2020
1207 Clear 12 1029 62 10000 1 190 19:59 17.03.2020
1208 Clear 13 1029 47 10000 1 180 19:40 17.03.2020
1209 Clear 13 1028 47 10000 1.5 170 19:18 17.03.2020
1210 Clear 14 1028 44 10000 1.5 170 18:56 17.03.2020
1211 Clear 14 1028 44 10000 1.5 170 18:37 17.03.2020
1212 Clear 14 1028 44 10000 1.5 170 18:37 17.03.2020
1213 Clear 15 1028 47 10000 2.1 180 18:19 17.03.2020
1214 Clear 16 1028 41 10000 1.5 170 17:41 17.03.2020
1215 Clear 16 1028 41 10000 1.5 170 17:41 17.03.2020
1216 Clear 16 1028 39 10000 1.5 140 17:22 17.03.2020
1217 Clear 16 1029 42 10000 2.1 160 16:55 17.03.2020
1218 Clear 17 1029 42 10000 2.1 160 16:37 17.03.2020
1219 Clear 17 1029 42 10000 1.5 150 16:18 17.03.2020
1220 Clear 17 1029 44 10000 2.1 150 15:43 17.03.2020
1221 Clear 17 1029 42 10000 1.5 0 15:21 17.03.2020
1222 Clear 16 1030 41 10000 1 0 14:43 17.03.2020
1223 Clear 16 1030 41 10000 1 0 14:43 17.03.2020
1224 Clear 16 1030 41 10000 1 0 14:21 17.03.2020
1225 Clear 16 1030 44 10000 2.1 170 13:45 17.03.2020
1226 Clear 15 1031 47 10000 1.5 180 13:27 17.03.2020
1227 Clear 15 1031 47 10000 1.5 180 12:58 17.03.2020
1228 Clear 15 1031 44 10000 1.5 180 12:40 17.03.2020
1229 Clear 15 1031 50 10000 2.1 150 12:22 17.03.2020
1230 Clear 14 1032 58 10000 2.1 110 11:46 17.03.2020
1231 Clear 14 1032 58 10000 2.1 110 11:46 17.03.2020
1232 Clear 14 1032 58 10000 1.5 0 11:28 17.03.2020
1233 Clear 13 1032 62 10000 1.5 110 10:58 17.03.2020
1234 Clear 12 1032 62 10000 1.5 110 10:38 17.03.2020
1235 Clear 12 1032 66 10000 1 0 10:20 17.03.2020
1236 Clear 11 1032 66 10000 1 0 09:55 17.03.2020
1237 Clear 11 1032 66 10000 1.5 100 09:55 17.03.2020
1238 Clear 11 1032 66 10000 1.5 100 09:36 17.03.2020
1239 Clouds 10 1031 70 10000 2.1 110 09:18 17.03.2020
1240 Clouds 9 1031 70 10000 0.5 0 08:42 17.03.2020
1241 Clouds 7 1031 86 10000 1 200 08:21 17.03.2020
1242 Clouds 5 1031 93 10000 0.5 0 07:50 17.03.2020
1243 Clouds 5 1031 100 10000 1 40 07:25 17.03.2020
1244 Clouds 5 1031 100 10000 1 40 06:56 17.03.2020
1245 Clouds 4 1030 93 8000 0.5 50 06:33 17.03.2020
1246 Clouds 5 1030 100 6000 0.79 172 05:41 17.03.2020
1247 Clear 5 1029 86 10000 0.5 60 03:36 17.03.2020
1248 Clear 6 1029 93 10000 0.5 290 02:45 17.03.2020
1249 Clear 6 1029 93 10000 0.29 225 01:41 17.03.2020
1250 Clouds 6 1030 93 10000 0.5 360 01:19 17.03.2020
1251 Clouds 7 1030 75 10000 1.5 10 00:19 17.03.2020
1252 Clouds 7 1030 75 10000 1 10 23:44 16.03.2020
1253 Clear 8 1030 75 10000 1 350 23:23 16.03.2020
1254 Clear 8 1029 70 10000 1.5 10 22:39 16.03.2020
1255 Clear 8 1029 70 10000 1 20 22:20 16.03.2020
1256 Clear 8 1029 61 10000 0.5 0 21:55 16.03.2020
1257 Clear 9 1029 61 10000 0.5 0 21:36 16.03.2020
1258 Clear 9 1028 61 10000 0.5 0 21:18 16.03.2020
1259 Clear 10 1028 61 10000 1 160 20:42 16.03.2020
1260 Clear 10 1028 61 10000 1 160 20:24 16.03.2020
1261 Clear 11 1027 54 10000 1.5 180 19:47 16.03.2020
1262 Clear 11 1027 54 10000 1.5 180 19:47 16.03.2020
1263 Clear 11 1027 54 10000 1.5 180 19:25 16.03.2020
1264 Clear 12 1027 50 10000 1.5 170 19:00 16.03.2020
1265 Clear 13 1026 50 10000 2.1 160 18:40 16.03.2020
1266 Clear 13 1026 44 10000 1.5 170 18:20 16.03.2020
1267 Clear 14 1026 44 10000 1.5 170 17:46 16.03.2020
1268 Clear 14 1026 41 10000 1 0 17:25 16.03.2020
1269 Clear 15 1026 41 10000 1.5 150 16:58 16.03.2020
1270 Clear 15 1026 41 10000 1.5 150 16:40 16.03.2020
1271 Clear 15 1026 44 10000 1.5 0 16:21 16.03.2020
1272 Clear 15 1026 41 10000 1.5 0 15:43 16.03.2020
1273 Clear 15 1026 38 10000 1 0 15:23 16.03.2020
1274 Clear 15 1026 44 10000 1.5 40 14:47 16.03.2020
1275 Clear 14 1026 44 10000 1.5 40 14:23 16.03.2020
1276 Clear 14 1027 44 10000 1.5 0 13:48 16.03.2020
1277 Clear 14 1027 41 10000 1 0 13:28 16.03.2020
1278 Clear 13 1027 41 10000 1 0 12:57 16.03.2020
1279 Clear 13 1027 43 10000 1.5 0 12:38 16.03.2020
1280 Clear 13 1027 46 10000 2.1 170 12:20 16.03.2020
1281 Clear 12 1027 50 10000 2.6 160 11:43 16.03.2020
1282 Clear 12 1027 50 10000 1.5 170 11:23 16.03.2020
1283 Clear 11 1027 62 10000 2.1 120 10:44 16.03.2020
1284 Clear 11 1027 62 10000 2.1 120 10:24 16.03.2020
1285 Clear 10 1027 66 10000 2.1 110 09:49 16.03.2020
1286 Clear 10 1027 66 10000 2.1 110 09:49 16.03.2020
1287 Clear 10 1027 66 10000 2.1 110 09:30 16.03.2020
1288 Clear 9 1027 75 10000 1.5 150 08:59 16.03.2020
1289 Clear 8 1026 75 10000 1 0 08:39 16.03.2020
1290 Clear 7 1026 86 10000 1 0 08:20 16.03.2020
1291 Clear 5 1026 93 10000 1 360 07:41 16.03.2020
1292 Clear 5 1026 100 10000 0.5 0 07:18 16.03.2020
1293 Clear 5 1025 93 10000 1 10 06:28 16.03.2020
1294 Clear 5 1025 93 10000 0.5 0 05:55 16.03.2020
1295 Clear 6 1025 86 10000 0.5 0 03:54 16.03.2020
1296 Clear 7 1025 93 10000 1 20 01:44 16.03.2020
1297 Clear 7 1025 81 10000 0.5 30 00:44 16.03.2020
1298 Clear 7 1025 87 10000 1.5 360 23:56 15.03.2020
1299 Clear 7 1025 87 10000 1.5 360 23:37 15.03.2020
1300 Clear 8 1024 81 10000 2.1 10 23:18 15.03.2020
1301 Clear 8 1024 75 10000 2.6 360 22:41 15.03.2020
1302 Clear 8 1024 87 10000 1.5 340 22:20 15.03.2020
1303 Clear 8 1024 87 10000 1.5 360 21:39 15.03.2020
1304 Clear 8 1024 87 10000 1.5 360 21:20 15.03.2020
1305 Clear 8 1024 76 10000 1 10 20:44 15.03.2020
1306 Clear 9 1024 76 10000 1.5 40 20:22 15.03.2020
1307 Clear 9 1024 76 10000 1.5 40 19:59 15.03.2020
1308 Clear 9 1024 76 10000 1.5 40 19:59 15.03.2020
1309 Clear 9 1024 70 10000 1.5 40 19:41 15.03.2020
1310 Clear 10 1024 66 10000 1.5 40 19:23 15.03.2020
1311 Clear 10 1024 66 10000 1.5 40 18:58 15.03.2020
1312 Clouds 10 1023 66 10000 3.1 30 18:39 15.03.2020
1313 Clouds 11 1023 62 10000 3.1 40 18:21 15.03.2020
1314 Clouds 11 1023 58 10000 3.1 40 17:54 15.03.2020
1315 Clouds 12 1023 58 10000 3.1 40 17:36 15.03.2020
1316 Clouds 12 1023 54 10000 2.1 80 17:18 15.03.2020
1317 Clouds 12 1024 54 10000 2.6 90 16:42 15.03.2020
1318 Clouds 12 1024 50 10000 2.1 110 16:23 15.03.2020
1319 Clouds 12 1024 50 10000 2.1 110 15:57 15.03.2020
1320 Clouds 12 1024 50 10000 2.1 70 15:38 15.03.2020
1321 Clouds 12 1024 58 10000 2.6 80 15:19 15.03.2020
1322 Clouds 12 1024 54 10000 2.1 80 14:43 15.03.2020
1323 Clouds 12 1024 54 10000 2.1 80 14:24 15.03.2020
1324 Clouds 11 1024 54 10000 2.1 80 13:57 15.03.2020
1325 Clouds 11 1025 54 10000 2.1 150 13:38 15.03.2020
1326 Clouds 11 1025 54 10000 3.6 130 13:19 15.03.2020
1327 Clouds 11 1025 50 10000 4.1 110 12:41 15.03.2020
1328 Clouds 11 1025 62 10000 2.6 100 12:23 15.03.2020
1329 Clouds 11 1026 62 10000 3.6 100 11:45 15.03.2020
1330 Clouds 11 1025 66 10000 3.6 140 11:26 15.03.2020
1331 Clouds 10 1025 66 10000 4.1 140 10:59 15.03.2020
1332 Clouds 10 1025 66 10000 4.1 140 10:41 15.03.2020
1333 Clouds 10 1025 81 10000 2.6 140 10:22 15.03.2020
1334 Clouds 10 1025 66 10000 4.1 140 10:22 15.03.2020
1335 Clouds 10 1025 76 10000 2.1 130 09:59 15.03.2020
1336 Clouds 9 1025 76 10000 2.1 130 09:38 15.03.2020
1337 Clouds 9 1025 81 10000 1 0 09:20 15.03.2020
1338 Clouds 8 1025 87 10000 0.5 0 08:41 15.03.2020
1339 Clouds 7 1025 93 10000 1 120 08:19 15.03.2020
1340 Clouds 7 1024 93 10000 0.5 0 07:49 15.03.2020
1341 Clouds 6 1024 93 10000 1.5 40 07:22 15.03.2020
1342 Clouds 6 1024 100 9000 1 0 06:44 15.03.2020
1343 Clouds 6 1024 93 10000 0.5 0 05:48 15.03.2020
1344 Clouds 6 1023 93 10000 0.5 0 04:57 15.03.2020
1345 Clouds 6 1023 93 10000 0.5 0 04:38 15.03.2020
1346 Clouds 6 1023 93 10000 0.5 10 04:20 15.03.2020
1347 Clouds 6 1023 93 9000 0.5 0 03:19 15.03.2020
1348 Clouds 6 1023 100 10000 0.5 0 02:22 15.03.2020
1349 Clouds 6 1022 93 10000 1 20 00:58 15.03.2020
1350 Clouds 6 1022 93 10000 1 20 00:40 15.03.2020
1351 Clouds 6 1022 86 10000 0.5 0 00:19 15.03.2020
1352 Clouds 7 1022 93 10000 0.5 0 23:39 14.03.2020
1353 Clouds 7 1022 86 10000 1.5 360 23:20 14.03.2020
1354 Clouds 7 1021 93 10000 0.5 300 22:55 14.03.2020
1355 Clouds 7 1021 93 10000 0.5 300 22:37 14.03.2020
1356 Clouds 7 1021 93 10000 0.5 0 22:19 14.03.2020
1357 Clouds 8 1021 93 10000 0.5 0 21:55 14.03.2020
1358 Clouds 8 1021 93 10000 0.5 0 21:55 14.03.2020
1359 Clouds 8 1021 93 10000 1 360 21:36 14.03.2020
1360 Clouds 8 1020 87 10000 1 0 21:18 14.03.2020
1361 Clouds 8 1020 75 10000 1 20 20:55 14.03.2020
1362 Clouds 8 1020 75 10000 1 20 20:37 14.03.2020
1363 Clouds 8 1020 70 10000 1.5 50 20:18 14.03.2020
1364 Clouds 9 1019 71 10000 2.1 40 19:40 14.03.2020
1365 Clouds 9 1019 71 10000 2.1 50 19:20 14.03.2020
1366 Clouds 10 1019 71 10000 2.1 50 18:40 14.03.2020
1367 Clouds 10 1019 71 10000 2.1 50 18:40 14.03.2020
1368 Clouds 10 1018 66 10000 2.1 90 18:20 14.03.2020
1369 Clouds 10 1018 71 10000 2.1 80 17:42 14.03.2020
1370 Clouds 10 1018 71 10000 2.6 80 17:21 14.03.2020
1371 Clouds 10 1018 71 10000 2.6 80 16:58 14.03.2020
1372 Clouds 10 1018 71 10000 3.6 80 16:38 14.03.2020
1373 Clouds 10 1017 71 10000 2.6 90 16:18 14.03.2020
1374 Clouds 10 1018 66 10000 2.6 80 15:28 14.03.2020
1375 Clouds 10 1018 71 10000 3.1 60 14:59 14.03.2020
1376 Clouds 10 1018 71 10000 3.1 60 14:59 14.03.2020
1377 Clouds 10 1018 71 10000 3.6 80 14:39 14.03.2020
1378 Clouds 10 1018 71 10000 4.6 70 14:20 14.03.2020
1379 Clouds 10 1018 87 10000 3.6 60 13:56 14.03.2020
1380 Clouds 10 1018 87 10000 3.6 60 13:38 14.03.2020
1381 Clouds 10 1018 81 10000 2.6 70 13:19 14.03.2020
1382 Clouds 9 1018 76 9000 3.1 90 12:44 14.03.2020
1383 Clouds 9 1018 81 10000 3.6 100 12:25 14.03.2020
1384 Rain 9 1018 81 8000 5.1 100 11:45 14.03.2020
1385 Rain 9 1018 87 6000 4.1 80 11:25 14.03.2020
1386 Rain 9 1017 81 5000 4.1 80 10:54 14.03.2020
1387 Rain 9 1017 81 5000 4.1 80 10:54 14.03.2020
1388 Rain 9 1017 81 5000 4.1 80 10:36 14.03.2020
1389 Rain 9 1017 87 7000 4.1 60 10:18 14.03.2020
1390 Rain 9 1017 81 7000 4.1 70 09:41 14.03.2020
1391 Rain 9 1017 87 5000 3.1 60 09:21 14.03.2020
1392 Rain 9 1017 87 6000 3.6 40 08:47 14.03.2020
1393 Rain 10 1017 81 7000 3.6 90 08:27 14.03.2020
1394 Rain 10 1016 71 8000 4.6 110 07:45 14.03.2020
1395 Rain 10 1016 76 10000 4.1 110 07:22 14.03.2020
1396 Rain 10 1016 81 9000 3.6 130 06:55 14.03.2020
1397 Rain 10 1016 81 9000 3.6 130 06:36 14.03.2020
1398 Mist 11 1015 87 5000 5.1 120 04:56 14.03.2020
1399 Mist 12 1016 82 4700 2.6 130 03:37 14.03.2020
1400 Mist 12 1016 82 4800 2.6 90 02:53 14.03.2020
1401 Mist 12 1016 82 5000 2.1 80 01:47 14.03.2020
1402 Rain 13 1016 76 6000 2.1 110 00:34 14.03.2020
1403 Rain 13 1016 76 0 3.1 130 23:42 13.03.2020
1404 Clouds 13 1016 82 10000 2.6 120 23:23 13.03.2020
1405 Clouds 13 1016 77 10000 2.6 130 22:45 13.03.2020
1406 Clouds 13 1016 72 10000 2.6 130 22:22 13.03.2020
1407 Clouds 13 1015 72 10000 1 0 21:41 13.03.2020
1408 Clouds 14 1015 72 10000 2.1 260 21:19 13.03.2020
1409 Clouds 14 1014 72 10000 2.1 240 20:43 13.03.2020
1410 Clouds 14 1014 67 10000 2.6 210 20:23 13.03.2020
1411 Clouds 14 1014 67 10000 2.6 210 19:58 13.03.2020
1412 Clouds 15 1014 67 10000 1 180 19:39 13.03.2020
1413 Clouds 15 1013 63 10000 1 200 19:19 13.03.2020
1414 Clouds 16 1013 63 10000 1.5 230 18:43 13.03.2020
1415 Clouds 16 1012 59 10000 1.5 230 18:23 13.03.2020
1416 Clouds 18 1012 59 10000 2.1 220 17:43 13.03.2020
1417 Clouds 18 1012 55 10000 3.1 230 17:21 13.03.2020
1418 Clouds 18 1012 55 10000 2.6 240 16:57 13.03.2020
1419 Clouds 18 1012 55 10000 2.6 240 16:38 13.03.2020
1420 Clouds 18 1013 55 10000 2.6 240 16:20 13.03.2020
1421 Clouds 18 1013 55 10000 3.1 240 15:45 13.03.2020
1422 Clouds 18 1013 55 10000 2.6 230 15:22 13.03.2020
1423 Clouds 18 1013 59 10000 3.1 250 14:58 13.03.2020
1424 Clouds 18 1013 59 10000 3.1 250 14:40 13.03.2020
1425 Clouds 18 1013 55 10000 3.1 0 14:21 13.03.2020
1426 Clouds 17 1014 59 10000 4.1 230 13:42 13.03.2020
1427 Clouds 17 1014 63 10000 3.6 250 13:24 13.03.2020
1428 Clouds 17 1014 63 10000 3.6 250 12:59 13.03.2020
1429 Clouds 16 1015 67 10000 3.6 250 12:38 13.03.2020
1430 Clouds 16 1015 67 10000 4.1 230 12:19 13.03.2020
1431 Clouds 16 1015 67 10000 4.6 250 11:55 13.03.2020
1432 Clouds 15 1015 67 10000 4.6 250 11:36 13.03.2020
1433 Clouds 15 1015 67 10000 4.6 250 11:36 13.03.2020
1434 Clouds 14 1015 72 10000 4.1 280 11:18 13.03.2020
1435 Clouds 14 1015 72 10000 4.1 270 10:42 13.03.2020
1436 Clouds 14 1015 72 10000 4.1 270 10:24 13.03.2020
1437 Clouds 13 1015 76 10000 1.5 270 09:46 13.03.2020
1438 Clouds 13 1015 76 10000 1.5 270 09:27 13.03.2020
1439 Clouds 12 1015 76 10000 1.5 260 08:56 13.03.2020
1440 Clouds 12 1015 82 10000 1.5 270 08:37 13.03.2020
1441 Clouds 11 1015 82 10000 1.5 300 08:18 13.03.2020
1442 Clouds 11 1015 82 10000 1.5 290 07:43 13.03.2020
1443 Clouds 11 1015 82 10000 1.5 300 07:22 13.03.2020
1444 Clouds 11 1015 82 10000 2.1 280 06:46 13.03.2020
1445 Clouds 11 1015 82 10000 2.1 290 06:20 13.03.2020
1446 Clouds 11 1015 82 10000 2.1 280 05:43 13.03.2020
1447 Clouds 11 1015 82 10000 2.1 250 04:39 13.03.2020
1448 Clouds 11 1015 82 10000 2.6 280 03:50 13.03.2020
1449 Clouds 12 1016 82 10000 1.5 280 01:49 13.03.2020
1450 Clouds 12 1017 82 10000 1 280 01:19 13.03.2020
1451 Clouds 12 1017 82 10000 1 0 00:56 13.03.2020
1452 Clouds 12 1017 82 10000 1 0 00:38 13.03.2020
1453 Clouds 12 1017 82 10000 2.1 260 00:18 13.03.2020
1454 Clouds 12 1017 82 10000 1.5 270 23:29 12.03.2020
1455 Clouds 12 1017 82 10000 1.5 270 22:59 12.03.2020
1456 Clouds 12 1017 82 10000 1 0 22:41 12.03.2020
1457 Clouds 12 1018 82 10000 1 0 22:23 12.03.2020
1458 Clouds 12 1018 82 10000 1 0 21:54 12.03.2020
1459 Clouds 12 1018 76 10000 1.5 250 21:54 12.03.2020
1460 Clouds 12 1018 76 10000 1.5 250 21:36 12.03.2020
1461 Clouds 12 1018 76 10000 1 0 21:18 12.03.2020
1462 Clouds 12 1018 76 10000 1.5 280 20:41 12.03.2020
1463 Clouds 12 1018 76 10000 1.5 280 20:41 12.03.2020
1464 Clouds 13 1018 76 10000 1 250 20:19 12.03.2020
1465 Clouds 13 1018 82 10000 0.5 0 19:42 12.03.2020
1466 Clouds 13 1018 76 10000 0.5 0 19:21 12.03.2020
1467 Clouds 13 1018 76 10000 0.5 0 19:21 12.03.2020
1468 Clouds 13 1018 76 10000 0.5 0 18:45 12.03.2020
1469 Clouds 13 1017 76 10000 1 20 18:25 12.03.2020
1470 Clouds 13 1017 76 10000 1 350 17:58 12.03.2020
1471 Clouds 13 1017 76 10000 1 350 17:39 12.03.2020
1472 Clouds 14 1018 67 10000 1.5 310 17:21 12.03.2020
1473 Clouds 13 1018 67 10000 1.5 310 17:21 12.03.2020
1474 Clouds 14 1018 67 10000 1.5 310 16:58 12.03.2020
1475 Clouds 14 1018 67 10000 2.1 320 16:38 12.03.2020
1476 Clouds 14 1018 67 10000 1.5 320 16:19 12.03.2020
1477 Clouds 14 1018 72 10000 2.1 290 15:45 12.03.2020
1478 Clouds 14 1018 72 10000 2.1 290 15:27 12.03.2020
1479 Clouds 14 1019 67 10000 2.6 270 14:43 12.03.2020
1480 Clouds 14 1020 72 10000 2.1 260 14:24 12.03.2020
1481 Clouds 14 1020 72 10000 2.1 260 13:57 12.03.2020
1482 Clouds 14 1020 67 10000 2.6 260 13:37 12.03.2020
1483 Clouds 13 1020 72 10000 3.1 250 13:19 12.03.2020
1484 Clouds 13 1021 71 10000 2.1 280 12:41 12.03.2020
1485 Clouds 13 1021 71 7000 1.5 260 12:22 12.03.2020
1486 Clouds 13 1021 76 6000 0.5 0 11:57 12.03.2020
1487 Clouds 12 1021 76 6000 0.5 0 11:39 12.03.2020
1488 Clouds 12 1021 81 6000 0.5 0 11:20 12.03.2020
1489 Mist 12 1021 81 5000 0.5 0 10:59 12.03.2020
1490 Mist 11 1021 81 5000 0.5 0 10:40 12.03.2020
1491 Mist 11 1021 81 5000 0.5 0 10:22 12.03.2020
1492 Mist 11 1021 81 5000 0.5 0 09:46 12.03.2020
1493 Mist 11 1021 81 5000 0.5 0 09:27 12.03.2020
1494 Mist 10 1021 93 5000 0.5 180 08:45 12.03.2020
1495 Clouds 9 1020 87 6000 0.5 0 08:20 12.03.2020
1496 Clouds 9 1020 87 6000 0.5 0 07:59 12.03.2020
1497 Mist 9 1020 87 5000 0.5 0 07:40 12.03.2020
1498 Mist 8 1020 93 5000 1.5 40 07:21 12.03.2020
1499 Mist 8 1020 93 5000 0.5 0 05:51 12.03.2020
1500 Mist 8 1020 100 4400 1.45 277 05:25 12.03.2020
1501 Clear 8 1021 87 10000 2.1 360 02:41 12.03.2020
1502 Clear 9 1021 87 10000 1.5 360 01:32 12.03.2020
1503 Clear 9 1021 87 10000 1 0 00:47 12.03.2020
1504 Clear 9 1021 87 10000 1 0 00:27 12.03.2020
1505 Clear 10 1021 76 10000 2.1 90 23:47 11.03.2020
1506 Clear 10 1021 76 10000 1.5 300 23:25 11.03.2020
1507 Clear 11 1021 76 10000 1.5 320 22:48 11.03.2020
1508 Clear 11 1021 76 10000 1 270 22:30 11.03.2020
1509 Clear 12 1021 76 10000 1 270 21:59 11.03.2020
1510 Clear 12 1020 76 10000 1.5 270 21:41 11.03.2020
1511 Clear 12 1020 67 10000 2.1 260 21:22 11.03.2020
1512 Clear 13 1020 67 10000 2.1 260 20:58 11.03.2020
1513 Clear 13 1020 71 10000 1.5 250 20:39 11.03.2020
1514 Clear 13 1019 71 10000 2.1 210 20:20 11.03.2020
1515 Clear 14 1019 67 10000 2.1 190 19:44 11.03.2020
1516 Clear 15 1018 67 10000 2.6 180 19:26 11.03.2020
1517 Clear 16 1018 67 10000 2.6 180 18:59 11.03.2020
1518 Clear 17 1018 63 10000 2.1 170 18:40 11.03.2020
1519 Clear 17 1018 55 10000 2.6 160 18:22 11.03.2020
1520 Clear 18 1017 55 10000 2.6 180 17:58 11.03.2020
1521 Clear 18 1017 55 10000 2.6 180 17:58 11.03.2020
1522 Clear 18 1017 55 10000 2.6 180 17:39 11.03.2020
1523 Clear 19 1017 45 10000 2.1 220 17:20 11.03.2020
1524 Clear 19 1017 42 10000 2.6 220 16:46 11.03.2020
1525 Clear 19 1017 42 10000 2.6 220 16:23 11.03.2020
1526 Clear 19 1017 42 10000 2.1 180 15:46 11.03.2020
1527 Clear 19 1017 42 10000 2.1 180 15:25 11.03.2020
1528 Clear 19 1017 45 10000 2.1 0 14:59 11.03.2020
1529 Clear 19 1017 45 10000 2.1 0 14:41 11.03.2020
1530 Clear 18 1018 45 10000 3.1 210 14:22 11.03.2020
1531 Clear 18 1018 45 10000 2.6 250 13:45 11.03.2020
1532 Clear 18 1018 45 10000 2.6 250 13:27 11.03.2020
1533 Clear 17 1018 48 10000 2.6 250 12:58 11.03.2020
1534 Clear 17 1018 51 10000 2.6 230 12:40 11.03.2020
1535 Clear 17 1019 54 10000 3.1 250 12:19 11.03.2020
1536 Clear 16 1019 51 10000 2.6 250 11:42 11.03.2020
1537 Clear 16 1019 51 10000 2.6 250 11:42 11.03.2020
1538 Clear 14 1019 47 10000 1.5 240 11:24 11.03.2020
1539 Clear 14 1019 47 10000 1.5 240 10:57 11.03.2020
1540 Clear 14 1019 50 10000 0.5 0 10:39 11.03.2020
1541 Clear 13 1019 54 10000 1 0 10:18 11.03.2020
1542 Clear 12 1019 54 10000 0.5 0 09:42 11.03.2020
1543 Clear 12 1018 57 10000 0.5 0 09:24 11.03.2020
1544 Clear 10 1018 66 10000 1 0 08:45 11.03.2020
1545 Clear 8 1018 81 10000 1 20 08:27 11.03.2020
1546 Clear 7 1018 81 10000 1 20 07:56 11.03.2020
1547 Clear 7 1018 80 10000 1 0 07:37 11.03.2020
1548 Clear 6 1018 86 10000 1 350 07:18 11.03.2020
1549 Clear 6 1017 86 10000 1 0 06:37 11.03.2020
1550 Clear 6 1017 86 10000 0.5 0 05:33 11.03.2020
1551 Clear 7 1017 75 10000 1.5 260 03:39 11.03.2020
1552 Clouds 7 1017 70 10000 0.5 0 01:57 11.03.2020
1553 Clouds 8 1017 65 10000 1 310 01:25 11.03.2020
1554 Clouds 7 1017 61 10000 1 0 00:45 11.03.2020
1555 Clouds 8 1017 61 10000 2.6 290 23:51 10.03.2020
1556 Clouds 8 1017 57 10000 2.1 290 23:29 10.03.2020
1557 Clouds 8 1017 57 10000 2.1 270 22:59 10.03.2020
1558 Clouds 9 1017 57 10000 2.1 270 22:38 10.03.2020
1559 Clouds 9 1017 57 10000 2.1 260 22:19 10.03.2020
1560 Clouds 9 1017 57 10000 2.1 260 21:56 10.03.2020
1561 Clouds 9 1017 53 10000 3.1 250 21:38 10.03.2020
1562 Clouds 9 1016 48 10000 3.1 360 21:19 10.03.2020
1563 Clouds 10 1016 50 10000 2.1 260 20:44 10.03.2020
1564 Clouds 10 1016 50 10000 2.1 260 20:21 10.03.2020
1565 Clouds 11 1016 46 10000 1.5 250 19:59 10.03.2020
1566 Clouds 11 1016 46 10000 1.5 250 19:41 10.03.2020
1567 Clouds 12 1016 43 10000 2.1 260 19:23 10.03.2020
1568 Clouds 12 1016 35 10000 1.5 250 18:58 10.03.2020
1569 Clouds 13 1016 35 10000 1.5 250 18:40 10.03.2020
1570 Clouds 14 1016 33 10000 2.1 260 18:21 10.03.2020
1571 Clouds 14 1016 39 10000 2.6 270 17:55 10.03.2020
1572 Clouds 15 1016 39 10000 2.6 270 17:37 10.03.2020
1573 Clouds 15 1016 29 10000 3.1 260 17:18 10.03.2020
1574 Clouds 16 1016 29 10000 3.1 290 16:37 10.03.2020
1575 Clouds 16 1016 23 10000 3.1 260 16:18 10.03.2020
1576 Clouds 16 1016 23 10000 3.1 260 16:18 10.03.2020
1577 Clouds 16 1016 31 10000 3.1 260 15:42 10.03.2020
1578 Clouds 16 1016 36 10000 3.1 270 15:20 10.03.2020
1579 Clouds 15 1016 23 10000 3.1 260 14:58 10.03.2020
1580 Clouds 15 1016 23 10000 3.1 260 14:40 10.03.2020
1581 Clouds 15 1017 44 10000 2.6 240 14:19 10.03.2020
1582 Clouds 14 1017 47 10000 2.6 240 13:43 10.03.2020
1583 Clouds 14 1017 47 10000 2.6 240 13:25 10.03.2020
1584 Clouds 14 1018 50 10000 2.1 220 12:55 10.03.2020
1585 Clouds 13 1018 50 10000 2.1 220 12:37 10.03.2020
1586 Clouds 13 1019 58 10000 1.5 230 12:18 10.03.2020
1587 Clouds 13 1019 58 10000 1.5 230 12:18 10.03.2020
1588 Clouds 12 1019 61 10000 1.5 240 11:42 10.03.2020
1589 Clouds 11 1019 66 10000 1 0 11:24 10.03.2020
1590 Clouds 10 1019 70 8000 1 0 10:55 10.03.2020
1591 Clouds 10 1019 70 8000 1 0 10:36 10.03.2020
1592 Clouds 9 1019 75 8000 2.1 270 10:18 10.03.2020
1593 Clouds 8 1019 81 8000 2.6 240 09:44 10.03.2020
1594 Clouds 7 1019 86 8000 2.1 240 09:20 10.03.2020
1595 Clouds 6 1018 86 8000 1.5 240 08:54 10.03.2020
1596 Clouds 6 1018 86 8000 1.5 240 08:35 10.03.2020
1597 Clouds 5 1018 86 8000 1.5 230 07:58 10.03.2020
1598 Clouds 5 1018 86 7000 2.1 250 07:40 10.03.2020
1599 Clouds 5 1018 86 9000 2.6 250 07:19 10.03.2020
1600 Clouds 5 1017 86 8000 2.1 260 06:37 10.03.2020
1601 Clouds 5 1017 86 8000 2.1 240 05:42 10.03.2020
1602 Clear 5 1017 86 10000 2.1 250 04:59 10.03.2020
1603 Clear 5 1017 86 10000 2.1 250 04:29 10.03.2020
1604 Clear 5 1017 81 10000 2.6 200 02:58 10.03.2020
1605 Clouds 6 1017 81 10000 1.5 170 01:32 10.03.2020
1606 Clouds 6 1017 70 10000 1.5 300 00:50 10.03.2020
1607 Clouds 6 1016 66 10000 2.1 300 00:28 10.03.2020
1608 Clouds 6 1016 75 10000 2.1 320 23:42 09.03.2020
1609 Clouds 6 1017 70 10000 1.5 310 23:22 09.03.2020
1610 Clouds 6 1016 75 10000 2.6 300 22:57 09.03.2020
1611 Clouds 6 1016 75 10000 2.6 300 22:37 09.03.2020
1612 Clouds 7 1016 80 10000 1.5 300 22:18 09.03.2020
1613 Clouds 7 1016 75 10000 1 0 21:43 09.03.2020
1614 Clouds 7 1016 75 10000 1 300 21:22 09.03.2020
1615 Clouds 7 1016 75 10000 1 300 20:58 09.03.2020
1616 Clouds 7 1016 81 10000 2.1 260 20:40 09.03.2020
1617 Clouds 7 1015 75 10000 1 0 20:20 09.03.2020
1618 Clouds 8 1015 75 10000 1.5 210 19:45 09.03.2020
1619 Clouds 8 1015 70 10000 1 0 19:26 09.03.2020
1620 Clouds 8 1015 70 10000 1.5 270 18:59 09.03.2020
1621 Clouds 8 1015 70 10000 1.5 270 18:40 09.03.2020
1622 Clouds 9 1014 70 10000 1.5 210 18:20 09.03.2020
1623 Clouds 9 1014 70 10000 1.5 210 17:58 09.03.2020
1624 Clouds 9 1014 70 10000 2.1 180 17:38 09.03.2020
1625 Clouds 9 1013 66 10000 1.5 190 17:20 09.03.2020
1626 Clouds 9 1013 66 10000 3.1 180 16:58 09.03.2020
1627 Clouds 9 1013 66 10000 3.1 180 16:40 09.03.2020
1628 Clouds 10 1013 66 10000 2.6 170 16:22 09.03.2020
1629 Clouds 10 1013 66 10000 2.6 170 15:58 09.03.2020
1630 Clouds 10 1013 66 10000 3.1 150 15:39 09.03.2020
1631 Clouds 10 1013 66 10000 3.1 150 15:20 09.03.2020
1632 Clouds 10 1013 66 10000 2.1 180 14:55 09.03.2020
1633 Clouds 10 1012 62 10000 3.6 160 14:37 09.03.2020
1634 Clouds 10 1012 62 10000 3.6 160 14:18 09.03.2020
1635 Drizzle 10 1013 66 10000 2.1 200 13:55 09.03.2020
1636 Drizzle 10 1013 61 10000 2.6 190 13:37 09.03.2020
1637 Drizzle 10 1013 61 10000 2.6 190 13:18 09.03.2020
1638 Drizzle 10 1013 61 10000 2.6 190 13:18 09.03.2020
1639 Drizzle 10 1013 57 10000 4.1 180 12:42 09.03.2020
1640 Drizzle 10 1013 61 10000 3.1 160 12:22 09.03.2020
1641 Drizzle 10 1013 61 10000 3.1 160 12:22 09.03.2020
1642 Drizzle 9 1013 61 10000 1.5 100 11:42 09.03.2020
1643 Drizzle 9 1013 61 10000 1.5 100 11:22 09.03.2020
1644 Clouds 8 1013 61 10000 1.5 60 10:59 09.03.2020
1645 Rain 8 1013 61 10000 1.5 80 10:41 09.03.2020
1646 Rain 8 1013 61 10000 1.5 80 10:20 09.03.2020
1647 Clouds 7 1014 65 10000 1 0 09:59 09.03.2020
1648 Clouds 7 1013 65 10000 1.5 50 09:37 09.03.2020
1649 Clouds 7 1013 65 10000 1.5 50 09:19 09.03.2020
1650 Clouds 6 1013 70 10000 1.5 30 08:43 09.03.2020
1651 Clouds 6 1013 75 10000 1.5 30 08:25 09.03.2020
1652 Clouds 5 1013 75 10000 0.5 0 07:41 09.03.2020
1653 Clouds 5 1013 75 10000 0.5 0 07:21 09.03.2020
1654 Clouds 5 1013 80 10000 1 40 06:44 09.03.2020
1655 Clouds 5 1013 80 10000 1 40 06:25 09.03.2020
1656 Clouds 5 1013 80 10000 1 40 06:25 09.03.2020
1657 Clouds 5 1014 80 10000 1 20 05:47 09.03.2020
1658 Clouds 5 1013 86 10000 2.1 20 05:22 09.03.2020
1659 Clouds 5 1014 86 10000 1 0 04:43 09.03.2020
1660 Clouds 5 1015 80 10000 0.5 340 04:22 09.03.2020
1661 Clouds 5 1016 86 10000 1 360 02:59 09.03.2020
1662 Clouds 6 1016 86 10000 1 0 01:26 09.03.2020
1663 Clouds 6 1017 81 10000 0.5 0 00:38 09.03.2020
1664 Clouds 7 1017 81 10000 0.5 0 00:20 09.03.2020
1665 Clouds 7 1017 65 10000 1 30 23:48 08.03.2020
1666 Clouds 7 1017 70 10000 1 10 23:22 08.03.2020
1667 Clouds 7 1017 75 10000 0.5 0 22:56 08.03.2020
1668 Clouds 8 1017 65 10000 1 0 22:38 08.03.2020
1669 Clouds 8 1017 65 10000 1 0 22:18 08.03.2020
1670 Clouds 8 1018 65 10000 1 200 21:42 08.03.2020
1671 Clouds 8 1018 65 10000 1 200 21:23 08.03.2020
1672 Clouds 8 1018 65 10000 1 200 21:23 08.03.2020
1673 Clouds 8 1018 61 10000 0.5 0 20:59 08.03.2020
1674 Clouds 9 1018 61 10000 1 170 20:39 08.03.2020
1675 Clouds 9 1018 61 10000 1 170 20:21 08.03.2020
1676 Clouds 10 1018 53 10000 1 190 19:41 08.03.2020
1677 Clouds 10 1018 50 10000 1 220 19:21 08.03.2020
1678 Clouds 11 1018 46 10000 1.5 220 18:59 08.03.2020
1679 Clouds 11 1018 46 10000 2.1 210 18:40 08.03.2020
1680 Clouds 11 1018 46 10000 2.1 210 18:21 08.03.2020
1681 Clouds 12 1018 50 10000 2.1 190 17:55 08.03.2020
1682 Clouds 12 1018 43 10000 2.6 230 17:37 08.03.2020
1683 Clouds 12 1018 43 10000 2.6 230 17:37 08.03.2020
1684 Clouds 12 1018 43 10000 2.6 230 17:18 08.03.2020
1685 Clouds 13 1018 37 10000 3.1 200 16:42 08.03.2020
1686 Clouds 13 1018 37 10000 3.1 200 16:23 08.03.2020
1687 Clouds 13 1019 44 10000 2.6 210 15:56 08.03.2020
1688 Clouds 13 1019 41 10000 2.6 180 15:37 08.03.2020
1689 Clouds 13 1019 41 10000 2.6 180 15:37 08.03.2020
1690 Clouds 13 1019 41 10000 2.6 180 15:18 08.03.2020
1691 Clouds 14 1020 44 10000 2.1 230 14:40 08.03.2020
1692 Clouds 13 1020 44 10000 2.1 230 14:21 08.03.2020
1693 Clouds 13 1020 44 10000 2.1 230 13:55 08.03.2020
1694 Clouds 13 1020 47 10000 2.1 150 13:36 08.03.2020
1695 Clouds 13 1021 43 10000 1.5 0 13:18 08.03.2020
1696 Clouds 13 1022 46 10000 1.5 130 12:38 08.03.2020
1697 Clouds 12 1022 46 10000 1.5 130 12:18 08.03.2020
1698 Clouds 12 1022 36 10000 1.5 160 11:42 08.03.2020
1699 Clouds 11 1022 31 10000 1.5 160 11:23 08.03.2020
1700 Clouds 11 1022 40 10000 0.5 0 10:57 08.03.2020
1701 Clouds 11 1022 40 10000 0.5 0 10:57 08.03.2020
1702 Clouds 10 1022 40 10000 0.5 0 10:39 08.03.2020
1703 Clouds 10 1022 40 10000 0.5 0 10:21 08.03.2020
1704 Clouds 9 1022 45 10000 0.5 0 09:40 08.03.2020
1705 Clouds 8 1022 45 10000 0.5 0 09:22 08.03.2020
1706 Clouds 7 1021 31 10000 1 0 08:48 08.03.2020
1707 Clouds 5 1021 64 10000 2.1 10 08:22 08.03.2020
1708 Clear 4 1021 86 10000 1.5 350 07:49 08.03.2020
1709 Clear 3 1021 39 0 1.5 10 07:28 08.03.2020
1710 Clear 3 1020 39 0 1 20 06:45 08.03.2020
1711 Clear 3 1020 39 0 1 20 06:27 08.03.2020
1712 Clear 3 1020 86 0 0.5 0 05:43 08.03.2020
1713 Clear 5 1020 80 0 1 110 03:52 08.03.2020
1714 Clear 5 1020 80 0 0.5 0 02:58 08.03.2020
1715 Clear 6 1020 75 0 1.5 360 01:38 08.03.2020
1716 Clear 6 1020 81 0 1.5 20 01:18 08.03.2020
1717 Clear 7 1020 81 0 1.5 20 00:30 08.03.2020
1718 Clear 7 1020 75 0 2.1 20 23:57 07.03.2020
1719 Clouds 7 1019 81 10000 2.6 10 23:36 07.03.2020
1720 Clouds 7 1019 81 10000 2.6 10 23:36 07.03.2020
1721 Clouds 8 1019 81 10000 2.6 10 23:18 07.03.2020
1722 Clear 8 1018 66 10000 2.6 90 22:38 07.03.2020
1723 Clear 9 1018 66 10000 2.6 90 22:19 07.03.2020
1724 Clouds 9 1018 62 10000 2.6 90 21:44 07.03.2020
1725 Clear 9 1017 21 10000 6.7 50 21:22 07.03.2020
1726 Clear 10 1016 33 10000 3.6 40 20:41 07.03.2020
1727 Clear 10 1016 50 10000 3.1 40 20:21 07.03.2020
1728 Clear 11 1014 30 10000 5.1 350 19:42 07.03.2020
1729 Clear 11 1014 30 10000 5.1 350 19:23 07.03.2020
1730 Clear 11 1014 28 10000 4.1 350 19:00 07.03.2020
1731 Clear 12 1013 32 10000 4.1 350 18:39 07.03.2020
1732 Clear 13 1013 32 10000 4.1 350 18:21 07.03.2020
1733 Clouds 14 1012 23 10000 3.6 10 17:42 07.03.2020
1734 Clouds 14 1012 23 10000 3.6 10 17:20 07.03.2020
1735 Clouds 15 1012 21 10000 3.1 90 16:57 07.03.2020
1736 Clouds 15 1012 38 10000 2.1 180 16:39 07.03.2020
1737 -273 0 0 0 0 0 16:21 07.03.2020
1738 Clear 15 1012 19 10000 2.1 180 15:55 07.03.2020
1739 Clear 15 1012 38 10000 3.6 160 15:37 07.03.2020
1740 Clear 16 1012 38 10000 3.6 160 15:19 07.03.2020
1741 Clear 16 1012 41 10000 1.5 160 14:42 07.03.2020
1742 Clear 15 1012 41 10000 1.5 160 14:23 07.03.2020
1743 Clear 15 1012 47 10000 2.1 180 13:44 07.03.2020
1744 Clear 15 1012 50 10000 1 0 13:22 07.03.2020
1745 Clear 15 1012 58 10000 1.5 240 12:59 07.03.2020
1746 Clear 15 1012 54 10000 1 0 12:39 07.03.2020
1747 Clear 14 1012 54 10000 1 0 12:19 07.03.2020
1748 Clear 14 1012 66 8000 1.5 0 11:44 07.03.2020
1749 Clear 11 1012 71 6000 1 0 11:25 07.03.2020
1750 Mist 10 1012 87 5000 0.5 0 10:59 07.03.2020
1751 Mist 10 1012 93 3500 0.5 0 10:38 07.03.2020
1752 Mist 9 1012 93 3500 0.5 0 10:19 07.03.2020
1753 Clouds 9 1011 37 10000 1.5 0 09:41 07.03.2020
1754 Fog 8 1011 100 250 1 0 09:20 07.03.2020
1755 Fog 7 1010 100 50 1.5 180 08:58 07.03.2020
1756 Fog 6 1010 100 50 1.5 180 08:40 07.03.2020
1757 Fog 4 1010 93 50 1.5 170 08:20 07.03.2020
1758 Fog 4 1009 100 500 1.5 180 07:47 07.03.2020
1759 Mist 4 1008 100 3000 1 0 07:21 07.03.2020
1760 Clouds 4 1008 52 10000 0.5 0 06:43 07.03.2020
1761 Clouds 4 1008 52 10000 0.5 0 06:25 07.03.2020
1762 Clouds 4 1008 52 10000 0.5 0 06:25 07.03.2020
1763 Clouds 4 1008 52 10000 1 0 05:40 07.03.2020
1764 Fog 4 1006 93 8000 1.77 333 03:47 07.03.2020
1765 Fog 5 1006 93 8000 1 120 02:44 07.03.2020
1766 Clouds 5 1006 93 10000 0.5 0 01:56 07.03.2020
1767 Clouds 5 1005 100 10000 0.5 340 00:58 07.03.2020
1768 Clouds 5 1005 93 10000 1 330 00:24 07.03.2020
1769 Clouds 5 1004 93 10000 1 30 23:58 06.03.2020
1770 Clouds 5 1004 87 10000 1 30 23:39 06.03.2020
1771 Clouds 6 1004 87 10000 1 30 23:21 06.03.2020
1772 Clouds 6 1004 81 10000 1 0 22:44 06.03.2020
1773 Clouds 6 1004 81 10000 1 0 22:44 06.03.2020
1774 Clouds 6 1004 81 10000 1 0 22:20 06.03.2020
1775 Clouds 6 1003 75 10000 2.1 150 21:47 06.03.2020
1776 Clouds 7 1003 81 10000 1 0 21:20 06.03.2020
1777 Clouds 7 1002 75 10000 2.1 150 20:44 06.03.2020
1778 Clouds 7 1002 75 10000 2.1 150 20:23 06.03.2020
1779 Clouds 8 1002 75 10000 1.5 140 19:57 06.03.2020
1780 Clouds 8 1001 70 10000 2.6 140 19:39 06.03.2020
1781 Clouds 8 1001 70 10000 2.6 140 19:19 06.03.2020
1782 Clouds 9 1001 70 10000 2.6 150 18:42 06.03.2020
1783 Clouds 9 1000 66 10000 2.6 120 18:20 06.03.2020
1784 Clouds 10 1000 57 10000 1 0 17:56 06.03.2020
1785 Clouds 10 1000 57 10000 1 0 17:38 06.03.2020
1786 Clear 10 999 57 10000 2.1 240 17:19 06.03.2020
1787 Clear 10 999 66 10000 1.5 320 16:42 06.03.2020
1788 Clear 10 999 66 10000 1.5 320 16:21 06.03.2020
1789 Clear 10 999 66 10000 2.6 290 15:58 06.03.2020
1790 Clouds 10 999 76 10000 2.6 250 15:40 06.03.2020
1791 Clouds 9 999 76 10000 2.6 250 15:20 06.03.2020
1792 Clouds 9 999 75 10000 3.1 280 14:40 06.03.2020
1793 Clouds 8 999 75 10000 3.1 280 14:21 06.03.2020
1794 Clouds 8 1000 70 10000 1.5 0 13:43 06.03.2020
1795 Clouds 8 1000 70 10000 1.5 0 13:23 06.03.2020
1796 Clouds 7 1000 81 10000 2.6 330 12:58 06.03.2020
1797 Clouds 7 1000 81 10000 2.6 300 12:38 06.03.2020
1798 Clouds 7 1000 81 10000 2.6 300 12:20 06.03.2020
1799 Clouds 6 1000 81 10000 4.1 250 11:57 06.03.2020
1800 Clouds 6 1000 81 10000 4.1 260 11:39 06.03.2020
1801 Clouds 6 1000 81 10000 4.1 260 11:20 06.03.2020
1802 Clouds 5 1000 86 10000 3.6 250 10:39 06.03.2020
1803 Clouds 5 1000 86 10000 3.6 250 10:21 06.03.2020
1804 Clouds 5 1000 86 10000 4.1 270 09:55 06.03.2020
1805 Clouds 4 999 86 6000 2.6 260 09:37 06.03.2020
1806 Clouds 4 999 86 6000 2.6 260 09:18 06.03.2020
1807 Clouds 4 999 93 6000 3.1 270 08:43 06.03.2020
1808 Clouds 3 999 93 6000 3.1 270 08:25 06.03.2020
1809 Clouds 3 999 93 6000 3.1 270 08:25 06.03.2020
1810 Clouds 3 999 93 6000 2.6 250 07:57 06.03.2020
1811 Mist 3 999 86 5000 2.1 270 07:37 06.03.2020
1812 Clouds 3 1000 93 10000 2.1 280 06:56 06.03.2020
1813 Mist 3 1000 93 2000 1.5 260 06:38 06.03.2020
1814 Clouds 3 999 86 10000 1 0 05:42 06.03.2020
1815 Clouds 3 999 86 10000 1 0 05:22 06.03.2020
1816 Clouds 3 1000 93 10000 1.5 260 04:55 06.03.2020
1817 Rain 3 1001 86 5000 2.1 310 01:58 06.03.2020
1818 Rain 3 1001 93 5000 1.5 340 01:38 06.03.2020
1819 Rain 3 1001 93 5000 1.5 340 01:19 06.03.2020
1820 Rain 3 1000 93 5000 1.5 60 00:32 06.03.2020
1821 Rain 3 1001 93 5000 1.5 40 23:50 05.03.2020
1822 Rain 3 1002 93 5000 3.6 20 23:29 05.03.2020
1823 Rain 3 1003 86 5000 3.1 30 22:57 05.03.2020
1824 Rain 4 1003 93 6000 3.1 70 22:38 05.03.2020
1825 Rain 4 1003 93 6000 3.1 70 22:20 05.03.2020
1826 Rain 4 1003 87 6000 3.6 50 21:56 05.03.2020
1827 Rain 4 1003 93 7000 3.1 70 21:38 05.03.2020
1828 Rain 4 1003 93 7000 3.1 70 21:19 05.03.2020
1829 Rain 5 1004 87 7000 3.1 90 20:55 05.03.2020
1830 Rain 5 1004 93 7000 4.1 90 20:37 05.03.2020
1831 Rain 5 1004 93 7000 4.1 90 20:37 05.03.2020
1832 Rain 5 1004 93 7000 4.1 90 20:18 05.03.2020
1833 Rain 5 1004 93 7000 4.1 80 19:55 05.03.2020
1834 Rain 5 1005 87 6000 3.1 80 19:37 05.03.2020
1835 Rain 5 1005 87 6000 3.1 80 19:18 05.03.2020
1836 Rain 5 1005 87 6000 3.1 80 19:18 05.03.2020
1837 Rain 5 1005 87 6000 2.1 90 18:38 05.03.2020
1838 Rain 5 1005 87 6000 2.1 90 18:19 05.03.2020
1839 Rain 6 1006 87 7000 2.1 130 17:59 05.03.2020
1840 Rain 6 1006 87 7000 2.1 160 17:40 05.03.2020
1841 Rain 6 1006 87 7000 2.1 160 17:21 05.03.2020
1842 Rain 7 1007 75 10000 2.6 140 16:43 05.03.2020
1843 Rain 7 1007 75 10000 2.6 140 16:25 05.03.2020
1844 Rain 7 1007 70 10000 2.6 140 15:59 05.03.2020
1845 Rain 8 1007 66 9000 3.1 140 15:40 05.03.2020
1846 Rain 8 1007 66 9000 3.1 140 15:21 05.03.2020
1847 Rain 8 1008 66 9000 2.1 140 14:55 05.03.2020
1848 Rain 8 1008 70 9000 3.6 150 14:36 05.03.2020
1849 Rain 8 1008 70 9000 3.6 150 14:18 05.03.2020
1850 Rain 8 1009 70 10000 3.6 140 13:43 05.03.2020
1851 Rain 8 1010 66 9000 3.1 120 13:21 05.03.2020
1852 Clouds 8 1010 61 9000 4.6 120 12:57 05.03.2020
1853 Clouds 8 1010 61 9000 3.6 100 12:38 05.03.2020
1854 Clouds 8 1010 61 9000 3.6 100 12:19 05.03.2020
1855 Clouds 8 1010 66 9000 4.1 100 11:56 05.03.2020
1856 Clouds 8 1011 66 9000 3.6 100 11:37 05.03.2020
1857 Clouds 8 1011 66 9000 3.6 100 11:18 05.03.2020
1858 Clouds 8 1011 70 9000 2.6 70 10:56 05.03.2020
1859 Clouds 8 1011 81 9000 2.1 110 10:38 05.03.2020
1860 Clouds 8 1011 81 9000 2.1 110 10:38 05.03.2020
1861 Clouds 8 1011 81 9000 2.1 110 10:19 05.03.2020
1862 Clouds 7 1012 75 10000 1.5 130 09:44 05.03.2020
1863 Clouds 7 1011 75 10000 2.1 120 09:26 05.03.2020
1864 Clouds 6 1011 75 10000 1 0 08:44 05.03.2020
1865 Clouds 5 1011 75 10000 1 0 08:25 05.03.2020
1866 Clouds 5 1011 80 10000 1 50 07:46 05.03.2020
1867 Clouds 4 1011 75 10000 1.5 80 07:22 05.03.2020
1868 Clouds 4 1011 80 10000 1 70 06:48 05.03.2020
1869 Clouds 4 1012 80 10000 2.1 50 06:22 05.03.2020
1870 Clouds 4 1011 93 10000 2.6 10 05:39 05.03.2020
1871 Clouds 4 1012 86 10000 1.5 50 04:45 05.03.2020
1872 Clouds 4 1012 86 10000 1.5 50 04:22 05.03.2020
1873 Clouds 5 1012 86 10000 1.5 50 03:19 05.03.2020
1874 Clear 5 1013 86 10000 1 0 01:46 05.03.2020
1875 Clouds 5 1013 81 10000 2.6 80 01:20 05.03.2020
1876 Clouds 5 1013 80 10000 2.1 70 00:25 05.03.2020
1877 Clouds 6 1013 75 10000 1 0 23:42 04.03.2020
1878 Clear 6 1013 75 10000 1 0 23:22 04.03.2020
1879 Clear 7 1013 65 10000 2.1 90 22:57 04.03.2020
1880 Clear 7 1013 65 10000 2.6 80 22:39 04.03.2020
1881 Clear 7 1013 65 10000 2.6 80 22:19 04.03.2020
1882 Clear 7 1013 61 10000 1.5 70 21:57 04.03.2020
1883 Clear 7 1013 61 10000 2.6 90 21:38 04.03.2020
1884 Clear 7 1013 61 10000 2.6 90 21:19 04.03.2020
1885 Clear 7 1013 65 10000 1 0 20:41 04.03.2020
1886 Clear 8 1013 65 10000 1 0 20:23 04.03.2020
1887 Clear 8 1012 53 10000 1.5 120 19:59 04.03.2020
1888 Clear 9 1012 50 10000 1.5 120 19:41 04.03.2020
1889 Clear 9 1012 50 10000 1.5 120 19:22 04.03.2020
1890 Clear 10 1012 50 10000 2.6 130 18:42 04.03.2020
1891 Clear 10 1011 50 10000 2.6 160 18:24 04.03.2020
1892 Clear 11 1011 52 10000 3.1 180 17:59 04.03.2020
1893 Clear 12 1011 46 10000 3.6 180 17:39 04.03.2020
1894 Clear 12 1011 46 10000 3.6 180 17:20 04.03.2020
1895 Clear 12 1011 38 10000 4.6 160 16:57 04.03.2020
1896 Clear 13 1011 38 10000 3.6 190 16:38 04.03.2020
1897 Clear 13 1011 38 10000 3.6 190 16:19 04.03.2020
1898 Clear 13 1011 38 10000 3.6 180 15:45 04.03.2020
1899 Clear 13 1011 38 10000 3.6 180 15:27 04.03.2020
1900 Clear 13 1011 38 10000 3.6 180 15:27 04.03.2020
1901 Clear 13 1011 38 10000 3.1 160 14:59 04.03.2020
1902 Clear 14 1011 38 10000 3.1 160 14:59 04.03.2020
1903 Clear 13 1011 38 10000 3.1 160 14:41 04.03.2020
1904 Clear 13 1011 35 10000 2.6 160 14:20 04.03.2020
1905 Clear 13 1012 26 10000 2.1 170 13:58 04.03.2020
1906 Clear 13 1012 26 10000 2.1 170 13:39 04.03.2020
1907 Clear 13 1012 46 10000 2.1 140 13:20 04.03.2020
1908 Clear 13 1012 50 10000 1.5 160 12:55 04.03.2020
1909 Clear 12 1012 50 10000 1.5 80 12:37 04.03.2020
1910 Clear 12 1012 50 10000 1.5 80 12:19 04.03.2020
1911 Clear 12 1012 57 10000 2.1 60 11:42 04.03.2020
1912 Clear 12 1012 57 10000 2.1 60 11:42 04.03.2020
1913 Clear 12 1012 57 10000 1.5 110 11:42 04.03.2020
1914 Clear 11 1012 57 10000 2.1 60 11:23 04.03.2020
1915 Clear 10 1012 70 10000 1 0 10:58 04.03.2020
1916 Clear 10 1012 70 10000 1 0 10:58 04.03.2020
1917 Clear 10 1012 70 10000 1 0 10:40 04.03.2020
1918 Clear 9 1012 81 10000 1 0 10:21 04.03.2020
1919 Clear 9 1012 81 10000 0.5 0 09:43 04.03.2020
1920 Clear 8 1011 80 10000 0.5 0 09:21 04.03.2020
1921 Clear 7 1011 93 7000 1 0 08:49 04.03.2020
1922 Clear 6 1010 59 10000 3.1 340 08:28 04.03.2020
1923 Fog 3 1010 100 5000 1 0 07:57 04.03.2020
1924 Clouds 3 1009 40 0 0.5 0 07:39 04.03.2020
1925 Clouds 3 1009 40 0 0.5 0 07:20 04.03.2020
1926 Clouds 3 1009 100 0 2.1 290 06:44 04.03.2020
1927 Clouds 3 1009 100 0 2.1 290 06:23 04.03.2020
1928 Clouds 3 1008 100 0 1 0 05:50 04.03.2020
1929 Clouds 3 1007 93 0 1 0 04:30 04.03.2020
1930 Clouds 4 1007 100 0 1 320 03:44 04.03.2020
1931 Clouds 4 1007 93 0 1.5 50 03:25 04.03.2020
1932 Clouds 5 1006 93 0 0.5 0 02:55 04.03.2020
1933 Clouds 5 1006 100 0 0.5 0 02:21 04.03.2020
1934 Clouds 5 1006 100 0 0.5 0 01:54 04.03.2020
1935 Clouds 5 1005 100 0 0.5 160 00:52 04.03.2020
1936 Clouds 5 1005 100 0 0.5 160 00:52 04.03.2020
1937 Clouds 5 1005 93 0 1 0 00:27 04.03.2020
1938 Clouds 5 1005 93 0 1 0 00:27 04.03.2020
1939 Clouds 6 1005 93 10000 0.5 0 23:47 03.03.2020
1940 Clouds 6 1005 93 10000 0.5 0 23:28 03.03.2020
1941 Clouds 6 1005 93 10000 0.5 0 23:28 03.03.2020
1942 Clouds 6 1005 87 10000 1.5 0 22:59 03.03.2020
1943 Clouds 6 1005 87 10000 1.5 0 22:40 03.03.2020
1944 Clouds 6 1004 93 10000 1 0 22:20 03.03.2020
1945 Clouds 6 1004 93 10000 1 0 22:20 03.03.2020
1946 Clouds 7 1004 87 10000 2.1 70 21:57 03.03.2020
1947 Clouds 7 1003 87 10000 1.5 60 21:38 03.03.2020
1948 Clouds 7 1003 87 10000 1.5 60 21:19 03.03.2020
1949 Clouds 7 1003 87 10000 2.1 60 20:55 03.03.2020
1950 Clouds 8 1002 87 10000 1 0 20:36 03.03.2020
1951 Clouds 8 1002 87 10000 1 0 20:18 03.03.2020
1952 Clouds 8 1001 76 10000 1 0 19:54 03.03.2020
1953 Clouds 8 1001 71 10000 2.1 120 19:36 03.03.2020
1954 Clouds 9 1001 71 10000 2.1 120 19:18 03.03.2020
1955 Clouds 10 1000 71 10000 2.6 130 18:42 03.03.2020
1956 Clouds 10 1000 66 10000 3.1 160 18:21 03.03.2020
1957 Clouds 11 1000 58 10000 3.1 130 17:59 03.03.2020
1958 Clouds 11 999 62 10000 2.6 110 17:39 03.03.2020
1959 Clouds 11 999 62 10000 2.6 110 17:39 03.03.2020
1960 Clouds 12 999 62 10000 2.6 110 17:21 03.03.2020
1961 Clouds 12 999 66 10000 2.6 120 16:57 03.03.2020
1962 Clouds 12 999 71 10000 2.6 0 16:37 03.03.2020
1963 Clouds 12 999 71 10000 2.6 0 16:19 03.03.2020
1964 Clouds 13 999 71 10000 2.6 80 15:45 03.03.2020
1965 Clouds 13 999 71 10000 2.1 50 15:22 03.03.2020
1966 Clouds 13 999 76 10000 1 0 14:57 03.03.2020
1967 Clouds 12 999 76 10000 1 0 14:38 03.03.2020
1968 Clouds 12 999 76 10000 2.6 70 14:19 03.03.2020
1969 Clouds 12 999 81 10000 1 0 13:56 03.03.2020
1970 Clouds 11 999 81 10000 1 0 13:38 03.03.2020
1971 Clouds 11 999 81 10000 1 0 13:19 03.03.2020
1972 Clouds 11 999 81 10000 1.5 60 12:43 03.03.2020
1973 Clouds 11 999 81 10000 1.5 60 12:24 03.03.2020
1974 Clouds 11 999 81 10000 1 0 11:55 03.03.2020
1975 Clouds 10 999 81 10000 1 0 11:37 03.03.2020
1976 Clouds 10 999 81 10000 1 0 11:18 03.03.2020
1977 Clouds 10 998 87 10000 2.6 90 10:55 03.03.2020
1978 Clouds 9 997 87 10000 3.1 70 10:36 03.03.2020
1979 Clouds 9 997 87 10000 3.1 70 10:18 03.03.2020
1980 Clouds 9 997 87 10000 3.1 70 10:18 03.03.2020
1981 Clouds 9 997 87 10000 3.1 70 10:18 03.03.2020
1982 Clouds 9 997 81 10000 1.5 80 09:41 03.03.2020
1983 Clouds 8 996 87 10000 3.6 90 09:21 03.03.2020
1984 Rain 7 996 70 10000 1.5 310 08:42 03.03.2020
1985 Clouds 6 995 75 10000 4.6 280 08:22 03.03.2020
1986 Clouds 6 995 81 10000 5.7 280 07:56 03.03.2020
1987 Clouds 6 995 81 10000 5.7 280 07:56 03.03.2020
1988 Clouds 6 995 81 10000 5.7 280 07:56 03.03.2020
1989 Clouds 6 995 81 10000 5.7 280 07:56 03.03.2020
1990 Clouds 5 994 81 10000 5.7 280 07:38 03.03.2020
1991 Clouds 5 994 81 10000 5.7 280 07:18 03.03.2020
1992 Fog 5 995 93 8000 1.5 290 06:40 03.03.2020
1993 Fog 5 995 93 8000 1.5 290 06:21 03.03.2020
1994 Clouds 5 994 93 10000 3.6 250 05:43 03.03.2020
1995 Clouds 5 994 87 10000 2.6 260 04:54 03.03.2020
1996 Rain 5 992 93 4000 3.1 240 02:38 03.03.2020
1997 Rain 5 992 93 4000 1.5 240 01:29 03.03.2020
1998 Rain 5 992 93 6000 1 250 00:42 03.03.2020
1999 Rain 5 992 100 6000 1.5 260 00:23 03.03.2020
2000 Rain 5 992 100 6000 1.5 240 23:48 02.03.2020
2001 Rain 5 991 100 6000 1 0 23:23 02.03.2020
2002 Rain 5 992 100 6000 1.5 230 22:57 02.03.2020
2003 Rain 5 992 100 6000 1.5 230 22:57 02.03.2020
2004 Rain 5 992 100 6000 1.5 220 22:38 02.03.2020
2005 Rain 5 992 100 6000 1.5 220 22:19 02.03.2020
2006 Rain 5 991 100 6000 2.1 250 21:56 02.03.2020
2007 Rain 5 991 100 5000 2.1 230 21:37 02.03.2020
2008 Rain 5 991 100 5000 2.6 220 21:19 02.03.2020
2009 Rain 5 991 100 5000 2.6 220 20:43 02.03.2020
2010 Rain 5 991 100 5000 2.6 220 20:24 02.03.2020
2011 Rain 5 991 100 5000 1.5 260 19:59 02.03.2020
2012 Rain 5 991 100 5000 1.5 260 19:39 02.03.2020
2013 -273 0 0 0 0 0 19:21 02.03.2020
2014 Rain 5 991 100 3500 4.1 240 18:56 02.03.2020
2015 Rain 4 991 100 3500 4.1 240 18:56 02.03.2020
2016 Rain 5 990 100 3500 3.6 240 18:38 02.03.2020
2017 Rain 5 990 100 3500 3.6 240 18:18 02.03.2020
2018 Rain 5 991 100 4000 3.6 320 17:56 02.03.2020
2019 Drizzle 5 990 87 4000 7.2 90 17:38 02.03.2020
2020 Drizzle 6 990 87 4000 7.2 90 17:19 02.03.2020
2021 Drizzle 6 990 93 8000 8.2 100 16:42 02.03.2020
2022 Rain 6 991 93 7000 7.2 100 16:23 02.03.2020
2023 Rain 6 992 93 5000 6.2 90 15:54 02.03.2020
2024 Rain 6 992 93 6000 6.2 80 15:36 02.03.2020
2025 Rain 6 992 93 6000 6.2 80 15:18 02.03.2020
2026 Rain 6 994 100 5000 4.6 80 14:37 02.03.2020
2027 Rain 6 994 100 5000 4.6 80 14:19 02.03.2020
2028 Rain 6 994 100 5000 4.6 80 14:19 02.03.2020
2029 Rain 6 994 100 5000 4.6 80 14:19 02.03.2020
2030 Rain 6 995 93 4000 5.7 100 13:44 02.03.2020
2031 Rain 6 996 93 4000 5.1 100 13:20 02.03.2020
2032 Rain 6 997 93 4000 5.1 90 12:59 02.03.2020
2033 Rain 6 997 100 4000 5.1 80 12:41 02.03.2020
2034 Rain 6 997 100 4000 5.1 80 12:19 02.03.2020
2035 Rain 6 999 93 3000 5.1 90 11:38 02.03.2020
2036 Rain 6 999 93 3000 5.1 90 11:19 02.03.2020
2037 Rain 5 999 100 3500 5.1 110 10:55 02.03.2020
2038 Rain 5 1000 93 3500 2.6 60 10:37 02.03.2020
2039 Rain 5 1000 93 3500 2.6 60 10:18 02.03.2020
2040 Rain 5 1000 93 3500 3.1 50 09:47 02.03.2020
2041 Rain 5 1000 93 3500 3.1 50 09:47 02.03.2020
2042 Rain 5 1000 93 2500 3.1 60 09:28 02.03.2020
2043 Mist 5 1001 93 2000 2.1 90 08:48 02.03.2020
2044 Mist 4 1001 100 2000 0.5 0 08:22 02.03.2020
2045 Mist 3 1001 100 2000 1 0 07:50 02.03.2020
2046 Mist 3 1001 100 3000 2.1 180 07:31 02.03.2020
2047 Mist 2 1002 93 5000 2.1 120 06:50 02.03.2020
2048 Fog 2 1001 100 3000 4.1 360 06:25 02.03.2020
2049 Fog 2 1002 80 3000 2.1 40 05:24 02.03.2020
2050 Fog 2 1003 100 3000 0.5 0 03:27 02.03.2020
2051 Fog 3 1003 100 3500 0.5 280 02:55 02.03.2020
2052 Mist 3 1003 93 5000 1 250 02:30 02.03.2020
2053 Clouds 3 1003 93 7000 2.1 250 01:36 02.03.2020
2054 Clouds 4 1003 93 7000 2.1 250 01:18 02.03.2020
2055 Clouds 5 1004 93 7000 1.5 280 00:22 02.03.2020
2056 Clouds 5 1004 93 7000 2.1 270 23:42 01.03.2020
2057 Clouds 5 1004 93 6000 2.1 260 23:22 01.03.2020
2058 Clouds 5 1003 100 6000 1 0 22:44 01.03.2020
2059 Clouds 6 1003 93 6000 1.5 230 22:21 01.03.2020
2060 Clouds 6 1003 93 6000 1 0 21:57 01.03.2020
2061 Clouds 6 1003 93 6000 1 0 21:39 01.03.2020
2062 Clouds 6 1003 87 7000 2.1 270 21:20 01.03.2020
2063 Clouds 6 1004 87 7000 2.1 240 20:45 01.03.2020
2064 Clouds 6 1004 93 8000 2.1 210 20:26 01.03.2020
2065 Clouds 7 1003 87 8000 1.5 220 19:59 01.03.2020
2066 Clouds 7 1003 87 8000 1.5 220 19:40 01.03.2020
2067 Clouds 7 1003 87 8000 1.5 180 19:21 01.03.2020
2068 Clouds 7 1003 87 7000 2.6 200 18:54 01.03.2020
2069 Clouds 7 1003 87 7000 2.1 210 18:36 01.03.2020
2070 Clouds 7 1003 87 7000 2.1 210 18:18 01.03.2020
2071 Clouds 7 1004 81 8000 2.1 210 17:54 01.03.2020
2072 Clouds 8 1004 81 8000 2.1 210 17:36 01.03.2020
2073 Clouds 8 1004 81 8000 2.1 210 17:18 01.03.2020
2074 Clouds 8 1004 81 8000 2.1 210 16:39 01.03.2020
2075 Clouds 8 1004 81 8000 2.1 210 16:39 01.03.2020
2076 Clouds 8 1004 81 8000 2.1 170 16:19 01.03.2020
2077 Clouds 8 1004 81 8000 2.1 200 15:58 01.03.2020
2078 Clouds 8 1005 81 8000 1.5 190 15:40 01.03.2020
2079 Clouds 8 1005 81 8000 1.5 190 15:21 01.03.2020
2080 Clouds 8 1005 81 8000 1 0 14:58 01.03.2020
2081 Clouds 8 1005 81 8000 1 0 14:39 01.03.2020
2082 Clouds 8 1005 81 7000 1 0 14:21 01.03.2020
2083 Clouds 8 1006 81 7000 0.5 0 13:56 01.03.2020
2084 Clouds 8 1007 81 7000 0.5 0 13:38 01.03.2020
2085 Clouds 8 1007 81 7000 0.5 0 13:19 01.03.2020
2086 Mist 8 1007 81 5000 1 0 12:44 01.03.2020
2087 Mist 7 1007 93 5000 1.5 130 12:23 01.03.2020
2088 Mist 7 1008 93 5000 1.5 70 11:58 01.03.2020
2089 Rain 7 1008 93 5000 1.5 60 11:39 01.03.2020
2090 Rain 7 1008 93 5000 1.5 60 11:19 01.03.2020
2091 Rain 6 1008 93 4000 2.1 40 10:55 01.03.2020
2092 Rain 6 1009 87 4000 0.5 0 10:36 01.03.2020
2093 Rain 6 1009 87 4000 0.5 0 10:36 01.03.2020
2094 Rain 6 1009 87 4000 0.5 0 10:18 01.03.2020
2095 Rain 6 1009 100 4000 0.62 101 09:41 01.03.2020
2096 Rain 5 1009 100 4000 0.86 73 09:22 01.03.2020
2097 Rain 5 1009 93 4000 0.5 0 08:46 01.03.2020
2098 Rain 5 1009 93 3000 1 260 08:27 01.03.2020
2099 Rain 5 1009 93 3000 0.5 0 07:47 01.03.2020
2100 Rain 5 1009 93 6000 0.5 0 07:28 01.03.2020
2101 Clouds 5 1009 93 6000 0.5 240 06:58 01.03.2020
2102 Clouds 5 1009 93 6000 0.5 240 06:40 01.03.2020
2103 Clouds 5 1009 93 6000 0.5 0 04:47 01.03.2020
2104 Rain 5 1011 100 5000 0.5 0 02:58 01.03.2020
2105 Clouds 5 1011 100 6000 0.5 0 02:18 01.03.2020
2106 Rain 5 1012 93 6000 1.5 360 01:36 01.03.2020
2107 Rain 5 1012 93 6000 2.1 360 00:48 01.03.2020
2108 Rain 5 1012 93 6000 2.1 10 00:25 01.03.2020
2109 Rain 5 1012 93 10000 2.1 360 23:54 29.02.2020
2110 Rain 5 1012 93 10000 1 0 23:35 29.02.2020
2111 Clouds 6 1013 93 10000 0.5 0 22:46 29.02.2020
2112 Rain 6 1013 93 10000 1 0 22:26 29.02.2020
2113 Rain 6 1013 93 10000 3.1 150 21:57 29.02.2020
2114 Rain 6 1013 75 10000 4.1 140 21:38 29.02.2020
2115 Rain 6 1013 75 10000 4.1 140 21:19 29.02.2020
2116 Clouds 6 1013 61 10000 1.5 350 20:41 29.02.2020
2117 Clouds 6 1013 61 10000 1.5 350 20:20 29.02.2020
2118 Clouds 6 1013 65 10000 1.5 10 19:54 29.02.2020
2119 Clouds 7 1012 78 10000 1.5 340 19:36 29.02.2020
2120 Clouds 7 1012 78 10000 1.5 340 19:18 29.02.2020
2121 Clouds 7 1012 49 10000 1.5 10 18:40 29.02.2020
2122 Clouds 7 1012 45 8000 2.1 40 18:19 29.02.2020
2123 Clouds 7 1012 45 8000 1.5 120 17:55 29.02.2020
2124 Clouds 7 1013 45 8000 1.5 100 17:37 29.02.2020
2125 Clouds 7 1013 45 8000 1.5 100 17:19 29.02.2020
2126 Clouds 7 1013 49 10000 1.5 90 16:43 29.02.2020
2127 Clouds 8 1013 45 10000 2.1 80 16:19 29.02.2020
2128 Clouds 8 1013 45 10000 2.1 80 15:56 29.02.2020
2129 Clouds 8 1014 45 10000 2.6 50 15:36 29.02.2020
2130 Clouds 8 1014 45 10000 2.6 50 15:18 29.02.2020
2131 Clouds 8 1014 39 10000 2.1 0 14:39 29.02.2020
2132 Clouds 8 1014 39 10000 2.1 0 14:21 29.02.2020
2133 Clouds 9 1015 42 10000 2.1 130 13:45 29.02.2020
2134 Clouds 9 1015 45 10000 2.6 140 13:26 29.02.2020
2135 Clouds 9 1016 39 10000 2.6 130 12:56 29.02.2020
2136 Clouds 9 1016 39 10000 2.6 140 12:37 29.02.2020
2137 Clouds 9 1016 39 10000 2.6 140 12:19 29.02.2020
2138 Clouds 9 1016 37 10000 2.6 120 11:44 29.02.2020
2139 Clouds 9 1016 37 10000 2.6 120 11:26 29.02.2020
2140 Clouds 9 1016 39 10000 3.1 120 10:51 29.02.2020
2141 Clouds 9 1017 36 10000 2.1 110 10:29 29.02.2020
2142 Clouds 8 1017 36 10000 2.1 90 09:52 29.02.2020
2143 Clouds 7 1017 42 10000 1.5 40 09:28 29.02.2020
2144 Clouds 7 1017 48 10000 1.5 40 08:58 29.02.2020
2145 Clouds 6 1017 39 10000 1.5 60 08:38 29.02.2020
2146 Clouds 5 1017 39 10000 1.5 60 08:19 29.02.2020
2147 Clouds 5 1017 45 10000 2.1 40 07:46 29.02.2020
2148 Clouds 5 1017 52 10000 1.5 50 07:21 29.02.2020
2149 Clouds 5 1017 41 10000 1 130 06:54 29.02.2020
2150 Clouds 4 1018 60 10000 0.5 0 06:27 29.02.2020
2151 Clouds 4 1017 60 10000 0.5 0 05:49 29.02.2020
2152 Clouds 4 1018 52 10000 0.5 40 05:29 29.02.2020
2153 Clouds 4 1018 55 10000 0.5 0 03:46 29.02.2020
2154 Clouds 4 1019 55 10000 0.5 0 03:23 29.02.2020
2155 Clouds 4 1019 59 10000 0.5 10 02:47 29.02.2020
2156 Clouds 4 1019 51 10000 1 0 01:32 29.02.2020
2157 Clouds 5 1019 48 10000 0.5 0 00:44 29.02.2020
2158 Clouds 5 1019 48 10000 1 0 00:25 29.02.2020
2159 Clouds 5 1020 48 10000 1 360 23:38 28.02.2020
2160 Clouds 5 1020 48 10000 1 360 23:20 28.02.2020
2161 Clouds 6 1019 52 10000 0.5 0 22:42 28.02.2020
2162 Clouds 6 1019 52 10000 0.5 0 22:22 28.02.2020
2163 Clouds 7 1019 42 10000 1 330 21:42 28.02.2020
2164 Clouds 7 1019 42 10000 1 330 21:21 28.02.2020
2165 Clouds 7 1019 33 10000 1 0 20:56 28.02.2020
2166 Clear 8 1019 27 10000 1.5 300 20:38 28.02.2020
2167 Clear 8 1019 27 10000 1.5 300 20:19 28.02.2020
2168 Clear 9 1019 25 10000 1.5 260 19:56 28.02.2020
2169 Clear 9 1018 17 10000 1.5 220 19:37 28.02.2020
2170 Clear 10 1018 17 10000 1.5 220 19:19 28.02.2020
2171 Clear 11 1017 16 10000 1.5 220 18:46 28.02.2020
2172 Clear 12 1017 15 10000 1.5 190 18:23 28.02.2020
2173 Clear 13 1017 11 10000 1.5 0 17:41 28.02.2020
2174 Clear 13 1017 11 10000 1.5 0 17:23 28.02.2020
2175 Clear 13 1017 11 10000 1.5 0 17:23 28.02.2020
2176 Clear 14 1017 9 10000 1.5 310 16:56 28.02.2020
2177 Clear 14 1017 12 10000 0.5 0 16:37 28.02.2020
2178 Clear 14 1017 13 10000 1.5 350 16:19 28.02.2020
2179 Clear 15 1017 13 10000 1.5 350 15:55 28.02.2020
2180 Clear 15 1017 13 10000 1.5 350 15:55 28.02.2020
2181 Clear 15 1017 10 10000 2.6 50 15:36 28.02.2020
2182 Clear 15 1017 10 10000 2.6 50 15:18 28.02.2020
2183 Clear 14 1017 14 10000 3.1 10 14:42 28.02.2020
2184 -273 0 0 0 0 0 14:19 28.02.2020
2185 Clear 14 1017 14 10000 4.1 40 13:57 28.02.2020
2186 Clear 14 1017 14 10000 4.1 40 13:39 28.02.2020
2187 Clear 13 1017 15 10000 4.6 10 13:19 28.02.2020
2188 Clear 13 1017 16 10000 5.7 10 12:43 28.02.2020
2189 Clear 13 1017 16 10000 4.6 20 12:24 28.02.2020
2190 Clear 12 1017 15 10000 5.7 340 11:43 28.02.2020
2191 Clear 12 1017 18 10000 5.7 320 11:24 28.02.2020
2192 Clear 11 1016 17 10000 4.6 330 10:59 28.02.2020
2193 Clear 11 1016 17 10000 4.6 330 10:40 28.02.2020
2194 Clear 11 1016 17 10000 4.6 330 10:20 28.02.2020
2195 Clear 10 1016 20 10000 3.6 330 09:47 28.02.2020
2196 Clear 9 1016 19 10000 4.6 340 09:21 28.02.2020
2197 Clear 8 1015 23 10000 5.7 340 08:57 28.02.2020
2198 Clear 8 1015 23 10000 5.1 320 08:37 28.02.2020
2199 Clear 7 1015 23 10000 5.1 320 08:18 28.02.2020
2200 Clear 6 1014 23 10000 5.1 330 07:40 28.02.2020
2201 Clear 5 1014 23 10000 5.1 330 07:20 28.02.2020
2202 Clear 5 1013 23 10000 5.1 320 06:45 28.02.2020
2203 Clear 5 1013 28 10000 6.2 330 06:19 28.02.2020
2204 Clear 5 1010 52 10000 3.1 310 04:35 28.02.2020
2205 Clear 5 1009 60 10000 3.6 300 03:51 28.02.2020
2206 Clear 5 1008 60 10000 3.6 270 02:46 28.02.2020
2207 Clear 4 1008 60 10000 2.6 240 02:25 28.02.2020
2208 Clouds 4 1006 52 10000 3.6 280 00:48 28.02.2020
2209 Clouds 4 1006 52 10000 1.5 280 00:26 28.02.2020
2210 Clouds 5 1005 48 10000 4.1 340 23:42 27.02.2020
2211 Clouds 5 1005 48 10000 4.1 340 23:19 27.02.2020
2212 Clouds 5 1005 48 10000 3.6 340 22:43 27.02.2020
2213 Clouds 5 1004 42 10000 3.6 330 22:25 27.02.2020
2214 Clouds 5 1004 42 10000 3.1 330 21:57 27.02.2020
2215 Clouds 6 1004 42 10000 3.1 330 21:39 27.02.2020
2216 Clouds 6 1004 42 10000 3.1 330 21:19 27.02.2020
2217 Clouds 6 1003 36 10000 3.6 330 20:56 27.02.2020
2218 Clouds 6 1003 36 10000 2.1 330 20:38 27.02.2020
2219 Clouds 6 1003 36 10000 2.1 330 20:19 27.02.2020
2220 Rain 7 1005 60 10000 3.6 10 19:42 27.02.2020
2221 Clouds 7 1004 23 10000 1 0 19:24 27.02.2020
2222 Clouds 7 1004 25 10000 1.5 130 18:58 27.02.2020
2223 Clouds 8 1004 25 10000 1.5 130 18:40 27.02.2020
2224 Clouds 8 1005 25 10000 1.5 80 18:21 27.02.2020
2225 Clouds 9 1005 25 10000 2.1 100 17:57 27.02.2020
2226 Clouds 9 1005 25 10000 2.6 90 17:38 27.02.2020
2227 Clouds 9 1005 25 10000 2.6 90 17:19 27.02.2020
2228 Clouds 10 1006 25 10000 2.6 100 16:55 27.02.2020
2229 Clouds 10 1006 25 10000 2.6 80 16:36 27.02.2020
2230 Clouds 10 1006 25 10000 2.6 80 16:18 27.02.2020
2231 Clouds 10 1007 25 10000 1.5 40 15:54 27.02.2020
2232 Clouds 10 1007 27 10000 2.6 90 15:36 27.02.2020
2233 Clouds 11 1007 27 10000 2.6 90 15:18 27.02.2020
2234 Clouds 11 1008 27 10000 2.1 70 14:40 27.02.2020
2235 Clouds 11 1008 27 10000 1.5 60 14:21 27.02.2020
2236 Clouds 11 1009 23 10000 1.5 220 13:56 27.02.2020
2237 Clouds 11 1009 27 10000 1 0 13:37 27.02.2020
2238 Clouds 10 1009 27 10000 1 0 13:19 27.02.2020
2239 Clouds 11 1010 30 10000 1 0 12:44 27.02.2020
2240 Clouds 10 1011 27 10000 1.5 0 12:20 27.02.2020
2241 Clouds 10 1011 31 10000 1 0 11:46 27.02.2020
2242 Clear 9 1011 34 10000 1 0 11:23 27.02.2020
2243 Clear 8 1011 33 10000 1.5 0 10:56 27.02.2020
2244 Clear 8 1011 33 10000 1.5 0 10:37 27.02.2020
2245 Clear 7 1012 39 10000 3.1 270 10:19 27.02.2020
2246 Clear 6 1012 44 10000 3.6 260 09:41 27.02.2020
2247 Clear 5 1012 44 10000 3.6 260 09:23 27.02.2020
2248 Clear 4 1012 48 10000 3.6 260 08:44 27.02.2020
2249 Clear 3 1011 59 10000 2.6 260 08:26 27.02.2020
2250 Clear 1 1011 59 10000 3.1 260 07:59 27.02.2020
2251 Clear 1 1011 64 10000 3.1 270 07:39 27.02.2020
2252 Clear 1 1011 64 10000 3.1 270 07:19 27.02.2020
2253 Clear 1 1010 43 10000 2.1 350 06:20 27.02.2020
2254 Clear 2 1010 59 10000 1.5 220 04:24 27.02.2020
2255 Clear 3 1010 38 10000 1 0 02:58 27.02.2020
2256 Clouds 4 1009 33 10000 4.1 330 00:59 27.02.2020
2257 Clouds 4 1009 31 10000 4.1 310 00:37 27.02.2020
2258 Clouds 5 1009 33 10000 3.1 310 23:41 26.02.2020
2259 Clear 5 1008 33 10000 3.6 300 23:21 26.02.2020
2260 Clear 5 1008 28 10000 4.6 310 22:59 26.02.2020
2261 Clear 5 1007 28 10000 5.7 310 22:40 26.02.2020
2262 Clear 6 1007 28 10000 5.7 310 22:22 26.02.2020
2263 Clear 6 1006 28 10000 6.2 320 21:58 26.02.2020
2264 Clear 6 1006 28 10000 7.2 310 21:38 26.02.2020
2265 Clear 6 1006 28 10000 7.2 310 21:19 26.02.2020
2266 Clear 6 1005 31 10000 7.7 310 20:56 26.02.2020
2267 Clear 7 1005 29 10000 7.7 320 20:37 26.02.2020
2268 Clouds 7 1005 29 10000 7.7 320 20:18 26.02.2020
2269 Clouds 7 1005 29 10000 7.7 320 20:18 26.02.2020
2270 Clouds 7 1004 26 10000 8.7 320 19:47 26.02.2020
2271 Clouds 7 1003 23 10000 8.2 320 19:21 26.02.2020
2272 Clouds 8 1002 19 10000 7.7 320 18:59 26.02.2020
2273 Clouds 8 1001 17 10000 8.2 330 18:41 26.02.2020
2274 Clouds 9 1001 17 10000 8.2 330 18:22 26.02.2020
2275 Clouds 10 1000 14 10000 8.2 330 17:58 26.02.2020
2276 Clouds 10 1000 14 10000 8.2 330 17:39 26.02.2020
2277 Clouds 11 998 11 10000 8.2 330 17:18 26.02.2020
2278 Clouds 11 998 12 10000 8.7 320 16:43 26.02.2020
2279 Clouds 12 998 12 10000 8.7 320 16:22 26.02.2020
2280 Clouds 12 999 14 10000 7.7 310 15:56 26.02.2020
2281 Clouds 12 999 22 10000 8.2 320 15:38 26.02.2020
2282 Clouds 12 999 22 10000 8.2 320 15:19 26.02.2020
2283 Clouds 12 998 26 10000 8.7 320 14:42 26.02.2020
2284 Clouds 11 998 26 10000 8.7 320 14:23 26.02.2020
2285 Clouds 12 998 22 10000 7.2 310 13:43 26.02.2020
2286 Clouds 12 998 20 10000 7.2 290 13:22 26.02.2020
2287 Clouds 12 998 47 10000 4.6 280 12:42 26.02.2020
2288 Clouds 12 998 47 10000 4.6 280 12:23 26.02.2020
2289 Clouds 12 998 66 6000 2.6 270 11:59 26.02.2020
2290 Clouds 12 998 66 6000 2.6 270 11:41 26.02.2020
2291 Mist 11 999 87 2500 3.1 250 11:22 26.02.2020
2292 Fog 11 999 87 1600 3.6 230 10:56 26.02.2020
2293 Fog 11 999 93 2000 4.1 240 10:38 26.02.2020
2294 Fog 10 999 93 2000 4.1 240 10:20 26.02.2020
2295 Fog 10 999 93 2000 4.1 240 10:20 26.02.2020
2296 Fog 9 999 93 800 4.1 250 09:41 26.02.2020
2297 Fog 8 999 93 800 4.1 250 09:21 26.02.2020
2298 Mist 7 999 93 1600 3.6 260 08:54 26.02.2020
2299 Mist 7 999 93 1200 3.1 290 08:36 26.02.2020
2300 Mist 6 999 93 1200 3.1 290 08:18 26.02.2020
2301 Mist 6 999 93 1200 3.1 290 08:18 26.02.2020
2302 Fog 5 999 93 600 3.6 250 07:41 26.02.2020
2303 Fog 5 999 93 600 3.6 250 07:21 26.02.2020
2304 Mist 5 998 100 1500 2.6 250 06:48 26.02.2020
2305 Mist 5 998 93 4000 1.5 230 06:27 26.02.2020
2306 Mist 5 999 100 5000 1.5 260 05:48 26.02.2020
2307 Mist 6 999 93 5000 1 220 05:19 26.02.2020
2308 Mist 7 1000 93 5000 1 270 03:45 26.02.2020
2309 Mist 8 1001 87 5000 1 350 02:18 26.02.2020
2310 Mist 8 1002 93 5000 0.5 0 01:34 26.02.2020
2311 Mist 9 1002 93 5000 0.5 0 00:46 26.02.2020
2312 Mist 9 1002 93 5000 0.5 0 00:46 26.02.2020
2313 Mist 9 1002 93 5000 0.5 0 00:21 26.02.2020
2314 Mist 9 1002 87 5000 1 100 23:42 25.02.2020
2315 Clouds 9 1003 87 10000 0.5 0 23:24 25.02.2020
2316 Clouds 9 1003 87 10000 0.5 0 22:57 25.02.2020
2317 Clouds 9 1004 81 10000 1.5 250 22:39 25.02.2020
2318 Clouds 9 1004 81 10000 1.5 250 22:19 25.02.2020
2319 Clouds 9 1004 81 10000 1 0 21:38 25.02.2020
2320 Clouds 9 1005 81 10000 1.5 230 21:20 25.02.2020
2321 Clouds 10 1005 81 10000 1.5 230 20:57 25.02.2020
2322 Clouds 10 1005 81 10000 0.5 0 20:39 25.02.2020
2323 Clouds 10 1005 71 10000 1.5 180 20:20 25.02.2020
2324 Clouds 10 1005 71 10000 1.5 180 19:56 25.02.2020
2325 Clouds 10 1005 76 10000 1 180 19:38 25.02.2020
2326 Clouds 11 1005 76 10000 1 180 19:19 25.02.2020
2327 Clouds 11 1006 71 8000 0.5 0 18:41 25.02.2020
2328 Clouds 12 1006 71 8000 0.5 0 18:21 25.02.2020
2329 Clouds 12 1006 71 8000 1 350 17:56 25.02.2020
2330 Clouds 12 1006 76 8000 1.5 20 17:37 25.02.2020
2331 Clouds 12 1006 76 8000 1.5 20 17:19 25.02.2020
2332 Clouds 13 1007 67 8000 1.5 340 16:56 25.02.2020
2333 Clouds 13 1007 71 7000 2.1 350 16:38 25.02.2020
2334 Clouds 13 1007 71 7000 2.1 350 16:20 25.02.2020
2335 Mist 13 1007 67 3500 0.5 0 15:55 25.02.2020
2336 Mist 12 1008 76 3500 0.5 0 15:36 25.02.2020
2337 Mist 12 1008 76 3500 0.5 0 15:18 25.02.2020
2338 Mist 12 1009 71 4000 1 0 14:39 25.02.2020
2339 Mist 12 1009 71 4000 1 0 14:19 25.02.2020
2340 Mist 12 1009 71 4000 1 0 14:19 25.02.2020
2341 Mist 12 1009 71 4000 1 0 14:19 25.02.2020
2342 Mist 12 1009 71 4000 0.5 0 13:59 25.02.2020
2343 Mist 12 1009 71 4000 0.5 0 13:59 25.02.2020
2344 Mist 12 1010 76 4000 0.5 0 13:40 25.02.2020
2345 Mist 12 1010 76 4000 0.5 0 13:20 25.02.2020
2346 Mist 12 1010 76 4000 0.5 0 12:59 25.02.2020
2347 Mist 11 1011 76 4000 1 0 12:39 25.02.2020
2348 Mist 11 1011 76 4000 1 0 12:20 25.02.2020
2349 Mist 11 1011 81 4000 1 0 11:56 25.02.2020
2350 Mist 11 1011 81 4000 0.5 0 11:37 25.02.2020
2351 Mist 11 1011 81 4000 0.5 0 11:18 25.02.2020
2352 Mist 10 1012 81 4000 1 0 10:42 25.02.2020
2353 Mist 10 1012 81 4000 0.5 0 10:23 25.02.2020
2354 Mist 10 1012 81 4000 0.5 0 09:43 25.02.2020
2355 Mist 10 1012 81 4000 0.5 0 09:23 25.02.2020
2356 Mist 10 1013 87 4000 0.5 0 09:00 25.02.2020
2357 Mist 10 1013 87 4000 0.5 0 08:41 25.02.2020
2358 Mist 10 1012 87 5000 0.5 0 08:22 25.02.2020
2359 Mist 9 1013 87 5000 0.5 0 07:48 25.02.2020
2360 Clouds 9 1013 87 7000 1 30 07:23 25.02.2020
2361 Clouds 9 1013 87 7000 1 107 06:53 25.02.2020
2362 Clouds 9 1013 81 7000 0.5 80 05:43 25.02.2020
2363 Clouds 10 1014 81 6000 2.1 80 03:54 25.02.2020
2364 Clouds 10 1016 81 6000 1 50 02:32 25.02.2020
2365 Clouds 10 1017 81 6000 1 0 00:57 25.02.2020
2366 Clouds 10 1017 76 6000 1 0 00:30 25.02.2020
2367 Clouds 10 1017 81 6000 2.6 60 23:46 24.02.2020
2368 Clouds 10 1017 81 6000 2.6 60 23:28 24.02.2020
2369 Clouds 10 1018 81 6000 1.5 80 22:43 24.02.2020
2370 Clouds 10 1018 81 6000 1.5 80 22:21 24.02.2020
2371 Clouds 10 1018 81 6000 1.5 80 22:21 24.02.2020
2372 Clouds 10 1018 76 6000 2.1 100 21:58 24.02.2020
2373 Clouds 10 1018 76 6000 2.1 100 21:40 24.02.2020
2374 Clouds 10 1018 76 6000 3.6 110 21:20 24.02.2020
2375 Clouds 10 1018 76 6000 3.6 100 20:59 24.02.2020
2376 Clouds 10 1018 76 6000 3.6 100 20:59 24.02.2020
2377 Mist 11 1018 71 5000 2.1 90 20:41 24.02.2020
2378 Mist 11 1018 71 5000 2.1 90 20:19 24.02.2020
2379 Mist 11 1018 71 5000 3.1 90 19:58 24.02.2020
2380 Mist 12 1018 71 5000 3.1 110 19:40 24.02.2020
2381 Mist 12 1018 71 5000 3.1 110 19:21 24.02.2020
2382 Mist 13 1017 67 5000 3.6 130 18:55 24.02.2020
2383 Clear 13 1017 67 7000 4.1 110 18:37 24.02.2020
2384 Clear 13 1017 67 7000 4.1 110 18:18 24.02.2020
2385 Clear 14 1017 67 10000 4.6 120 17:40 24.02.2020
2386 Clear 15 1017 67 10000 4.6 120 17:20 24.02.2020
2387 Clear 15 1017 67 10000 4.6 120 17:20 24.02.2020
2388 Clear 16 1017 63 10000 4.6 120 16:58 24.02.2020
2389 Clear 16 1017 63 10000 4.6 120 16:39 24.02.2020
2390 Clear 17 1017 63 10000 5.1 130 16:20 24.02.2020
2391 Clear 17 1017 63 10000 5.1 130 16:20 24.02.2020
2392 Clear 17 1018 63 10000 5.7 120 15:58 24.02.2020
2393 Clear 18 1018 59 10000 4.6 140 15:39 24.02.2020
2394 Clear 18 1018 59 10000 4.6 140 15:21 24.02.2020
2395 Clear 18 1018 59 10000 4.6 140 14:57 24.02.2020
2396 Clear 18 1018 59 10000 4.6 160 14:38 24.02.2020
2397 Clouds 18 1018 59 10000 4.6 160 14:18 24.02.2020
2398 Clouds 19 1018 52 10000 3.1 190 13:56 24.02.2020
2399 Clouds 18 1019 55 10000 3.1 220 13:36 24.02.2020
2400 Clouds 18 1019 55 10000 3.1 220 13:18 24.02.2020
2401 Clouds 18 1019 55 10000 2.6 230 12:42 24.02.2020
2402 Clouds 18 1019 55 10000 2.6 230 12:24 24.02.2020
2403 Clouds 17 1019 63 10000 4.1 260 11:51 24.02.2020
2404 Clouds 17 1019 59 10000 4.6 260 11:32 24.02.2020
2405 Clouds 15 1019 62 10000 5.7 260 10:59 24.02.2020
2406 Clouds 15 1019 67 10000 5.1 270 10:40 24.02.2020
2407 Clouds 14 1019 67 10000 5.1 270 10:22 24.02.2020
2408 Clouds 12 1019 66 10000 4.6 280 09:40 24.02.2020
2409 Clouds 11 1019 66 10000 4.6 280 09:19 24.02.2020
2410 Clouds 11 1019 71 10000 4.6 280 08:52 24.02.2020
2411 Clouds 8 1019 76 10000 5.7 280 08:29 24.02.2020
2412 Clouds 7 1019 71 10000 5.1 280 07:56 24.02.2020
2413 Clouds 7 1018 71 10000 4.6 280 07:33 24.02.2020
2414 Clouds 7 1019 76 10000 4.1 290 06:52 24.02.2020
2415 Clouds 7 1019 76 10000 3.1 290 06:24 24.02.2020
2416 Clouds 7 1018 76 10000 1.5 290 05:45 24.02.2020
2417 Clouds 7 1018 81 10000 2.1 290 05:25 24.02.2020
2418 Clouds 8 1020 76 10000 4.1 290 02:58 24.02.2020
2419 Clouds 8 1020 76 10000 3.6 280 02:18 24.02.2020
2420 Clouds 8 1020 76 10000 2.6 290 01:31 24.02.2020
2421 Clouds 8 1021 81 10000 3.6 270 00:44 24.02.2020
2422 Clouds 9 1021 81 10000 3.6 270 00:20 24.02.2020
2423 Clouds 9 1021 81 10000 3.6 260 23:45 23.02.2020
2424 Clouds 9 1022 81 10000 4.1 270 23:24 23.02.2020
2425 Clouds 9 1022 81 10000 3.6 260 22:59 23.02.2020
2426 Clouds 9 1022 76 10000 3.1 280 22:41 23.02.2020
2427 Clouds 10 1022 76 10000 3.1 280 22:21 23.02.2020
2428 Clouds 10 1022 81 10000 2.6 250 21:54 23.02.2020
2429 Clouds 10 1022 76 10000 3.1 260 21:36 23.02.2020
2430 Clouds 10 1022 76 10000 3.1 260 21:18 23.02.2020
2431 Clouds 10 1022 76 10000 3.6 270 20:55 23.02.2020
2432 Clouds 11 1022 76 10000 2.6 270 20:36 23.02.2020
2433 Clouds 11 1022 76 10000 2.6 270 20:18 23.02.2020
2434 Clouds 11 1023 71 10000 3.1 270 19:41 23.02.2020
2435 Clouds 12 1023 71 10000 4.1 260 19:20 23.02.2020
2436 Clouds 12 1023 67 10000 3.1 280 18:59 23.02.2020
2437 Clouds 12 1022 67 10000 2.6 260 18:38 23.02.2020
2438 Clouds 13 1022 67 10000 2.6 260 18:19 23.02.2020
2439 Clouds 13 1023 62 10000 2.6 300 17:58 23.02.2020
2440 Clouds 14 1023 67 10000 2.6 280 17:39 23.02.2020
2441 Clouds 14 1023 67 10000 2.6 280 17:21 23.02.2020
2442 Clouds 15 1023 62 10000 2.6 290 16:54 23.02.2020
2443 Clouds 15 1023 62 10000 3.6 290 16:36 23.02.2020
2444 Clouds 15 1023 62 10000 3.6 290 16:18 23.02.2020
2445 Clouds 15 1024 62 10000 4.6 280 15:40 23.02.2020
2446 Clouds 15 1024 62 10000 4.6 280 15:21 23.02.2020
2447 Clouds 15 1024 62 10000 5.1 290 14:59 23.02.2020
2448 Clouds 15 1024 67 10000 5.7 270 14:40 23.02.2020
2449 Clouds 15 1024 67 10000 5.7 270 14:22 23.02.2020
2450 Clouds 15 1025 67 10000 4.6 270 13:57 23.02.2020
2451 Clouds 15 1026 62 10000 5.1 270 13:38 23.02.2020
2452 Clouds 15 1026 62 10000 5.1 270 13:20 23.02.2020
2453 Clouds 14 1027 66 10000 3.1 290 12:43 23.02.2020
2454 Clouds 14 1027 66 10000 3.1 290 12:43 23.02.2020
2455 Clouds 14 1027 66 10000 3.1 290 12:22 23.02.2020
2456 Clouds 13 1027 62 10000 4.6 300 11:57 23.02.2020
2457 Clouds 13 1027 66 10000 5.1 280 11:37 23.02.2020
2458 Clouds 12 1027 66 10000 5.1 280 11:18 23.02.2020
2459 Clouds 11 1027 66 10000 3.6 290 10:54 23.02.2020
2460 Clouds 11 1027 71 10000 1 0 10:36 23.02.2020
2461 Clouds 10 1027 71 10000 1 0 10:18 23.02.2020
2462 Clouds 9 1027 75 10000 2.6 10 09:40 23.02.2020
2463 Clouds 7 1027 75 10000 2.6 360 09:21 23.02.2020
2464 Clouds 7 1027 80 8000 2.1 350 08:56 23.02.2020
2465 Clouds 6 1027 75 8000 2.6 360 08:36 23.02.2020
2466 Clouds 4 1027 75 8000 2.6 360 08:18 23.02.2020
2467 Clouds 4 1027 80 10000 0.5 0 07:40 23.02.2020
2468 Clouds 4 1027 75 10000 1.5 270 06:39 23.02.2020
2469 Clouds 4 1027 75 10000 1.5 290 05:48 23.02.2020
2470 Clouds 4 1027 75 10000 1.5 250 04:42 23.02.2020
2471 Clouds 5 1029 80 10000 1 0 03:21 23.02.2020
2472 Clouds 5 1029 81 10000 1.5 280 02:26 23.02.2020
2473 Clouds 5 1030 86 10000 1 0 01:24 23.02.2020
2474 Clouds 5 1030 87 10000 0.5 0 00:47 23.02.2020
2475 Clouds 6 1031 87 10000 0.5 0 00:25 23.02.2020
2476 Clouds 6 1031 75 10000 1 280 23:45 22.02.2020
2477 Clouds 6 1031 75 10000 1 280 23:27 22.02.2020
2478 Clouds 6 1031 81 10000 1 280 22:57 22.02.2020
2479 Clouds 6 1031 70 10000 0.5 260 22:38 22.02.2020
2480 Clouds 7 1031 70 10000 0.5 260 22:18 22.02.2020
2481 Clouds 7 1031 70 10000 1 270 21:40 22.02.2020
2482 Clouds 7 1031 75 10000 0.5 0 21:22 22.02.2020
2483 Clouds 8 1031 61 10000 1 200 20:46 22.02.2020
2484 Clouds 8 1031 61 10000 1 200 20:24 22.02.2020
2485 Clear 9 1031 70 10000 1.5 190 19:56 22.02.2020
2486 Clear 9 1031 70 10000 1.5 190 19:37 22.02.2020
2487 Clear 10 1031 50 10000 1.5 190 19:18 22.02.2020
2488 Clear 11 1031 47 10000 1 0 18:39 22.02.2020
2489 Clear 11 1031 47 10000 1 0 18:21 22.02.2020
2490 Clear 12 1030 47 10000 1.5 170 17:57 22.02.2020
2491 Clear 13 1030 41 10000 0.5 0 17:38 22.02.2020
2492 Clear 13 1030 41 10000 0.5 0 17:19 22.02.2020
2493 Clear 14 1030 41 10000 1 0 16:56 22.02.2020
2494 Clear 14 1031 41 10000 1 0 16:38 22.02.2020
2495 Clear 14 1031 41 10000 1 0 16:19 22.02.2020
2496 Clear 14 1031 44 10000 1.5 240 15:42 22.02.2020
2497 Clear 14 1031 44 10000 1 0 15:22 22.02.2020
2498 Clear 14 1032 50 10000 1 0 14:43 22.02.2020
2499 Clear 14 1032 50 10000 1 0 14:22 22.02.2020
2500 Clear 13 1032 50 10000 1.5 0 13:56 22.02.2020
2501 Clear 13 1032 50 10000 1.5 0 13:38 22.02.2020
2502 Clear 13 1032 50 10000 1.5 0 13:18 22.02.2020
2503 Clear 13 1033 57 10000 1 0 12:41 22.02.2020
2504 Clear 12 1033 57 10000 1 0 12:23 22.02.2020
2505 Clear 11 1033 61 10000 1.5 230 11:44 22.02.2020
2506 Clear 11 1033 61 10000 1.5 230 11:26 22.02.2020
2507 Clear 10 1033 61 10000 1.5 210 10:56 22.02.2020
2508 Clear 10 1033 66 10000 1 0 10:38 22.02.2020
2509 Clear 9 1033 66 10000 1 0 10:19 22.02.2020
2510 Clear 8 1033 70 10000 0.5 0 09:56 22.02.2020
2511 Clear 8 1033 70 10000 0.5 0 09:38 22.02.2020
2512 Clear 6 1033 75 10000 1 180 09:19 22.02.2020
2513 Clear 5 1032 86 10000 0.5 220 08:44 22.02.2020
2514 Clear 3 1031 86 10000 1 10 08:26 22.02.2020
2515 Clear 2 1031 65 8000 0.5 340 07:43 22.02.2020
2516 Clear 2 1031 65 10000 1.5 360 07:19 22.02.2020
2517 Clear 3 1031 86 10000 0.5 0 06:46 22.02.2020
2518 Clear 3 1030 80 10000 1.5 350 05:44 22.02.2020
2519 Clear 3 1030 80 10000 0.5 340 04:29 22.02.2020
2520 Clear 4 1029 75 10000 3.1 50 02:43 22.02.2020
2521 Clouds 4 1029 70 10000 2.1 50 01:53 22.02.2020
2522 Clouds 5 1029 75 10000 2.1 30 01:30 22.02.2020
2523 Clouds 6 1028 70 10000 2.6 50 00:58 22.02.2020
2524 Clouds 6 1028 70 10000 3.1 80 00:36 22.02.2020
2525 Clouds 6 1028 70 10000 3.1 80 00:18 22.02.2020
2526 Clouds 6 1028 64 10000 0.5 0 23:37 21.02.2020
2527 Clear 7 1028 69 10000 1.5 10 23:18 21.02.2020
2528 Clear 7 1028 69 10000 1.5 10 23:18 21.02.2020
2529 Clear 7 1028 69 10000 1.5 360 22:42 21.02.2020
2530 Clear 7 1027 75 10000 0.5 0 22:24 21.02.2020
2531 Clear 8 1026 59 10000 0.5 0 21:56 21.02.2020
2532 Clear 8 1026 59 10000 0.5 0 21:56 21.02.2020
2533 Clear 8 1026 59 10000 0.5 0 21:37 21.02.2020
2534 Clear 8 1026 59 10000 0.5 0 21:19 21.02.2020
2535 Clear 9 1026 66 10000 3.1 110 20:41 21.02.2020
2536 Clouds 9 1026 66 10000 3.1 110 20:23 21.02.2020
2537 Clouds 10 1025 62 10000 2.6 120 19:40 21.02.2020
2538 Clouds 10 1025 62 10000 2.6 120 19:20 21.02.2020
2539 Clouds 11 1024 37 10000 0.5 0 18:43 21.02.2020
2540 Clouds 12 1024 41 10000 2.1 120 18:24 21.02.2020
2541 Clouds 13 1023 41 10000 1.5 160 17:57 21.02.2020
2542 Clouds 14 1023 38 10000 1 0 17:37 21.02.2020
2543 Clouds 14 1023 38 10000 1 0 17:19 21.02.2020
2544 Clouds 15 1023 38 10000 1.5 250 16:44 21.02.2020
2545 Clouds 15 1023 36 10000 1 0 16:22 21.02.2020
2546 Clouds 15 1023 41 10000 1.5 250 15:59 21.02.2020
2547 Clouds 15 1023 41 10000 2.6 230 15:38 21.02.2020
2548 Clouds 15 1023 41 10000 2.6 230 15:18 21.02.2020
2549 Clouds 15 1023 47 10000 4.1 280 14:42 21.02.2020
2550 Clouds 14 1023 47 10000 4.1 280 14:21 21.02.2020
2551 Clouds 14 1023 50 10000 3.6 270 13:58 21.02.2020
2552 Clouds 14 1023 54 10000 3.6 270 13:38 21.02.2020
2553 Clear 13 1023 54 10000 3.6 270 13:20 21.02.2020
2554 Clear 13 1023 50 10000 4.1 270 12:42 21.02.2020
2555 Clear 12 1023 46 10000 2.6 250 12:24 21.02.2020
2556 Clear 12 1023 43 10000 2.1 240 11:55 21.02.2020
2557 Clear 12 1023 43 10000 2.1 240 11:55 21.02.2020
2558 Clear 11 1023 40 10000 2.6 270 11:36 21.02.2020
2559 Clear 10 1023 37 10000 2.1 250 11:18 21.02.2020
2560 Clear 9 1023 37 10000 1 0 10:41 21.02.2020
2561 Clear 9 1023 37 10000 1 0 10:20 21.02.2020
2562 Clear 8 1023 65 10000 0.5 0 09:58 21.02.2020
2563 Clear 7 1023 75 10000 0.5 0 09:38 21.02.2020
2564 Clear 6 1023 75 10000 0.5 0 09:20 21.02.2020
2565 Clear 4 1022 37 10000 1 0 08:45 21.02.2020
2566 Clear 3 1022 80 10000 1.5 280 08:23 21.02.2020
2567 Clear 1 1022 42 10000 1 0 07:59 21.02.2020
2568 Clear 1 1022 42 10000 1 0 07:41 21.02.2020
2569 Clear 1 1023 86 10000 1.5 90 07:20 21.02.2020
2570 Clear 2 1022 42 10000 0.5 0 06:53 21.02.2020
2571 Clear 2 1022 42 10000 1 20 06:31 21.02.2020
2572 Clear 2 1022 42 10000 0.5 0 05:52 21.02.2020
2573 Clear 2 1022 49 10000 0.5 0 04:39 21.02.2020
2574 Clear 2 1022 49 10000 0.5 0 04:20 21.02.2020
2575 Clear 3 1022 49 10000 0.5 0 03:42 21.02.2020
2576 Clear 3 1023 74 10000 1 0 02:58 21.02.2020
2577 Clear 3 1024 74 10000 0.5 0 01:25 21.02.2020
2578 Clear 4 1024 80 10000 1.5 350 00:46 21.02.2020
2579 Clear 4 1023 64 10000 0.5 0 00:23 21.02.2020
2580 Clear 4 1023 74 10000 2.1 360 23:46 20.02.2020
2581 Clear 4 1023 74 10000 2.1 360 23:26 20.02.2020
2582 Clear 4 1023 66 10000 1 20 22:59 20.02.2020
2583 Clear 4 1023 75 10000 1.5 30 22:39 20.02.2020
2584 Clear 5 1023 75 10000 1.5 30 22:20 20.02.2020
2585 Clear 5 1023 66 10000 1.5 20 21:56 20.02.2020
2586 Clear 6 1023 66 10000 0.5 0 21:37 20.02.2020
2587 Clear 6 1023 66 10000 0.5 0 21:19 20.02.2020
2588 Clear 7 1023 55 10000 2.1 30 20:55 20.02.2020
2589 Clear 7 1024 65 10000 0.5 0 20:37 20.02.2020
2590 Clouds 7 1023 63 10000 1 180 20:18 20.02.2020
2591 Clouds 8 1023 63 10000 1 180 19:57 20.02.2020
2592 Clouds 8 1023 40 10000 1.5 160 19:39 20.02.2020
2593 Clouds 8 1023 40 10000 1.5 160 19:39 20.02.2020
2594 Clouds 9 1023 40 10000 1.5 160 19:20 20.02.2020
2595 Clouds 10 1023 37 10000 1.5 170 18:39 20.02.2020
2596 Clouds 10 1023 37 10000 1.5 170 18:39 20.02.2020
2597 Clouds 11 1023 37 10000 1.5 170 18:20 20.02.2020
2598 Clouds 11 1023 30 10000 0.5 0 17:54 20.02.2020
2599 Clouds 11 1023 30 10000 0.5 0 17:54 20.02.2020
2600 Clouds 12 1023 30 10000 0.5 0 17:36 20.02.2020
2601 Clouds 12 1023 35 10000 1 0 17:18 20.02.2020
2602 Clouds 12 1023 35 10000 1 0 16:54 20.02.2020
2603 Clouds 13 1023 35 10000 1.5 180 16:36 20.02.2020
2604 Clouds 13 1023 35 10000 1.5 180 16:18 20.02.2020
2605 Clouds 13 1023 24 10000 2.6 190 15:41 20.02.2020
2606 Clouds 13 1023 35 10000 2.6 160 15:20 20.02.2020
2607 Clouds 13 1024 37 10000 2.1 180 14:55 20.02.2020
2608 Clouds 13 1024 37 10000 1.5 180 14:37 20.02.2020
2609 Clouds 12 1024 37 10000 1.5 180 14:19 20.02.2020
2610 Clouds 12 1025 32 10000 1.5 0 13:44 20.02.2020
2611 Clouds 12 1025 32 10000 1.5 0 13:20 20.02.2020
2612 Clouds 12 1025 34 10000 1 0 12:58 20.02.2020
2613 Clouds 12 1025 34 10000 1 0 12:38 20.02.2020
2614 Clouds 12 1026 39 10000 1.5 180 12:19 20.02.2020
2615 Clouds 11 1026 39 10000 2.1 180 11:43 20.02.2020
2616 Clear 10 1026 39 10000 1.5 0 11:23 20.02.2020
2617 Clear 10 1026 45 10000 2.1 240 10:58 20.02.2020
2618 Clear 9 1026 49 10000 1.5 210 10:40 20.02.2020
2619 Clear 9 1026 49 10000 1.5 210 10:21 20.02.2020
2620 Clear 9 1026 49 10000 1.5 210 10:21 20.02.2020
2621 Clear 8 1026 48 10000 1.5 200 09:47 20.02.2020
2622 Clear 6 1026 52 10000 1.5 200 09:25 20.02.2020
2623 Clear 5 1025 64 10000 1.5 360 08:59 20.02.2020
2624 Clear 5 1025 64 10000 1.5 360 08:39 20.02.2020
2625 Clear 3 1025 59 10000 1.5 350 08:21 20.02.2020
2626 Clear 2 1024 59 10000 2.1 360 07:45 20.02.2020
2627 Clear 2 1024 59 10000 2.1 360 07:26 20.02.2020
2628 Clear 2 1024 55 10000 2.6 10 06:55 20.02.2020
2629 Clear 2 1024 64 10000 3.1 20 06:27 20.02.2020
2630 Clear 2 1023 33 10000 3.6 20 05:46 20.02.2020
2631 Clear 3 1023 64 10000 2.6 20 04:55 20.02.2020
2632 Clear 3 1023 59 10000 0.5 0 04:19 20.02.2020
2633 Clear 3 1023 64 10000 1 0 03:30 20.02.2020
2634 Clear 5 1023 39 10000 3.1 140 02:26 20.02.2020
2635 Clear 6 1022 42 10000 2.6 40 01:18 20.02.2020
2636 Clear 7 1022 31 10000 3.1 80 00:33 20.02.2020
2637 Clear 7 1021 36 10000 3.1 40 23:52 19.02.2020
2638 Clear 8 1021 39 10000 2.6 40 23:23 19.02.2020
2639 Clear 8 1021 29 10000 2.6 340 22:54 19.02.2020
2640 Clear 9 1021 37 10000 2.6 350 22:36 19.02.2020
2641 Clear 9 1021 37 10000 2.6 350 22:18 19.02.2020
2642 Clear 9 1020 49 10000 2.6 360 21:41 19.02.2020
2643 Clear 9 1020 49 10000 2.6 360 21:19 19.02.2020
2644 Clear 10 1020 61 10000 1.5 340 20:58 19.02.2020
2645 Clear 10 1020 61 10000 1.5 340 20:58 19.02.2020
2646 Clear 10 1020 71 10000 2.1 300 20:40 19.02.2020
2647 Clear 10 1020 71 10000 2.1 300 20:20 19.02.2020
2648 Clear 10 1020 71 10000 2.1 270 19:59 19.02.2020
2649 Clear 10 1020 71 10000 2.1 270 19:39 19.02.2020
2650 Clear 10 1019 71 10000 2.1 290 19:20 19.02.2020
2651 Clear 11 1019 66 10000 2.6 270 18:59 19.02.2020
2652 Clear 11 1018 62 10000 2.6 260 18:40 19.02.2020
2653 Clear 11 1018 62 10000 2.6 260 18:22 19.02.2020
2654 Clear 13 1018 50 10000 3.1 260 17:59 19.02.2020
2655 Clear 13 1018 58 10000 2.6 280 17:41 19.02.2020
2656 Clear 13 1018 58 10000 2.6 280 17:19 19.02.2020
2657 Clear 14 1018 62 10000 2.1 260 16:43 19.02.2020
2658 Clear 14 1018 62 10000 2.1 260 16:19 19.02.2020
2659 Clouds 14 1018 66 7000 2.6 230 15:57 19.02.2020
2660 Clouds 14 1019 71 7000 2.6 270 15:38 19.02.2020
2661 Clouds 14 1019 71 7000 2.6 270 15:19 19.02.2020
2662 Clear 13 1019 71 7000 3.1 240 14:41 19.02.2020
2663 Clouds 13 1019 71 7000 3.1 240 14:23 19.02.2020
2664 Clouds 12 1020 76 7000 3.1 240 13:55 19.02.2020
2665 Mist 12 1020 76 5000 2.6 230 13:36 19.02.2020
2666 Mist 12 1020 76 5000 2.6 230 13:18 19.02.2020
2667 Mist 12 1021 87 3000 2.6 220 12:38 19.02.2020
2668 Mist 12 1021 87 3000 2.6 220 12:19 19.02.2020
2669 Mist 11 1021 87 3000 2.6 220 12:19 19.02.2020
2670 Mist 11 1022 87 3000 2.1 230 11:54 19.02.2020
2671 Mist 11 1022 87 3000 3.1 210 11:36 19.02.2020
2672 Mist 10 1022 87 3000 3.1 210 11:18 19.02.2020
2673 Mist 9 1022 87 4000 2.6 200 10:54 19.02.2020
2674 Clouds 9 1022 87 6000 2.1 200 10:36 19.02.2020
2675 Clouds 8 1022 87 6000 2.1 200 10:18 19.02.2020
2676 Clouds 7 1022 81 6000 0.5 0 09:41 19.02.2020
2677 Clouds 7 1022 87 6000 1 200 09:41 19.02.2020
2678 Clouds 6 1022 81 6000 0.5 0 09:20 19.02.2020
2679 Clouds 6 1022 87 6000 0.5 0 08:48 19.02.2020
2680 Clouds 5 1022 81 6000 1 0 08:24 19.02.2020
2681 Clouds 5 1022 93 10000 0.5 0 07:57 19.02.2020
2682 Clouds 5 1022 93 10000 0.5 0 07:38 19.02.2020
2683 Clouds 5 1022 93 10000 1 0 07:18 19.02.2020
2684 Fog 5 1021 93 5000 1 0 06:42 19.02.2020
2685 Fog 5 1021 100 3500 0.5 0 05:26 19.02.2020
2686 Fog 4 1022 100 2000 0.5 0 03:52 19.02.2020
2687 Mist 5 1023 100 4000 2.1 30 02:35 19.02.2020
2688 Mist 5 1023 100 5000 1.5 360 01:38 19.02.2020
2689 Mist 5 1023 100 5000 1.5 360 01:20 19.02.2020
2690 Mist 6 1024 93 5000 1 350 00:39 19.02.2020
2691 Clear 6 1024 93 6000 1 20 23:59 18.02.2020
2692 Mist 6 1024 93 4000 1 0 23:39 18.02.2020
2693 Clear 7 1024 93 6000 1 0 23:19 18.02.2020
2694 Mist 6 1024 93 4000 1 0 23:19 18.02.2020
2695 Mist 6 1024 93 4000 1 0 23:19 18.02.2020
2696 Mist 6 1024 93 4000 1 0 23:19 18.02.2020
2697 Clear 7 1024 93 6000 1 0 22:55 18.02.2020
2698 Clear 7 1024 93 6000 1 0 22:36 18.02.2020
2699 Clear 7 1024 93 6000 1 0 22:18 18.02.2020
2700 Clear 8 1024 87 8000 2.1 120 21:38 18.02.2020
2701 Clear 8 1024 87 8000 2.1 120 21:38 18.02.2020
2702 Clear 8 1024 87 8000 2.1 120 21:38 18.02.2020
2703 Clear 8 1024 87 8000 2.1 120 21:20 18.02.2020
2704 Clear 8 1024 93 8000 1 0 20:59 18.02.2020
2705 Clear 8 1024 93 8000 1 0 20:59 18.02.2020
2706 Clear 9 1024 87 8000 1.5 70 20:39 18.02.2020
2707 Clear 9 1024 87 8000 1.5 70 20:39 18.02.2020
2708 Clear 9 1024 87 8000 1.5 70 20:21 18.02.2020
2709 Clear 9 1023 81 8000 1.5 80 19:57 18.02.2020
2710 Clear 9 1023 81 8000 1.5 80 19:57 18.02.2020
2711 Clear 10 1023 76 8000 2.6 110 19:39 18.02.2020
2712 Clear 10 1023 76 8000 2.6 110 19:19 18.02.2020
2713 Mist 11 1023 71 5000 2.6 120 18:42 18.02.2020
2714 Mist 12 1023 71 5000 2.6 120 18:21 18.02.2020
2715 Mist 12 1023 71 5000 2.6 120 18:21 18.02.2020
2716 Clear 13 1022 67 7000 3.1 110 17:57 18.02.2020
2717 Clear 13 1022 67 8000 2.1 130 17:39 18.02.2020
2718 Clear 13 1022 67 8000 2.1 130 17:39 18.02.2020
2719 Clear 14 1022 67 8000 2.1 130 17:19 18.02.2020
2720 Clear 15 1023 54 10000 2.1 140 16:40 18.02.2020
2721 Clear 15 1023 54 10000 2.1 140 16:21 18.02.2020
2722 Clear 15 1023 62 7000 1 0 15:42 18.02.2020
2723 Clear 15 1023 62 7000 1 0 15:21 18.02.2020
2724 Clear 15 1023 62 7000 1 0 14:59 18.02.2020
2725 Clear 15 1024 66 6000 1.5 220 14:41 18.02.2020
2726 Clear 15 1024 66 6000 1.5 220 14:21 18.02.2020
2727 Clear 14 1024 76 6000 2.1 250 13:59 18.02.2020
2728 Clear 14 1024 81 6000 3.1 250 13:40 18.02.2020
2729 Clear 14 1024 81 6000 3.1 250 13:21 18.02.2020
2730 Clouds 13 1025 81 6000 2.6 240 12:44 18.02.2020
2731 Clouds 13 1025 81 6000 2.6 240 12:25 18.02.2020
2732 Clouds 13 1025 87 6000 3.1 240 11:56 18.02.2020
2733 Clouds 12 1025 81 6000 2.1 230 11:38 18.02.2020
2734 Clouds 11 1025 81 6000 2.1 230 11:20 18.02.2020
2735 Mist 10 1025 87 4000 2.1 230 10:44 18.02.2020
2736 Mist 9 1025 81 2500 1 0 10:23 18.02.2020
2737 Mist 8 1025 87 2000 1.5 230 09:56 18.02.2020
2738 Mist 8 1024 93 2000 1 0 09:38 18.02.2020
2739 Mist 7 1024 93 2000 1 0 09:19 18.02.2020
2740 Mist 7 1024 93 3500 1.5 220 08:55 18.02.2020
2741 Mist 5 1024 93 3500 1.5 290 08:37 18.02.2020
2742 Mist 5 1023 87 3500 2.1 280 08:18 18.02.2020
2743 Mist 5 1023 93 3500 2.1 270 07:45 18.02.2020
2744 Mist 5 1023 93 3500 2.1 270 07:25 18.02.2020
2745 Mist 5 1023 100 3500 2.6 250 06:50 18.02.2020
2746 Mist 5 1023 93 2500 2.1 250 06:28 18.02.2020
2747 Mist 5 1022 100 2500 2.1 250 05:47 18.02.2020
2748 Mist 6 1023 93 2500 2.1 270 05:18 18.02.2020
2749 Mist 7 1023 93 2500 1.5 250 03:41 18.02.2020
2750 Mist 7 1023 93 2500 1.5 250 02:58 18.02.2020
2751 Drizzle 8 1023 100 2500 0.5 0 01:25 18.02.2020
2752 Drizzle 8 1023 93 2500 1 0 00:22 18.02.2020
2753 Drizzle 8 1023 100 2500 0.5 0 23:59 17.02.2020
2754 Drizzle 8 1023 93 2500 0.5 0 23:38 17.02.2020
2755 Drizzle 9 1023 93 2500 0.5 0 23:19 17.02.2020
2756 Rain 9 1023 100 3000 1.5 90 22:56 17.02.2020
2757 Rain 9 1023 100 3500 1 60 22:38 17.02.2020
2758 Rain 9 1023 100 3500 1 60 22:18 17.02.2020
2759 Drizzle 9 1023 100 5000 0.5 0 21:39 17.02.2020
2760 Drizzle 9 1023 100 5000 0.5 0 21:18 17.02.2020
2761 Drizzle 9 1023 100 5000 1 0 20:43 17.02.2020
2762 Drizzle 9 1023 100 5000 0.74 58 20:22 17.02.2020
2763 Drizzle 9 1023 100 5000 0.5 0 19:59 17.02.2020
2764 Drizzle 9 1023 100 5000 0.5 0 19:41 17.02.2020
2765 Drizzle 9 1023 100 5000 0.5 210 19:20 17.02.2020
2766 -273 0 0 0 0 0 18:39 17.02.2020
2767 Drizzle 9 1023 100 3000 1.5 200 18:20 17.02.2020
2768 Drizzle 9 1023 100 3000 0.5 0 17:59 17.02.2020
2769 Drizzle 9 1023 100 2500 0.5 0 17:38 17.02.2020
2770 Drizzle 10 1023 100 2500 0.5 0 17:19 17.02.2020
2771 Clouds 10 1023 76 6000 1 0 16:57 17.02.2020
2772 Drizzle 10 1023 100 2000 1 0 16:39 17.02.2020
2773 Drizzle 10 1023 100 2000 1 0 16:20 17.02.2020
2774 Drizzle 10 1024 100 1500 1.5 250 15:45 17.02.2020
2775 Drizzle 10 1024 100 1500 1.5 250 15:26 17.02.2020
2776 Drizzle 10 1024 100 1500 1.5 250 14:56 17.02.2020
2777 Drizzle 10 1024 93 1200 1.5 240 14:38 17.02.2020
2778 Drizzle 10 1024 93 1200 1.5 240 14:19 17.02.2020
2779 Drizzle 10 1025 93 1200 1.5 260 13:41 17.02.2020
2780 Drizzle 10 1025 100 1200 0.5 0 13:21 17.02.2020
2781 Drizzle 10 1025 93 1200 0.5 0 12:59 17.02.2020
2782 Drizzle 10 1026 93 1200 0.5 0 12:40 17.02.2020
2783 Drizzle 10 1026 93 1200 0.5 0 12:22 17.02.2020
2784 Drizzle 9 1026 93 1500 1 0 11:47 17.02.2020
2785 Drizzle 9 1026 93 1500 1 0 11:27 17.02.2020
2786 Drizzle 9 1026 100 1200 1 0 10:58 17.02.2020
2787 Drizzle 9 1026 100 1200 1.5 40 10:39 17.02.2020
2788 Drizzle 8 1026 100 1200 1.5 40 10:20 17.02.2020
2789 Drizzle 8 1026 100 1200 1.5 30 09:57 17.02.2020
2790 Drizzle 8 1026 100 1200 0.78 338 09:38 17.02.2020
2791 Drizzle 8 1026 100 1200 0.78 338 09:19 17.02.2020
2792 Drizzle 7 1026 93 1200 0.5 0 08:42 17.02.2020
2793 Drizzle 7 1026 93 1200 0.5 0 08:23 17.02.2020
2794 Drizzle 7 1026 93 1300 0.5 0 07:59 17.02.2020
2795 Mist 7 1026 93 1200 0.5 40 07:38 17.02.2020
2796 Mist 7 1026 93 1200 0.5 40 07:19 17.02.2020
2797 Mist 7 1026 100 2500 1 140 06:42 17.02.2020
2798 Mist 7 1026 100 2500 1 140 06:24 17.02.2020
2799 Mist 7 1026 93 2500 0.5 30 05:40 17.02.2020
2800 Mist 7 1027 93 4000 1.5 200 04:25 17.02.2020
2801 Mist 7 1027 87 5000 1 160 02:49 17.02.2020
2802 Clouds 7 1028 81 6000 0.5 0 01:22 17.02.2020
2803 Clouds 7 1027 81 6000 1 100 00:37 17.02.2020
2804 Clouds 8 1028 81 6000 0.5 0 00:18 17.02.2020
2805 Clouds 8 1028 81 6000 0.5 0 23:41 16.02.2020
2806 Clouds 8 1028 81 6000 0.5 0 23:22 16.02.2020
2807 Clouds 8 1028 76 7000 0.5 0 22:55 16.02.2020
2808 Clouds 8 1028 76 7000 1 200 22:37 16.02.2020
2809 Clouds 8 1028 76 7000 1 200 22:18 16.02.2020
2810 Clouds 8 1028 76 8000 1 180 21:43 16.02.2020
2811 Clouds 8 1028 76 8000 1 180 21:24 16.02.2020
2812 Clouds 8 1028 71 10000 1 0 20:58 16.02.2020
2813 Clouds 9 1028 76 10000 0.5 0 20:40 16.02.2020
2814 Clouds 9 1028 76 10000 0.5 0 20:22 16.02.2020
2815 Clouds 9 1028 71 10000 1.1 233 19:59 16.02.2020
2816 Clouds 9 1028 71 10000 1.1 233 19:40 16.02.2020
2817 Clouds 10 1028 71 10000 0.5 0 19:19 16.02.2020
2818 Clouds 10 1028 71 8000 0.5 0 18:58 16.02.2020
2819 Clouds 11 1028 66 7000 0.5 0 18:40 16.02.2020
2820 Clouds 11 1028 66 7000 0.5 0 18:21 16.02.2020
2821 Clouds 12 1028 62 8000 2.1 260 17:43 16.02.2020
2822 Clouds 12 1028 62 8000 2.1 260 17:20 16.02.2020
2823 Clouds 12 1028 62 8000 2.6 250 16:56 16.02.2020
2824 Clouds 12 1028 58 7000 2.6 280 16:38 16.02.2020
2825 Clouds 12 1028 58 7000 2.6 280 16:20 16.02.2020
2826 Clouds 13 1027 58 7000 2.6 270 15:42 16.02.2020
2827 Clouds 13 1028 58 6000 2.6 270 15:23 16.02.2020
2828 Mist 13 1028 62 4500 2.6 270 14:59 16.02.2020
2829 Mist 13 1028 58 4000 1.5 190 14:38 16.02.2020
2830 Mist 12 1028 58 4000 1.5 190 14:19 16.02.2020
2831 Mist 12 1029 58 4500 1 0 13:45 16.02.2020
2832 Mist 12 1029 58 4500 1 0 13:24 16.02.2020
2833 Mist 12 1029 58 4500 1 0 13:24 16.02.2020
2834 Mist 12 1029 66 4500 1.5 60 12:54 16.02.2020
2835 Mist 12 1029 66 4500 1.5 30 12:36 16.02.2020
2836 Mist 11 1030 66 4500 1.5 20 12:18 16.02.2020
2837 Mist 10 1030 70 4500 1.5 20 11:38 16.02.2020
2838 Mist 10 1030 70 4500 1.5 20 11:18 16.02.2020
2839 Mist 9 1029 75 4500 1.5 60 10:56 16.02.2020
2840 Mist 8 1029 93 3500 0.5 0 10:37 16.02.2020
2841 Mist 7 1029 93 3500 0.5 0 10:19 16.02.2020
2842 Mist 7 1029 93 3000 0.5 0 09:54 16.02.2020
2843 Mist 5 1029 100 1700 1 170 09:36 16.02.2020
2844 Mist 5 1029 100 1700 1 170 09:18 16.02.2020
2845 Fog 5 1029 93 1200 0.5 0 08:41 16.02.2020
2846 Fog 3 1028 100 1200 0.5 0 08:21 16.02.2020
2847 Fog 2 1028 100 1200 1 360 07:49 16.02.2020
2848 Clouds 2 1028 81 0 0.5 40 07:26 16.02.2020
2849 Clouds 2 1028 100 0 0.5 0 06:33 16.02.2020
2850 Clouds 3 1028 93 0 0.5 0 04:38 16.02.2020
2851 Clouds 4 1028 93 0 0.5 0 03:24 16.02.2020
2852 Clouds 4 1028 93 0 0.5 0 02:31 16.02.2020
2853 Clouds 5 1028 93 0 0.5 0 01:42 16.02.2020
2854 Clouds 5 1028 93 0 0.5 0 01:21 16.02.2020
2855 Clouds 5 1028 93 0 1 10 00:51 16.02.2020
2856 Clouds 5 1028 93 0 0.5 0 00:28 16.02.2020
2857 Clouds 5 1028 93 0 1.5 350 23:45 15.02.2020
2858 Clear 5 1028 93 0 1.5 350 23:26 15.02.2020
2859 Clear 5 1028 93 0 1 360 22:59 15.02.2020
2860 Clear 5 1028 93 0 0.5 320 22:40 15.02.2020
2861 Clear 5 1028 93 0 0.5 320 22:21 15.02.2020
2862 Clear 6 1028 93 0 1 0 21:56 15.02.2020
2863 Clear 6 1028 87 0 0.5 0 21:37 15.02.2020
2864 Clear 7 1028 87 0 0.5 0 21:19 15.02.2020
2865 Clear 7 1027 87 0 0.5 0 20:39 15.02.2020
2866 Clear 7 1027 87 0 0.5 0 20:39 15.02.2020
2867 Clouds 8 1027 81 0 1.5 90 20:21 15.02.2020
2868 Clouds 9 1027 81 0 1 10 19:44 15.02.2020
2869 Clouds 9 1027 81 0 1 10 19:22 15.02.2020
2870 Clouds 10 1027 76 0 1 10 18:43 15.02.2020
2871 Clouds 11 1026 71 0 1 0 18:23 15.02.2020
2872 Clouds 11 1026 66 0 1.5 150 17:58 15.02.2020
2873 Clouds 12 1026 62 0 1 0 17:38 15.02.2020
2874 Clouds 13 1026 58 0 1.5 140 17:19 15.02.2020
2875 Clouds 13 1026 58 6000 2.1 0 16:43 15.02.2020
2876 Clouds 13 1026 58 6000 2.1 0 16:24 15.02.2020
2877 Clouds 13 1027 62 7000 2.1 140 15:58 15.02.2020
2878 Clouds 13 1027 62 7000 2.1 140 15:58 15.02.2020
2879 Clouds 14 1027 62 6000 2.1 100 15:40 15.02.2020
2880 Clouds 14 1027 62 6000 2.1 100 15:21 15.02.2020
2881 Clouds 13 1027 66 6000 2.1 0 14:44 15.02.2020
2882 Clouds 13 1027 66 6000 2.1 0 14:19 15.02.2020
2883 Clouds 13 1028 66 6000 1 0 13:54 15.02.2020
2884 Clouds 13 1028 66 6000 3.1 140 13:36 15.02.2020
2885 Clouds 12 1028 71 6000 2.6 130 13:18 15.02.2020
2886 Clouds 12 1028 66 6000 2.6 130 12:41 15.02.2020
2887 Clouds 12 1028 66 6000 2.6 130 12:41 15.02.2020
2888 Clouds 12 1028 66 6000 2.6 130 12:22 15.02.2020
2889 Mist 11 1028 70 5000 2.6 110 11:48 15.02.2020
2890 Mist 10 1028 76 5000 1.5 100 11:29 15.02.2020
2891 Mist 10 1029 75 5000 2.6 90 10:52 15.02.2020
2892 Clouds 9 1028 75 8000 2.6 80 10:30 15.02.2020
2893 Clouds 8 1028 75 10000 2.1 50 09:59 15.02.2020
2894 Clouds 8 1028 80 10000 2.1 350 09:41 15.02.2020
2895 Clouds 6 1028 80 10000 2.1 350 09:23 15.02.2020
2896 Clouds 4 1028 50 10000 1 10 08:43 15.02.2020
2897 Clear 3 1027 61 10000 1.5 30 08:25 15.02.2020
2898 Clear 3 1027 61 10000 1 0 07:56 15.02.2020
2899 Clear 3 1027 61 0 1.5 20 07:34 15.02.2020
2900 Clear 3 1027 86 0 1 40 06:54 15.02.2020
2901 Clear 3 1026 100 0 1 0 06:36 15.02.2020
2902 Clear 4 1026 93 0 0.5 0 05:41 15.02.2020
2903 Clear 3 1026 51 0 1 0 04:46 15.02.2020
2904 Clear 4 1026 93 0 1.5 200 03:39 15.02.2020
2905 Clear 4 1025 93 0 0.5 0 02:51 15.02.2020
2906 Clear 5 1025 86 0 0.5 0 02:22 15.02.2020
2907 Clear 5 1025 44 0 0.5 0 01:40 15.02.2020
2908 Clear 5 1025 93 0 0.5 0 00:42 15.02.2020
2909 Clear 5 1025 93 0 0.5 0 00:42 15.02.2020
2910 Clear 6 1024 80 6000 1.5 360 00:21 15.02.2020
2911 Clear 6 1024 70 10000 1 0 23:40 14.02.2020
2912 Clear 6 1024 70 10000 1 0 23:20 14.02.2020
2913 Clear 7 1023 65 10000 1.5 0 22:44 14.02.2020
2914 Clear 8 1023 70 10000 2.1 270 22:23 14.02.2020
2915 Clear 8 1022 70 10000 2.1 300 21:52 14.02.2020
2916 Clear 8 1022 65 10000 1.5 230 21:34 14.02.2020
2917 Clear 8 1022 65 10000 0.5 0 20:59 14.02.2020
2918 Clear 9 1021 50 10000 1.5 190 20:41 14.02.2020
2919 Clear 9 1021 50 10000 1.5 190 20:19 14.02.2020
2920 Clear 9 1021 53 10000 2.6 290 19:54 14.02.2020
2921 Clear 10 1021 53 10000 1.5 210 19:36 14.02.2020
2922 Clear 10 1021 53 10000 1.5 210 19:18 14.02.2020
2923 Clear 11 1020 50 10000 2.6 290 18:54 14.02.2020
2924 Clear 11 1020 50 10000 2.1 230 18:36 14.02.2020
2925 Clear 12 1020 50 10000 2.1 230 18:18 14.02.2020
2926 Clear 14 1020 47 10000 2.6 250 17:40 14.02.2020
2927 Clear 14 1020 47 10000 2.6 250 17:18 14.02.2020
2928 Clear 14 1019 44 10000 2.6 240 16:42 14.02.2020
2929 Clear 14 1019 44 10000 2.6 240 16:42 14.02.2020
2930 Clear 14 1019 44 10000 2.6 240 16:42 14.02.2020
2931 Clear 15 1019 47 10000 2.6 250 16:24 14.02.2020
2932 Clear 15 1019 44 10000 2.6 270 15:58 14.02.2020
2933 Clear 15 1019 50 10000 3.1 280 15:39 14.02.2020
2934 Clear 15 1019 50 10000 3.1 280 15:21 14.02.2020
2935 Clear 14 1019 50 10000 3.1 280 14:59 14.02.2020
2936 Clear 14 1019 50 10000 3.1 280 14:59 14.02.2020
2937 Clear 14 1019 54 10000 2.6 280 14:41 14.02.2020
2938 Clear 14 1019 54 10000 2.6 280 14:22 14.02.2020
2939 Clear 13 1020 54 10000 2.6 260 13:56 14.02.2020
2940 Clear 13 1019 54 10000 3.1 260 13:38 14.02.2020
2941 Clear 12 1019 54 10000 3.1 260 13:19 14.02.2020
2942 Clear 12 1019 58 10000 4.6 270 12:56 14.02.2020
2943 Clear 12 1019 57 10000 3.1 250 12:38 14.02.2020
2944 Clear 11 1019 57 10000 3.1 250 12:19 14.02.2020
2945 Clear 11 1019 61 10000 3.6 260 11:55 14.02.2020
2946 Clear 10 1018 66 10000 5.7 270 11:36 14.02.2020
2947 Clear 10 1018 66 10000 5.7 270 11:18 14.02.2020
2948 Clear 9 1018 61 10000 4.1 240 10:41 14.02.2020
2949 Clear 8 1017 75 10000 2.6 270 10:22 14.02.2020
2950 Clear 6 1017 80 10000 2.6 240 09:45 14.02.2020
2951 Clear 6 1017 80 10000 2.6 240 09:24 14.02.2020
2952 Clear 5 1016 86 10000 3.1 250 08:57 14.02.2020
2953 Clear 5 1016 86 10000 3.1 250 08:39 14.02.2020
2954 Clear 3 1016 86 10000 2.1 240 08:20 14.02.2020
2955 Clear 3 1015 86 10000 1.5 220 07:49 14.02.2020
2956 Clear 3 1015 86 10000 2.6 260 07:29 14.02.2020
2957 Clear 3 1015 86 10000 2.1 250 06:39 14.02.2020
2958 Clear 3 1015 86 10000 2.1 250 06:18 14.02.2020
2959 Clear 3 1014 86 10000 1 0 05:28 14.02.2020
2960 Clouds 4 1015 81 10000 1.5 320 03:48 14.02.2020
2961 Clouds 5 1014 81 10000 2.1 260 02:56 14.02.2020
2962 Clouds 5 1014 81 10000 2.1 260 02:56 14.02.2020
2963 Rain 5 1014 87 10000 0.5 0 01:56 14.02.2020
2964 Rain 6 1014 87 10000 2.1 360 00:45 14.02.2020
2965 Rain 6 1014 87 10000 2.1 360 00:45 14.02.2020
2966 Rain 6 1014 87 10000 2.1 360 00:26 14.02.2020
2967 Rain 6 1014 87 10000 1.5 360 23:56 13.02.2020
2968 Drizzle 6 1014 87 10000 1.5 30 23:37 13.02.2020
2969 Drizzle 6 1014 87 10000 1.5 30 23:18 13.02.2020
2970 Rain 6 1014 87 10000 3.6 50 22:38 13.02.2020
2971 Rain 7 1014 87 10000 3.6 50 22:19 13.02.2020
2972 Rain 7 1014 75 10000 4.6 40 21:55 13.02.2020
2973 Rain 7 1014 75 10000 4.6 40 21:37 13.02.2020
2974 Clouds 7 1015 66 10000 4.1 40 21:19 13.02.2020
2975 Clouds 7 1015 61 10000 2.6 30 20:42 13.02.2020
2976 Rain 8 1015 61 10000 2.6 30 20:22 13.02.2020
2977 Rain 8 1015 61 10000 2.6 30 20:22 13.02.2020
2978 Rain 8 1016 57 10000 1 0 19:57 13.02.2020
2979 Rain 9 1016 53 10000 1.5 150 19:37 13.02.2020
2980 Clouds 9 1016 53 10000 1.5 150 19:19 13.02.2020
2981 Clouds 9 1016 53 10000 2.1 150 18:55 13.02.2020
2982 Clouds 9 1016 54 10000 1 120 18:37 13.02.2020
2983 Clouds 9 1016 50 10000 2.1 150 18:19 13.02.2020
2984 Clouds 10 1017 50 10000 1.5 180 17:41 13.02.2020
2985 Clouds 10 1017 50 10000 1.5 180 17:22 13.02.2020
2986 Clouds 10 1017 50 10000 1.5 170 16:59 13.02.2020
2987 Clouds 11 1017 50 10000 1.5 170 16:40 13.02.2020
2988 Clouds 11 1018 50 10000 1 0 16:20 13.02.2020
2989 -273 0 0 0 0 0 15:56 13.02.2020
2990 Clouds 11 1018 46 10000 1.5 150 15:38 13.02.2020
2991 Clouds 11 1018 46 10000 1.5 190 15:19 13.02.2020
2992 Clouds 11 1019 46 10000 2.1 170 14:57 13.02.2020
2993 Clouds 11 1019 46 10000 2.1 160 14:39 13.02.2020
2994 Clouds 11 1019 43 10000 2.1 160 14:20 13.02.2020
2995 Clouds 11 1020 50 10000 2.1 180 13:48 13.02.2020
2996 Clouds 11 1020 50 10000 3.1 150 13:19 13.02.2020
2997 Clouds 11 1021 46 10000 2.6 150 12:56 13.02.2020
2998 Clouds 11 1021 46 10000 2.6 150 12:56 13.02.2020
2999 Clouds 11 1021 53 10000 3.1 160 12:37 13.02.2020
3000 Clouds 11 1021 53 10000 3.1 160 12:37 13.02.2020
3001 Clouds 10 1021 57 10000 2.6 160 12:19 13.02.2020
3002 Clouds 10 1021 57 10000 2.6 160 11:43 13.02.2020
3003 Clouds 10 1022 61 10000 2.6 160 11:43 13.02.2020
3004 Clouds 9 1022 61 10000 2.6 160 11:20 13.02.2020
3005 Clouds 8 1021 61 10000 1 0 10:48 13.02.2020
3006 Clouds 7 1021 53 10000 1.5 360 10:28 13.02.2020
3007 Clouds 6 1021 64 10000 1 360 09:55 13.02.2020
3008 Clouds 5 1021 64 10000 2.1 30 09:37 13.02.2020
3009 Clouds 4 1021 64 10000 2.1 30 09:18 13.02.2020
3010 Clouds 4 1021 64 10000 2.1 30 09:18 13.02.2020
3011 Clouds 3 1021 64 10000 1.5 40 08:37 13.02.2020
3012 Clouds 2 1021 64 10000 1.5 40 08:19 13.02.2020
3013 Clouds 2 1021 55 10000 1.5 90 07:40 13.02.2020
3014 Clouds 2 1021 55 10000 1.5 90 07:21 13.02.2020
3015 Clouds 2 1021 55 10000 1.5 160 06:44 13.02.2020
3016 Clouds 2 1021 55 10000 1.5 160 06:20 13.02.2020
3017 Clouds 2 1020 64 10000 1.5 10 05:33 13.02.2020
3018 Clouds 2 1020 64 10000 2.1 10 04:26 13.02.2020
3019 Clouds 3 1020 36 10000 2.6 360 03:52 13.02.2020
3020 Clouds 3 1020 36 10000 2.1 20 03:24 13.02.2020
3021 Clouds 3 1020 64 10000 1.5 110 02:50 13.02.2020
3022 Clear 4 1020 64 10000 0.5 0 02:19 13.02.2020
3023 Clear 4 1020 64 10000 0.5 0 01:32 13.02.2020
3024 Clear 5 1019 48 10000 1 0 00:39 13.02.2020
3025 Clear 5 1019 48 10000 1 0 00:21 13.02.2020
3026 Clear 5 1019 51 10000 1 0 23:40 12.02.2020
3027 Clear 5 1019 48 10000 1 0 23:21 12.02.2020
3028 Clear 6 1019 48 10000 1.5 330 22:45 12.02.2020
3029 Clear 6 1019 48 10000 1.5 330 22:26 12.02.2020
3030 Clear 7 1019 39 10000 0.5 0 21:58 12.02.2020
3031 Clear 7 1019 29 10000 2.6 350 21:40 12.02.2020
3032 Clear 7 1019 29 10000 2.6 350 21:19 12.02.2020
3033 Clear 7 1019 31 10000 2.6 350 20:56 12.02.2020
3034 Clear 8 1019 25 10000 1.5 350 20:37 12.02.2020
3035 Clear 9 1019 25 10000 1.5 350 20:19 12.02.2020
3036 Clear 9 1018 31 10000 2.1 340 19:45 12.02.2020
3037 Clear 9 1018 31 10000 2.1 340 19:24 12.02.2020
3038 Clear 11 1018 25 10000 2.6 340 18:56 12.02.2020
3039 Clear 11 1018 26 10000 3.6 350 18:37 12.02.2020
3040 Clear 12 1018 26 10000 3.6 350 18:18 12.02.2020
3041 Clear 14 1017 21 10000 1.5 310 17:42 12.02.2020
3042 Clear 14 1017 21 10000 1.5 310 17:20 12.02.2020
3043 Clear 13 1017 21 10000 1.5 310 17:20 12.02.2020
3044 Clear 14 1017 21 10000 2.1 280 16:58 12.02.2020
3045 Clear 14 1017 18 10000 3.1 300 16:38 12.02.2020
3046 Clear 15 1017 18 10000 3.1 300 16:19 12.02.2020
3047 Clear 15 1017 19 10000 2.6 270 16:19 12.02.2020
3048 Clear 15 1017 21 10000 3.1 330 15:41 12.02.2020
3049 Clear 15 1017 21 10000 3.1 330 15:23 12.02.2020
3050 Clear 15 1017 19 10000 3.6 300 14:57 12.02.2020
3051 Clear 15 1018 18 10000 3.6 310 14:39 12.02.2020
3052 Clear 15 1017 19 10000 3.6 300 14:39 12.02.2020
3053 Clear 15 1018 18 10000 3.6 310 14:19 12.02.2020
3054 Clear 15 1018 21 10000 3.6 310 13:56 12.02.2020
3055 Clear 15 1018 21 10000 3.6 310 13:56 12.02.2020
3056 Clear 15 1018 19 10000 5.1 330 13:37 12.02.2020
3057 Clear 14 1018 19 10000 5.1 330 13:18 12.02.2020
3058 Clear 14 1018 21 10000 4.1 330 12:56 12.02.2020
3059 Clear 14 1018 22 10000 4.1 340 12:37 12.02.2020
3060 Clear 14 1018 35 10000 2.1 250 12:18 12.02.2020
3061 Clear 13 1018 35 10000 2.1 250 11:54 12.02.2020
3062 Clear 13 1018 30 10000 2.1 250 11:36 12.02.2020
3063 Clear 12 1018 30 10000 2.1 250 11:18 12.02.2020
3064 Clear 10 1018 37 10000 2.6 250 10:42 12.02.2020
3065 Clear 9 1018 37 10000 2.6 250 10:21 12.02.2020
3066 Clear 9 1018 34 10000 2.6 300 09:58 12.02.2020
3067 Clear 8 1018 31 10000 2.1 300 09:40 12.02.2020
3068 Clear 7 1018 31 10000 2.1 300 09:19 12.02.2020
3069 Clear 7 1018 45 10000 2.1 300 08:55 12.02.2020
3070 Clear 7 1017 51 10000 1.5 280 08:37 12.02.2020
3071 Clear 4 1017 51 10000 1.5 280 08:19 12.02.2020
3072 Clear 4 1016 59 10000 2.1 300 07:43 12.02.2020
3073 Clear 4 1016 55 10000 1.5 330 07:22 12.02.2020
3074 Clear 4 1016 63 10000 2.1 20 06:52 12.02.2020
3075 Clear 5 1016 51 10000 1 0 06:20 12.02.2020
3076 Clear 5 1016 40 10000 1.5 40 05:35 12.02.2020
3077 Clear 5 1015 55 10000 1.5 280 04:56 12.02.2020
3078 Clear 6 1015 59 10000 1.5 300 04:38 12.02.2020
3079 Clear 6 1014 48 10000 0.5 0 03:31 12.02.2020
3080 Clear 7 1015 45 10000 1.5 270 02:58 12.02.2020
3081 Clear 8 1015 34 10000 2.1 290 02:28 12.02.2020
3082 Clear 8 1014 42 10000 2.1 280 01:40 12.02.2020
3083 Clear 9 1014 34 10000 2.1 330 00:44 12.02.2020
3084 Clear 9 1013 27 10000 3.1 310 00:25 12.02.2020
3085 Clear 9 1013 37 10000 2.1 290 23:53 11.02.2020
3086 Clear 9 1012 37 10000 2.1 290 23:35 11.02.2020
3087 Clear 10 1012 34 10000 2.6 280 22:59 11.02.2020
3088 Clear 10 1011 39 10000 2.6 280 22:40 11.02.2020
3089 Clear 10 1011 39 10000 2.6 280 22:20 11.02.2020
3090 Clear 10 1011 39 10000 2.6 280 22:20 11.02.2020
3091 Clear 10 1011 37 10000 2.1 280 21:57 11.02.2020
3092 Clear 11 1011 37 10000 2.6 270 21:39 11.02.2020
3093 Clear 11 1011 37 10000 2.6 270 21:19 11.02.2020
3094 Clear 11 1010 40 10000 2.6 260 20:59 11.02.2020
3095 Clear 11 1010 40 10000 2.6 260 20:39 11.02.2020
3096 Clear 12 1010 37 10000 1.5 220 20:19 11.02.2020
3097 Clear 12 1009 28 10000 2.1 330 19:58 11.02.2020
3098 Clear 12 1009 26 10000 2.6 330 19:39 11.02.2020
3099 Clear 12 1009 26 10000 2.6 330 19:39 11.02.2020
3100 Clear 13 1009 26 10000 2.6 330 19:21 11.02.2020
3101 Clear 13 1009 25 10000 4.1 340 18:45 11.02.2020
3102 Clear 14 1008 28 10000 3.1 350 18:27 11.02.2020
3103 Clear 15 1008 27 10000 3.6 350 17:57 11.02.2020
3104 Clear 14 1008 27 10000 3.6 350 17:39 11.02.2020
3105 Clear 17 1008 23 10000 3.6 360 17:19 11.02.2020
3106 Clear 17 1008 23 10000 3.6 350 16:58 11.02.2020
3107 Clear 17 1008 20 10000 2.1 340 16:38 11.02.2020
3108 Clear 17 1008 20 10000 2.1 340 16:20 11.02.2020
3109 Clear 18 1008 22 10000 1.5 340 15:57 11.02.2020
3110 Clear 18 1008 22 10000 1.5 340 15:38 11.02.2020
3111 Clear 18 1008 20 10000 2.6 300 15:18 11.02.2020
3112 Clear 18 1009 19 10000 3.6 350 14:41 11.02.2020
3113 Clear 18 1009 19 10000 3.6 350 14:19 11.02.2020
3114 Clear 17 1009 25 10000 3.6 320 13:42 11.02.2020
3115 Clear 18 1009 23 10000 5.1 350 13:23 11.02.2020
3116 Clear 17 1009 22 10000 5.1 340 12:59 11.02.2020
3117 Clear 18 1009 22 10000 5.1 340 12:41 11.02.2020
3118 Clear 17 1009 22 10000 5.7 320 12:21 11.02.2020
3119 Clear 17 1009 23 10000 6.2 320 11:57 11.02.2020
3120 Clear 16 1009 31 10000 4.1 300 11:39 11.02.2020
3121 Clear 14 1009 31 10000 4.1 300 11:19 11.02.2020
3122 Clear 14 1008 76 10000 3.1 250 10:40 11.02.2020
3123 Clear 12 1008 76 10000 3.1 250 10:21 11.02.2020
3124 Clear 11 1008 70 10000 3.6 250 09:58 11.02.2020
3125 Clear 11 1008 81 10000 3.1 260 09:40 11.02.2020
3126 Clear 10 1008 81 10000 3.1 260 09:21 11.02.2020
3127 Clear 9 1008 93 10000 2.1 250 08:49 11.02.2020
3128 Clear 4 1007 100 10000 2.6 300 08:25 11.02.2020
3129 Clear 4 1007 100 10000 2.6 300 08:25 11.02.2020
3130 Fog 3 1006 100 3000 1 0 07:54 11.02.2020
3131 Fog 3 1006 100 3000 1 0 07:54 11.02.2020
3132 Fog 4 1006 100 1200 1.5 150 07:33 11.02.2020
3133 Fog 4 1006 100 800 3.1 190 06:57 11.02.2020
3134 Fog 4 1007 100 1500 1 0 06:38 11.02.2020
3135 Fog 4 1007 100 1500 1 0 06:20 11.02.2020
3136 Fog 4 1007 100 1500 1 0 06:20 11.02.2020
3137 Fog 4 1007 100 1500 1 0 06:20 11.02.2020
3138 Fog 4 1006 100 1000 2.6 20 05:39 11.02.2020
3139 Fog 3 1006 100 1000 2.6 20 05:19 11.02.2020
3140 Clear 4 1007 100 7000 2.6 140 03:27 11.02.2020
3141 Clear 4 1007 100 7000 1 0 02:34 11.02.2020
3142 Clear 4 1008 100 7000 1 0 01:39 11.02.2020
3143 Clear 5 1008 93 7000 1 0 00:58 11.02.2020
3144 Clear 5 1008 100 7000 1 0 00:23 11.02.2020
3145 Clear 5 1008 93 7000 2.6 200 23:40 10.02.2020
3146 Clear 5 1009 87 7000 1.5 360 23:21 10.02.2020
3147 Clear 5 1009 93 7000 1 0 22:43 10.02.2020
3148 Clear 6 1009 93 7000 1 0 22:21 10.02.2020
3149 Clear 6 1010 93 8000 1.5 340 21:58 10.02.2020
3150 Clear 6 1010 93 8000 1 0 21:40 10.02.2020
3151 Clear 6 1010 93 8000 1 0 21:22 10.02.2020
3152 Clear 6 1010 93 8000 1.5 340 20:55 10.02.2020
3153 Clear 6 1010 93 8000 1.5 280 20:37 10.02.2020
3154 Clear 6 1010 93 8000 1.5 280 20:19 10.02.2020
3155 Clear 7 1011 87 8000 2.1 260 19:57 10.02.2020
3156 Clear 7 1011 87 8000 2.1 230 19:36 10.02.2020
3157 Clear 7 1011 87 8000 2.1 230 19:18 10.02.2020
3158 Clear 8 1011 81 6000 1.5 240 18:41 10.02.2020
3159 Clear 8 1011 81 6000 1.5 240 18:22 10.02.2020
3160 Clear 9 1011 66 10000 3.1 220 17:59 10.02.2020
3161 Clear 10 1011 81 8000 1.5 200 17:39 10.02.2020
3162 Clear 10 1011 81 8000 1.5 200 17:21 10.02.2020
3163 Clouds 11 1011 71 8000 1.5 210 16:59 10.02.2020
3164 Clouds 11 1011 71 8000 1.5 210 16:40 10.02.2020
3165 Clouds 11 1013 76 6000 1.5 270 16:20 10.02.2020
3166 Clouds 11 1013 76 6000 1.5 270 15:58 10.02.2020
3167 Mist 11 1013 81 5000 2.1 250 15:39 10.02.2020
3168 Mist 11 1013 81 5000 2.1 250 15:20 10.02.2020
3169 Mist 11 1013 87 3000 2.1 240 14:56 10.02.2020
3170 Mist 11 1014 87 2500 2.1 260 14:38 10.02.2020
3171 Mist 10 1014 87 2500 1.5 220 14:18 10.02.2020
3172 Mist 9 1014 87 2500 1.5 220 13:43 10.02.2020
3173 Mist 9 1015 87 2500 1.5 280 13:24 10.02.2020
3174 Drizzle 9 1016 93 2500 1.5 300 12:56 10.02.2020
3175 Drizzle 8 1016 93 1500 2.1 290 12:37 10.02.2020
3176 Drizzle 8 1016 93 1500 2.1 290 12:19 10.02.2020
3177 Drizzle 7 1017 100 900 2.1 250 11:45 10.02.2020
3178 Drizzle 6 1017 100 900 2.1 250 11:21 10.02.2020
3179 Drizzle 6 1017 100 900 2.1 250 10:48 10.02.2020
3180 Drizzle 6 1018 100 900 2.1 250 10:29 10.02.2020
3181 Drizzle 6 1018 100 900 1 0 09:48 10.02.2020
3182 Fog 6 1019 93 900 1 0 09:27 10.02.2020
3183 Drizzle 6 1019 93 800 1 0 08:59 10.02.2020
3184 Drizzle 6 1019 93 800 1 0 08:59 10.02.2020
3185 Drizzle 6 1019 100 800 2.6 340 08:38 10.02.2020
3186 Drizzle 6 1019 100 800 2.6 340 08:19 10.02.2020
3187 Drizzle 5 1019 100 900 1 0 07:51 10.02.2020
3188 Rain 5 1019 100 900 1 0 07:32 10.02.2020
3189 Fog 5 1020 100 700 2.1 210 06:30 10.02.2020
3190 Mist 5 1021 100 1100 0.5 0 04:47 10.02.2020
3191 Mist 5 1022 100 1100 1 360 03:52 10.02.2020
3192 Rain 5 1023 93 1100 0.5 0 02:56 10.02.2020
3193 Mist 5 1024 93 1100 1.5 250 02:35 10.02.2020
3194 Mist 6 1026 100 1500 1 260 00:55 10.02.2020
3195 Mist 6 1026 100 1500 0.5 0 00:36 10.02.2020
3196 Mist 6 1026 93 2000 1 200 23:58 09.02.2020
3197 Mist 6 1026 93 2000 1 200 23:58 09.02.2020
3198 Mist 6 1026 93 2000 1 200 23:39 09.02.2020
3199 Fog 6 1027 100 2000 1.5 190 23:21 09.02.2020
3200 Fog 6 1027 100 3000 2.6 10 22:43 09.02.2020
3201 Fog 6 1027 100 3000 2.6 10 22:21 09.02.2020
3202 Fog 6 1028 93 3000 1 0 21:45 09.02.2020
3203 Rain 6 1028 93 3500 1.5 320 21:25 09.02.2020
3204 Rain 6 1028 93 3500 1 210 20:58 09.02.2020
3205 Rain 6 1028 93 3500 1 210 20:40 09.02.2020
3206 Rain 6 1028 93 5000 0.5 0 20:18 09.02.2020
3207 Rain 6 1028 87 5000 1.5 250 19:40 09.02.2020
3208 Rain 6 1028 87 5000 1.5 250 19:21 09.02.2020
3209 Rain 6 1029 87 5000 2.1 270 18:57 09.02.2020
3210 Drizzle 6 1028 87 3000 2.1 250 18:39 09.02.2020
3211 Drizzle 6 1028 87 3000 2.1 250 18:21 09.02.2020
3212 Drizzle 7 1028 87 3000 2.1 250 17:42 09.02.2020
3213 Drizzle 7 1028 87 3500 2.1 250 17:23 09.02.2020
3214 Drizzle 7 1028 87 3500 2.1 230 16:56 09.02.2020
3215 Drizzle 7 1028 87 3500 2.1 230 16:56 09.02.2020
3216 Drizzle 7 1028 87 3500 2.1 230 16:37 09.02.2020
3217 Mist 8 1029 66 5000 1.5 240 16:18 09.02.2020
3218 Mist 8 1029 66 5000 1.5 240 15:54 09.02.2020
3219 Drizzle 8 1029 66 5000 1.5 240 15:36 09.02.2020
3220 Drizzle 8 1029 66 5000 1.5 240 15:18 09.02.2020
3221 Mist 9 1029 61 5000 1.5 280 14:41 09.02.2020
3222 Mist 8 1030 61 5000 1.5 260 14:23 09.02.2020
3223 Mist 9 1030 65 5000 1.5 230 13:47 09.02.2020
3224 Mist 9 1031 65 5000 1.5 160 13:28 09.02.2020
3225 Mist 9 1031 65 5000 1 0 12:57 09.02.2020
3226 Mist 9 1032 70 5000 0.5 0 12:39 09.02.2020
3227 Mist 8 1032 70 5000 0.5 0 12:19 09.02.2020
3228 Mist 8 1032 70 5000 0.5 0 12:19 09.02.2020
3229 Mist 8 1032 70 5000 0.5 0 12:19 09.02.2020
3230 Mist 7 1032 75 5000 0.5 0 11:42 09.02.2020
3231 Mist 7 1032 75 5000 0.5 0 11:23 09.02.2020
3232 Clouds 6 1031 80 6000 0.5 0 10:59 09.02.2020
3233 Clouds 6 1031 86 6000 1.5 30 10:41 09.02.2020
3234 Clouds 5 1031 86 6000 1.5 30 10:22 09.02.2020
3235 Clouds 4 1031 86 6000 0.5 0 09:46 09.02.2020
3236 Fog 3 1031 59 6000 1 20 09:27 09.02.2020
3237 Fog 2 1031 59 5000 0.5 350 08:54 09.02.2020
3238 Fog 2 1030 100 5000 0.5 0 08:36 09.02.2020
3239 Fog 1 1030 100 5000 0.5 0 08:18 09.02.2020
3240 Clouds 1 1030 72 10000 0.5 0 07:44 09.02.2020
3241 Clouds 1 1030 72 10000 1.5 20 06:49 09.02.2020
3242 Clouds 1 1030 72 10000 1 360 06:29 09.02.2020
3243 Clouds 1 1029 72 10000 0.5 0 05:43 09.02.2020
3244 Clear 1 1029 72 10000 0.5 0 05:19 09.02.2020
3245 Clear 1 1029 72 10000 1 360 03:53 09.02.2020
3246 Clear 1 1029 72 10000 1 10 02:46 09.02.2020
3247 Clouds 2 1029 72 10000 0.5 0 02:26 09.02.2020
3248 Clouds 2 1029 86 10000 1 10 01:35 09.02.2020
3249 Clear 2 1029 93 10000 0.5 0 00:46 09.02.2020
3250 Clear 2 1029 86 10000 0.5 0 00:25 09.02.2020
3251 Clear 3 1029 86 10000 0.5 0 23:44 08.02.2020
3252 Clouds 3 1029 86 10000 0.5 0 23:21 08.02.2020
3253 Clouds 3 1029 80 10000 1 20 22:43 08.02.2020
3254 Clouds 3 1029 80 10000 1 20 22:22 08.02.2020
3255 Clouds 4 1029 80 10000 0.5 330 21:59 08.02.2020
3256 Clouds 4 1029 80 10000 0.5 330 21:40 08.02.2020
3257 Clouds 5 1029 80 10000 1 30 21:21 08.02.2020
3258 Clouds 5 1029 75 10000 0.5 200 20:57 08.02.2020
3259 Clouds 5 1029 70 10000 0.5 0 20:38 08.02.2020
3260 Clouds 6 1029 70 10000 0.5 0 20:19 08.02.2020
3261 Clouds 6 1029 65 10000 0.5 0 19:55 08.02.2020
3262 Clouds 6 1028 70 10000 0.5 0 19:36 08.02.2020
3263 Clouds 6 1028 70 10000 0.5 0 19:18 08.02.2020
3264 Clouds 7 1028 61 10000 1 180 18:43 08.02.2020
3265 Clouds 8 1028 57 10000 1.5 180 18:23 08.02.2020
3266 Clouds 9 1027 61 10000 1 0 17:44 08.02.2020
3267 Clouds 9 1027 50 10000 1 0 17:22 08.02.2020
3268 Clouds 10 1027 50 10000 1.5 180 16:59 08.02.2020
3269 Clouds 10 1027 43 10000 2.1 190 16:39 08.02.2020
3270 Clouds 10 1027 43 10000 2.1 190 16:21 08.02.2020
3271 Clouds 10 1027 43 10000 2.1 190 16:21 08.02.2020
3272 Clouds 10 1027 43 10000 2.1 190 16:21 08.02.2020
3273 Clouds 11 1028 43 10000 2.1 220 15:43 08.02.2020
3274 Clouds 10 1028 43 10000 2.1 220 15:19 08.02.2020
3275 Clouds 11 1028 43 10000 2.1 180 14:59 08.02.2020
3276 Clouds 10 1028 46 10000 2.1 170 14:40 08.02.2020
3277 Clouds 10 1028 46 10000 1.5 150 14:19 08.02.2020
3278 Clouds 10 1028 46 10000 1.5 150 13:43 08.02.2020
3279 Clouds 10 1029 46 10000 1.5 0 13:23 08.02.2020
3280 Clouds 10 1029 46 10000 1 0 12:57 08.02.2020
3281 Clouds 9 1029 46 10000 1 0 12:37 08.02.2020
3282 Clouds 9 1029 46 10000 1 0 12:19 08.02.2020
3283 Clouds 8 1029 46 10000 1 0 11:43 08.02.2020
3284 Clouds 7 1029 49 10000 1 0 11:21 08.02.2020
3285 Clouds 7 1029 49 10000 0.5 0 10:55 08.02.2020
3286 Clouds 6 1029 49 10000 0.5 0 10:37 08.02.2020
3287 Clouds 5 1029 49 10000 0.5 0 10:19 08.02.2020
3288 Clouds 5 1029 70 10000 0.5 0 09:46 08.02.2020
3289 Clouds 4 1029 74 10000 0.5 0 09:23 08.02.2020
3290 Clouds 3 1029 52 10000 0.5 0 08:41 08.02.2020
3291 Clouds 3 1029 49 10000 0.5 0 08:41 08.02.2020
3292 Clouds 2 1029 55 10000 0.5 0 08:22 08.02.2020
3293 Clouds 2 1028 55 10000 0.5 0 07:51 08.02.2020
3294 Clouds 2 1028 55 10000 1 260 07:33 08.02.2020
3295 Clouds 2 1028 55 10000 0.5 230 06:49 08.02.2020
3296 Clouds 2 1028 80 10000 0.5 0 06:21 08.02.2020
3297 Clouds 2 1028 74 10000 0.5 0 05:33 08.02.2020
3298 Clear 2 1028 74 10000 0.5 360 04:53 08.02.2020
3299 Clear 2 1028 80 10000 1.5 10 04:24 08.02.2020
3300 Clear 2 1028 86 10000 1 350 03:35 08.02.2020
3301 Clear 3 1028 80 10000 1.5 360 02:28 08.02.2020
3302 Clear 3 1028 80 10000 1.5 360 02:28 08.02.2020
3303 Clear 2 1028 74 10000 1.5 350 01:29 08.02.2020
3304 Clear 2 1027 67 10000 1.5 40 00:46 08.02.2020
3305 Clear 3 1027 67 10000 1.5 40 00:25 08.02.2020
3306 Clear 3 1027 80 10000 1.5 30 23:57 07.02.2020
3307 Clear 3 1027 80 10000 1.5 30 23:38 07.02.2020
3308 Clear 3 1027 75 10000 2.6 70 23:19 07.02.2020
3309 Clear 3 1027 80 10000 0.5 0 22:41 07.02.2020
3310 Clear 4 1027 80 10000 0.5 0 22:19 07.02.2020
3311 Clear 4 1026 75 10000 1 180 21:57 07.02.2020
3312 Clear 5 1026 70 10000 1.5 190 21:39 07.02.2020
3313 Clear 5 1026 70 10000 1.5 190 21:19 07.02.2020
3314 Clear 5 1025 70 10000 2.1 180 20:39 07.02.2020
3315 Clear 5 1025 70 10000 2.1 180 20:19 07.02.2020
3316 Clear 6 1025 70 10000 1 190 19:43 07.02.2020
3317 Clear 6 1025 70 10000 1 190 19:22 07.02.2020
3318 Clear 7 1024 57 10000 0.5 0 18:59 07.02.2020
3319 Clear 8 1024 57 10000 1 250 18:41 07.02.2020
3320 Clear 9 1024 57 10000 1 250 18:23 07.02.2020
3321 Clear 10 1024 39 10000 1 0 17:44 07.02.2020
3322 Clear 10 1024 50 10000 1.5 250 17:44 07.02.2020
3323 Clear 11 1024 47 10000 2.1 260 17:22 07.02.2020
3324 Clear 11 1024 47 10000 2.1 260 17:22 07.02.2020
3325 Clear 11 1024 47 10000 2.6 250 16:58 07.02.2020
3326 Clear 12 1024 43 10000 3.1 270 16:39 07.02.2020
3327 Clear 12 1024 43 10000 3.1 270 16:21 07.02.2020
3328 Clear 12 1024 43 10000 3.1 260 15:52 07.02.2020
3329 Clear 12 1024 43 10000 3.6 280 15:28 07.02.2020
3330 Clear 12 1024 49 10000 3.6 250 14:54 07.02.2020
3331 Clear 12 1025 49 10000 4.1 270 14:36 07.02.2020
3332 Clear 12 1025 35 10000 4.1 270 14:18 07.02.2020
3333 Clear 11 1025 35 10000 2.6 270 13:40 07.02.2020
3334 Clear 11 1026 32 10000 1.5 0 13:22 07.02.2020
3335 Clear 10 1026 43 10000 1 0 12:57 07.02.2020
3336 Clear 10 1027 45 10000 0.5 0 12:39 07.02.2020
3337 Clear 10 1027 45 10000 0.5 0 12:21 07.02.2020
3338 Clear 9 1027 45 10000 0.5 0 11:42 07.02.2020
3339 Clear 7 1027 45 10000 0.5 0 11:22 07.02.2020
3340 Clear 6 1027 60 10000 0.5 0 10:42 07.02.2020
3341 Clear 5 1027 60 10000 0.5 0 10:24 07.02.2020
3342 Clear 5 1027 60 10000 0.5 0 09:58 07.02.2020
3343 Clear 3 1027 74 10000 0.5 270 09:38 07.02.2020
3344 Clear 3 1027 74 10000 0.5 270 09:19 07.02.2020
3345 Clear 2 1027 37 10000 1.5 40 08:43 07.02.2020
3346 Clear 0 1027 40 10000 1.5 40 08:21 07.02.2020
3347 Clear -1 1026 86 10000 0.5 180 07:46 07.02.2020
3348 Clear -1 1026 86 10000 0.5 180 07:28 07.02.2020
3349 Clear -1 1026 80 10000 0.5 0 06:47 07.02.2020
3350 Clear 0 1026 80 10000 1 280 06:26 07.02.2020
3351 Clear 0 1026 40 10000 1 0 05:56 07.02.2020
3352 Clear 0 1026 40 10000 1.5 260 04:43 07.02.2020
3353 Clear 1 1027 69 10000 1.5 250 02:51 07.02.2020
3354 Clear 2 1027 64 10000 1 230 01:51 07.02.2020
3355 Clear 2 1028 55 10000 2.1 250 00:48 07.02.2020
3356 Clear 2 1028 55 10000 2.1 250 00:21 07.02.2020
3357 Clear 2 1028 55 10000 2.1 250 00:21 07.02.2020
3358 Clear 2 1028 64 10000 1 240 23:37 06.02.2020
3359 Clear 2 1028 64 10000 1 240 23:19 06.02.2020
3360 Clear 3 1028 64 10000 1 0 22:44 06.02.2020
3361 Clear 3 1028 64 10000 1 0 22:25 06.02.2020
3362 Clear 3 1028 55 10000 1 270 21:38 06.02.2020
3363 Clear 3 1028 55 10000 1 270 21:20 06.02.2020
3364 Clear 4 1028 52 10000 1.5 260 20:58 06.02.2020
3365 Clear 4 1028 44 10000 1 260 20:39 06.02.2020
3366 Clear 5 1028 45 10000 1 260 20:19 06.02.2020
3367 Clear 5 1028 45 10000 1 260 19:59 06.02.2020
3368 Clear 5 1028 39 10000 1 0 19:41 06.02.2020
3369 Clear 6 1028 39 10000 1 0 19:22 06.02.2020
3370 Clear 7 1028 36 10000 1 210 18:58 06.02.2020
3371 Clear 7 1028 31 10000 2.1 210 18:40 06.02.2020
3372 Clear 8 1028 31 10000 2.1 210 18:20 06.02.2020
3373 Clear 9 1028 29 10000 1.5 210 17:44 06.02.2020
3374 Clear 9 1028 32 10000 1.5 180 17:44 06.02.2020
3375 Clouds 10 1028 32 10000 1.5 180 17:21 06.02.2020
3376 Clouds 10 1028 25 10000 1 0 16:59 06.02.2020
3377 Clouds 10 1028 22 10000 0.5 0 16:40 06.02.2020
3378 Clouds 11 1028 22 10000 0.5 0 16:22 06.02.2020
3379 Clouds 11 1029 27 10000 1 0 15:42 06.02.2020
3380 Clouds 11 1029 27 10000 1 0 15:22 06.02.2020
3381 Clouds 11 1029 27 10000 0.5 0 14:49 06.02.2020
3382 Clouds 11 1029 27 10000 1.5 110 14:28 06.02.2020
3383 Clouds 11 1030 34 10000 1 0 13:57 06.02.2020
3384 Clouds 11 1030 34 10000 2.1 0 13:39 06.02.2020
3385 Clouds 10 1030 34 10000 2.1 0 13:19 06.02.2020
3386 Clouds 10 1030 34 10000 1.5 90 12:43 06.02.2020
3387 Clouds 10 1031 31 10000 2.1 120 12:19 06.02.2020
3388 Clouds 9 1031 34 10000 2.6 90 11:56 06.02.2020
3389 Clouds 9 1031 33 10000 3.6 90 11:38 06.02.2020
3390 Clouds 8 1031 33 10000 3.6 90 11:18 06.02.2020
3391 Clouds 7 1030 39 10000 2.1 60 10:56 06.02.2020
3392 Clouds 6 1030 52 10000 2.1 30 10:37 06.02.2020
3393 Clouds 5 1030 51 10000 1.5 50 10:18 06.02.2020
3394 Clouds 4 1030 48 10000 3.1 130 09:43 06.02.2020
3395 Clouds 4 1030 51 10000 1.5 50 09:43 06.02.2020
3396 Clouds 4 1030 48 10000 3.1 130 09:20 06.02.2020
3397 Clouds 3 1029 59 10000 2.1 360 08:47 06.02.2020
3398 Clouds 3 1030 55 10000 0.5 0 08:47 06.02.2020
3399 Clouds 2 1029 59 10000 2.1 360 08:25 06.02.2020
3400 Clouds 1 1029 59 10000 2.1 10 07:58 06.02.2020
3401 Clouds 1 1028 36 10000 1 0 07:33 06.02.2020
3402 Clouds 1 1028 68 10000 1 0 06:59 06.02.2020
3403 Clouds 1 1028 36 10000 2.1 20 06:21 06.02.2020
3404 Clouds 1 1027 74 10000 0.5 0 05:41 06.02.2020
3405 Clouds 2 1028 68 10000 1 90 04:18 06.02.2020
3406 Clouds 2 1028 30 10000 1.5 10 03:18 06.02.2020
3407 Clear 2 1027 28 10000 1 0 02:20 06.02.2020
3408 Clear 4 1027 59 10000 0.5 0 01:24 06.02.2020
3409 Clear 4 1027 44 10000 0.5 0 00:41 06.02.2020
3410 Clear 4 1027 44 10000 0.5 0 00:19 06.02.2020
3411 Clear 4 1026 44 10000 1 0 23:42 05.02.2020
3412 Clear 6 1026 26 10000 1.5 10 23:23 05.02.2020
3413 Clear 6 1026 41 10000 2.6 20 22:54 05.02.2020
3414 Clear 6 1026 32 10000 0.5 0 22:36 05.02.2020
3415 Clear 6 1026 32 10000 0.5 0 22:18 05.02.2020
3416 Clear 7 1025 24 10000 1.5 300 21:40 05.02.2020
3417 Clear 8 1025 24 10000 1.5 300 21:22 05.02.2020
3418 Clear 8 1024 19 10000 3.6 340 20:54 05.02.2020
3419 Clear 9 1024 19 10000 4.6 350 20:36 05.02.2020
3420 Clear 9 1024 23 10000 4.6 350 20:18 05.02.2020
3421 Clear 9 1024 23 10000 4.6 350 19:54 05.02.2020
3422 Clear 9 1023 19 10000 5.1 350 19:36 05.02.2020
3423 Clear 9 1023 17 10000 4.1 340 19:18 05.02.2020
3424 Clear 10 1022 17 10000 5.1 340 18:42 05.02.2020
3425 Clear 10 1022 17 10000 5.1 340 18:20 05.02.2020
3426 Clear 11 1022 17 10000 5.1 340 17:41 05.02.2020
3427 Clear 11 1022 17 10000 5.1 340 17:20 05.02.2020
3428 Clear 12 1021 17 10000 6.7 360 16:59 05.02.2020
3429 Clear 12 1021 18 10000 8.7 360 16:41 05.02.2020
3430 Clear 12 1021 18 10000 8.7 360 16:23 05.02.2020
3431 Clear 12 1022 17 10000 10.3 360 15:56 05.02.2020
3432 Clear 12 1021 15 10000 9.8 360 15:38 05.02.2020
3433 Clear 12 1021 15 10000 9.8 360 15:18 05.02.2020
3434 Clear 13 1021 13 10000 11.8 360 14:42 05.02.2020
3435 Clear 13 1021 13 10000 13.4 360 14:23 05.02.2020
3436 Clear 13 1022 16 10000 11.8 360 13:57 05.02.2020
3437 Clear 13 1022 13 10000 12.3 360 13:38 05.02.2020
3438 Clear 13 1022 13 10000 12.3 360 13:19 05.02.2020
3439 Clear 13 1022 16 10000 9.3 350 12:39 05.02.2020
3440 Clear 13 1022 16 10000 9.3 350 12:21 05.02.2020
3441 Clear 12 1021 16 10000 8.7 340 11:41 05.02.2020
3442 Clear 12 1021 16 10000 8.7 340 11:23 05.02.2020
3443 Clouds 11 1021 19 10000 8.7 330 10:59 05.02.2020
3444 Clouds 11 1021 25 10000 5.7 320 10:39 05.02.2020
3445 Clouds 10 1021 25 10000 5.7 320 10:18 05.02.2020
3446 Clouds 9 1020 45 10000 5.1 280 09:43 05.02.2020
3447 Clouds 8 1020 45 10000 5.1 280 09:22 05.02.2020
3448 Clouds 7 1020 39 10000 4.6 290 08:56 05.02.2020
3449 Clouds 6 1020 48 10000 4.1 280 08:37 05.02.2020
3450 Clouds 4 1020 48 10000 4.1 280 08:19 05.02.2020
3451 Clear 4 1019 48 10000 3.6 290 07:42 05.02.2020
3452 Clear 4 1019 48 10000 3.6 290 07:19 05.02.2020
3453 Clear 3 1019 48 10000 4.1 280 06:40 05.02.2020
3454 Clear 4 1019 48 10000 4.1 280 06:21 05.02.2020
3455 Clear 3 1018 48 10000 3.1 290 05:20 05.02.2020
3456 Clear 4 1018 52 10000 3.1 290 04:58 05.02.2020
3457 Clear 4 1018 48 10000 3.6 290 04:25 05.02.2020
3458 Clear 4 1018 42 10000 2.1 310 02:53 05.02.2020
3459 Clear 4 1018 48 10000 2.1 280 02:22 05.02.2020
3460 Clear 5 1018 36 10000 3.1 320 01:29 05.02.2020
3461 Clear 5 1017 39 10000 3.1 310 00:24 05.02.2020
3462 Clear 5 1017 39 10000 4.6 300 23:41 04.02.2020
3463 Clear 6 1017 39 10000 4.6 300 23:21 04.02.2020
3464 Clear 6 1016 39 10000 5.1 310 22:57 04.02.2020
3465 Clouds 6 1017 52 10000 0.5 0 22:39 04.02.2020
3466 Clear 6 1016 48 10000 2.1 340 22:20 04.02.2020
3467 Clear 6 1016 48 10000 2.1 340 22:20 04.02.2020
3468 Clear 6 1016 48 10000 3.1 360 21:56 04.02.2020
3469 Clear 6 1015 36 10000 5.7 330 21:37 04.02.2020
3470 Clear 6 1015 36 10000 5.7 330 21:18 04.02.2020
3471 Clear 7 1015 39 10000 6.2 320 20:54 04.02.2020
3472 Clear 7 1014 39 10000 7.2 350 20:36 04.02.2020
3473 Clouds 7 1014 39 10000 7.2 350 20:18 04.02.2020
3474 Clouds 7 1014 39 10000 7.2 350 19:42 04.02.2020
3475 Clouds 8 1013 33 10000 5.7 10 19:24 04.02.2020
3476 Rain 8 1014 52 10000 4.1 10 18:59 04.02.2020
3477 Rain 8 1014 52 10000 4.1 10 18:59 04.02.2020
3478 Rain 8 1014 52 10000 4.1 10 18:39 04.02.2020
3479 Clouds 9 1011 29 10000 5.1 20 18:19 04.02.2020
3480 Clouds 9 1011 27 10000 6.2 340 17:54 04.02.2020
3481 Clouds 10 1011 27 10000 6.2 340 17:36 04.02.2020
3482 Clouds 9 1011 27 10000 6.2 340 17:18 04.02.2020
3483 Clouds 11 1010 17 10000 8.7 360 16:38 04.02.2020
3484 Clouds 11 1010 17 10000 8.7 360 16:38 04.02.2020
3485 Clouds 11 1010 17 10000 8.7 360 16:20 04.02.2020
3486 Clouds 12 1010 17 10000 9.3 350 15:56 04.02.2020
3487 Rain 12 1012 36 10000 7.7 10 15:38 04.02.2020
3488 Clouds 13 1009 16 10000 9.8 340 15:19 04.02.2020
3489 Clouds 13 1009 16 10000 9.8 340 14:45 04.02.2020
3490 Clouds 13 1008 15 10000 10.8 330 14:23 04.02.2020
3491 Clouds 13 1008 15 10000 11.3 340 13:59 04.02.2020
3492 Rain 14 1007 16 10000 13.4 350 13:40 04.02.2020
3493 Rain 14 1007 16 10000 13.4 350 13:21 04.02.2020
3494 Rain 14 1007 23 10000 11.8 360 12:45 04.02.2020
3495 Rain 14 1007 23 10000 11.8 360 12:26 04.02.2020
3496 Rain 14 1007 26 10000 8.7 350 11:59 04.02.2020
3497 Clouds 13 1007 71 10000 3.1 270 11:39 04.02.2020
3498 Clouds 12 1007 71 10000 3.1 270 11:21 04.02.2020
3499 Mist 11 1006 81 4000 4.1 260 10:59 04.02.2020
3500 Mist 10 1006 93 3500 5.1 260 10:40 04.02.2020
3501 Mist 8 1006 93 3500 5.1 260 10:22 04.02.2020
3502 Fog 10 1006 100 400 3.1 240 09:41 04.02.2020
3503 Fog 9 1006 100 400 3.1 240 09:23 04.02.2020
3504 Fog 8 1006 100 400 2.6 230 08:56 04.02.2020
3505 Fog 6 1006 100 400 1.5 270 08:38 04.02.2020
3506 Fog 6 1006 100 400 1.5 270 08:20 04.02.2020
3507 Fog 6 1007 100 250 1.5 340 07:43 04.02.2020
3508 Fog 6 1007 100 250 1.5 340 07:22 04.02.2020
3509 Fog 6 1006 100 250 2.6 120 06:43 04.02.2020
3510 Fog 6 1007 100 250 2.1 60 05:50 04.02.2020
3511 Fog 6 1008 100 600 1.5 100 05:22 04.02.2020
3512 Fog 6 1011 100 900 3.6 140 03:50 04.02.2020
3513 Fog 6 1012 93 900 3.1 120 03:31 04.02.2020
3514 Mist 6 1012 93 1100 3.6 120 02:51 04.02.2020
3515 Mist 6 1013 93 1500 3.1 110 02:28 04.02.2020
3516 Mist 6 1013 93 1200 4.1 110 01:50 04.02.2020
3517 Fog 6 1014 100 900 3.6 100 01:32 04.02.2020
3518 Fog 6 1015 100 800 3.6 110 00:27 04.02.2020
3519 Fog 6 1015 100 300 3.1 100 23:57 03.02.2020
3520 Fog 6 1015 100 300 3.1 100 23:57 03.02.2020
3521 Fog 6 1016 100 600 3.1 90 23:38 03.02.2020
3522 Fog 6 1016 100 600 3.1 90 23:19 03.02.2020
3523 Fog 6 1016 100 800 4.1 90 22:39 03.02.2020
3524 Fog 7 1016 100 800 4.1 90 22:20 03.02.2020
3525 Fog 7 1016 100 400 3.6 90 21:43 03.02.2020
3526 Fog 7 1016 100 400 3.6 90 21:20 03.02.2020
3527 Fog 7 1016 100 400 3.6 90 21:20 03.02.2020
3528 Fog 7 1016 100 400 3.1 120 20:57 03.02.2020
3529 Fog 7 1016 100 400 3.1 120 20:57 03.02.2020
3530 Fog 7 1016 100 400 3.1 120 20:39 03.02.2020
3531 Fog 8 1015 100 400 3.1 100 20:18 03.02.2020
3532 Fog 8 1015 100 400 3.6 100 19:43 03.02.2020
3533 Fog 8 1015 100 400 3.6 100 19:23 03.02.2020
3534 Fog 9 1015 100 500 3.6 90 18:59 03.02.2020
3535 Fog 9 1015 93 400 3.6 100 18:41 03.02.2020
3536 Fog 8 1015 100 500 3.6 90 18:41 03.02.2020
3537 Fog 9 1015 93 400 3.6 100 18:22 03.02.2020
3538 Fog 10 1014 100 400 3.1 110 17:58 03.02.2020
3539 Mist 11 1014 93 1000 3.1 130 17:39 03.02.2020
3540 Clouds 15 1013 67 10000 1.5 100 17:19 03.02.2020
3541 Mist 14 1014 100 2000 3.6 150 16:40 03.02.2020
3542 Mist 15 1014 100 2000 3.6 150 16:22 03.02.2020
3543 Mist 17 1014 93 5000 2.6 160 15:58 03.02.2020
3544 Mist 17 1014 87 5000 3.1 110 15:39 03.02.2020
3545 Mist 17 1014 87 5000 3.1 110 15:20 03.02.2020
3546 Clear 17 1013 52 10000 2.6 130 14:57 03.02.2020
3547 Clouds 17 1014 59 10000 2.6 150 14:39 03.02.2020
3548 Clouds 17 1014 59 10000 2.6 150 14:21 03.02.2020
3549 Clouds 16 1014 51 10000 0.5 0 13:43 03.02.2020
3550 Clouds 16 1014 62 10000 1.5 0 13:21 03.02.2020
3551 Clear 16 1014 59 10000 1.5 0 12:58 03.02.2020
3552 Clear 16 1014 59 10000 1.5 0 12:39 03.02.2020
3553 Clear 14 1015 81 7000 1.5 0 12:21 03.02.2020
3554 Clear 14 1015 67 10000 1.5 0 11:55 03.02.2020
3555 Clouds 14 1015 81 10000 1.5 0 11:36 03.02.2020
3556 Clear 11 1015 87 7000 1.5 160 11:18 03.02.2020
3557 Clear 10 1015 100 7000 1 0 10:40 03.02.2020
3558 Clear 9 1015 100 7000 1 0 10:22 03.02.2020
3559 Clear 8 1015 100 7000 2.1 190 09:46 03.02.2020
3560 Clear 7 1015 100 7000 1 0 09:23 03.02.2020
3561 Fog 6 1015 100 3000 0.5 0 08:55 03.02.2020
3562 Fog 6 1015 100 100 1 0 08:37 03.02.2020
3563 Fog 4 1015 100 100 1 0 08:18 03.02.2020
3564 Fog 4 1015 100 50 1.5 30 07:40 03.02.2020
3565 Fog 4 1015 100 50 1.5 30 07:21 03.02.2020
3566 Fog 4 1016 100 50 1 0 06:49 03.02.2020
3567 Fog 4 1016 100 50 2.1 260 06:27 03.02.2020
3568 Fog 4 1017 100 50 1 0 05:37 03.02.2020
3569 Fog 4 1017 100 50 1 0 05:18 03.02.2020
3570 Fog 5 1017 100 50 1 0 03:19 03.02.2020
3571 Fog 5 1017 100 50 0.5 0 02:34 03.02.2020
3572 Fog 5 1018 100 50 0.5 0 01:41 03.02.2020
3573 Fog 6 1018 100 50 2.1 250 00:46 03.02.2020
3574 Fog 6 1018 100 50 1.5 230 00:23 03.02.2020
3575 Fog 6 1019 100 50 1.5 190 23:38 02.02.2020
3576 Fog 6 1019 100 50 1.5 190 23:20 02.02.2020
3577 Fog 6 1019 100 50 1.5 190 23:20 02.02.2020
3578 Fog 6 1019 100 50 0.5 0 22:57 02.02.2020
3579 Fog 6 1019 93 50 1 0 22:38 02.02.2020
3580 Fog 6 1019 93 50 1 0 22:19 02.02.2020
3581 Fog 6 1019 93 50 1 0 21:54 02.02.2020
3582 Fog 6 1019 100 50 0.5 0 21:36 02.02.2020
3583 Fog 6 1019 100 50 0.5 0 21:18 02.02.2020
3584 Fog 6 1018 100 50 0.5 0 20:55 02.02.2020
3585 Fog 7 1018 100 50 1 0 20:36 02.02.2020
3586 Fog 7 1018 100 50 1 0 20:18 02.02.2020
3587 Fog 7 1019 100 50 1 0 19:42 02.02.2020
3588 Fog 7 1018 100 100 1 190 19:23 02.02.2020
3589 Fog 8 1019 100 100 1.5 160 18:58 02.02.2020
3590 Fog 8 1019 93 100 1.5 190 18:38 02.02.2020
3591 Fog 8 1019 93 100 1.5 190 18:20 02.02.2020
3592 Fog 9 1018 100 900 1 0 17:58 02.02.2020
3593 Mist 8 1018 93 2000 1 0 17:38 02.02.2020
3594 Mist 8 1018 93 2000 1 0 17:38 02.02.2020
3595 Mist 8 1018 93 2000 1 0 17:38 02.02.2020
3596 Mist 12 1018 93 2000 1 0 17:18 02.02.2020
3597 Mist 12 1018 93 3500 2.1 160 16:58 02.02.2020
3598 Mist 12 1018 93 3500 1 0 16:38 02.02.2020
3599 Mist 12 1018 93 3500 1 0 16:19 02.02.2020
3600 Clouds 13 1017 62 10000 3.1 220 15:57 02.02.2020
3601 Clouds 13 1017 62 10000 2.6 250 15:38 02.02.2020
3602 Clouds 14 1017 62 10000 2.6 250 15:19 02.02.2020
3603 Clouds 13 1017 62 10000 2.6 250 15:19 02.02.2020
3604 Clouds 13 1017 62 10000 2.6 220 14:44 02.02.2020
3605 Mist 11 1018 93 2500 2.1 70 14:19 02.02.2020
3606 Mist 11 1019 93 2000 1.5 0 13:59 02.02.2020
3607 Clouds 12 1018 62 10000 1.5 0 13:41 02.02.2020
3608 Clouds 11 1018 58 10000 1.5 230 13:21 02.02.2020
3609 Clouds 13 1018 58 10000 1.5 190 12:57 02.02.2020
3610 Clouds 13 1019 66 10000 0.5 0 12:39 02.02.2020
3611 Clouds 12 1019 66 10000 1.5 250 12:21 02.02.2020
3612 Clouds 12 1019 70 10000 0.5 0 11:43 02.02.2020
3613 Fog 8 1020 93 5000 1.5 170 11:20 02.02.2020
3614 Fog 8 1020 93 5000 1.5 180 10:58 02.02.2020
3615 Fog 8 1020 93 5000 1.5 180 10:58 02.02.2020
3616 Mist 7 1019 93 3500 0.5 0 10:39 02.02.2020
3617 Mist 7 1019 93 3500 0.5 0 10:21 02.02.2020
3618 Fog 6 1019 93 1500 1 0 09:59 02.02.2020
3619 Fog 6 1019 100 1600 1.5 240 09:39 02.02.2020
3620 Fog 6 1019 100 1600 1.5 240 09:20 02.02.2020
3621 Fog 6 1019 100 1600 1.5 240 09:20 02.02.2020
3622 Clouds 5 1019 100 6000 1.5 220 08:46 02.02.2020
3623 Clouds 4 1019 93 8000 1.5 180 08:26 02.02.2020
3624 Clear 3 1018 93 8000 1 0 07:48 02.02.2020
3625 Clear 3 1018 93 7000 1.5 170 07:30 02.02.2020
3626 Clear 3 1018 93 7000 1 0 06:56 02.02.2020
3627 Clear 3 1018 100 7000 0.5 0 06:37 02.02.2020
3628 Clear 3 1018 100 7000 0.5 0 06:18 02.02.2020
3629 Clear 3 1018 93 6000 3.1 270 05:18 02.02.2020
3630 Fog 4 1017 100 400 3.1 250 03:42 02.02.2020
3631 Fog 4 1017 100 800 2.6 250 03:21 02.02.2020
3632 Fog 4 1018 100 400 2.1 260 02:19 02.02.2020
3633 Fog 4 1018 93 400 2.1 240 01:36 02.02.2020
3634 Fog 4 1018 100 3000 1.5 260 00:49 02.02.2020
3635 Fog 4 1018 100 800 2.1 250 00:24 02.02.2020
3636 Fog 4 1018 93 800 2.1 260 23:55 01.02.2020
3637 Fog 5 1018 100 800 2.6 250 23:36 01.02.2020
3638 Fog 5 1018 100 800 2.6 250 23:18 01.02.2020
3639 Fog 5 1018 100 2500 2.6 260 22:42 01.02.2020
3640 Fog 5 1018 100 1500 2.6 250 22:18 01.02.2020
3641 Fog 6 1018 100 2000 2.1 240 21:40 01.02.2020
3642 Fog 6 1018 100 2000 2.1 240 21:19 01.02.2020
3643 Mist 7 1017 100 3500 2.6 250 20:43 01.02.2020
3644 Mist 7 1018 100 3500 2.6 270 20:21 01.02.2020
3645 Mist 7 1017 100 3500 2.6 250 19:58 01.02.2020
3646 Mist 8 1017 93 3500 2.1 250 19:40 01.02.2020
3647 Mist 8 1017 93 3500 2.1 250 19:20 01.02.2020
3648 Mist 8 1017 93 3500 2.6 250 18:59 01.02.2020
3649 Mist 8 1017 93 3500 2.6 250 18:59 01.02.2020
3650 Mist 8 1017 93 3500 2.6 250 18:41 01.02.2020
3651 Mist 8 1017 93 2000 2.1 240 18:23 01.02.2020
3652 Mist 9 1017 93 2000 2.1 250 17:58 01.02.2020
3653 Mist 9 1017 87 2000 1.5 240 17:40 01.02.2020
3654 Mist 9 1017 87 2000 1.5 240 17:20 01.02.2020
3655 Mist 9 1017 87 2500 2.1 220 16:56 01.02.2020
3656 Mist 9 1017 87 2500 1.5 210 16:38 01.02.2020
3657 Mist 9 1017 87 2500 1.5 210 16:38 01.02.2020
3658 Mist 9 1017 87 2500 1.5 210 16:19 01.02.2020
3659 Mist 9 1018 87 3000 1.5 230 15:41 01.02.2020
3660 Mist 9 1018 87 3000 1.5 280 15:22 01.02.2020
3661 Mist 9 1018 87 2500 1.5 270 14:54 01.02.2020
3662 Mist 9 1018 93 2500 2.1 250 14:36 01.02.2020
3663 Mist 9 1018 93 2500 2.1 250 14:18 01.02.2020
3664 Mist 9 1019 93 2500 2.1 230 13:42 01.02.2020
3665 Mist 9 1019 93 2500 2.6 210 13:18 01.02.2020
3666 Mist 9 1019 87 2500 1.5 190 12:43 01.02.2020
3667 Mist 9 1019 87 2500 1.5 190 12:24 01.02.2020
3668 Mist 9 1020 87 3000 1.5 140 11:45 01.02.2020
3669 Mist 9 1020 93 3000 1.5 120 11:24 01.02.2020
3670 Mist 8 1020 87 3000 1 0 10:59 01.02.2020
3671 Mist 8 1020 87 3000 1 0 10:41 01.02.2020
3672 Mist 8 1020 87 3000 1 40 10:23 01.02.2020
3673 Mist 8 1020 87 3500 1 0 09:59 01.02.2020
3674 Mist 7 1020 87 3000 0.5 0 09:40 01.02.2020
3675 Mist 7 1020 87 3000 0.5 0 09:21 01.02.2020
3676 Mist 7 1019 87 3000 1 0 08:54 01.02.2020
3677 Clouds 7 1019 100 6000 0.5 0 07:59 01.02.2020
3678 Clouds 7 1019 100 7000 0.5 0 07:40 01.02.2020
3679 Clouds 7 1019 100 6000 0.5 0 07:40 01.02.2020
3680 Clouds 7 1019 100 7000 0.5 0 07:22 01.02.2020
3681 Rain 7 1019 100 8000 1 20 06:43 01.02.2020
3682 Rain 7 1019 100 8000 1 20 06:43 01.02.2020
3683 Rain 7 1019 93 10000 1 0 05:54 01.02.2020
3684 Rain 7 1019 93 10000 1 0 05:54 01.02.2020
3685 Clouds 7 1019 87 10000 0.5 0 04:22 01.02.2020
3686 Clouds 8 1020 87 10000 1.5 50 03:25 01.02.2020
3687 Drizzle 8 1020 87 10000 1 0 02:53 01.02.2020
3688 Clouds 7 1020 87 10000 1 0 02:31 01.02.2020
3689 Clouds 7 1020 87 10000 1 50 01:59 01.02.2020
3690 Clouds 7 1020 87 10000 1 50 01:38 01.02.2020
3691 Clouds 7 1020 81 10000 0.5 0 00:46 01.02.2020
3692 Clouds 7 1020 81 10000 0.5 0 00:23 01.02.2020
3693 Clouds 7 1020 76 10000 1 0 23:39 31.01.2020
3694 Clouds 7 1020 76 10000 1 0 23:18 31.01.2020
3695 Clouds 7 1020 76 10000 2.1 70 22:55 31.01.2020
3696 Clouds 7 1020 76 10000 0.5 0 22:36 31.01.2020
3697 Clouds 7 1020 76 10000 0.5 0 22:18 31.01.2020
3698 Clouds 7 1019 76 10000 0.5 0 21:39 31.01.2020
3699 Clouds 7 1019 76 10000 1 0 21:20 31.01.2020
3700 Clouds 7 1019 76 10000 1 0 21:20 31.01.2020
3701 Clouds 7 1019 76 10000 0.5 0 21:20 31.01.2020
3702 Clouds 7 1019 76 10000 1 0 20:57 31.01.2020
3703 Clouds 7 1019 76 10000 1 0 20:39 31.01.2020
3704 Clouds 7 1019 76 10000 1 0 20:20 31.01.2020
3705 Clouds 7 1019 76 10000 1.5 230 19:56 31.01.2020
3706 Clouds 7 1018 81 10000 1.5 250 19:38 31.01.2020
3707 Clouds 8 1018 81 10000 1.5 250 19:19 31.01.2020
3708 Clouds 9 1018 76 10000 1.5 200 18:45 31.01.2020
3709 Clouds 9 1018 76 10000 1.5 200 18:27 31.01.2020
3710 Clear 10 1018 71 10000 2.6 220 17:56 31.01.2020
3711 Clear 10 1018 71 10000 2.6 220 17:56 31.01.2020
3712 Clear 11 1018 71 10000 3.1 200 17:37 31.01.2020
3713 Clear 11 1018 71 10000 3.1 200 17:19 31.01.2020
3714 Clear 12 1018 66 10000 2.6 220 16:56 31.01.2020
3715 Clear 12 1018 62 10000 3.1 200 16:37 31.01.2020
3716 Clear 12 1018 62 10000 3.1 200 16:18 31.01.2020
3717 Clouds 12 1018 54 10000 2.6 220 15:41 31.01.2020
3718 Clouds 12 1018 54 10000 2.6 220 15:21 31.01.2020
3719 Clouds 12 1018 58 10000 2.6 240 14:58 31.01.2020
3720 Clouds 12 1018 58 10000 2.1 230 14:39 31.01.2020
3721 Clouds 12 1018 58 10000 2.1 230 14:20 31.01.2020
3722 Clouds 12 1019 58 10000 2.6 230 13:43 31.01.2020
3723 Clouds 11 1019 58 10000 2.6 230 13:25 31.01.2020
3724 Clear 12 1019 61 8000 2.1 250 12:45 31.01.2020
3725 Clear 11 1019 61 8000 2.1 250 12:26 31.01.2020
3726 Clear 10 1019 70 7000 2.1 220 11:56 31.01.2020
3727 Mist 10 1019 70 5000 1.5 240 11:38 31.01.2020
3728 Mist 8 1019 70 5000 1.5 240 11:19 31.01.2020
3729 Mist 8 1019 81 5000 1.5 270 10:55 31.01.2020
3730 Mist 7 1019 93 5000 2.1 190 10:37 31.01.2020
3731 Mist 7 1019 93 5000 2.1 190 10:18 31.01.2020
3732 Mist 6 1019 93 5000 2.1 150 09:42 31.01.2020
3733 Mist 4 1019 93 5000 1.5 180 09:21 31.01.2020
3734 Mist 4 1019 93 2500 1 0 08:56 31.01.2020
3735 Mist 4 1019 100 3000 0.5 0 08:38 31.01.2020
3736 Mist 2 1019 100 3000 0.5 0 08:19 31.01.2020
3737 Fog 2 1019 93 5000 1.12 275 07:46 31.01.2020
3738 Clouds 2 1018 93 7000 0.5 0 07:18 31.01.2020
3739 Mist 3 1018 93 4000 1.5 190 06:31 31.01.2020
3740 Mist 3 1018 100 4000 0.5 0 05:54 31.01.2020
3741 Mist 3 1018 100 4000 0.5 0 05:54 31.01.2020
3742 Mist 3 1019 93 4000 0.5 0 05:19 31.01.2020
3743 Mist 3 1019 93 4000 0.5 0 03:47 31.01.2020
3744 Fog 4 1019 93 6000 0.5 0 01:44 31.01.2020
3745 Fog 4 1019 93 6000 1 10 00:47 31.01.2020
3746 Fog 4 1019 93 7000 1 10 00:29 31.01.2020
3747 Clouds 4 1019 93 8000 1 60 23:58 30.01.2020
3748 Clouds 4 1019 93 8000 1 60 23:39 30.01.2020
3749 Clouds 4 1019 93 8000 1.5 40 23:20 30.01.2020
3750 Clouds 5 1020 93 8000 1 0 22:38 30.01.2020
3751 Clouds 5 1020 93 8000 1 0 22:19 30.01.2020
3752 Clouds 5 1019 87 8000 1 0 21:57 30.01.2020
3753 Clouds 5 1019 87 8000 1.5 110 21:39 30.01.2020
3754 Clouds 6 1019 87 8000 1 0 21:18 30.01.2020
3755 Clouds 5 1019 87 8000 1.5 110 21:18 30.01.2020
3756 Clouds 6 1019 87 8000 1 0 20:42 30.01.2020
3757 Clouds 6 1019 87 8000 1.5 50 20:22 30.01.2020
3758 Clouds 6 1019 81 10000 1.5 80 19:58 30.01.2020
3759 Clouds 7 1019 76 10000 2.6 110 19:40 30.01.2020
3760 Clouds 7 1019 76 10000 2.6 110 19:19 30.01.2020
3761 Clouds 8 1019 76 8000 2.1 80 18:42 30.01.2020
3762 Clouds 8 1019 76 8000 2.1 80 18:23 30.01.2020
3763 Clouds 8 1019 70 8000 2.1 60 17:58 30.01.2020
3764 Clouds 9 1019 66 10000 2.1 80 17:39 30.01.2020
3765 Clouds 9 1019 66 10000 2.1 80 17:19 30.01.2020
3766 Clouds 10 1019 66 10000 2.1 110 16:58 30.01.2020
3767 Clouds 10 1018 61 10000 1.5 120 16:39 30.01.2020
3768 Clouds 10 1018 61 10000 1.5 120 16:20 30.01.2020
3769 Clouds 11 1019 57 10000 0.5 0 15:44 30.01.2020
3770 Clouds 11 1019 57 10000 0.5 0 15:21 30.01.2020
3771 Clouds 11 1018 32 10000 1.5 170 14:50 30.01.2020
3772 Clouds 11 1019 61 10000 2.1 110 14:28 30.01.2020
3773 Clouds 11 1019 61 10000 3.1 120 13:59 30.01.2020
3774 Clouds 11 1019 61 10000 3.1 120 13:40 30.01.2020
3775 Clouds 11 1020 61 10000 2.1 110 13:21 30.01.2020
3776 Clouds 11 1020 57 10000 2.6 110 12:54 30.01.2020
3777 Clouds 10 1020 57 10000 1.5 100 12:36 30.01.2020
3778 Clouds 10 1020 61 10000 1.5 120 12:18 30.01.2020
3779 Clouds 9 1020 52 10000 1.5 90 11:40 30.01.2020
3780 Clouds 8 1020 45 10000 1.5 90 11:21 30.01.2020
3781 Clouds 7 1020 45 10000 1.5 50 10:44 30.01.2020
3782 Clouds 6 1019 80 10000 2.1 10 10:26 30.01.2020
3783 Clouds 6 1019 45 10000 0.5 0 09:58 30.01.2020
3784 Clouds 6 1019 45 10000 0.5 0 09:58 30.01.2020
3785 Clouds 5 1019 45 10000 0.5 0 09:39 30.01.2020
3786 Clouds 4 1019 45 10000 1.5 240 09:19 30.01.2020
3787 Clouds 3 1018 86 10000 2.1 190 08:42 30.01.2020
3788 Clouds 2 1018 86 10000 2.1 190 08:22 30.01.2020
3789 Clouds 2 1017 48 10000 1 0 07:52 30.01.2020
3790 Clouds 2 1017 48 10000 0.5 350 07:32 30.01.2020
3791 Clouds 3 1017 48 10000 0.5 0 06:47 30.01.2020
3792 Clouds 3 1017 86 10000 0.5 0 06:29 30.01.2020
3793 Clouds 3 1016 69 10000 0.5 0 05:47 30.01.2020
3794 Clouds 3 1016 69 10000 0.5 0 05:25 30.01.2020
3795 Clouds 4 1016 74 10000 2.1 250 03:56 30.01.2020
3796 Clouds 3 1016 74 10000 1.5 280 03:37 30.01.2020
3797 Clouds 4 1016 51 10000 1.5 0 02:48 30.01.2020
3798 Clear 4 1016 93 10000 1 0 00:53 30.01.2020
3799 Clear 4 1016 54 10000 0.5 0 00:21 30.01.2020
3800 Clear 5 1015 75 10000 0.5 0 23:47 29.01.2020
3801 Clear 6 1015 75 10000 1.5 250 23:22 29.01.2020
3802 Clear 6 1015 70 10000 1.5 230 22:58 29.01.2020
3803 Clear 6 1015 70 10000 2.6 200 22:39 29.01.2020
3804 Clear 6 1015 70 10000 2.6 200 22:19 29.01.2020
3805 Clear 6 1014 65 10000 2.6 180 21:58 29.01.2020
3806 Clear 6 1014 70 10000 2.1 290 21:38 29.01.2020
3807 Clear 7 1014 70 10000 2.1 290 21:19 29.01.2020
3808 Clear 7 1014 75 10000 2.1 310 20:58 29.01.2020
3809 Clear 7 1013 65 10000 1 290 20:38 29.01.2020
3810 Clear 7 1013 65 10000 1 290 20:19 29.01.2020
3811 Clear 7 1013 61 10000 2.6 270 19:56 29.01.2020
3812 Clear 8 1013 61 10000 2.1 250 19:37 29.01.2020
3813 Clear 8 1013 61 10000 2.1 250 19:37 29.01.2020
3814 Clear 8 1013 61 10000 2.1 250 19:37 29.01.2020
3815 Clear 8 1012 57 10000 1.5 260 19:18 29.01.2020
3816 Clear 9 1012 57 10000 2.1 280 18:46 29.01.2020
3817 Clear 9 1012 57 10000 2.1 280 18:19 29.01.2020
3818 Clear 10 1012 54 10000 2.1 240 17:57 29.01.2020
3819 Clear 11 1011 47 10000 2.6 240 17:38 29.01.2020
3820 Clear 12 1011 47 10000 2.6 240 17:20 29.01.2020
3821 Clear 13 1011 38 10000 3.6 270 16:41 29.01.2020
3822 Clear 13 1011 38 10000 3.6 270 16:23 29.01.2020
3823 Clear 13 1010 41 10000 3.6 300 15:55 29.01.2020
3824 Clear 13 1010 41 10000 3.6 300 15:55 29.01.2020
3825 Clear 13 1010 47 10000 3.1 270 15:36 29.01.2020
3826 Clear 13 1010 47 10000 3.1 270 15:18 29.01.2020
3827 Clear 13 1010 47 10000 3.1 270 14:41 29.01.2020
3828 Clear 13 1010 54 10000 3.6 260 14:20 29.01.2020
3829 Clear 13 1010 58 10000 3.6 260 13:41 29.01.2020
3830 Clear 12 1010 58 10000 3.6 260 13:23 29.01.2020
3831 Clear 12 1010 58 10000 3.6 260 13:23 29.01.2020
3832 Clear 12 1010 62 10000 3.1 270 12:59 29.01.2020
3833 Clear 12 1011 66 10000 3.6 260 12:39 29.01.2020
3834 Clear 11 1011 66 10000 3.6 260 12:21 29.01.2020
3835 Clear 11 1011 70 10000 3.6 260 11:58 29.01.2020
3836 Clear 10 1010 75 10000 4.1 260 11:39 29.01.2020
3837 Clear 8 1010 75 10000 4.1 260 11:19 29.01.2020
3838 Clear 7 1010 80 10000 2.6 250 10:46 29.01.2020
3839 Clear 6 1010 80 10000 2.6 250 10:22 29.01.2020
3840 Clear 5 1009 93 10000 2.1 250 09:57 29.01.2020
3841 Clear 5 1009 93 10000 2.1 250 09:38 29.01.2020
3842 Clear 4 1009 93 10000 2.1 250 09:18 29.01.2020
3843 Clear 4 1009 93 10000 2.1 250 09:18 29.01.2020
3844 Clear 3 1009 93 10000 1.5 240 08:41 29.01.2020
3845 Fog 2 1008 93 10000 1.5 250 08:22 29.01.2020
3846 Clouds 2 1008 93 7000 2.6 270 07:45 29.01.2020
3847 Clouds 2 1008 93 7000 2.6 270 07:45 29.01.2020
3848 Clouds 2 1008 93 6000 1 0 07:26 29.01.2020
3849 Clouds 2 1008 100 10000 2.1 230 06:55 29.01.2020
3850 Clouds 3 1007 93 10000 0.5 0 06:37 29.01.2020
3851 Clouds 3 1007 93 10000 0.5 0 06:37 29.01.2020
3852 Clouds 3 1007 93 10000 0.5 0 06:19 29.01.2020
3853 Clouds 3 1007 93 8000 1.5 320 05:47 29.01.2020
3854 Fog 3 1007 100 6000 1 0 05:29 29.01.2020
3855 Fog 3 1007 100 6000 2.6 10 04:38 29.01.2020
3856 Fog 3 1007 93 6000 1.5 20 03:55 29.01.2020
3857 Clear 3 1007 86 6000 2.6 280 02:33 29.01.2020
3858 Clouds 4 1007 93 6000 2.6 250 00:51 29.01.2020
3859 Clouds 4 1008 93 6000 3.6 250 00:29 29.01.2020
3860 Clouds 5 1008 93 6000 3.6 260 23:58 28.01.2020
3861 Clouds 5 1008 93 8000 4.1 260 23:37 28.01.2020
3862 Clouds 5 1008 93 8000 4.1 260 23:19 28.01.2020
3863 Clouds 5 1008 87 6000 4.1 260 22:43 28.01.2020
3864 Clouds 5 1008 87 6000 4.1 260 22:21 28.01.2020
3865 Clouds 5 1007 87 6000 2.6 240 21:54 28.01.2020
3866 Clouds 6 1007 87 6000 3.1 250 21:36 28.01.2020
3867 Clouds 6 1007 87 6000 3.1 250 21:18 28.01.2020
3868 Clouds 6 1007 87 6000 1.5 250 20:42 28.01.2020
3869 Clouds 6 1007 87 6000 2.6 240 20:23 28.01.2020
3870 Clouds 6 1006 93 6000 1.5 260 19:39 28.01.2020
3871 Clouds 6 1006 93 6000 1.5 260 19:39 28.01.2020
3872 Clouds 6 1006 93 6000 1.5 260 19:21 28.01.2020
3873 Mist 6 1006 87 5000 2.1 240 18:59 28.01.2020
3874 Mist 6 1005 87 5000 1.5 240 18:40 28.01.2020
3875 Mist 6 1005 87 5000 1.5 240 18:22 28.01.2020
3876 Mist 6 1005 87 5000 1.5 240 18:22 28.01.2020
3877 Mist 7 1005 87 3500 1.5 250 17:59 28.01.2020
3878 Mist 7 1005 87 5000 2.1 260 17:38 28.01.2020
3879 Mist 7 1005 87 5000 2.1 260 17:19 28.01.2020
3880 Clouds 8 1005 87 6000 4.1 200 16:55 28.01.2020
3881 Clouds 8 1005 87 6000 4.1 200 16:55 28.01.2020
3882 Mist 8 1005 81 4000 1.5 270 16:36 28.01.2020
3883 Mist 8 1005 87 3500 1 0 16:18 28.01.2020
3884 Mist 8 1006 87 2000 1.5 330 15:42 28.01.2020
3885 Mist 8 1006 87 2000 1.5 330 15:19 28.01.2020
3886 Mist 8 1006 87 2000 1 0 14:54 28.01.2020
3887 Mist 7 1007 93 2000 1.5 270 14:36 28.01.2020
3888 Mist 7 1006 93 2000 1 0 14:18 28.01.2020
3889 Mist 7 1007 93 2000 1 0 13:39 28.01.2020
3890 Mist 7 1007 93 2000 1 0 13:21 28.01.2020
3891 Mist 7 1007 87 2000 0.5 0 12:42 28.01.2020
3892 Mist 7 1008 87 2000 0.5 0 12:23 28.01.2020
3893 Mist 6 1008 93 2000 1.5 200 11:48 28.01.2020
3894 Mist 6 1009 93 1400 1.5 280 11:23 28.01.2020
3895 Mist 6 1008 93 1100 0.5 0 10:58 28.01.2020
3896 Mist 6 1009 93 1100 1 0 10:39 28.01.2020
3897 Mist 6 1009 93 1100 1 0 10:20 28.01.2020
3898 Drizzle 6 1009 93 1500 1 0 09:43 28.01.2020
3899 Drizzle 6 1009 93 1500 1 0 09:21 28.01.2020
3900 Rain 6 1010 93 2000 1 0 08:58 28.01.2020
3901 Rain 6 1010 93 2000 1 0 08:39 28.01.2020
3902 Rain 6 1010 93 2000 1 0 08:19 28.01.2020
3903 Rain 6 1010 100 1100 0.5 0 07:37 28.01.2020
3904 Mist 6 1010 100 1500 0.5 0 06:50 28.01.2020
3905 Mist 6 1010 100 3000 0.5 0 06:26 28.01.2020
3906 Mist 6 1010 100 3000 0.5 0 05:54 28.01.2020
3907 Mist 6 1011 93 3000 1 0 05:26 28.01.2020
3908 Mist 6 1011 93 4000 2.1 80 04:28 28.01.2020
3909 Mist 6 1013 93 3000 1 0 02:58 28.01.2020
3910 Mist 6 1013 93 3000 3.6 70 02:25 28.01.2020
3911 Mist 6 1013 100 2000 3.1 80 01:57 28.01.2020
3912 Rain 6 1014 87 4000 2.6 90 01:24 28.01.2020
3913 Rain 6 1014 87 6000 2.1 70 00:48 28.01.2020
3914 Rain 6 1014 87 6000 2.1 70 00:28 28.01.2020
3915 Rain 6 1014 87 6000 2.6 90 23:49 27.01.2020
3916 Rain 6 1014 87 8000 3.6 80 23:30 27.01.2020
3917 Clouds 7 1015 75 8000 2.6 80 22:55 27.01.2020
3918 Clouds 7 1015 75 8000 2.1 60 22:36 27.01.2020
3919 Clouds 7 1015 75 8000 2.1 60 22:18 27.01.2020
3920 Clouds 7 1015 75 8000 2.1 50 21:54 27.01.2020
3921 Clouds 7 1016 75 8000 2.1 90 21:36 27.01.2020
3922 Clouds 7 1016 75 8000 2.1 90 21:18 27.01.2020
3923 Clouds 7 1016 75 8000 1 100 20:42 27.01.2020
3924 Clouds 7 1016 75 8000 1 100 20:21 27.01.2020
3925 Clouds 7 1016 75 8000 1.5 150 19:59 27.01.2020
3926 Clouds 8 1016 75 8000 1.5 200 19:40 27.01.2020
3927 Clouds 7 1016 75 8000 1.5 200 19:22 27.01.2020
3928 Clouds 8 1017 70 8000 1 0 18:56 27.01.2020
3929 Clouds 8 1017 70 8000 1 0 18:37 27.01.2020
3930 Clouds 8 1017 70 8000 1 0 18:37 27.01.2020
3931 Clouds 8 1017 70 8000 1 0 18:37 27.01.2020
3932 Clouds 8 1017 70 8000 1 0 18:19 27.01.2020
3933 Clouds 8 1016 65 9000 1 190 17:39 27.01.2020
3934 Clouds 9 1017 66 6000 1.5 190 17:19 27.01.2020
3935 Clouds 9 1017 66 6000 1.5 190 16:58 27.01.2020
3936 Mist 10 1017 61 5000 0.46 34 16:40 27.01.2020
3937 Mist 10 1017 61 5000 0.46 34 16:22 27.01.2020
3938 Mist 10 1017 66 5000 1.5 200 15:55 27.01.2020
3939 Mist 10 1017 66 5000 2.1 180 15:36 27.01.2020
3940 Mist 10 1017 66 5000 2.1 180 15:18 27.01.2020
3941 Mist 11 1018 66 5000 1.5 180 14:41 27.01.2020
3942 Mist 10 1018 66 5000 1 0 14:22 27.01.2020
3943 Mist 10 1019 70 5000 1 0 13:54 27.01.2020
3944 Mist 10 1019 70 5000 1.5 200 13:36 27.01.2020
3945 Mist 10 1019 70 5000 1.5 200 13:18 27.01.2020
3946 Mist 9 1020 75 4000 1.5 180 12:42 27.01.2020
3947 Mist 9 1020 75 4000 1.5 180 12:22 27.01.2020
3948 Mist 8 1020 75 4000 0.5 0 11:43 27.01.2020
3949 Mist 7 1020 75 4000 0.5 0 11:23 27.01.2020
3950 Mist 7 1020 86 2500 0.5 0 10:57 27.01.2020
3951 Mist 7 1020 86 2500 0.5 0 10:57 27.01.2020
3952 Mist 6 1020 86 2500 0.5 0 10:39 27.01.2020
3953 Mist 5 1020 93 2000 1 0 10:20 27.01.2020
3954 Mist 3 1020 100 1500 0.5 0 09:40 27.01.2020
3955 Mist 2 1020 100 1500 0.5 0 09:19 27.01.2020
3956 Fog 2 1020 100 800 1 0 08:56 27.01.2020
3957 Fog 1 1020 73 1100 0.5 0 08:38 27.01.2020
3958 Fog 1 1020 81 1500 0.5 0 08:18 27.01.2020
3959 Fog 1 1020 81 1500 0.5 0 07:46 27.01.2020
3960 Fog 1 1019 100 400 0.5 0 07:26 27.01.2020
3961 Fog 1 1019 100 2500 0.5 0 06:38 27.01.2020
3962 Fog 1 1019 81 2500 0.5 0 05:46 27.01.2020
3963 Fog 2 1019 93 2500 1 273 04:37 27.01.2020
3964 Mist 2 1020 93 5000 0.5 0 03:35 27.01.2020
3965 Mist 3 1020 93 5000 0.5 0 01:55 27.01.2020
3966 Fog 3 1020 93 5000 0.5 0 01:27 27.01.2020
3967 Fog 3 1020 100 5000 0.5 0 00:41 27.01.2020
3968 Mist 3 1020 93 5000 0.5 240 00:21 27.01.2020
3969 Clouds 3 1020 93 6000 0.5 0 23:43 26.01.2020
3970 Clouds 3 1020 93 6000 0.5 0 23:22 26.01.2020
3971 Clouds 3 1020 93 6000 0.5 0 22:58 26.01.2020
3972 Clouds 3 1020 93 10000 0.5 290 22:38 26.01.2020
3973 Clouds 3 1020 93 10000 0.5 290 22:20 26.01.2020
3974 Clouds 4 1020 93 10000 1 280 21:57 26.01.2020
3975 Clouds 4 1020 86 10000 1 300 21:39 26.01.2020
3976 Clouds 4 1020 86 10000 1 300 21:20 26.01.2020
3977 Clouds 4 1020 86 10000 1.5 260 20:57 26.01.2020
3978 Clouds 4 1020 81 10000 1.5 260 20:38 26.01.2020
3979 Clouds 4 1020 86 10000 1.5 260 20:38 26.01.2020
3980 Clouds 5 1020 81 10000 1.5 260 20:19 26.01.2020
3981 Clouds 5 1020 81 10000 1.5 260 20:19 26.01.2020
3982 Clouds 5 1020 81 10000 2.1 260 19:57 26.01.2020
3983 Clouds 5 1020 75 10000 1.5 260 19:38 26.01.2020
3984 Clouds 5 1020 75 10000 1.5 260 19:18 26.01.2020
3985 Clouds 6 1020 75 8000 2.1 260 18:54 26.01.2020
3986 Mist 6 1019 70 5000 1.5 240 18:36 26.01.2020
3987 Clouds 7 1019 70 10000 1 0 18:18 26.01.2020
3988 Clouds 8 1019 66 6000 1.5 240 17:40 26.01.2020
3989 Clouds 8 1019 66 6000 1.5 240 17:20 26.01.2020
3990 Clouds 9 1020 61 7000 2.1 240 16:58 26.01.2020
3991 Clouds 9 1020 66 6000 2.6 240 16:40 26.01.2020
3992 Clouds 10 1020 66 6000 2.6 240 16:21 26.01.2020
3993 Clouds 10 1019 50 10000 1 0 15:58 26.01.2020
3994 Clouds 10 1019 50 10000 1 0 15:40 26.01.2020
3995 Clouds 10 1020 50 10000 1 0 15:19 26.01.2020
3996 Clouds 10 1020 50 10000 1 0 14:41 26.01.2020
3997 Clouds 10 1020 46 10000 1 0 14:21 26.01.2020
3998 Clouds 10 1020 46 10000 1 0 13:57 26.01.2020
3999 Clouds 10 1020 60 10000 1.5 0 13:37 26.01.2020
4000 Clouds 10 1021 58 10000 1 0 13:18 26.01.2020
4001 Clouds 9 1021 58 10000 1.5 210 12:42 26.01.2020
4002 Clouds 9 1022 65 10000 0.5 0 12:24 26.01.2020
4003 Clouds 9 1022 65 10000 0.5 0 11:57 26.01.2020
4004 Clouds 8 1022 70 10000 0.5 0 11:39 26.01.2020
4005 Clouds 7 1022 70 10000 0.5 0 11:19 26.01.2020
4006 Mist 7 1022 86 4000 1 0 10:58 26.01.2020
4007 Mist 6 1022 86 4000 1 0 10:38 26.01.2020
4008 Mist 6 1022 86 4000 1 0 10:20 26.01.2020
4009 Mist 5 1022 93 4000 0.5 0 09:57 26.01.2020
4010 Mist 4 1022 86 4000 1 270 09:39 26.01.2020
4011 Mist 4 1022 86 4000 1 270 09:39 26.01.2020
4012 Mist 4 1022 86 4000 1 270 09:20 26.01.2020
4013 Mist 3 1022 93 4000 1 200 08:43 26.01.2020
4014 Mist 3 1022 100 4000 1 210 08:22 26.01.2020
4015 Fog 3 1022 100 6000 1.5 190 07:57 26.01.2020
4016 Fog 3 1021 100 8000 0.5 0 07:39 26.01.2020
4017 Clouds 3 1021 93 10000 0.5 0 07:20 26.01.2020
4018 Clouds 3 1021 93 10000 0.5 230 06:30 26.01.2020
4019 Clouds 3 1021 93 10000 1 0 05:31 26.01.2020
4020 Clouds 4 1022 86 8000 2.1 250 04:45 26.01.2020
4021 Clouds 4 1022 93 7000 1 0 02:42 26.01.2020
4022 Clouds 4 1023 100 7000 1.5 270 01:48 26.01.2020
4023 Clouds 4 1023 93 7000 1 0 01:24 26.01.2020
4024 Clouds 4 1023 93 7000 1.5 230 00:44 26.01.2020
4025 Clouds 4 1023 93 7000 1.5 230 00:26 26.01.2020
4026 Clouds 4 1023 68 8000 1.5 20 23:40 25.01.2020
4027 Clouds 4 1023 93 9000 0.5 0 23:21 25.01.2020
4028 Clouds 4 1023 86 10000 0.5 170 22:58 25.01.2020
4029 Clouds 4 1023 86 10000 0.5 170 22:39 25.01.2020
4030 Clouds 4 1023 86 10000 1.05 230 22:18 25.01.2020
4031 Clouds 4 1023 93 10000 1.5 0 21:55 25.01.2020
4032 Clouds 5 1024 71 0 1.05 230 21:37 25.01.2020
4033 Clouds 4 1023 71 9000 0.5 360 21:19 25.01.2020
4034 Clouds 5 1023 86 9000 0.5 0 20:43 25.01.2020
4035 Clouds 5 1023 66 0 0.81 308 20:24 25.01.2020
4036 Clouds 5 1023 86 9000 0.5 0 19:48 25.01.2020
4037 Clouds 6 1022 70 9000 0.5 0 19:20 25.01.2020
4038 Clouds 6 1022 70 9000 0.5 0 18:59 25.01.2020
4039 Clouds 6 1022 70 9000 0.5 0 18:41 25.01.2020
4040 Clouds 6 1022 70 9000 0.5 0 18:20 25.01.2020
4041 Clouds 7 1022 70 9000 0.5 0 17:54 25.01.2020
4042 Clouds 7 1022 61 10000 0.5 170 17:36 25.01.2020
4043 Clouds 7 1022 61 10000 0.5 170 17:18 25.01.2020
4044 Clouds 8 1022 52 10000 0.5 0 16:42 25.01.2020
4045 Clouds 8 1022 49 10000 1 0 16:22 25.01.2020
4046 Clouds 8 1022 49 10000 1 0 15:55 25.01.2020
4047 Clouds 8 1022 49 10000 1 0 15:37 25.01.2020
4048 Clouds 8 1022 49 10000 0.5 0 15:18 25.01.2020
4049 Clouds 8 1023 52 10000 0.5 0 14:41 25.01.2020
4050 Clouds 8 1023 52 10000 0.5 0 14:19 25.01.2020
4051 Clouds 7 1024 56 10000 0.5 0 13:43 25.01.2020
4052 Clouds 7 1024 56 10000 0.5 0 13:24 25.01.2020
4053 Clouds 7 1024 56 10000 0.5 0 13:24 25.01.2020
4054 Clouds 7 1025 60 9000 1 0 12:46 25.01.2020
4055 Clouds 7 1025 60 9000 1 0 12:28 25.01.2020
4056 Mist 6 1026 81 5000 1.5 270 11:46 25.01.2020
4057 Mist 5 1026 81 5000 1.5 270 11:22 25.01.2020
4058 Mist 5 1026 86 5000 1.5 250 11:00 25.01.2020
4059 Mist 5 1026 86 5000 1.5 250 10:40 25.01.2020
4060 Mist 4 1026 86 5000 1.5 250 10:20 25.01.2020
4061 Mist 4 1025 80 5000 1.5 250 09:54 25.01.2020
4062 Rain 3 1025 93 5000 1.5 260 09:36 25.01.2020
4063 Rain 3 1025 93 5000 1.5 260 09:18 25.01.2020
4064 Drizzle 3 1025 93 5000 0.5 230 08:42 25.01.2020
4065 Clouds 2 1025 86 10000 1.32 336 07:50 25.01.2020
4066 Rain 2 1025 93 10000 0.5 180 06:54 25.01.2020
4067 Rain 2 1025 93 10000 1.32 336 06:28 25.01.2020
4068 Rain 2 1025 93 9000 1.32 336 05:48 25.01.2020
4069 Rain 2 1025 93 8000 0.5 340 05:18 25.01.2020
4070 Rain 2 1026 93 5000 0.5 190 03:52 25.01.2020
4071 Rain 2 1026 93 5000 1 0 03:19 25.01.2020
4072 Rain 3 1026 86 10000 0.5 200 02:22 25.01.2020
4073 Rain 3 1026 86 10000 0.82 123 01:48 25.01.2020
4074 Rain 4 1027 80 10000 1.5 60 00:44 25.01.2020
4075 Rain 4 1027 80 10000 1.5 60 00:26 25.01.2020
4076 Rain 4 1027 75 10000 1.5 70 23:58 24.01.2020
4077 Rain 4 1027 75 10000 2.1 50 23:39 24.01.2020
4078 Rain 4 1027 75 10000 2.1 50 23:39 24.01.2020
4079 Rain 4 1027 75 10000 2.1 50 23:21 24.01.2020
4080 Rain 4 1027 75 10000 2.1 40 22:44 24.01.2020
4081 Rain 5 1027 75 10000 2.1 40 22:25 24.01.2020
4082 Clouds 4 1027 75 10000 1 0 21:43 24.01.2020
4083 Clouds 4 1027 75 10000 1 0 21:43 24.01.2020
4084 Clouds 4 1027 75 10000 1 0 21:21 24.01.2020
4085 Clouds 5 1027 75 10000 1 0 21:21 24.01.2020
4086 Clouds 5 1027 75 10000 1.5 70 20:57 24.01.2020
4087 Clouds 5 1027 70 10000 1 30 20:39 24.01.2020
4088 Clouds 5 1027 70 10000 1 30 20:20 24.01.2020
4089 Clouds 5 1026 75 10000 1 0 19:57 24.01.2020
4090 Clouds 5 1026 75 10000 1 0 19:57 24.01.2020
4091 Clouds 5 1026 75 10000 1 0 19:38 24.01.2020
4092 Clouds 5 1026 75 10000 1 0 19:38 24.01.2020
4093 Clouds 5 1026 75 10000 0.5 0 19:20 24.01.2020
4094 Clouds 6 1026 70 7000 2.1 150 18:43 24.01.2020
4095 Clouds 6 1026 70 7000 2.1 150 18:23 24.01.2020
4096 Mist 6 1026 65 5000 2.6 140 17:46 24.01.2020
4097 Mist 7 1026 65 5000 2.6 140 17:23 24.01.2020
4098 Mist 7 1026 61 5000 1.5 130 16:59 24.01.2020
4099 Clouds 7 1026 61 6000 1 0 16:39 24.01.2020
4100 Clouds 7 1026 61 6000 1 0 16:20 24.01.2020
4101 Mist 8 1026 65 5000 2.1 140 15:43 24.01.2020
4102 Mist 8 1026 65 5000 2.1 140 15:22 24.01.2020
4103 Mist 8 1026 65 5000 2.1 140 15:22 24.01.2020
4104 Mist 8 1026 61 5000 1.5 160 14:56 24.01.2020
4105 Mist 8 1026 61 5000 0.5 0 14:38 24.01.2020
4106 Mist 8 1026 61 5000 0.5 0 14:19 24.01.2020
4107 Mist 8 1027 45 5000 0.5 0 13:42 24.01.2020
4108 Mist 8 1027 44 5000 0.5 0 13:22 24.01.2020
4109 Mist 7 1027 44 5000 0.5 0 12:44 24.01.2020
4110 Mist 7 1027 44 5000 0.5 0 12:44 24.01.2020
4111 Mist 6 1028 44 5000 1 0 12:22 24.01.2020
4112 Mist 6 1028 44 5000 1.5 250 11:45 24.01.2020
4113 Mist 5 1028 61 5000 1 0 11:19 24.01.2020
4114 Mist 5 1028 61 5000 1 0 11:19 24.01.2020
4115 Mist 4 1028 61 4000 0.5 0 10:58 24.01.2020
4116 Clouds 4 1027 74 10000 1 0 10:40 24.01.2020
4117 Clouds 3 1027 61 6000 0.5 0 10:19 24.01.2020
4118 Clouds 3 1027 61 6000 0.5 0 10:19 24.01.2020
4119 Mist 2 1028 86 4000 0.5 0 09:42 24.01.2020
4120 Mist 2 1028 61 2000 1 0 09:23 24.01.2020
4121 Mist 1 1027 61 3000 0.5 0 08:41 24.01.2020
4122 Mist 1 1027 64 3000 0.5 0 08:21 24.01.2020
4123 Clear 1 1027 64 8000 0.5 0 08:00 24.01.2020
4124 Fog 0 1027 64 8000 1 170 07:41 24.01.2020
4125 Clear 0 1026 92 7000 2.1 30 06:55 24.01.2020
4126 Mist 0 1027 100 5000 1 350 06:35 24.01.2020
4127 Mist 0 1027 100 5000 1 350 06:35 24.01.2020
4128 Fog 0 1027 64 6000 0.5 0 05:59 24.01.2020
4129 Clear 0 1027 67 10000 1 250 05:18 24.01.2020
4130 Clear 0 1029 92 10000 0.5 180 02:54 24.01.2020
4131 Clear 0 1029 67 10000 0.5 210 02:28 24.01.2020
4132 Clear 0 1029 92 10000 0.5 0 01:56 24.01.2020
4133 Clear 0 1029 64 10000 0.5 0 01:35 24.01.2020
4134 Clear 0 1030 68 10000 0.5 0 00:33 24.01.2020
4135 Clear 1 1030 86 10000 0.5 0 23:58 23.01.2020
4136 Clear 1 1030 86 10000 1 360 23:40 23.01.2020
4137 Clear 1 1030 92 7000 2.1 20 23:20 23.01.2020
4138 Clear 1 1030 86 10000 0.5 0 22:39 23.01.2020
4139 Clear 1 1030 86 10000 0.5 0 22:20 23.01.2020
4140 Clear 1 1030 64 10000 0.5 300 21:58 23.01.2020
4141 Clear 1 1030 80 10000 0.5 0 21:39 23.01.2020
4142 Clear 2 1030 80 10000 0.5 0 21:21 23.01.2020
4143 Clear 2 1030 64 10000 1 190 20:59 23.01.2020
4144 Clear 2 1030 64 10000 0.5 0 20:39 23.01.2020
4145 Clouds 2 1030 62 10000 0.5 0 20:20 23.01.2020
4146 Clouds 2 1030 62 10000 0.5 0 19:56 23.01.2020
4147 Clouds 3 1030 62 10000 1 0 19:38 23.01.2020
4148 Clouds 3 1030 62 10000 1 0 19:19 23.01.2020
4149 Clouds 3 1030 62 10000 1 0 18:55 23.01.2020
4150 Clouds 4 1030 62 10000 2.1 70 18:37 23.01.2020
4151 Clouds 5 1030 62 10000 2.1 70 18:18 23.01.2020
4152 Clouds 6 1030 62 10000 1.5 70 17:43 23.01.2020
4153 Clouds 7 1030 49 10000 2.1 90 17:20 23.01.2020
4154 Clouds 8 1030 49 10000 0.5 0 16:57 23.01.2020
4155 Clouds 8 1030 49 10000 1 0 16:37 23.01.2020
4156 Clouds 8 1030 49 10000 1 0 16:18 23.01.2020
4157 Clouds 9 1030 49 10000 2.1 160 15:56 23.01.2020
4158 Clouds 8 1030 49 10000 1.5 160 15:37 23.01.2020
4159 Clouds 9 1030 49 10000 1.5 160 15:18 23.01.2020
4160 Clouds 9 1031 49 10000 1.5 100 14:55 23.01.2020
4161 Clouds 9 1031 49 10000 1.5 100 14:55 23.01.2020
4162 Clouds 9 1031 49 10000 2.6 100 14:37 23.01.2020
4163 Clouds 9 1031 46 10000 2.6 100 14:19 23.01.2020
4164 Clear 9 1032 46 10000 1.5 0 13:43 23.01.2020
4165 Clear 8 1032 46 10000 1.5 0 13:20 23.01.2020
4166 Clear 8 1032 46 10000 1.5 130 12:47 23.01.2020
4167 Clear 8 1033 46 10000 1.5 120 12:26 23.01.2020
4168 Clear 7 1033 46 10000 2.1 110 11:59 23.01.2020
4169 Clear 7 1033 46 10000 2.1 110 11:59 23.01.2020
4170 Clear 7 1033 45 10000 1.5 100 11:39 23.01.2020
4171 Clear 6 1033 59 10000 1.5 100 11:20 23.01.2020
4172 Clear 6 1032 60 10000 1.5 120 10:55 23.01.2020
4173 Clear 5 1032 59 10000 1.5 90 10:36 23.01.2020
4174 Clear 4 1032 60 10000 1.5 90 10:18 23.01.2020
4175 Clear 3 1032 80 10000 2.6 50 09:39 23.01.2020
4176 Clear 2 1032 80 10000 2.6 50 09:20 23.01.2020
4177 Clear 1 1032 86 10000 2.6 40 08:43 23.01.2020
4178 Clear 0 1031 86 10000 2.1 40 08:24 23.01.2020
4179 Clear 0 1031 63 10000 2.1 40 07:49 23.01.2020
4180 Clear 0 1031 63 10000 1.5 50 07:27 23.01.2020
4181 Clear 1 1030 86 10000 2.1 60 06:54 23.01.2020
4182 Clear 1 1030 86 10000 1.5 70 06:24 23.01.2020
4183 Clear 1 1030 86 10000 2.1 80 05:58 23.01.2020
4184 Clear 1 1030 92 10000 1 0 04:24 23.01.2020
4185 Clear 1 1030 92 10000 0.5 0 02:45 23.01.2020
4186 Clear 1 1030 49 10000 1 20 01:44 23.01.2020
4187 Clear 2 1030 50 10000 0.5 170 00:28 23.01.2020
4188 Clear 2 1030 86 10000 0.5 0 23:54 22.01.2020
4189 Clear 2 1030 86 10000 1 50 23:36 22.01.2020
4190 Clear 2 1030 86 10000 1 50 23:18 22.01.2020
4191 Clear 2 1030 80 10000 0.5 0 22:41 22.01.2020
4192 Clear 2 1030 49 10000 0.5 180 22:23 22.01.2020
4193 Clear 3 1030 86 10000 1 220 21:42 22.01.2020
4194 Clear 3 1030 80 10000 0.5 0 21:22 22.01.2020
4195 Clear 3 1030 74 10000 0.5 290 20:59 22.01.2020
4196 Clear 3 1030 69 10000 1 280 20:41 22.01.2020
4197 Clear 3 1030 69 10000 1 280 20:23 22.01.2020
4198 Clear 3 1030 69 10000 1.5 280 19:57 22.01.2020
4199 Clear 4 1030 69 10000 1.5 270 19:39 22.01.2020
4200 Clear 4 1030 69 10000 1.5 270 19:19 22.01.2020
4201 Clear 5 1030 60 10000 2.1 250 18:57 22.01.2020
4202 Clear 5 1030 60 10000 2.1 250 18:38 22.01.2020
4203 Clear 5 1030 60 10000 2.1 250 18:20 22.01.2020
4204 Clear 6 1030 52 10000 2.1 240 17:55 22.01.2020
4205 Clear 6 1030 49 10000 2.1 250 17:37 22.01.2020
4206 Clear 7 1030 49 10000 2.1 250 17:18 22.01.2020
4207 Clear 8 1031 49 10000 2.6 260 16:43 22.01.2020
4208 Clear 9 1031 45 10000 2.6 270 16:23 22.01.2020
4209 Clear 9 1032 45 10000 3.1 260 15:58 22.01.2020
4210 Clear 9 1032 49 10000 3.1 260 15:40 22.01.2020
4211 Clear 9 1032 49 10000 3.1 260 15:22 22.01.2020
4212 Clear 9 1032 52 10000 3.6 260 14:56 22.01.2020
4213 Clear 9 1033 45 10000 3.6 260 14:36 22.01.2020
4214 Clouds 9 1033 40 10000 3.6 260 14:18 22.01.2020
4215 Clouds 8 1033 40 10000 3.1 260 13:54 22.01.2020
4216 Clouds 8 1034 40 10000 2.1 250 13:36 22.01.2020
4217 Clouds 8 1034 40 10000 2.1 250 13:18 22.01.2020
4218 Clouds 8 1034 40 10000 2.1 250 13:18 22.01.2020
4219 Clouds 7 1034 60 10000 3.1 250 12:54 22.01.2020
4220 Clouds 7 1035 60 10000 2.6 250 12:36 22.01.2020
4221 Clouds 7 1035 60 10000 2.6 250 12:18 22.01.2020
4222 Clouds 6 1035 60 10000 2.1 230 11:54 22.01.2020
4223 Clouds 6 1035 56 10000 1.5 260 11:36 22.01.2020
4224 Clouds 5 1035 56 10000 1.5 260 11:18 22.01.2020
4225 Clouds 3 1036 69 9000 1 0 10:41 22.01.2020
4226 Clouds 3 1036 69 9000 1 0 10:19 22.01.2020
4227 Clouds 1 1036 80 9000 1.5 260 09:43 22.01.2020
4228 Clouds 0 1036 49 9000 1 0 09:24 22.01.2020
4229 Clouds 0 1036 92 9000 1.65 259 08:57 22.01.2020
4230 Clouds 0 1036 92 10000 0.5 0 08:39 22.01.2020
4231 Clouds -1 1036 92 10000 0.5 0 08:20 22.01.2020
4232 Clouds -1 1036 92 10000 0.5 220 07:46 22.01.2020
4233 Clouds -1 1036 92 10000 1.5 20 07:28 22.01.2020
4234 Clouds -1 1036 92 10000 1 0 06:38 22.01.2020
4235 Clouds -1 1036 92 10000 1 0 06:20 22.01.2020
4236 Clouds -1 1037 86 10000 1 200 05:21 22.01.2020
4237 Clouds -1 1038 53 10000 1 260 03:30 22.01.2020
4238 Clouds -1 1038 53 10000 1 270 02:50 22.01.2020
4239 Clouds 0 1038 86 10000 2.1 260 01:42 22.01.2020
4240 Clouds 0 1039 86 10000 1.5 240 00:44 22.01.2020
4241 Clouds 1 1039 86 10000 0.5 0 00:25 22.01.2020
4242 Clouds 1 1039 53 10000 0.5 210 23:38 21.01.2020
4243 Clouds 1 1039 52 10000 1 190 23:20 21.01.2020
4244 Clouds 1 1039 52 10000 0.5 0 22:55 21.01.2020
4245 Clouds 1 1039 52 10000 0.5 0 22:36 21.01.2020
4246 Clouds 1 1039 52 10000 0.5 0 22:36 21.01.2020
4247 Clouds 1 1039 52 10000 0.5 0 22:18 21.01.2020
4248 Clouds 1 1039 52 10000 0.5 230 21:55 21.01.2020
4249 Clouds 1 1039 52 10000 0.5 250 21:36 21.01.2020
4250 Clouds 1 1039 52 10000 0.5 0 21:18 21.01.2020
4251 Clouds 2 1039 52 10000 0.5 280 20:39 21.01.2020
4252 Clouds 2 1039 51 10000 0.5 280 20:20 21.01.2020
4253 Clouds 2 1039 74 10000 1 260 19:59 21.01.2020
4254 Clouds 2 1039 74 10000 1 260 19:40 21.01.2020
4255 Clouds 2 1039 53 10000 1 0 19:21 21.01.2020
4256 Clouds 3 1039 53 10000 1.5 250 18:57 21.01.2020
4257 Clouds 3 1039 53 10000 1 0 18:39 21.01.2020
4258 Clouds 3 1039 53 10000 1 0 18:21 21.01.2020
4259 Clouds 4 1039 53 10000 1.5 240 17:57 21.01.2020
4260 Clouds 4 1039 53 10000 1.5 240 17:38 21.01.2020
4261 Clouds 4 1039 44 10000 1.5 240 17:18 21.01.2020
4262 Clouds 5 1040 60 10000 2.6 220 16:38 21.01.2020
4263 Clouds 6 1040 60 10000 2.6 220 16:19 21.01.2020
4264 Clouds 6 1040 44 10000 2.1 240 15:59 21.01.2020
4265 Clouds 6 1040 60 10000 1.5 240 15:38 21.01.2020
4266 Clouds 6 1040 60 10000 1.5 240 15:19 21.01.2020
4267 Clouds 7 1041 44 10000 2.1 200 14:40 21.01.2020
4268 Clouds 7 1041 41 10000 2.1 210 14:21 21.01.2020
4269 Clouds 6 1042 60 10000 2.1 200 13:44 21.01.2020
4270 Clouds 6 1042 60 10000 2.1 200 13:21 21.01.2020
4271 Clouds 6 1042 41 10000 2.1 190 12:59 21.01.2020
4272 Clouds 6 1043 41 10000 1.5 240 12:41 21.01.2020
4273 Clouds 6 1043 41 10000 1.5 240 12:23 21.01.2020
4274 Clouds 5 1043 56 10000 0.5 0 11:56 21.01.2020
4275 Clouds 5 1043 60 10000 0.5 0 11:37 21.01.2020
4276 Clear 4 1043 60 10000 0.5 0 11:18 21.01.2020
4277 Clear 3 1043 80 10000 1.5 10 10:42 21.01.2020
4278 Clear 3 1043 80 10000 1.5 10 10:22 21.01.2020
4279 Clear 3 1043 80 10000 1.5 10 10:22 21.01.2020
4280 Clear 2 1043 80 10000 1 30 09:55 21.01.2020
4281 Clear 1 1043 44 10000 1 350 09:37 21.01.2020
4282 Clear 0 1043 44 10000 1 0 09:18 21.01.2020
4283 Clouds 0 1043 45 10000 1 350 08:41 21.01.2020
4284 Clouds -1 1043 56 10000 1 350 08:21 21.01.2020
4285 Clouds -1 1043 86 10000 1.5 360 07:43 21.01.2020
4286 Clouds -1 1043 80 10000 1.5 20 07:23 21.01.2020
4287 Clouds -1 1043 86 10000 0.5 0 06:56 21.01.2020
4288 Clouds -1 1043 80 10000 1.5 20 06:37 21.01.2020
4289 Clouds -1 1043 86 10000 1 360 05:53 21.01.2020
4290 Clouds 0 1044 58 10000 1 330 04:41 21.01.2020
4291 Clouds 0 1044 58 10000 1 350 03:40 21.01.2020
4292 Clouds 0 1045 62 10000 0.5 0 02:26 21.01.2020
4293 Clouds 0 1045 61 10000 0.5 0 01:28 21.01.2020
4294 Clouds 1 1045 80 10000 1 360 00:40 21.01.2020
4295 Clouds 1 1045 80 10000 1.5 360 23:59 20.01.2020
4296 Clouds 1 1045 86 10000 0.5 0 23:41 20.01.2020
4297 Clear 1 1045 86 10000 0.5 0 23:19 20.01.2020
4298 Clear 1 1044 80 10000 1 360 22:58 20.01.2020
4299 Clear 1 1044 80 10000 1.5 10 22:38 20.01.2020
4300 Clear 1 1044 80 10000 1.5 10 22:20 20.01.2020
4301 Clear 1 1044 80 10000 1.5 10 22:20 20.01.2020
4302 Clear 1 1044 69 10000 1 360 21:58 20.01.2020
4303 Clear 1 1044 69 10000 1 360 21:37 20.01.2020
4304 Clear 1 1044 69 10000 1 350 21:19 20.01.2020
4305 Clear 2 1044 74 10000 1 0 20:56 20.01.2020
4306 Clear 2 1043 74 10000 1 340 20:38 20.01.2020
4307 Clouds 2 1043 60 10000 0.5 0 20:18 20.01.2020
4308 Clouds 3 1043 60 10000 0.5 0 19:56 20.01.2020
4309 Clouds 3 1042 56 10000 1.5 180 19:38 20.01.2020
4310 Clouds 3 1042 56 10000 1.5 180 19:18 20.01.2020
4311 Clouds 5 1042 56 10000 1.5 180 18:44 20.01.2020
4312 Clouds 5 1042 52 10000 2.1 170 18:22 20.01.2020
4313 Clouds 6 1041 45 10000 2.6 150 17:42 20.01.2020
4314 Clouds 6 1041 45 10000 2.6 150 17:20 20.01.2020
4315 Clouds 7 1041 39 10000 2.6 140 16:59 20.01.2020
4316 Clouds 8 1041 36 10000 1.5 100 16:39 20.01.2020
4317 Clouds 8 1041 36 10000 1.5 100 16:19 20.01.2020
4318 Clouds 8 1041 36 10000 1.5 100 16:19 20.01.2020
4319 Clouds 8 1041 36 10000 1.5 100 16:19 20.01.2020
4320 Clouds 8 1041 36 10000 1.5 100 16:19 20.01.2020
4321 Clouds 8 1041 36 10000 1.5 100 16:19 20.01.2020
4322 Clouds 8 1041 36 10000 2.1 90 15:56 20.01.2020
4323 Clouds 8 1041 36 10000 2.1 90 15:38 20.01.2020
4324 Clouds 9 1041 39 10000 1.5 160 15:20 20.01.2020
4325 Clouds 9 1041 42 10000 1.5 160 14:41 20.01.2020
4326 Clouds 9 1041 42 10000 2.6 120 14:22 20.01.2020
4327 Clouds 9 1042 42 10000 2.1 70 13:58 20.01.2020
4328 Clouds 9 1042 42 10000 2.1 70 13:40 20.01.2020
4329 Clouds 8 1042 39 10000 2.1 80 13:21 20.01.2020
4330 Clouds 8 1042 33 10000 2.6 60 12:46 20.01.2020
4331 Clouds 8 1042 33 10000 2.6 60 12:28 20.01.2020
4332 Clouds 7 1042 39 10000 2.6 30 11:57 20.01.2020
4333 Clouds 7 1042 39 10000 2.6 30 11:38 20.01.2020
4334 Clouds 7 1042 42 10000 2.6 30 11:19 20.01.2020
4335 Clouds 5 1041 60 10000 2.6 20 10:48 20.01.2020
4336 Clouds 5 1041 60 10000 2.6 20 10:22 20.01.2020
4337 Clouds 4 1041 69 10000 1.5 10 09:54 20.01.2020
4338 Clouds 3 1040 69 10000 2.6 30 09:36 20.01.2020
4339 Clouds 3 1040 69 10000 2.6 30 09:18 20.01.2020
4340 Clouds 2 1040 33 10000 2.1 360 08:42 20.01.2020
4341 Clouds 2 1040 36 10000 2.1 360 08:24 20.01.2020
4342 Clouds 2 1039 86 10000 0.5 0 07:43 20.01.2020
4343 Clouds 2 1039 86 10000 0.5 0 07:23 20.01.2020
4344 Clouds 2 1038 86 10000 0.5 190 06:45 20.01.2020
4345 Clouds 2 1038 74 10000 0.5 0 06:25 20.01.2020
4346 Clouds 2 1038 86 10000 1 0 05:41 20.01.2020
4347 Clouds 3 1037 74 10000 0.5 0 05:21 20.01.2020
4348 Clouds 3 1037 86 10000 1.5 10 04:41 20.01.2020
4349 Clouds 3 1036 69 10000 2.1 360 02:55 20.01.2020
4350 Clouds 3 1036 69 10000 2.1 360 02:55 20.01.2020
4351 Clouds 3 1036 36 10000 1.5 350 01:42 20.01.2020
4352 Clouds 3 1036 80 10000 1.5 360 01:23 20.01.2020
4353 Clouds 2 1035 37 10000 1.5 360 00:43 20.01.2020
4354 Clouds 2 1035 37 10000 1.5 360 00:22 20.01.2020
4355 Clouds 2 1034 86 10000 2.1 360 23:39 19.01.2020
4356 Clouds 2 1034 86 10000 2.1 360 23:19 19.01.2020
4357 Clouds 2 1034 93 10000 3.1 10 22:56 19.01.2020
4358 Clouds 3 1034 86 10000 3.1 360 22:38 19.01.2020
4359 Clouds 3 1034 86 10000 3.1 360 22:19 19.01.2020
4360 Clouds 2 1034 86 10000 3.1 360 21:56 19.01.2020
4361 Clouds 3 1033 86 10000 3.1 360 21:38 19.01.2020
4362 Clouds 3 1033 86 10000 3.1 360 21:19 19.01.2020
4363 Clouds 3 1033 86 10000 2.6 360 20:57 19.01.2020
4364 Clouds 3 1032 86 10000 2.6 350 20:38 19.01.2020
4365 Clouds 3 1032 86 10000 2.6 350 20:20 19.01.2020
4366 Clouds 3 1032 93 10000 1.5 360 19:56 19.01.2020
4367 Clouds 3 1031 86 10000 2.6 350 19:37 19.01.2020
4368 Clouds 3 1031 86 10000 2.6 350 19:19 19.01.2020
4369 Clouds 4 1031 86 10000 1.5 350 18:55 19.01.2020
4370 Clouds 4 1031 93 10000 1 0 18:37 19.01.2020
4371 Clouds 4 1031 93 10000 1 0 18:19 19.01.2020
4372 Clouds 5 1030 86 10000 0.5 0 17:57 19.01.2020
4373 Clouds 5 1030 81 10000 1.5 180 17:39 19.01.2020
4374 Clouds 5 1030 81 10000 1.5 180 17:20 19.01.2020
4375 Clouds 6 1030 75 10000 2.1 180 16:57 19.01.2020
4376 Clouds 6 1029 81 10000 2.6 200 16:38 19.01.2020
4377 Clouds 7 1029 81 10000 2.6 200 16:19 19.01.2020
4378 Clouds 7 1029 75 10000 3.1 180 15:57 19.01.2020
4379 Clouds 7 1029 70 10000 2.6 170 15:37 19.01.2020
4380 Clouds 7 1029 70 10000 2.6 170 15:19 19.01.2020
4381 Clouds 8 1029 65 10000 3.1 190 14:57 19.01.2020
4382 Clouds 8 1028 70 10000 1.5 190 14:37 19.01.2020
4383 Clouds 8 1028 70 10000 1.5 190 14:18 19.01.2020
4384 Clouds 7 1029 75 10000 2.6 180 13:54 19.01.2020
4385 Clouds 7 1028 70 10000 2.1 210 13:36 19.01.2020
4386 Rain 7 1028 70 10000 2.1 210 13:18 19.01.2020
4387 Rain 8 1029 75 10000 1.5 240 12:42 19.01.2020
4388 Rain 7 1029 81 7000 1.5 250 12:23 19.01.2020
4389 Rain 7 1028 93 6000 1 0 11:57 19.01.2020
4390 Mist 6 1028 100 3500 1 0 11:39 19.01.2020
4391 Mist 4 1028 100 3500 1 0 11:19 19.01.2020
4392 Mist 4 1028 100 2000 1 0 10:54 19.01.2020
4393 Fog 3 1027 100 500 1 0 10:36 19.01.2020
4394 Fog 2 1027 60 500 1.5 260 10:18 19.01.2020
4395 Fog 2 1027 60 500 1.5 260 09:41 19.01.2020
4396 Mist 1 1027 100 5000 1 0 09:23 19.01.2020
4397 Fog 1 1026 100 6000 1 0 08:56 19.01.2020
4398 Fog 1 1026 100 6000 1 0 08:38 19.01.2020
4399 Fog 0 1026 100 6000 1 240 08:19 19.01.2020
4400 Clouds 0 1025 100 9000 0.5 0 07:30 19.01.2020
4401 Fog 0 1025 100 7000 0.5 0 06:56 19.01.2020
4402 Clouds 1 1025 100 6000 1 0 06:23 19.01.2020
4403 Rain 1 1025 100 1000 1.5 340 04:19 19.01.2020
4404 Fog 1 1025 100 100 1 0 02:35 19.01.2020
4405 Fog 2 1025 100 100 1 0 01:45 19.01.2020
4406 Fog 2 1024 100 100 1 0 01:22 19.01.2020
4407 Fog 2 1024 93 100 2.1 360 00:45 19.01.2020
4408 Fog 2 1024 93 100 2.1 360 00:26 19.01.2020
4409 Fog 2 1024 93 100 2.1 360 23:55 18.01.2020
4410 Fog 2 1024 100 100 2.1 360 23:36 18.01.2020
4411 Fog 2 1024 100 100 2.1 360 23:18 18.01.2020
4412 Fog 2 1024 100 100 1.5 20 22:43 18.01.2020
4413 Fog 3 1024 100 100 1 0 22:24 18.01.2020
4414 Fog 3 1023 100 200 1 0 21:58 18.01.2020
4415 Fog 3 1023 100 200 1 0 21:39 18.01.2020
4416 Fog 3 1024 100 1200 0.5 0 21:21 18.01.2020
4417 Fog 3 1023 100 5000 1.5 40 20:59 18.01.2020
4418 Fog 4 1023 100 7000 0.5 0 20:41 18.01.2020
4419 Fog 4 1023 100 7000 0.5 0 20:19 18.01.2020
4420 Clear 4 1023 100 10000 1 180 19:43 18.01.2020
4421 Clear 5 1023 100 10000 1 200 19:24 18.01.2020
4422 Clear 5 1023 93 10000 1 160 18:54 18.01.2020
4423 Clear 5 1023 93 10000 1.5 190 18:36 18.01.2020
4424 Clear 6 1023 93 10000 1.5 190 18:18 18.01.2020
4425 Clouds 7 1023 87 8000 0.5 0 17:41 18.01.2020
4426 Clouds 7 1023 87 8000 0.5 0 17:21 18.01.2020
4427 Clouds 8 1022 81 8000 1 180 16:57 18.01.2020
4428 Clouds 8 1022 81 8000 1.5 220 16:38 18.01.2020
4429 Clouds 8 1022 81 8000 1.5 220 16:19 18.01.2020
4430 Clouds 8 1022 81 8000 1.5 220 16:19 18.01.2020
4431 Clouds 9 1022 76 9000 2.6 230 15:47 18.01.2020
4432 Clouds 9 1022 76 9000 2.1 240 15:47 18.01.2020
4433 Clouds 9 1022 76 9000 2.6 230 15:26 18.01.2020
4434 Clouds 9 1022 76 10000 2.1 230 14:59 18.01.2020
4435 Clouds 9 1022 81 7000 2.1 220 14:40 18.01.2020
4436 Clouds 9 1022 81 7000 2.1 220 14:19 18.01.2020
4437 Mist 8 1023 87 5000 2.1 230 13:57 18.01.2020
4438 Mist 8 1023 87 5000 2.1 250 13:36 18.01.2020
4439 Mist 8 1023 87 5000 2.1 250 13:18 18.01.2020
4440 Mist 8 1023 87 5000 2.1 250 13:18 18.01.2020
4441 Mist 8 1024 93 4000 1.5 250 12:41 18.01.2020
4442 Mist 7 1024 93 4000 1.5 250 12:21 18.01.2020
4443 Mist 7 1024 93 4000 2.1 250 11:56 18.01.2020
4444 Mist 7 1024 93 4000 2.1 250 11:38 18.01.2020
4445 Mist 6 1024 93 4000 0.5 0 11:19 18.01.2020
4446 Mist 6 1024 100 4000 1.7 285 10:42 18.01.2020
4447 Drizzle 5 1024 93 2000 0.5 0 10:20 18.01.2020
4448 Drizzle 5 1024 93 2000 0.5 0 10:20 18.01.2020
4449 Drizzle 5 1024 93 2000 0.5 0 09:50 18.01.2020
4450 Drizzle 4 1024 93 2000 1 0 09:32 18.01.2020
4451 Drizzle 4 1024 93 4000 1 210 08:59 18.01.2020
4452 Drizzle 4 1024 93 4000 1 210 08:41 18.01.2020
4453 Drizzle 4 1023 93 5000 0.5 0 08:19 18.01.2020
4454 Rain 4 1023 93 5000 1.5 300 07:52 18.01.2020
4455 Fog 4 1022 100 2000 0.5 0 07:32 18.01.2020
4456 Rain 4 1022 93 3000 3.6 120 06:48 18.01.2020
4457 Drizzle 4 1022 100 2000 0.5 0 06:18 18.01.2020
4458 Drizzle 5 1022 100 3000 1 0 05:30 18.01.2020
4459 Rain 5 1023 100 2000 2.6 310 03:39 18.01.2020
4460 Rain 5 1022 93 3000 2.1 350 01:59 18.01.2020
4461 Rain 5 1022 93 4000 2.6 10 01:35 18.01.2020
4462 Rain 5 1022 100 7000 3.1 360 00:38 18.01.2020
4463 Rain 5 1022 100 7000 3.1 360 00:19 18.01.2020
4464 Rain 6 1022 93 7000 1 0 23:44 17.01.2020
4465 Rain 6 1022 93 6000 1 0 23:20 17.01.2020
4466 Rain 6 1022 93 8000 1.5 240 22:46 17.01.2020
4467 Drizzle 6 1022 87 8000 2.1 220 22:22 17.01.2020
4468 Drizzle 6 1022 87 8000 2.1 220 22:22 17.01.2020
4469 Drizzle 6 1023 93 8000 2.6 200 21:59 17.01.2020
4470 Drizzle 6 1022 81 10000 0.5 0 21:41 17.01.2020
4471 Drizzle 6 1022 81 10000 0.5 0 21:22 17.01.2020
4472 Drizzle 6 1023 81 10000 1.5 220 20:58 17.01.2020
4473 Clouds 6 1023 75 10000 1.5 190 20:38 17.01.2020
4474 Clouds 6 1023 75 10000 1.5 190 20:20 17.01.2020
4475 Clouds 5 1023 81 10000 1 0 19:55 17.01.2020
4476 Clouds 5 1023 81 10000 1 0 19:55 17.01.2020
4477 Clouds 5 1023 75 10000 1 0 19:37 17.01.2020
4478 Clouds 5 1023 75 10000 1 0 19:37 17.01.2020
4479 Clouds 5 1023 75 10000 1 0 19:18 17.01.2020
4480 Clouds 6 1023 70 10000 1 0 18:47 17.01.2020
4481 Clouds 6 1023 70 10000 1 0 18:28 17.01.2020
4482 Clouds 7 1023 65 10000 1 250 17:56 17.01.2020
4483 Clouds 7 1023 57 10000 1.5 240 17:38 17.01.2020
4484 Clouds 8 1023 57 10000 1.5 240 17:20 17.01.2020
4485 Clouds 9 1023 53 10000 1.5 280 16:43 17.01.2020
4486 Clouds 10 1023 53 10000 1.5 280 16:20 17.01.2020
4487 Clouds 10 1023 57 10000 2.1 270 15:49 17.01.2020
4488 Clouds 10 1024 61 10000 2.6 260 15:28 17.01.2020
4489 Clouds 10 1024 57 10000 3.1 260 14:57 17.01.2020
4490 Clouds 10 1024 57 10000 3.1 260 14:38 17.01.2020
4491 Clouds 9 1024 57 10000 2.1 260 14:20 17.01.2020
4492 Clouds 9 1024 57 10000 2.6 240 13:41 17.01.2020
4493 Clouds 9 1025 61 9000 1.5 230 13:22 17.01.2020
4494 Clouds 9 1025 61 9000 1.5 230 13:22 17.01.2020
4495 Clouds 9 1026 65 8000 0.5 0 12:46 17.01.2020
4496 Clouds 9 1026 65 8000 0.5 0 12:23 17.01.2020
4497 Clouds 9 1026 65 8000 0.5 0 12:23 17.01.2020
4498 Clouds 8 1027 75 8000 1 0 11:41 17.01.2020
4499 Clear 6 1027 75 8000 1 0 11:20 17.01.2020
4500 Clear 6 1027 80 6000 1.5 250 10:55 17.01.2020
4501 Clear 5 1027 93 6000 1.5 250 10:36 17.01.2020
4502 Clear 4 1027 93 6000 1.5 250 10:18 17.01.2020
4503 Clear 2 1027 66 6000 1.5 260 09:42 17.01.2020
4504 Mist 2 1027 66 3000 1 0 09:21 17.01.2020
4505 Mist 1 1026 66 2000 1 0 08:55 17.01.2020
4506 Mist 1 1027 92 3000 1 0 08:37 17.01.2020
4507 Mist 0 1027 92 3000 1 0 08:18 17.01.2020
4508 Fog 0 1027 100 3000 1.5 250 07:43 17.01.2020
4509 Fog 0 1027 100 3000 1.5 250 07:43 17.01.2020
4510 Fog 0 1026 72 1200 0.5 0 07:24 17.01.2020
4511 Fog 0 1026 72 1200 1 270 06:47 17.01.2020
4512 Fog 0 1027 72 1200 1.5 240 06:29 17.01.2020
4513 Fog 1 1028 77 1200 1.61 269 04:26 17.01.2020
4514 Clear 1 1028 100 10000 0.5 0 02:55 17.01.2020
4515 Clear 1 1029 100 10000 1 0 02:30 17.01.2020
4516 Clouds 2 1027 85 0 1.57 256 01:32 17.01.2020
4517 Clouds 2 1027 85 0 1.57 256 00:59 17.01.2020
4518 Clouds 2 1025 75 0 1.79 271 00:59 17.01.2020
4519 Clouds 2 1029 82 10000 1 10 00:35 17.01.2020
4520 Clouds 2 1030 93 7000 1.5 270 23:56 16.01.2020
4521 Clouds 2 1030 93 7000 1.5 270 23:38 16.01.2020
4522 Clear 2 1030 93 7000 1.5 270 23:19 16.01.2020
4523 Clear 2 1030 93 6000 0.5 0 22:40 16.01.2020
4524 Clear 2 1030 93 6000 1.5 280 22:21 16.01.2020
4525 Clear 3 1030 93 6000 1 0 21:57 16.01.2020
4526 Clear 3 1030 93 6000 0.5 0 21:37 16.01.2020
4527 Clear 3 1030 93 6000 0.5 0 21:19 16.01.2020
4528 Mist 3 1030 86 4000 0.5 0 20:56 16.01.2020
4529 Mist 3 1030 86 4000 0.5 0 20:37 16.01.2020
4530 Mist 3 1030 86 4000 0.5 0 20:18 16.01.2020
4531 Mist 4 1030 86 4000 1 0 19:54 16.01.2020
4532 Mist 4 1030 86 4000 1 0 19:54 16.01.2020
4533 Mist 4 1030 80 4000 1.5 250 19:36 16.01.2020
4534 Mist 4 1030 80 4000 1.5 250 19:18 16.01.2020
4535 Mist 5 1030 80 4000 1.5 240 18:54 16.01.2020
4536 Mist 5 1030 70 4000 1.5 240 18:36 16.01.2020
4537 Mist 6 1030 70 4000 1.5 250 18:18 16.01.2020
4538 Mist 6 1030 70 4000 1.5 250 17:41 16.01.2020
4539 Mist 7 1030 65 5000 1.5 250 17:21 16.01.2020
4540 Mist 8 1030 61 5000 1.5 240 16:56 16.01.2020
4541 Clouds 8 1030 66 6000 2.1 260 16:37 16.01.2020
4542 Clouds 9 1030 66 6000 2.1 260 16:19 16.01.2020
4543 Clouds 9 1030 66 6000 1.5 240 15:44 16.01.2020
4544 Clouds 9 1031 70 6000 1 0 15:21 16.01.2020
4545 Mist 9 1031 66 5000 1 0 14:55 16.01.2020
4546 Mist 9 1031 75 5000 1 0 14:37 16.01.2020
4547 Mist 9 1031 75 5000 1 0 14:18 16.01.2020
4548 Mist 9 1031 70 5000 1.5 180 13:43 16.01.2020
4549 Mist 9 1032 75 5000 0.5 0 13:24 16.01.2020
4550 Mist 8 1032 81 4000 1.5 150 12:46 16.01.2020
4551 Mist 8 1032 81 4000 1.5 160 12:28 16.01.2020
4552 Mist 8 1033 87 4000 2.1 150 11:56 16.01.2020
4553 Mist 7 1033 87 4000 2.6 150 11:37 16.01.2020
4554 Mist 6 1033 87 4000 2.6 150 11:19 16.01.2020
4555 Mist 5 1032 86 4000 1.5 70 10:39 16.01.2020
4556 Mist 4 1032 86 4000 1.5 70 10:21 16.01.2020
4557 Mist 3 1032 86 4000 0.5 0 09:57 16.01.2020
4558 Mist 3 1032 86 4000 0.5 0 09:38 16.01.2020
4559 Mist 2 1031 93 2500 0.5 0 09:19 16.01.2020
4560 Mist 2 1031 100 2500 0.14 30 08:51 16.01.2020
4561 Fog 1 1031 100 2500 0.5 250 08:30 16.01.2020
4562 Fog 1 1030 100 5000 1 270 07:58 16.01.2020
4563 Fog 1 1030 100 5000 1 270 07:38 16.01.2020
4564 Fog 1 1030 100 2000 1 0 07:19 16.01.2020
4565 Mist 1 1030 100 5000 1.2 276 06:42 16.01.2020
4566 Mist 2 1030 100 5000 1.2 276 05:58 16.01.2020
4567 Mist 1 1030 100 5000 1.2 276 05:40 16.01.2020
4568 Mist 2 1029 93 5000 1 240 04:37 16.01.2020
4569 Mist 2 1029 93 5000 1 240 04:37 16.01.2020
4570 Mist 2 1029 93 5000 1 250 03:28 16.01.2020
4571 Mist 3 1029 87 5000 0.5 240 02:42 16.01.2020
4572 Mist 3 1030 87 5000 1.5 270 00:53 16.01.2020
4573 Mist 4 1030 87 5000 1.5 270 00:24 16.01.2020
4574 Mist 3 1029 87 5000 2.1 260 23:48 15.01.2020
4575 Mist 4 1029 87 5000 2.1 250 23:23 15.01.2020
4576 Mist 4 1029 93 5000 2.1 260 22:57 15.01.2020
4577 Mist 4 1029 93 5000 2.1 260 22:57 15.01.2020
4578 Mist 4 1029 93 4000 1.5 250 22:39 15.01.2020
4579 Mist 4 1029 93 4000 1.5 250 22:19 15.01.2020
4580 Mist 4 1029 87 4000 1 0 21:57 15.01.2020
4581 Mist 4 1029 93 4000 0.5 0 21:37 15.01.2020
4582 Mist 4 1029 93 4000 0.5 0 21:19 15.01.2020
4583 Mist 4 1029 100 4000 1.5 210 20:57 15.01.2020
4584 Mist 4 1029 100 4000 1 200 20:39 15.01.2020
4585 Mist 4 1029 100 4000 1 200 20:39 15.01.2020
4586 Mist 4 1029 100 4000 1 200 20:20 15.01.2020
4587 Mist 4 1029 87 4000 0.5 0 19:55 15.01.2020
4588 Mist 4 1029 93 4000 1 0 19:37 15.01.2020
4589 Mist 4 1029 93 4000 1 0 19:37 15.01.2020
4590 Mist 4 1029 93 4000 1 0 19:18 15.01.2020
4591 Mist 4 1029 93 4000 1 0 18:56 15.01.2020
4592 Mist 4 1029 93 4000 1 0 18:56 15.01.2020
4593 Mist 4 1028 93 3000 1 180 18:38 15.01.2020
4594 Mist 4 1028 93 3000 1 180 18:38 15.01.2020
4595 Mist 4 1028 93 3000 1 180 18:19 15.01.2020
4596 Mist 5 1029 93 2000 1 230 17:56 15.01.2020
4597 Mist 5 1028 93 2000 1 0 17:37 15.01.2020
4598 Mist 5 1028 93 2000 1 0 17:18 15.01.2020
4599 Mist 6 1028 87 2000 1 0 16:40 15.01.2020
4600 Mist 6 1028 93 1500 1.5 230 16:22 15.01.2020
4601 Rain 6 1028 93 2000 2.1 250 15:57 15.01.2020
4602 Rain 6 1028 93 2000 2.1 250 15:39 15.01.2020
4603 Rain 6 1028 93 2000 2.1 240 15:18 15.01.2020
4604 Rain 6 1028 93 2000 1.5 240 14:43 15.01.2020
4605 Rain 6 1028 87 2000 2.6 230 14:20 15.01.2020
4606 Rain 6 1029 93 2000 1.5 250 13:46 15.01.2020
4607 Rain 6 1029 93 2000 1 0 13:26 15.01.2020
4608 Rain 6 1029 93 2000 2.1 250 12:59 15.01.2020
4609 Mist 6 1030 93 2000 1 0 12:39 15.01.2020
4610 Mist 5 1030 93 2000 1.5 240 12:19 15.01.2020
4611 Mist 5 1030 93 2000 1.5 240 12:19 15.01.2020
4612 Mist 5 1030 93 2000 1.5 240 11:57 15.01.2020
4613 Drizzle 5 1030 87 2000 1 0 11:37 15.01.2020
4614 Drizzle 5 1030 93 2000 0.5 0 11:19 15.01.2020
4615 Drizzle 4 1030 93 2000 0.5 0 10:43 15.01.2020
4616 Drizzle 4 1030 93 2000 0.5 0 10:25 15.01.2020
4617 Drizzle 4 1029 93 2000 1 190 09:44 15.01.2020
4618 Drizzle 4 1029 93 2000 1 190 09:23 15.01.2020
4619 Mist 4 1029 86 2000 0.5 0 08:56 15.01.2020
4620 Drizzle 4 1029 100 3500 1 200 08:38 15.01.2020
4621 Drizzle 4 1029 100 3500 1 200 08:19 15.01.2020
4622 Rain 4 1029 93 3500 1 0 07:51 15.01.2020
4623 Rain 4 1028 93 5000 1 0 07:31 15.01.2020
4624 Clouds 3 1028 100 7000 2.1 30 06:45 15.01.2020
4625 Clouds 3 1028 100 6000 1 0 06:19 15.01.2020
4626 Clouds 3 1028 93 8000 0.5 0 04:36 15.01.2020
4627 Clouds 3 1028 86 8000 0.5 0 02:32 15.01.2020
4628 Clouds 3 1028 86 8000 1 0 01:27 15.01.2020
4629 Clouds 3 1028 86 8000 1.5 190 00:45 15.01.2020
4630 Clouds 3 1028 86 8000 1.5 190 00:26 15.01.2020
4631 Clouds 3 1028 86 8000 1 0 23:55 14.01.2020
4632 Clouds 3 1028 86 8000 1 0 23:36 14.01.2020
4633 Clouds 3 1028 86 8000 1 0 23:18 14.01.2020
4634 Clouds 3 1028 86 7000 1.5 210 22:41 14.01.2020
4635 Clouds 3 1028 86 7000 1.5 210 22:19 14.01.2020
4636 Clouds 3 1028 86 7000 0.5 0 21:58 14.01.2020
4637 Clouds 3 1027 86 7000 1.5 270 21:39 14.01.2020
4638 Clouds 3 1027 86 7000 1.5 270 21:20 14.01.2020
4639 Clouds 3 1027 86 7000 1.5 260 20:57 14.01.2020
4640 Clouds 3 1027 86 10000 1 10 20:39 14.01.2020
4641 Clouds 3 1027 86 7000 2.1 250 20:19 14.01.2020
4642 Clouds 3 1027 86 7000 2.1 250 19:55 14.01.2020
4643 Clouds 3 1027 86 6000 1.5 240 19:37 14.01.2020
4644 Clouds 3 1027 86 6000 1.5 240 19:18 14.01.2020
4645 Clouds 4 1027 86 6000 2.1 250 18:41 14.01.2020
4646 Mist 4 1026 86 3500 1.5 240 18:20 14.01.2020
4647 Mist 4 1026 86 3500 1.5 240 17:58 14.01.2020
4648 Mist 4 1026 80 5000 1.5 250 17:37 14.01.2020
4649 Mist 5 1026 80 5000 1.5 250 17:18 14.01.2020
4650 Mist 5 1026 80 5000 1.5 230 16:44 14.01.2020
4651 Mist 5 1026 80 5000 1.5 230 16:23 14.01.2020
4652 Mist 5 1026 80 5000 2.6 220 15:58 14.01.2020
4653 Mist 6 1026 80 5000 2.1 210 15:40 14.01.2020
4654 Mist 6 1026 80 5000 2.1 210 15:19 14.01.2020
4655 Mist 6 1026 75 4000 1 0 14:45 14.01.2020
4656 Mist 6 1026 75 4000 1 0 14:21 14.01.2020
4657 Mist 5 1026 80 4000 1.5 260 13:57 14.01.2020
4658 Mist 5 1026 80 4000 1 0 13:39 14.01.2020
4659 Mist 5 1026 80 4000 1 0 13:19 14.01.2020
4660 Mist 6 1026 86 4000 1.5 240 12:42 14.01.2020
4661 Mist 5 1027 86 4000 2.1 250 12:22 14.01.2020
4662 Mist 5 1027 86 4000 1.5 210 11:56 14.01.2020
4663 Mist 4 1026 86 4000 1 0 11:36 14.01.2020
4664 Mist 4 1026 86 4000 1 0 11:18 14.01.2020
4665 Mist 3 1026 86 4000 1.5 260 10:40 14.01.2020
4666 Mist 2 1026 86 4000 1.5 260 10:20 14.01.2020
4667 Mist 2 1026 86 5000 1.5 190 09:58 14.01.2020
4668 Mist 1 1025 93 5000 1 0 09:40 14.01.2020
4669 Mist 1 1025 93 5000 1 0 09:21 14.01.2020
4670 Mist 1 1025 93 5000 1 0 08:48 14.01.2020
4671 Fog 1 1025 100 6000 1 200 08:26 14.01.2020
4672 Fog 0 1025 74 8000 1 260 07:56 14.01.2020
4673 Clouds 0 1025 74 8000 1 0 07:34 14.01.2020
4674 Clouds 0 1025 74 8000 1 0 07:34 14.01.2020
4675 Clouds 0 1025 74 10000 1.5 210 06:57 14.01.2020
4676 Clouds 0 1025 74 10000 0.5 0 06:34 14.01.2020
4677 Clouds 0 1025 78 10000 0.5 330 05:28 14.01.2020
4678 Clouds 0 1025 78 10000 0.5 230 03:52 14.01.2020
4679 Clouds 0 1025 78 10000 0.5 230 03:52 14.01.2020
4680 Clouds 0 1025 78 10000 1 250 02:50 14.01.2020
4681 Fog 0 1025 80 9000 0.5 0 01:56 14.01.2020
4682 Fog 0 1025 84 8000 1 0 00:52 14.01.2020
4683 Fog 0 1025 92 8000 0.78 2 00:33 14.01.2020
4684 Fog 0 1025 100 7000 0.5 0 23:55 13.01.2020
4685 Fog 0 1025 92 4000 0.5 270 23:37 13.01.2020
4686 Fog 0 1025 92 4000 0.5 270 23:18 13.01.2020
4687 Fog 0 1025 100 4000 1 200 22:42 13.01.2020
4688 Fog 0 1025 92 4000 1.5 10 22:21 13.01.2020
4689 Fog 0 1025 100 4000 0.5 290 21:57 13.01.2020
4690 Fog 0 1025 100 4000 0.5 290 21:38 13.01.2020
4691 Fog 0 1025 100 3500 0.5 0 21:38 13.01.2020
4692 Fog 0 1025 100 4000 0.5 290 21:38 13.01.2020
4693 Fog 0 1025 100 3500 0.5 0 21:19 13.01.2020
4694 Fog 0 1025 83 3500 0.5 0 20:58 13.01.2020
4695 Fog 0 1025 83 3500 0.5 0 20:40 13.01.2020
4696 Fog 1 1025 78 4000 0.5 0 20:22 13.01.2020
4697 Mist 1 1025 78 5000 1.5 250 19:58 13.01.2020
4698 Mist 1 1025 78 5000 1.5 250 19:39 13.01.2020
4699 Clouds 2 1025 100 6000 1.5 270 19:20 13.01.2020
4700 Clouds 2 1025 93 6000 1 0 18:56 13.01.2020
4701 Clouds 2 1025 86 6000 1 260 18:37 13.01.2020
4702 Clouds 3 1025 86 6000 1 260 18:18 13.01.2020
4703 Clouds 3 1025 86 6000 1 260 18:18 13.01.2020
4704 Clouds 4 1025 75 10000 0.5 0 17:40 13.01.2020
4705 Clouds 5 1025 75 10000 0.5 0 17:22 13.01.2020
4706 Clouds 5 1025 75 10000 0.5 0 17:22 13.01.2020
4707 Clouds 5 1025 66 10000 1 0 16:56 13.01.2020
4708 Clouds 5 1024 66 10000 1 0 16:38 13.01.2020
4709 Clouds 5 1024 57 10000 1 0 16:19 13.01.2020
4710 Clouds 7 1023 64 0 0.81 149 15:44 13.01.2020
4711 Clouds 7 1023 65 0 0.81 149 15:23 13.01.2020
4712 Clouds 7 1023 65 0 0.81 149 14:58 13.01.2020
4713 Clouds 7 1023 64 0 0.81 149 14:38 13.01.2020
4714 Clouds 6 1026 56 10000 1 210 14:19 13.01.2020
4715 Clouds 6 1026 56 10000 1 210 13:41 13.01.2020
4716 Clouds 6 1026 56 10000 1 210 13:23 13.01.2020
4717 Clouds 6 1025 64 0 0.94 102 12:59 13.01.2020
4718 Clouds 6 1028 64 7000 1 0 12:40 13.01.2020
4719 Clouds 6 1028 64 7000 1 0 12:22 13.01.2020
4720 Clouds 6 1028 64 7000 1 0 11:57 13.01.2020
4721 Clouds 5 1028 80 7000 0.5 0 11:37 13.01.2020
4722 Clouds 5 1028 80 7000 0.5 0 11:18 13.01.2020
4723 Clouds 3 1028 93 7000 0.5 0 10:55 13.01.2020
4724 Clouds 2 1028 100 6000 1 350 10:36 13.01.2020
4725 Clouds 2 1028 100 6000 1 350 10:18 13.01.2020
4726 Clouds 2 1028 100 6000 1 350 10:18 13.01.2020
4727 Mist 1 1028 79 5000 0.5 0 09:42 13.01.2020
4728 Fog 0 1027 92 3000 0.5 0 09:23 13.01.2020
4729 Fog -1 1027 92 2000 0.63 107 08:44 13.01.2020
4730 Fog -1 1027 100 1000 0.5 0 08:22 13.01.2020
4731 Fog -1 1027 100 1500 0.5 0 07:59 13.01.2020
4732 Snow -1 1027 100 50 0.5 0 07:40 13.01.2020
4733 Snow -1 1027 100 50 0.5 0 07:18 13.01.2020
4734 Fog -1 1026 92 50 0.5 20 06:36 13.01.2020
4735 Fog -1 1026 100 50 0.5 0 05:36 13.01.2020
4736 Fog 0 1026 100 50 0.78 118 04:25 13.01.2020
4737 Fog 0 1026 100 50 0.5 0 03:31 13.01.2020
4738 Snow 0 1027 92 150 0.5 0 02:47 13.01.2020
4739 Fog 0 1026 100 50 1 270 02:29 13.01.2020
4740 Mist 0 1027 100 2300 1.5 340 01:32 13.01.2020
4741 Mist 1 1027 100 1100 1.5 340 00:42 13.01.2020
4742 Fog 1 1027 83 550 0.5 360 00:24 13.01.2020
4743 Snow 1 1027 83 1200 1.5 10 23:56 12.01.2020
4744 Fog 1 1027 83 8000 0.5 0 23:37 12.01.2020
4745 Fog 1 1027 79 8000 0.5 0 23:19 12.01.2020
4746 Fog 2 1027 79 9000 0.5 0 22:42 12.01.2020
4747 Fog 2 1027 79 9000 1 10 22:24 12.01.2020
4748 Fog 2 1027 93 9000 1 0 21:57 12.01.2020
4749 Fog 2 1027 93 9000 1 0 21:38 12.01.2020
4750 Fog 3 1027 93 10000 0.5 0 21:20 12.01.2020
4751 Clouds 3 1027 93 10000 0.5 0 20:57 12.01.2020
4752 Clouds 3 1027 93 10000 0.5 0 20:38 12.01.2020
4753 Clear 3 1027 93 10000 0.5 0 20:20 12.01.2020
4754 Clear 3 1027 93 10000 0.5 0 19:56 12.01.2020
4755 Clear 4 1027 86 10000 0.5 0 19:38 12.01.2020
4756 Clear 4 1027 86 10000 0.5 0 19:18 12.01.2020
4757 Clear 4 1027 86 10000 0.5 0 18:57 12.01.2020
4758 Clear 4 1027 86 10000 0.5 0 18:39 12.01.2020
4759 Clear 5 1026 81 10000 1 0 18:21 12.01.2020
4760 Clear 6 1026 75 10000 1 190 17:54 12.01.2020
4761 Clear 6 1026 75 10000 1 0 17:36 12.01.2020
4762 Clear 7 1026 75 10000 1 0 17:18 12.01.2020
4763 Clear 8 1026 70 10000 1 170 16:54 12.01.2020
4764 Clear 8 1026 66 10000 1.5 180 16:36 12.01.2020
4765 Clear 8 1026 66 10000 1.5 180 16:18 12.01.2020
4766 Clear 9 1027 66 10000 1.5 180 15:40 12.01.2020
4767 Clear 9 1027 66 10000 1.5 180 15:21 12.01.2020
4768 Clear 9 1027 66 10000 2.1 200 14:44 12.01.2020
4769 Clear 9 1027 66 10000 2.1 200 14:25 12.01.2020
4770 Clear 9 1028 70 10000 1.5 180 13:58 12.01.2020
4771 Clear 9 1028 65 10000 1.5 200 13:40 12.01.2020
4772 Clear 9 1028 65 10000 1.5 200 13:22 12.01.2020
4773 Clear 9 1029 65 10000 0.5 0 12:58 12.01.2020
4774 Clear 8 1030 70 10000 0.5 0 12:38 12.01.2020
4775 Clear 8 1030 70 10000 0.5 0 12:19 12.01.2020
4776 Clear 7 1030 75 10000 1.5 290 11:42 12.01.2020
4777 Clear 6 1030 70 10000 1 200 11:22 12.01.2020
4778 Clear 6 1030 75 10000 0.5 0 10:58 12.01.2020
4779 Clear 5 1030 75 10000 0.5 0 10:40 12.01.2020
4780 Clear 3 1030 93 10000 0.26 213 10:20 12.01.2020
4781 Clear 2 1030 65 10000 0.5 0 09:44 12.01.2020
4782 Clear 2 1030 65 10000 0.5 0 09:24 12.01.2020
4783 Clear 1 1030 100 10000 0.5 0 08:48 12.01.2020
4784 Clear 0 1030 100 10000 0.5 0 08:25 12.01.2020
4785 Clear 0 1030 92 10000 0.5 330 07:58 12.01.2020
4786 Clear 0 1030 92 10000 1 350 07:38 12.01.2020
4787 Clear 0 1030 92 10000 1 350 07:19 12.01.2020
4788 Clear 0 1030 100 10000 1 350 06:40 12.01.2020
4789 Clear 1 1030 100 10000 1 10 05:58 12.01.2020
4790 Fog 1 1030 100 7000 0.5 350 05:18 12.01.2020
4791 Fog 1 1030 100 400 0.5 0 03:44 12.01.2020
4792 Fog 1 1030 100 600 0.5 0 02:52 12.01.2020
4793 Fog 1 1029 100 400 0.5 0 02:27 12.01.2020
4794 Fog 2 1029 100 100 1 0 01:35 12.01.2020
4795 Mist 2 1029 100 3000 0.5 0 00:49 12.01.2020
4796 Fog 3 1029 57 6000 0.5 50 00:22 12.01.2020
4797 Fog 3 1029 57 6000 0.5 50 00:22 12.01.2020
4798 Fog 3 1029 100 8000 0.5 0 23:59 11.01.2020
4799 Fog 3 1029 100 8000 0.5 0 23:41 11.01.2020
4800 Fog 3 1029 100 9000 1 20 23:18 11.01.2020
4801 Fog 3 1029 100 10000 0.5 0 22:56 11.01.2020
4802 Clear 3 1029 100 10000 0.5 0 22:38 11.01.2020
4803 Clear 3 1029 100 10000 0.5 0 22:19 11.01.2020
4804 Clear 3 1029 100 10000 0.55 359 21:44 11.01.2020
4805 Clear 4 1029 93 10000 0.5 180 21:20 11.01.2020
4806 Clear 4 1029 93 10000 0.5 0 20:59 11.01.2020
4807 Clear 4 1029 93 10000 1 160 20:39 11.01.2020
4808 Clear 4 1029 93 10000 1 160 20:19 11.01.2020
4809 Clear 4 1029 93 10000 0.5 0 19:57 11.01.2020
4810 Clear 4 1029 93 10000 0.5 0 19:38 11.01.2020
4811 Clear 4 1028 93 10000 0.5 0 19:38 11.01.2020
4812 Clear 5 1028 93 10000 0.5 0 19:20 11.01.2020
4813 Clear 5 1028 86 10000 1.5 270 18:55 11.01.2020
4814 Clear 6 1028 81 10000 1.5 270 18:36 11.01.2020
4815 Clear 6 1028 70 10000 1 240 18:18 11.01.2020
4816 Clear 6 1028 81 10000 1.5 270 18:18 11.01.2020
4817 Clear 6 1028 81 10000 1.5 270 18:18 11.01.2020
4818 Clear 6 1028 81 10000 1.5 270 18:18 11.01.2020
4819 Clear 7 1028 70 10000 1 240 17:56 11.01.2020
4820 Clear 7 1028 70 10000 1 240 17:56 11.01.2020
4821 Clear 7 1028 66 10000 1.5 240 17:37 11.01.2020
4822 Clear 8 1028 66 10000 1.5 240 17:18 11.01.2020
4823 Clear 10 1028 57 10000 1 0 16:43 11.01.2020
4824 Clear 10 1028 57 10000 1.5 270 16:23 11.01.2020
4825 Clear 10 1028 57 10000 1.5 240 15:43 11.01.2020
4826 Clear 11 1028 62 7000 1.5 250 15:24 11.01.2020
4827 Clear 11 1028 62 7000 2.1 260 14:59 11.01.2020
4828 Clear 11 1028 62 7000 2.1 260 14:41 11.01.2020
4829 Clear 11 1028 61 7000 1.5 220 14:22 11.01.2020
4830 Clear 11 1028 66 7000 1.5 230 13:56 11.01.2020
4831 Clear 10 1029 70 7000 2.1 260 13:37 11.01.2020
4832 Clear 10 1029 70 7000 2.1 260 13:19 11.01.2020
4833 Clear 10 1029 70 6000 2.1 270 12:44 11.01.2020
4834 Clear 9 1029 70 6000 2.1 270 12:26 11.01.2020
4835 Clear 8 1030 70 6000 1 0 11:55 11.01.2020
4836 Mist 8 1030 87 5000 0.5 0 11:37 11.01.2020
4837 Mist 7 1030 87 5000 0.5 0 11:18 11.01.2020
4838 Mist 7 1030 87 5000 0.5 0 11:18 11.01.2020
4839 Mist 7 1030 87 5000 0.5 0 11:18 11.01.2020
4840 Mist 4 1029 100 4000 0.5 0 10:43 11.01.2020
4841 Mist 4 1029 100 4000 0.5 0 10:24 11.01.2020
4842 Clear 2 1028 100 10000 1 0 09:40 11.01.2020
4843 Clear 2 1028 100 10000 1 0 09:21 11.01.2020
4844 Fog 1 1029 100 300 1 0 08:43 11.01.2020
4845 Fog 1 1029 100 300 1 0 08:43 11.01.2020
4846 Fog 0 1028 100 200 1 200 08:23 11.01.2020
4847 Fog 0 1028 100 150 0.84 329 07:45 11.01.2020
4848 Fog 0 1028 100 150 1 0 07:26 11.01.2020
4849 Fog 0 1028 100 150 1 0 07:26 11.01.2020
4850 Fog 0 1028 100 100 1 280 06:56 11.01.2020
4851 Fog 0 1028 100 400 0.5 0 06:22 11.01.2020
4852 Fog 1 1027 65 1500 1.5 130 04:48 11.01.2020
4853 Fog 1 1027 100 100 1 280 04:30 11.01.2020
4854 Fog 1 1027 100 250 0.5 0 03:49 11.01.2020
4855 Fog 1 1027 100 300 0.5 0 02:41 11.01.2020
4856 Fog 2 1027 76 500 0.5 360 01:44 11.01.2020
4857 Fog 2 1027 75 500 0.5 360 01:20 11.01.2020
4858 Fog 2 1027 75 800 0.5 350 00:46 11.01.2020
4859 Fog 2 1027 100 1500 1.5 10 00:20 11.01.2020
4860 Fog 3 1026 75 6000 1 0 23:41 10.01.2020
4861 Fog 2 1027 100 2500 1 0 23:22 10.01.2020
4862 Fog 3 1026 93 5000 0.5 230 22:59 10.01.2020
4863 Clouds 3 1026 93 6000 0.5 280 22:40 10.01.2020
4864 Clouds 3 1026 93 6000 0.5 280 22:21 10.01.2020
4865 Clouds 3 1026 100 6000 0.5 0 21:57 10.01.2020
4866 Clouds 3 1026 100 6000 0.5 0 21:38 10.01.2020
4867 Clouds 3 1026 93 6000 1 0 21:19 10.01.2020
4868 Clouds 3 1025 93 6000 0.5 0 20:43 10.01.2020
4869 Clouds 4 1025 93 6000 0.5 0 20:25 10.01.2020
4870 Clouds 4 1025 86 6000 0.5 280 19:59 10.01.2020
4871 Clouds 4 1025 87 6000 1 0 19:38 10.01.2020
4872 Clouds 5 1025 87 6000 1 0 19:20 10.01.2020
4873 Mist 5 1024 87 5000 1 0 18:44 10.01.2020
4874 Mist 6 1024 87 5000 1 0 18:20 10.01.2020
4875 Mist 6 1024 87 5000 1 230 17:58 10.01.2020
4876 Mist 6 1024 81 5000 1 0 17:39 10.01.2020
4877 Mist 7 1024 81 5000 1 0 17:20 10.01.2020
4878 Mist 8 1024 75 5000 2.6 220 16:58 10.01.2020
4879 Mist 8 1024 75 5000 2.1 230 16:39 10.01.2020
4880 Mist 8 1024 75 5000 2.1 230 16:20 10.01.2020
4881 Mist 9 1024 75 3500 1.5 230 15:56 10.01.2020
4882 Mist 9 1024 81 4000 1.5 260 15:37 10.01.2020
4883 Mist 9 1024 81 4000 1.5 260 15:18 10.01.2020
4884 Mist 9 1024 81 4000 2.6 230 14:55 10.01.2020
4885 Mist 9 1024 81 5000 2.1 220 14:37 10.01.2020
4886 Mist 9 1024 81 5000 2.1 220 14:18 10.01.2020
4887 Mist 8 1024 75 5000 1.5 250 13:44 10.01.2020
4888 Mist 8 1024 75 5000 1.5 250 13:44 10.01.2020
4889 Mist 8 1024 81 5000 2.1 260 13:26 10.01.2020
4890 Mist 8 1025 87 4000 3.1 250 12:59 10.01.2020
4891 Mist 8 1025 87 5000 2.6 250 12:39 10.01.2020
4892 Mist 8 1025 87 5000 2.6 250 12:19 10.01.2020
4893 Mist 7 1025 87 5000 2.1 260 11:56 10.01.2020
4894 Mist 7 1025 81 4000 2.1 240 11:38 10.01.2020
4895 Mist 7 1025 87 5000 2.1 260 11:38 10.01.2020
4896 Mist 7 1025 87 5000 2.1 260 11:38 10.01.2020
4897 Mist 6 1025 86 4000 1.5 230 11:18 10.01.2020
4898 Mist 6 1025 86 4000 1.5 230 10:58 10.01.2020
4899 Mist 6 1025 93 4000 1.5 200 10:36 10.01.2020
4900 Mist 5 1025 93 4000 1.5 200 10:18 10.01.2020
4901 Mist 5 1024 93 3000 1.5 260 09:43 10.01.2020
4902 Mist 5 1024 93 3000 1.5 260 09:24 10.01.2020
4903 Mist 5 1024 93 4000 1 190 08:43 10.01.2020
4904 Clouds 4 1024 93 10000 1 0 08:24 10.01.2020
4905 Mist 4 1024 93 3500 0.5 200 07:47 10.01.2020
4906 Mist 4 1024 93 3500 0.5 200 07:28 10.01.2020
4907 Mist 4 1023 93 3500 1 0 06:55 10.01.2020
4908 Mist 4 1024 93 3500 0.5 0 06:27 10.01.2020
4909 Mist 4 1024 93 3500 0.5 270 05:52 10.01.2020
4910 Mist 4 1024 93 3500 1 210 03:47 10.01.2020
4911 Mist 4 1024 93 3500 1 210 03:28 10.01.2020
4912 Mist 4 1024 93 3500 0.5 0 02:51 10.01.2020
4913 Mist 3 1024 100 3500 0.5 0 01:49 10.01.2020
4914 Mist 3 1024 93 3500 1 190 01:28 10.01.2020
4915 Mist 3 1025 100 3500 1 0 00:44 10.01.2020
4916 Mist 3 1025 100 3500 1 0 00:19 10.01.2020
4917 Mist 3 1025 69 5000 0.5 0 23:39 09.01.2020
4918 Mist 3 1025 69 5000 0.5 0 23:39 09.01.2020
4919 Mist 3 1025 69 5000 0.5 0 23:39 09.01.2020
4920 Mist 3 1025 67 5000 0.5 0 23:20 09.01.2020
4921 Mist 3 1025 93 5000 1 0 22:58 09.01.2020
4922 Mist 3 1025 93 5000 1 0 22:58 09.01.2020
4923 Mist 3 1025 93 5000 1 0 22:39 09.01.2020
4924 Mist 3 1025 93 5000 1 0 22:39 09.01.2020
4925 Clouds 3 1025 67 7000 0.5 0 22:19 09.01.2020
4926 Clouds 2 1025 67 7000 0.5 0 22:19 09.01.2020
4927 Clouds 2 1025 67 7000 0.5 0 21:57 09.01.2020
4928 Clear 2 1025 67 7000 0.5 0 21:38 09.01.2020
4929 Clear 2 1025 67 7000 0.5 0 21:19 09.01.2020
4930 Clear 2 1025 67 7000 1 0 20:58 09.01.2020
4931 Clear 2 1025 67 7000 1 0 20:39 09.01.2020
4932 Clear 2 1025 67 7000 1 0 20:39 09.01.2020
4933 Clear 2 1025 100 7000 0.5 0 20:20 09.01.2020
4934 Clear 2 1025 100 7000 0.5 0 19:57 09.01.2020
4935 Clear 2 1025 100 7000 1 250 19:38 09.01.2020
4936 Clear 3 1025 100 7000 1.5 250 19:19 09.01.2020
4937 Mist 3 1025 93 4000 1.5 270 18:55 09.01.2020
4938 Mist 4 1025 93 4000 1.5 270 18:36 09.01.2020
4939 Mist 4 1025 93 4000 1.5 270 18:18 09.01.2020
4940 Mist 5 1025 93 2500 1 0 17:41 09.01.2020
4941 Mist 6 1025 86 3000 1.5 200 17:18 09.01.2020
4942 Clear 6 1025 93 6000 2.6 200 16:49 09.01.2020
4943 Clear 7 1025 93 6000 2.6 200 16:25 09.01.2020
4944 Mist 7 1025 81 5000 1.5 200 15:59 09.01.2020
4945 Mist 7 1025 81 5000 1.5 200 15:40 09.01.2020
4946 Mist 7 1025 75 5000 1.5 210 15:19 09.01.2020
4947 Mist 7 1026 81 3500 1.5 210 14:43 09.01.2020
4948 Mist 7 1026 80 3500 1.5 230 14:22 09.01.2020
4949 Mist 7 1026 80 3500 1.5 230 13:57 09.01.2020
4950 Mist 7 1026 86 3500 1.5 250 13:39 09.01.2020
4951 Mist 7 1027 100 3000 1.5 240 13:20 09.01.2020
4952 Clouds 9 1027 61 10000 1 0 12:59 09.01.2020
4953 Clouds 9 1027 61 10000 1 0 12:39 09.01.2020
4954 Clouds 8 1027 87 10000 1 0 12:19 09.01.2020
4955 Clouds 8 1027 87 10000 1 0 11:56 09.01.2020
4956 Clouds 7 1028 100 10000 1 0 11:37 09.01.2020
4957 Fog 3 1029 55 800 1 0 11:19 09.01.2020
4958 Fog 2 1029 100 200 1.5 260 10:43 09.01.2020
4959 Fog 2 1029 100 100 2.1 250 10:22 09.01.2020
4960 Fog 1 1029 100 100 1.5 220 09:56 09.01.2020
4961 Fog 1 1029 100 100 1.5 220 09:38 09.01.2020
4962 Rain 0 1029 92 100 1.5 190 09:18 09.01.2020
4963 Fog 0 1029 100 100 1 0 08:54 09.01.2020
4964 Fog 0 1029 100 100 1 0 08:36 09.01.2020
4965 Fog -1 1029 92 200 1 0 08:18 09.01.2020
4966 Fog -1 1029 92 300 0.5 0 07:41 09.01.2020
4967 Fog -1 1029 100 300 1 0 07:23 09.01.2020
4968 Fog -1 1029 100 300 0.5 0 06:38 09.01.2020
4969 Fog -1 1029 100 200 1 270 06:18 09.01.2020
4970 Fog -1 1029 100 200 1.5 270 05:43 09.01.2020
4971 Fog -1 1029 100 200 0.5 0 04:42 09.01.2020
4972 Fog -1 1030 50 200 1 0 03:28 09.01.2020
4973 Fog 0 1030 50 200 0.5 0 02:47 09.01.2020
4974 Fog 0 1030 49 200 1 0 01:56 09.01.2020
4975 Fog -1 1030 49 200 1 0 01:34 09.01.2020
4976 Fog 0 1030 49 200 1.5 260 00:40 09.01.2020
4977 Fog 0 1030 100 200 2.1 240 00:19 09.01.2020
4978 Fog 0 1031 49 200 1.5 220 23:41 08.01.2020
4979 Fog 0 1031 44 100 1.5 200 23:23 08.01.2020
4980 Fog 0 1031 44 100 1.5 220 22:56 08.01.2020
4981 Fog 1 1031 44 100 1.5 220 22:38 08.01.2020
4982 Fog 1 1031 44 100 1.5 240 22:19 08.01.2020
4983 Fog 1 1031 44 100 1 0 21:55 08.01.2020
4984 Fog 1 1031 44 100 1 0 21:37 08.01.2020
4985 Drizzle 1 1031 44 100 2.1 260 21:18 08.01.2020
4986 Fog 1 1031 44 100 2.1 270 20:55 08.01.2020
4987 Fog 1 1031 44 100 2.1 270 20:37 08.01.2020
4988 Fog 1 1031 45 100 1.5 270 20:18 08.01.2020
4989 Fog 2 1031 45 200 2.1 260 19:39 08.01.2020
4990 Fog 2 1031 45 150 1.5 210 19:20 08.01.2020
4991 Fog 2 1031 100 200 1.5 200 18:58 08.01.2020
4992 Fog 2 1031 100 200 1.5 200 18:39 08.01.2020
4993 Fog 2 1031 100 200 1.5 210 18:19 08.01.2020
4994 Fog 2 1031 100 200 1.5 210 17:57 08.01.2020
4995 Fog 3 1031 100 600 1.5 230 17:38 08.01.2020
4996 Fog 4 1031 93 1200 2.1 200 17:19 08.01.2020
4997 Fog 4 1031 93 1200 2.1 200 17:19 08.01.2020
4998 Fog 5 1031 93 1200 2.1 200 16:56 08.01.2020
4999 Mist 5 1031 93 2000 2.1 250 16:38 08.01.2020
5000 Mist 5 1031 100 2500 1.5 240 16:18 08.01.2020
5001 Mist 7 1031 100 2500 1.5 190 15:44 08.01.2020
5002 Mist 7 1031 93 2500 1.5 210 15:21 08.01.2020
5003 Mist 7 1031 93 2500 1.5 210 14:58 08.01.2020
5004 Mist 7 1031 93 2500 1.5 250 14:40 08.01.2020
5005 Mist 7 1031 93 2500 1.5 250 14:40 08.01.2020
5006 Mist 6 1031 93 2500 1.5 250 14:40 08.01.2020
5007 Mist 5 1031 100 2500 1 0 14:21 08.01.2020
5008 Mist 5 1031 93 1500 1 0 13:41 08.01.2020
5009 Mist 5 1031 100 1500 1.5 170 13:22 08.01.2020
5010 Mist 5 1031 100 1500 1.5 170 12:55 08.01.2020
5011 Mist 7 1032 93 1500 1 0 12:36 08.01.2020
5012 Mist 7 1032 100 1500 0.5 0 12:18 08.01.2020
5013 Fog 5 1032 42 700 1.5 260 11:47 08.01.2020
5014 Fog 2 1032 63 400 1 0 11:19 08.01.2020
5015 Fog 2 1032 63 400 1 0 11:19 08.01.2020
5016 Fog 1 1032 63 0 1.5 250 10:58 08.01.2020
5017 Fog 1 1032 63 0 1.5 250 10:40 08.01.2020
5018 Fog 1 1032 63 0 1.5 250 10:40 08.01.2020
5019 Fog 0 1032 63 300 1.5 260 10:20 08.01.2020
5020 Fog 0 1032 63 400 1.5 250 09:43 08.01.2020
5021 Fog 0 1032 63 400 2.1 260 09:20 08.01.2020
5022 Fog -1 1032 63 300 2.1 270 08:58 08.01.2020
5023 Fog -1 1032 63 300 2.1 270 08:38 08.01.2020
5024 Fog -1 1032 68 300 2.1 250 08:20 08.01.2020
5025 Fog -1 1032 68 300 2.1 270 07:50 08.01.2020
5026 Fog -1 1032 68 300 2.1 270 07:32 08.01.2020
5027 Fog -1 1031 68 400 2.6 250 06:50 08.01.2020
5028 Fog -1 1031 68 400 2.6 250 06:32 08.01.2020
5029 Fog -1 1031 68 300 2.1 260 05:54 08.01.2020
5030 Fog -1 1031 61 250 2.6 260 04:59 08.01.2020
5031 Fog -1 1031 61 150 3.1 270 04:27 08.01.2020
5032 Fog 0 1031 61 200 2.6 240 02:45 08.01.2020
5033 Fog 0 1031 100 200 2.1 240 02:23 08.01.2020
5034 Fog 0 1031 100 800 1 0 01:50 08.01.2020
5035 Fog 0 1031 63 100 0.5 0 01:25 08.01.2020
5036 Fog 0 1031 63 100 1 0 00:40 08.01.2020
5037 Fog 0 1031 63 100 1 0 00:20 08.01.2020
5038 Fog 0 1031 63 100 2.1 60 23:44 07.01.2020
5039 Fog 0 1030 66 200 2.1 80 23:20 07.01.2020
5040 Fog 0 1030 66 200 1 0 22:40 07.01.2020
5041 Fog 0 1030 100 300 2.1 90 22:20 07.01.2020
5042 Fog 1 1029 100 300 2.1 100 21:57 07.01.2020
5043 Fog 1 1029 100 300 2.1 100 21:38 07.01.2020
5044 Fog 1 1029 100 300 2.6 90 21:20 07.01.2020
5045 Fog 1 1029 100 300 2.1 120 20:56 07.01.2020
5046 Fog 1 1029 100 300 2.1 120 20:37 07.01.2020
5047 Fog 1 1028 100 200 1 0 20:19 07.01.2020
5048 Fog 1 1028 100 200 1.5 90 19:38 07.01.2020
5049 Fog 1 1028 100 200 1 0 19:20 07.01.2020
5050 Fog 1 1027 100 0 1 130 18:58 07.01.2020
5051 Fog 1 1027 100 0 1 130 18:40 07.01.2020
5052 Fog 1 1027 100 200 1 0 18:19 07.01.2020
5053 Fog 1 1027 100 0 2.1 290 17:59 07.01.2020
5054 Fog 1 1027 100 0 2.1 290 17:39 07.01.2020
5055 Fog 2 1026 100 200 1.5 210 17:21 07.01.2020
5056 Fog 3 1026 100 200 2.1 250 16:56 07.01.2020
5057 Fog 3 1026 100 200 2.1 250 16:37 07.01.2020
5058 Fog 3 1026 100 200 1.5 220 16:19 07.01.2020
5059 Fog 4 1026 93 300 1.5 230 15:57 07.01.2020
5060 Fog 4 1026 93 300 1.5 230 15:38 07.01.2020
5061 Fog 5 1026 93 300 2.1 190 15:19 07.01.2020
5062 Fog 5 1026 100 250 1.5 260 14:42 07.01.2020
5063 Fog 4 1026 100 400 2.1 250 14:24 07.01.2020
5064 Fog 4 1026 100 400 2.1 250 13:57 07.01.2020
5065 Fog 4 1027 100 400 2.1 230 13:38 07.01.2020
5066 Fog 4 1027 100 400 1.5 240 13:18 07.01.2020
5067 Clouds 5 1026 86 8000 1.5 220 12:41 07.01.2020
5068 Clouds 5 1026 93 8000 1 0 12:19 07.01.2020
5069 Fog 4 1027 57 300 0.5 0 11:45 07.01.2020
5070 Fog 3 1028 68 300 1.5 200 11:23 07.01.2020
5071 Fog 2 1028 68 300 1.5 200 10:59 07.01.2020
5072 Fog 1 1027 68 300 1 0 10:40 07.01.2020
5073 Fog 1 1027 68 300 1 0 10:22 07.01.2020
5074 Fog 1 1027 68 300 1 0 09:56 07.01.2020
5075 Fog 0 1027 68 300 1 0 09:37 07.01.2020
5076 Fog 0 1027 68 300 2.1 250 09:19 07.01.2020
5077 Fog -1 1027 68 300 1.5 230 08:41 07.01.2020
5078 Fog -1 1027 76 300 2.6 270 08:21 07.01.2020
5079 Fog -1 1027 100 300 2.1 240 07:51 07.01.2020
5080 Fog -1 1027 100 250 1.5 230 07:26 07.01.2020
5081 Fog -1 1027 100 50 1.5 250 06:52 07.01.2020
5082 Fog -1 1027 100 50 1.5 250 06:32 07.01.2020
5083 Fog 0 1027 100 50 2.1 240 05:46 07.01.2020
5084 Fog -1 1028 76 50 1.5 240 04:31 07.01.2020
5085 Fog 0 1028 100 50 2.6 270 03:25 07.01.2020
5086 Fog 0 1029 74 50 1.5 250 02:21 07.01.2020
5087 Fog 0 1029 74 50 2.1 260 01:51 07.01.2020
5088 Fog 0 1029 73 50 2.6 260 01:21 07.01.2020
5089 Fog 0 1029 100 500 2.1 250 00:22 07.01.2020
5090 Fog 0 1029 100 500 2.1 250 23:58 06.01.2020
5091 Fog 0 1029 100 1100 0.5 250 23:39 06.01.2020
5092 Fog 0 1029 100 1500 1 260 23:21 06.01.2020
5093 Fog 0 1030 100 1200 1 260 22:56 06.01.2020
5094 Fog 0 1030 100 1200 1 260 22:37 06.01.2020
5095 Fog 0 1030 100 3000 1 260 22:19 06.01.2020
5096 Fog 0 1030 70 6000 0.5 210 21:55 06.01.2020
5097 Fog 1 1030 70 6000 0.5 210 21:36 06.01.2020
5098 Fog 1 1030 70 6000 0.5 210 21:36 06.01.2020
5099 Fog 0 1030 70 6000 1 260 21:18 06.01.2020
5100 Fog 1 1030 70 6000 1.5 260 20:54 06.01.2020
5101 Fog 1 1030 70 6000 1.5 260 20:54 06.01.2020
5102 Fog 1 1030 70 6000 1.5 260 20:36 06.01.2020
5103 Fog 1 1030 66 6000 1 270 20:18 06.01.2020
5104 Fog 1 1030 66 6000 1 270 20:18 06.01.2020
5105 Fog 1 1030 66 8000 0.5 230 19:54 06.01.2020
5106 Fog 1 1030 66 8000 0.5 230 19:36 06.01.2020
5107 Fog 2 1030 93 8000 1 260 19:18 06.01.2020
5108 Fog 2 1030 100 10000 1 210 18:41 06.01.2020
5109 Fog 3 1030 93 9000 0.5 270 18:19 06.01.2020
5110 Mist 3 1030 93 3500 1 250 17:39 06.01.2020
5111 Mist 4 1030 93 3000 1 260 17:19 06.01.2020
5112 Mist 5 1030 86 3500 1 0 16:55 06.01.2020
5113 Mist 5 1030 86 3500 1 0 16:37 06.01.2020
5114 Mist 6 1030 93 3500 1.5 280 16:18 06.01.2020
5115 Mist 6 1030 93 3500 1.5 280 16:18 06.01.2020
5116 Mist 6 1030 86 3500 1 0 15:42 06.01.2020
5117 Mist 6 1030 93 1500 1.5 220 15:20 06.01.2020
5118 Mist 6 1031 93 1000 2.1 220 14:59 06.01.2020
5119 Mist 6 1031 93 1000 2.1 220 14:41 06.01.2020
5120 Mist 7 1031 93 1000 2.1 220 14:41 06.01.2020
5121 Fog 6 1031 93 600 2.1 220 14:21 06.01.2020
5122 Fog 6 1031 93 600 2.1 220 13:58 06.01.2020
5123 Fog 6 1032 93 600 2.1 230 13:38 06.01.2020
5124 Mist 6 1032 93 1000 1.5 200 13:19 06.01.2020
5125 Mist 7 1032 86 2000 1.5 220 12:43 06.01.2020
5126 Clouds 7 1032 75 10000 1 0 12:21 06.01.2020
5127 Clouds 7 1032 75 10000 1 0 11:58 06.01.2020
5128 Clouds 7 1032 75 10000 1 0 11:39 06.01.2020
5129 Mist 4 1033 100 1200 1.5 230 11:21 06.01.2020
5130 Mist 4 1033 72 1000 1.5 240 10:57 06.01.2020
5131 Mist 3 1033 72 1000 1.5 240 10:39 06.01.2020
5132 Mist 2 1033 72 3000 1.5 260 10:20 06.01.2020
5133 Clouds 2 1033 72 6000 2.1 270 09:38 06.01.2020
5134 Fog 1 1033 100 10000 1 190 09:19 06.01.2020
5135 Fog 0 1033 72 8000 0.5 0 08:43 06.01.2020
5136 Fog 0 1032 100 6000 1 210 08:25 06.01.2020
5137 Fog 0 1032 72 10000 1 260 07:53 06.01.2020
5138 Clouds 1 1032 72 10000 1 0 07:28 06.01.2020
5139 Clouds 1 1032 72 10000 0.5 0 06:45 06.01.2020
5140 Clouds 1 1031 100 10000 3.6 10 06:19 06.01.2020
5141 Clouds 1 1032 72 10000 1.5 10 05:42 06.01.2020
5142 Clear 1 1032 70 10000 1.5 360 04:33 06.01.2020
5143 Clear 1 1032 70 10000 1.5 360 03:59 06.01.2020
5144 Clear 1 1032 100 10000 1.5 360 02:46 06.01.2020
5145 Clear 2 1032 100 10000 2.1 40 02:22 06.01.2020
5146 Clear 2 1032 93 10000 1 0 01:43 06.01.2020
5147 Clear 2 1032 93 10000 1 70 01:21 06.01.2020
5148 Clear 3 1033 86 10000 2.1 70 00:41 06.01.2020
5149 Clear 3 1032 93 10000 1.5 60 00:19 06.01.2020
5150 Clear 3 1032 93 10000 0.5 0 23:41 05.01.2020
5151 Clear 4 1032 86 10000 2.1 100 23:22 05.01.2020
5152 Clear 4 1031 86 10000 2.1 100 22:55 05.01.2020
5153 Clear 4 1031 86 10000 2.1 100 22:37 05.01.2020
5154 Clear 4 1031 80 10000 1.5 70 22:18 05.01.2020
5155 Clear 4 1031 75 10000 2.1 80 21:41 05.01.2020
5156 Clear 4 1031 64 10000 1 0 21:21 05.01.2020
5157 Clear 4 1031 75 10000 2.1 90 20:59 05.01.2020
5158 Clear 4 1031 75 10000 2.1 90 20:39 05.01.2020
5159 Clear 4 1030 53 10000 0.5 0 20:20 05.01.2020
5160 Clear 4 1030 53 10000 0.5 0 19:59 05.01.2020
5161 Clear 5 1030 53 10000 1 0 19:40 05.01.2020
5162 Clear 5 1029 75 10000 1 0 19:21 05.01.2020
5163 Clear 5 1029 75 10000 0.5 0 18:56 05.01.2020
5164 Clear 6 1029 75 10000 0.5 0 18:38 05.01.2020
5165 Clear 6 1029 70 10000 1 0 18:19 05.01.2020
5166 Clear 6 1029 70 10000 1 0 18:19 05.01.2020
5167 Clear 7 1029 53 10000 0.5 0 17:58 05.01.2020
5168 Clear 8 1029 53 10000 0.5 0 17:39 05.01.2020
5169 Clear 9 1028 46 10000 0.5 220 17:20 05.01.2020
5170 Clear 10 1028 46 10000 0.5 220 16:57 05.01.2020
5171 Clear 10 1028 52 10000 1.5 220 16:39 05.01.2020
5172 Clear 11 1028 46 10000 2.1 220 16:19 05.01.2020
5173 Clear 11 1028 46 10000 2.1 200 15:40 05.01.2020
5174 Clear 12 1028 52 10000 2.6 210 15:20 05.01.2020
5175 Clear 12 1027 40 10000 1.5 190 14:56 05.01.2020
5176 Clear 11 1027 40 10000 1.5 190 14:38 05.01.2020
5177 Clear 11 1028 34 10000 1.5 180 14:20 05.01.2020
5178 Clear 11 1028 34 10000 1 0 13:56 05.01.2020
5179 Clear 11 1028 34 10000 1 0 13:38 05.01.2020
5180 Clear 11 1028 33 10000 0.5 0 13:19 05.01.2020
5181 Clear 12 1028 33 10000 0.5 0 12:56 05.01.2020
5182 Clear 12 1028 33 10000 0.5 0 12:37 05.01.2020
5183 Clear 11 1029 50 10000 0.5 0 12:19 05.01.2020
5184 Clear 11 1028 57 10000 0.5 0 11:44 05.01.2020
5185 Clear 11 1028 57 10000 0.5 0 11:44 05.01.2020
5186 Clear 8 1029 57 10000 1.38 348 11:20 05.01.2020
5187 Clear 8 1029 57 10000 1.38 348 11:20 05.01.2020
5188 Clear 7 1028 70 10000 0.5 0 10:59 05.01.2020
5189 Clear 7 1028 70 10000 0.5 0 10:40 05.01.2020
5190 Clear 6 1028 86 10000 0.5 0 10:19 05.01.2020
5191 Clear 4 1027 39 10000 1 0 09:42 05.01.2020
5192 Clear 3 1027 39 10000 0.5 0 09:22 05.01.2020
5193 Fog 2 1027 92 8000 0.5 0 08:51 05.01.2020
5194 Fog 2 1027 92 8000 0.5 0 08:32 05.01.2020
5195 Fog 2 1026 47 8000 0.5 0 07:59 05.01.2020
5196 Clear 2 1026 100 10000 0.5 0 07:39 05.01.2020
5197 Clear 2 1025 92 10000 1 0 07:20 05.01.2020
5198 Clear 2 1025 47 10000 0.5 0 06:40 05.01.2020
5199 Clear 2 1025 47 10000 2.1 350 05:34 05.01.2020
5200 Clear 2 1025 47 10000 2.1 350 05:34 05.01.2020
5201 Clear 2 1025 51 10000 1.5 350 04:49 05.01.2020
5202 Clear 3 1025 51 10000 1 0 04:18 05.01.2020
5203 Clear 3 1025 51 10000 1 0 04:18 05.01.2020
5204 Clear 3 1024 51 10000 0.5 0 02:50 05.01.2020
5205 Clear 3 1024 51 10000 0.5 0 02:32 05.01.2020
5206 Clear 3 1023 52 10000 1 0 01:49 05.01.2020
5207 Clear 4 1022 52 10000 1 0 01:19 05.01.2020
5208 Clear 4 1022 86 10000 0.5 0 00:55 05.01.2020
5209 Clear 4 1022 86 10000 0.5 0 00:36 05.01.2020
5210 Clear 4 1022 52 10000 1.5 190 00:18 05.01.2020
5211 Clear 5 1022 80 10000 1.5 150 23:40 04.01.2020
5212 Clear 5 1022 70 10000 2.1 260 23:20 04.01.2020
5213 Clear 5 1021 61 10000 2.6 290 22:40 04.01.2020
5214 Clear 6 1022 61 10000 2.6 300 22:22 04.01.2020
5215 Clear 5 1022 70 10000 4.6 280 21:58 04.01.2020
5216 Clear 5 1022 70 10000 4.6 280 21:40 04.01.2020
5217 Clear 6 1022 65 10000 4.6 280 21:20 04.01.2020
5218 Clear 5 1022 65 10000 4.6 280 20:59 04.01.2020
5219 Clear 6 1022 65 10000 4.6 290 20:40 04.01.2020
5220 Clear 6 1022 61 10000 4.6 280 20:21 04.01.2020
5221 Clear 6 1022 70 10000 1 0 19:56 04.01.2020
5222 Clear 6 1022 70 10000 1 0 19:38 04.01.2020
5223 Clear 6 1022 75 10000 2.6 180 19:19 04.01.2020
5224 Clear 6 1022 75 10000 2.1 210 18:54 04.01.2020
5225 Clear 7 1022 75 10000 2.1 210 18:36 04.01.2020
5226 Clear 7 1022 80 10000 2.1 250 18:18 04.01.2020
5227 Clear 7 1022 80 10000 2.1 250 18:18 04.01.2020
5228 Clear 8 1022 75 10000 1 260 17:41 04.01.2020
5229 Clear 9 1022 70 10000 1.5 270 17:23 04.01.2020
5230 Clear 9 1022 66 10000 2.1 250 16:57 04.01.2020
5231 Clear 10 1022 66 10000 2.1 250 16:39 04.01.2020
5232 Clear 10 1022 66 10000 2.1 250 16:39 04.01.2020
5233 Clear 9 1022 66 10000 2.1 250 16:39 04.01.2020
5234 Clear 10 1022 61 10000 2.1 240 16:21 04.01.2020
5235 Clear 10 1023 61 10000 2.6 240 15:43 04.01.2020
5236 Clear 11 1023 57 10000 2.1 230 15:20 04.01.2020
5237 Clear 11 1023 57 10000 2.1 230 14:59 04.01.2020
5238 Clear 11 1023 57 10000 1.5 240 14:41 04.01.2020
5239 Clouds 10 1024 61 10000 2.1 240 14:20 04.01.2020
5240 Clouds 10 1024 61 10000 1.5 250 13:58 04.01.2020
5241 Clear 10 1024 61 10000 1.5 250 13:37 04.01.2020
5242 Clear 10 1024 61 10000 1.5 250 13:19 04.01.2020
5243 Clear 10 1025 70 10000 2.1 250 12:56 04.01.2020
5244 Clear 9 1025 70 10000 2.1 250 12:38 04.01.2020
5245 Clear 9 1024 75 10000 1 0 12:18 04.01.2020
5246 Clear 8 1024 75 10000 1 0 11:55 04.01.2020
5247 Clear 8 1026 70 10000 0.5 0 11:36 04.01.2020
5248 Clear 6 1026 80 10000 0.5 0 11:18 04.01.2020
5249 Clear 5 1026 86 10000 1 0 10:40 04.01.2020
5250 Clear 5 1025 62 10000 1 0 10:21 04.01.2020
5251 Clear 3 1025 62 10000 1 0 09:44 04.01.2020
5252 Clear 2 1025 62 10000 0.5 0 09:25 04.01.2020
5253 Clear 2 1025 62 10000 1.5 0 08:49 04.01.2020
5254 Clear 1 1025 62 10000 1.5 0 08:29 04.01.2020
5255 Clear 0 1024 63 10000 0.5 0 07:56 04.01.2020
5256 Clear 0 1024 63 10000 0.5 0 07:55 04.01.2020
5257 Clear 0 1024 63 10000 0.5 0 07:37 04.01.2020
5258 Clear 0 1024 63 10000 0.5 0 06:43 04.01.2020
5259 Clear 1 1024 63 10000 2.1 280 05:57 04.01.2020
5260 Clear 1 1024 92 10000 1 0 04:50 04.01.2020
5261 Clear 1 1024 92 10000 1 0 04:29 04.01.2020
5262 Clear 1 1024 61 10000 1.5 0 03:28 04.01.2020
5263 Clear 2 1024 93 8000 2.1 260 02:46 04.01.2020
5264 Clouds 1 1024 100 8000 2.1 250 02:18 04.01.2020
5265 Clouds 2 1024 58 8000 1.5 240 01:37 04.01.2020
5266 Fog 2 1025 60 5000 1.5 200 01:19 04.01.2020
5267 Fog 2 1025 60 8000 1 0 00:29 04.01.2020
5268 Fog 2 1025 60 8000 1 0 23:57 03.01.2020
5269 Fog 2 1025 100 10000 0.5 0 23:29 03.01.2020
5270 Clouds 3 1025 93 10000 0.5 0 22:57 03.01.2020
5271 Clouds 3 1025 93 10000 1 0 22:57 03.01.2020
5272 Clouds 3 1025 93 10000 1 0 22:39 03.01.2020
5273 Clouds 3 1025 100 10000 1 0 22:18 03.01.2020
5274 Clouds 3 1025 56 10000 3.1 10 21:56 03.01.2020
5275 Clouds 3 1025 56 10000 3.1 10 21:37 03.01.2020
5276 Clouds 3 1025 93 10000 0.5 0 21:18 03.01.2020
5277 Clouds 3 1025 86 10000 1.5 280 20:54 03.01.2020
5278 Clouds 3 1025 86 10000 1.5 280 20:36 03.01.2020
5279 Clouds 4 1025 93 10000 1 0 20:18 03.01.2020
5280 Clouds 4 1025 93 10000 1.5 260 19:41 03.01.2020
5281 Clouds 4 1025 86 10000 1 0 19:23 03.01.2020
5282 Clouds 4 1025 86 10000 1.5 280 18:47 03.01.2020
5283 Clouds 5 1025 86 10000 1.5 280 18:27 03.01.2020
5284 Clouds 5 1026 86 10000 1 250 17:58 03.01.2020
5285 Clouds 5 1026 86 10000 1 250 17:40 03.01.2020
5286 Clouds 5 1026 81 9000 1 200 17:21 03.01.2020
5287 Clouds 5 1026 81 9000 1 200 17:21 03.01.2020
5288 Clouds 6 1026 75 9000 0.5 0 16:44 03.01.2020
5289 Clouds 6 1026 75 9000 2.1 250 16:25 03.01.2020
5290 Clouds 7 1026 75 10000 0.5 0 15:59 03.01.2020
5291 Clouds 7 1026 75 10000 0.5 0 15:41 03.01.2020
5292 Clouds 7 1026 75 10000 1.5 270 15:19 03.01.2020
5293 Clouds 7 1026 70 8000 1 0 14:39 03.01.2020
5294 Clouds 7 1026 70 9000 0.5 0 14:20 03.01.2020
5295 Clouds 7 1027 75 10000 1 0 13:57 03.01.2020
5296 Clouds 7 1027 75 10000 1 0 13:38 03.01.2020
5297 Clouds 7 1027 70 10000 1.04 263 13:20 03.01.2020
5298 Clouds 7 1028 75 10000 1 0 12:40 03.01.2020
5299 Clouds 6 1028 75 10000 0.5 0 12:21 03.01.2020
5300 Clouds 6 1028 80 10000 0.5 0 11:49 03.01.2020
5301 Clouds 6 1028 80 10000 0.5 0 11:30 03.01.2020
5302 Clouds 4 1029 80 10000 1 0 10:48 03.01.2020
5303 Clouds 4 1029 80 10000 1 0 10:28 03.01.2020
5304 Clouds 3 1029 86 10000 0.5 0 09:59 03.01.2020
5305 Clouds 3 1029 93 10000 1 0 09:41 03.01.2020
5306 Clouds 3 1029 56 10000 1 240 09:23 03.01.2020
5307 Clouds 2 1029 56 10000 0.5 0 08:57 03.01.2020
5308 Clouds 2 1029 56 10000 0.5 0 08:39 03.01.2020
5309 Clouds 2 1029 63 10000 0.5 0 08:20 03.01.2020
5310 Clouds 2 1028 61 10000 0.5 0 07:42 03.01.2020
5311 Fog 2 1028 61 8000 1 230 07:19 03.01.2020
5312 Fog 1 1028 61 8000 2.1 280 06:54 03.01.2020
5313 Fog 1 1028 61 8000 2.1 280 06:35 03.01.2020
5314 Fog 1 1028 61 8000 1 250 05:48 03.01.2020
5315 Fog 2 1029 67 5000 0.5 0 04:31 03.01.2020
5316 Mist 1 1029 67 5000 0.5 250 03:18 03.01.2020
5317 Fog 1 1029 67 4000 1 0 02:45 03.01.2020
5318 Fog 1 1030 100 2500 0.5 0 01:45 03.01.2020
5319 Fog 1 1030 73 5000 1.5 280 00:56 03.01.2020
5320 Fog 1 1030 73 5000 1.5 280 00:32 03.01.2020
5321 Fog 2 1031 93 6000 0.5 0 23:58 02.01.2020
5322 Fog 2 1031 73 6000 1 270 23:39 02.01.2020
5323 Clear 2 1031 71 6000 1 280 23:19 02.01.2020
5324 Clear 2 1031 100 6000 1 270 22:57 02.01.2020
5325 Clear 2 1031 100 6000 1 270 22:39 02.01.2020
5326 Clear 2 1031 100 6000 1 230 22:18 02.01.2020
5327 Clear 2 1031 71 6000 1.5 280 21:42 02.01.2020
5328 Clear 2 1031 100 10000 1 270 21:23 02.01.2020
5329 Clear 2 1031 100 10000 1 270 21:00 02.01.2020
5330 Clear 2 1031 100 10000 1 270 20:59 02.01.2020
5331 Clear 2 1031 100 10000 1 270 20:59 02.01.2020
5332 Clear 2 1031 100 10000 1 270 20:59 02.01.2020
5333 Clear 2 1031 100 10000 1 270 20:39 02.01.2020
5334 Clear 2 1031 67 10000 1 230 20:21 02.01.2020
5335 Clear 2 1031 67 10000 1 230 20:21 02.01.2020
5336 Clear 3 1031 93 10000 0.5 0 19:56 02.01.2020
5337 Clear 3 1031 93 10000 0.5 0 19:38 02.01.2020
5338 Clear 3 1031 93 10000 1 0 19:19 02.01.2020
5339 Clear 3 1031 93 10000 1 0 18:58 02.01.2020
5340 Clear 4 1031 80 10000 1 270 18:58 02.01.2020
5341 Clear 4 1031 80 10000 1 270 18:39 02.01.2020
5342 Clear 4 1031 86 10000 1 0 18:21 02.01.2020
5343 Clear 5 1031 80 10000 1.5 250 17:56 02.01.2020
5344 Clear 5 1031 80 10000 1.5 250 17:37 02.01.2020
5345 Clear 6 1031 80 8000 1 0 17:19 02.01.2020
5346 Clear 7 1031 70 10000 1.5 230 16:56 02.01.2020
5347 Clear 7 1031 70 10000 1.5 230 16:38 02.01.2020
5348 Clear 8 1031 65 10000 2.1 240 16:20 02.01.2020
5349 Clear 8 1031 65 10000 2.1 230 15:45 02.01.2020
5350 Clear 8 1031 65 10000 2.1 240 15:24 02.01.2020
5351 Clear 8 1031 70 10000 2.6 230 14:58 02.01.2020
5352 Clear 8 1031 70 10000 2.6 230 14:38 02.01.2020
5353 Clear 8 1032 70 10000 2.1 250 14:20 02.01.2020
5354 Clear 8 1032 75 10000 2.1 240 13:58 02.01.2020
5355 Clear 8 1032 75 10000 2.1 240 13:40 02.01.2020
5356 Clear 8 1033 75 10000 1.5 230 13:19 02.01.2020
5357 Clear 8 1033 53 8000 2.1 250 12:42 02.01.2020
5358 Clear 7 1033 70 10000 1 0 12:21 02.01.2020
5359 Clear 7 1033 75 10000 1.5 330 11:42 02.01.2020
5360 Clear 5 1034 80 6000 1.5 240 11:22 02.01.2020
5361 Clear 4 1034 86 6000 2.1 240 10:46 02.01.2020
5362 Clear 3 1034 86 6000 2.1 240 10:28 02.01.2020
5363 Mist 2 1034 92 5000 2.1 250 09:58 02.01.2020
5364 Mist 1 1034 92 5000 2.1 250 09:35 02.01.2020
5365 Mist 0 1034 92 3500 2.6 250 08:59 02.01.2020
5366 Mist 0 1034 92 5000 2.1 240 08:39 02.01.2020
5367 Clear 0 1034 92 7000 1.5 200 08:19 02.01.2020
5368 Clear 0 1033 92 10000 1 190 07:47 02.01.2020
5369 Clear 0 1033 92 10000 0.5 0 07:26 02.01.2020
5370 Clear 0 1033 100 10000 0.5 0 06:41 02.01.2020
5371 Clear 0 1033 92 10000 0.5 280 05:40 02.01.2020
5372 Clear 0 1033 92 10000 0.5 270 04:34 02.01.2020
5373 Clear 0 1034 92 10000 0.5 290 03:29 02.01.2020
5374 Clouds 1 1034 92 10000 0.5 350 02:21 02.01.2020
5375 Clouds 1 1033 76 10000 0.5 300 01:49 02.01.2020
5376 Clouds 1 1033 76 10000 1 360 01:23 02.01.2020
5377 Clouds 1 1033 76 10000 1.5 10 00:38 02.01.2020
5378 Clouds 1 1033 76 10000 1.5 10 00:38 02.01.2020
5379 Clouds 1 1033 86 10000 0.5 340 00:19 02.01.2020
5380 Clouds 2 1033 76 10000 1.5 340 23:41 01.01.2020
5381 Clouds 2 1033 86 10000 1.5 360 23:21 01.01.2020
5382 Clouds 2 1033 86 10000 1.5 10 22:38 01.01.2020
5383 Clouds 2 1033 74 10000 1 0 22:20 01.01.2020
5384 Clouds 2 1033 86 10000 1 0 21:57 01.01.2020
5385 Clouds 2 1033 86 10000 1 0 21:38 01.01.2020
5386 Clouds 2 1033 74 10000 1 0 21:20 01.01.2020
5387 Clouds 3 1032 74 10000 0.5 0 20:56 01.01.2020
5388 Clouds 3 1032 73 10000 0.5 0 20:38 01.01.2020
5389 Clear 3 1032 71 10000 1 10 20:19 01.01.2020
5390 Clear 3 1032 71 10000 1 10 20:19 01.01.2020
5391 Clear 3 1032 71 10000 0.5 0 19:55 01.01.2020
5392 Clear 3 1032 71 10000 0.5 0 19:55 01.01.2020
5393 Clear 3 1032 71 10000 0.5 0 19:55 01.01.2020
5394 Clear 3 1032 71 10000 0.5 0 19:55 01.01.2020
5395 Clear 4 1032 71 10000 0.5 0 19:37 01.01.2020
5396 Clear 4 1031 80 10000 0.5 0 19:19 01.01.2020
5397 Clear 4 1031 65 10000 1.5 110 18:55 01.01.2020
5398 Clear 5 1031 65 10000 1.5 110 18:36 01.01.2020
5399 Clear 5 1030 69 10000 1.5 30 18:18 01.01.2020
5400 Clear 6 1031 61 10000 1.5 70 17:56 01.01.2020
5401 Clear 6 1031 61 10000 1.5 70 17:38 01.01.2020
5402 Clear 7 1030 61 10000 1.5 100 17:18 01.01.2020
5403 Clear 8 1030 61 10000 1.5 80 16:41 01.01.2020
5404 Clear 9 1030 61 10000 2.6 80 16:22 01.01.2020
5405 Clear 9 1030 61 10000 2.6 80 15:58 01.01.2020
5406 Clear 9 1030 57 10000 2.6 90 15:40 01.01.2020
5407 Clear 10 1030 61 10000 2.1 80 15:21 01.01.2020
5408 Clear 10 1030 66 7000 2.1 70 14:58 01.01.2020
5409 Clear 10 1030 66 7000 2.1 70 14:40 01.01.2020
5410 Clear 10 1030 70 6000 1.5 80 14:21 01.01.2020
5411 Clear 10 1030 70 6000 1.5 80 14:21 01.01.2020
5412 Mist 10 1031 70 3500 1.5 80 13:56 01.01.2020
5413 Mist 10 1031 70 3500 1.5 80 13:37 01.01.2020
5414 Mist 10 1031 70 3500 1.5 80 13:37 01.01.2020
5415 Mist 9 1031 70 3000 1 0 13:18 01.01.2020
5416 Mist 10 1031 75 2500 1 0 12:55 01.01.2020
5417 Mist 9 1031 75 2500 1 0 12:37 01.01.2020
5418 Clear 9 1031 61 10000 1 0 12:18 01.01.2020
5419 Clear 9 1031 70 10000 1 0 11:43 01.01.2020
5420 Mist 7 1032 93 1600 0.5 0 11:22 01.01.2020
5421 Fog 6 1032 93 1200 0.5 0 10:58 01.01.2020
5422 Fog 5 1032 93 1200 0.5 0 10:39 01.01.2020
5423 Fog 4 1032 63 1200 1.5 40 10:20 01.01.2020
5424 Fog 3 1031 63 1200 1.5 50 09:55 01.01.2020
5425 Fog 2 1031 63 1200 1.5 50 09:36 01.01.2020
5426 Fog 2 1031 63 1200 1.5 50 09:36 01.01.2020
5427 Fog 2 1031 100 1200 0.5 0 09:18 01.01.2020
5428 Fog 1 1030 100 500 1 260 08:54 01.01.2020
5429 Fog 1 1030 100 500 1 260 08:36 01.01.2020
5430 Fog 0 1030 100 1600 1 0 08:18 01.01.2020
5431 Fog 0 1030 100 1600 0.5 0 07:43 01.01.2020
5432 Fog 0 1030 100 1200 0.5 0 07:24 01.01.2020
5433 Fog 0 1030 100 400 0.5 190 06:44 01.01.2020
5434 Fog 0 1029 92 800 0.5 0 06:19 01.01.2020
5435 Fog 1 1029 100 900 1 290 04:36 01.01.2020
5436 Fog 1 1030 92 800 0.5 170 03:41 01.01.2020
5437 Fog 1 1030 92 800 0.5 0 03:22 01.01.2020
5438 Fog 1 1030 100 400 0.5 0 02:54 01.01.2020
5439 Fog 1 1030 100 400 0.5 0 02:30 01.01.2020
5440 Fog 1 1030 61 2000 0.5 0 01:45 01.01.2020
5441 Fog 1 1030 100 2000 0.5 0 01:23 01.01.2020
5442 Fog 2 1030 100 3000 1 0 00:54 01.01.2020
5443 Fog 2 1030 100 3000 1 0 00:36 01.01.2020
5444 Fog 1 1030 100 3500 0.5 0 00:18 01.01.2020
5445 Fog 2 1030 60 4000 0.5 0 23:38 31.12.2019
5446 Fog 2 1030 100 9000 0.5 0 23:19 31.12.2019
5447 Fog 2 1030 100 9000 0.5 0 22:56 31.12.2019
5448 Clouds 3 1030 100 9000 0.5 0 22:37 31.12.2019
5449 Clouds 3 1030 57 8000 1 0 22:18 31.12.2019
5450 Clouds 3 1029 100 10000 1 220 21:43 31.12.2019
5451 Clouds 3 1029 100 10000 1 220 21:25 31.12.2019
5452 Clouds 3 1029 86 10000 1 290 20:57 31.12.2019
5453 Clouds 3 1029 86 10000 1 290 20:39 31.12.2019
5454 Clouds 3 1029 86 10000 1 210 20:21 31.12.2019
5455 Clouds 4 1029 93 10000 1.5 260 19:58 31.12.2019
5456 Clouds 4 1029 93 10000 1.5 260 19:40 31.12.2019
5457 Clouds 4 1029 93 10000 1 260 19:21 31.12.2019
5458 Clouds 4 1029 86 10000 0.5 0 18:57 31.12.2019
5459 Clouds 4 1029 86 10000 0.5 0 18:38 31.12.2019
5460 Clouds 5 1029 86 10000 1 260 18:19 31.12.2019
5461 Clouds 5 1029 86 8000 1 0 17:55 31.12.2019
5462 Clouds 6 1029 86 8000 1 0 17:36 31.12.2019
5463 Clouds 6 1029 81 9000 1 0 17:18 31.12.2019
5464 Clouds 7 1029 75 9000 1.5 240 16:56 31.12.2019
5465 Clouds 8 1029 75 9000 1.5 240 16:37 31.12.2019
5466 Clouds 8 1029 75 9000 1.5 240 16:37 31.12.2019
5467 Clouds 8 1028 70 10000 2.1 240 16:18 31.12.2019
5468 Clouds 8 1029 65 10000 2.6 240 15:56 31.12.2019
5469 Clouds 8 1029 65 10000 2.6 240 15:37 31.12.2019
5470 Clouds 8 1029 65 10000 2.1 230 15:19 31.12.2019
5471 Clouds 8 1029 65 10000 1.5 260 14:55 31.12.2019
5472 Clouds 8 1029 65 10000 1.5 260 14:37 31.12.2019
5473 Clouds 8 1029 65 10000 2.1 270 14:18 31.12.2019
5474 Clouds 8 1030 70 8000 2.1 250 13:55 31.12.2019
5475 Clouds 8 1030 70 8000 2.1 250 13:37 31.12.2019
5476 Clouds 8 1030 70 8000 2.1 250 13:19 31.12.2019
5477 Clouds 8 1030 70 8000 2.1 250 12:54 31.12.2019
5478 Clouds 7 1031 80 8000 2.6 250 12:36 31.12.2019
5479 Clouds 7 1031 80 8000 2.6 250 12:36 31.12.2019
5480 Clouds 7 1031 80 8000 1.5 240 12:18 31.12.2019
5481 Clouds 6 1032 86 7000 2.1 250 11:54 31.12.2019
5482 Clouds 6 1032 86 7000 2.1 250 11:36 31.12.2019
5483 Clouds 6 1032 86 7000 2.1 250 11:36 31.12.2019
5484 Clouds 5 1032 71 7000 1.5 250 11:18 31.12.2019
5485 Clouds 4 1032 71 7000 1.5 210 10:54 31.12.2019
5486 Clouds 3 1032 71 7000 1.5 210 10:36 31.12.2019
5487 Clouds 3 1032 71 7000 1.5 210 10:36 31.12.2019
5488 Clouds 2 1032 71 6000 1.5 260 10:18 31.12.2019
5489 Clouds 2 1032 71 6000 1.5 260 10:18 31.12.2019
5490 Mist 2 1032 71 5000 2.1 260 09:54 31.12.2019
5491 Mist 1 1032 71 5000 2.1 260 09:36 31.12.2019
5492 Mist 0 1031 71 2000 1.5 260 09:18 31.12.2019
5493 Fog -1 1031 100 1000 1 0 08:42 31.12.2019
5494 Fog -1 1031 100 400 2.1 250 08:21 31.12.2019
5495 Fog -1 1031 100 400 2.1 240 07:44 31.12.2019
5496 Fog -1 1031 100 200 2.1 250 07:22 31.12.2019
5497 Clear -1 1031 80 6000 1.5 240 06:51 31.12.2019
5498 Clear -1 1032 80 6000 1.5 240 06:23 31.12.2019
5499 Clear -1 1032 80 6000 1.5 240 06:23 31.12.2019
5500 Clear -1 1033 79 6000 1.5 260 04:54 31.12.2019
5501 Clear -1 1033 79 6000 2.1 250 04:21 31.12.2019
5502 Mist 0 1033 79 5000 2.1 250 02:57 31.12.2019
5503 Mist 0 1033 82 5000 1.5 260 02:20 31.12.2019
5504 Mist 0 1034 82 5000 1.5 250 01:48 31.12.2019
5505 Mist 0 1034 79 5000 1.5 260 01:29 31.12.2019
5506 Mist 0 1035 79 5000 1 0 00:48 31.12.2019
5507 Clear 0 1035 79 10000 1.5 270 00:23 31.12.2019
5508 Clear 0 1035 93 10000 2.1 250 23:58 30.12.2019
5509 Clear 0 1035 93 10000 2.1 250 23:38 30.12.2019
5510 Clear 0 1035 76 10000 1.5 260 23:20 30.12.2019
5511 Clear 0 1036 100 10000 1.5 240 22:58 30.12.2019
5512 Clear 1 1036 100 10000 1.5 240 22:40 30.12.2019
5513 Clear 1 1036 93 10000 1.5 250 22:20 30.12.2019
5514 Clear 1 1036 93 10000 1.5 250 22:20 30.12.2019
5515 Clear 1 1036 93 10000 1.5 240 21:57 30.12.2019
5516 Clear 1 1036 93 10000 1.5 240 21:39 30.12.2019
5517 Clear 1 1036 93 10000 2.1 250 21:19 30.12.2019
5518 Clear 1 1036 93 10000 2.1 260 20:57 30.12.2019
5519 Clear 1 1036 93 10000 2.1 260 20:39 30.12.2019
5520 Clear 2 1036 86 10000 2.1 250 20:20 30.12.2019
5521 Clear 2 1036 86 10000 2.1 250 19:58 30.12.2019
5522 Clear 2 1036 93 10000 2.1 250 19:38 30.12.2019
5523 Clear 2 1036 93 10000 2.1 250 19:19 30.12.2019
5524 Clear 3 1036 86 9000 1.5 240 18:56 30.12.2019
5525 Clear 3 1036 86 9000 1.5 240 18:38 30.12.2019
5526 Clear 3 1036 86 6000 2.1 240 18:20 30.12.2019
5527 Mist 3 1036 86 4000 2.1 230 17:55 30.12.2019
5528 Mist 4 1036 86 4000 2.1 230 17:37 30.12.2019
5529 Mist 4 1036 80 4000 2.1 240 17:18 30.12.2019
5530 Mist 5 1036 80 4000 2.1 240 16:55 30.12.2019
5531 Clouds 5 1036 80 6000 2.1 230 16:36 30.12.2019
5532 Clouds 5 1036 75 6000 2.6 240 16:18 30.12.2019
5533 Clouds 6 1036 75 6000 3.1 250 15:55 30.12.2019
5534 Clouds 6 1036 75 6000 3.1 250 15:36 30.12.2019
5535 Clouds 6 1036 75 6000 2.6 250 15:18 30.12.2019
5536 Clouds 6 1036 75 6000 3.1 230 14:42 30.12.2019
5537 Clouds 6 1036 75 6000 3.1 230 14:42 30.12.2019
5538 Clouds 6 1036 75 6000 3.1 240 14:19 30.12.2019
5539 Clouds 6 1036 75 6000 3.1 250 13:55 30.12.2019
5540 Clouds 6 1036 75 6000 3.1 250 13:37 30.12.2019
5541 Clouds 6 1037 75 6000 3.1 240 13:18 30.12.2019
5542 Clouds 5 1037 80 6000 3.1 250 12:42 30.12.2019
5543 Clouds 5 1037 80 6000 3.6 250 12:20 30.12.2019
5544 Clouds 5 1037 80 7000 2.6 250 11:58 30.12.2019
5545 Clouds 4 1037 80 7000 2.6 250 11:40 30.12.2019
5546 Clouds 4 1038 80 6000 2.6 250 11:19 30.12.2019
5547 Clouds 4 1037 86 6000 2.1 260 10:44 30.12.2019
5548 Mist 3 1037 86 4000 2.1 260 10:21 30.12.2019
5549 Mist 3 1037 86 4000 2.1 210 09:58 30.12.2019
5550 Mist 3 1037 86 4000 2.1 210 09:39 30.12.2019
5551 Mist 3 1037 86 4000 1 0 09:19 30.12.2019
5552 Mist 2 1037 86 3000 1.5 210 08:50 30.12.2019
5553 Mist 2 1037 86 3000 1.5 210 08:50 30.12.2019
5554 Mist 2 1037 86 5000 0.5 240 08:23 30.12.2019
5555 Clouds 2 1036 93 8000 1.5 190 07:55 30.12.2019
5556 Clouds 2 1036 93 8000 1.5 190 07:34 30.12.2019
5557 Clouds 2 1037 93 8000 0.35 83 06:52 30.12.2019
5558 Clouds 3 1036 86 8000 1.5 90 04:57 30.12.2019
5559 Clouds 3 1036 86 8000 1.5 70 03:55 30.12.2019
5560 Clouds 3 1036 86 8000 3.1 120 02:56 30.12.2019
5561 Clouds 3 1036 86 8000 3.1 120 02:37 30.12.2019
5562 Mist 3 1036 93 5000 3.6 90 01:50 30.12.2019
5563 Mist 3 1036 93 3500 3.6 90 01:20 30.12.2019
5564 Mist 3 1036 93 3500 2.6 100 00:44 30.12.2019
5565 Mist 3 1035 93 3500 3.6 100 00:18 30.12.2019
5566 Mist 3 1035 93 3000 2.1 120 23:39 29.12.2019
5567 Mist 3 1035 93 3000 2.6 130 23:21 29.12.2019
5568 Fog 3 1034 100 100 2.1 80 22:42 29.12.2019
5569 Mist 3 1034 93 1500 1.5 120 22:23 29.12.2019
5570 Mist 3 1034 93 1500 1.5 120 21:58 29.12.2019
5571 Mist 3 1034 100 1500 2.1 110 21:40 29.12.2019
5572 Mist 3 1034 100 1000 1.5 120 21:20 29.12.2019
5573 Fog 2 1033 100 400 1.5 120 20:57 29.12.2019
5574 Fog 3 1033 100 400 1.5 120 20:38 29.12.2019
5575 Fog 2 1033 100 50 1.5 120 20:20 29.12.2019
5576 Fog 3 1033 100 50 1.5 120 19:58 29.12.2019
5577 Fog 2 1033 100 50 1.5 110 19:39 29.12.2019
5578 Fog 2 1033 93 50 2.1 120 19:20 29.12.2019
5579 Fog 3 1033 93 50 2.1 120 18:56 29.12.2019
5580 Fog 3 1032 100 50 1.5 100 18:38 29.12.2019
5581 Mist 3 1032 100 3000 2.6 240 18:19 29.12.2019
5582 Fog 3 1032 93 300 1 0 17:57 29.12.2019
5583 Fog 4 1032 93 300 1 0 17:38 29.12.2019
5584 Mist 4 1032 93 2000 2.1 150 17:20 29.12.2019
5585 Mist 5 1032 93 2000 2.1 150 16:56 29.12.2019
5586 Mist 5 1032 93 3500 1.5 180 16:36 29.12.2019
5587 Mist 5 1032 93 3500 1.5 180 16:36 29.12.2019
5588 Mist 5 1032 86 3500 2.1 210 16:18 29.12.2019
5589 Mist 6 1033 87 3500 1.5 220 15:56 29.12.2019
5590 Mist 6 1033 87 3500 1.5 220 15:38 29.12.2019
5591 Mist 6 1033 86 3500 2.1 220 15:19 29.12.2019
5592 Mist 6 1032 93 4000 0.5 0 14:55 29.12.2019
5593 Mist 6 1032 93 4000 0.5 0 14:37 29.12.2019
5594 Mist 6 1033 93 3500 1.5 200 14:18 29.12.2019
5595 Mist 6 1033 93 3500 1.5 200 14:18 29.12.2019
5596 Mist 6 1034 100 1500 1 0 13:55 29.12.2019
5597 Mist 5 1034 100 1500 1 0 13:37 29.12.2019
5598 Mist 5 1034 93 3000 2.1 270 13:18 29.12.2019
5599 Mist 5 1035 100 5000 2.1 160 12:42 29.12.2019
5600 Mist 5 1035 93 3500 1 0 12:24 29.12.2019
5601 Mist 5 1035 100 2500 0.5 0 11:55 29.12.2019
5602 Mist 5 1035 100 2500 0.5 0 11:37 29.12.2019
5603 Fog 4 1035 100 1800 2.1 190 11:19 29.12.2019
5604 Fog 3 1035 100 2000 1.5 180 10:41 29.12.2019
5605 Fog 3 1035 100 1600 0.5 0 10:21 29.12.2019
5606 Fog 3 1035 100 800 0.5 0 09:54 29.12.2019
5607 Fog 3 1035 100 800 0.5 0 09:36 29.12.2019
5608 Fog 2 1035 74 300 0.5 0 09:18 29.12.2019
5609 Fog 2 1034 74 200 0.5 0 08:46 29.12.2019
5610 Fog 2 1034 83 200 0.5 0 08:24 29.12.2019
5611 Fog 1 1034 83 150 0.5 0 07:54 29.12.2019
5612 Fog 2 1034 100 100 1 350 07:28 29.12.2019
5613 Fog 2 1034 100 100 0.5 0 06:53 29.12.2019
5614 Fog 1 1034 100 100 0.5 0 06:23 29.12.2019
5615 Fog 1 1034 100 100 1 360 05:50 29.12.2019
5616 Fog 2 1034 100 100 1 200 04:35 29.12.2019
5617 Fog 1 1034 85 1200 0.5 350 03:40 29.12.2019
5618 Fog 1 1034 85 1600 0.5 0 03:19 29.12.2019
5619 Fog 1 1034 84 1200 1 340 02:19 29.12.2019
5620 Fog 1 1034 84 200 1 330 01:31 29.12.2019
5621 Fog 1 1034 84 200 1 330 01:31 29.12.2019
5622 Fog 1 1034 83 600 0.5 0 00:51 29.12.2019
5623 Fog 1 1034 83 2500 1 0 00:27 29.12.2019
5624 Fog 1 1034 83 2500 1 0 23:57 28.12.2019
5625 Fog 2 1034 100 2500 1 0 23:39 28.12.2019
5626 Fog 1 1034 100 2500 1 30 23:18 28.12.2019
5627 Clouds 1 1033 93 6000 0.5 0 22:39 28.12.2019
5628 Clouds 1 1033 93 10000 0.5 0 22:19 28.12.2019
5629 Clouds 2 1033 93 10000 0.5 0 21:57 28.12.2019
5630 Clouds 2 1033 93 10000 0.5 0 21:38 28.12.2019
5631 Clouds 2 1033 93 10000 0.5 0 21:20 28.12.2019
5632 Clouds 2 1033 93 10000 1 180 20:55 28.12.2019
5633 Clouds 2 1033 93 10000 1 180 20:36 28.12.2019
5634 Clouds 2 1032 86 10000 1.26 49 20:18 28.12.2019
5635 Clouds 2 1032 93 10000 1 260 19:54 28.12.2019
5636 Clouds 3 1032 93 10000 1 260 19:36 28.12.2019
5637 Clouds 3 1031 93 10000 1 250 19:18 28.12.2019
5638 Clouds 4 1031 93 10000 1 240 18:42 28.12.2019
5639 Clouds 4 1031 86 10000 0.5 250 18:20 28.12.2019
5640 Clouds 5 1031 86 10000 0.5 250 17:59 28.12.2019
5641 Clouds 5 1031 81 10000 1 240 17:40 28.12.2019
5642 Clouds 6 1030 75 10000 1 200 17:21 28.12.2019
5643 Clouds 7 1030 70 10000 0.5 0 16:51 28.12.2019
5644 Clouds 7 1030 70 10000 0.5 0 16:27 28.12.2019
5645 Clouds 8 1030 66 10000 1 0 15:58 28.12.2019
5646 Clouds 9 1030 66 10000 1 0 15:39 28.12.2019
5647 Clouds 8 1030 66 10000 0.5 0 15:21 28.12.2019
5648 Clouds 8 1030 66 10000 0.5 0 15:21 28.12.2019
5649 Clouds 8 1030 66 10000 0.5 0 15:21 28.12.2019
5650 Clouds 8 1030 66 8000 0.5 0 14:47 28.12.2019
5651 Clouds 8 1030 66 8000 0.5 0 14:26 28.12.2019
5652 Clouds 8 1031 70 10000 1.5 270 13:58 28.12.2019
5653 Clouds 8 1031 70 10000 1.5 270 13:39 28.12.2019
5654 Clouds 8 1031 70 10000 1 0 13:20 28.12.2019
5655 Clouds 7 1031 81 10000 1 240 12:55 28.12.2019
5656 Clouds 7 1031 81 10000 1 240 12:36 28.12.2019
5657 Clouds 7 1032 80 10000 1.5 250 12:18 28.12.2019
5658 Clouds 6 1032 86 10000 1.5 270 11:40 28.12.2019
5659 Clouds 5 1032 80 8000 1 260 11:21 28.12.2019
5660 Clouds 4 1031 86 8000 0.5 0 10:47 28.12.2019
5661 Clouds 3 1031 86 8000 1 0 10:23 28.12.2019
5662 Clouds 3 1031 86 8000 1 0 09:59 28.12.2019
5663 Clouds 2 1031 86 8000 1 250 09:41 28.12.2019
5664 Clouds 2 1030 93 8000 1 0 09:23 28.12.2019
5665 Clouds 1 1030 100 10000 1 240 08:45 28.12.2019
5666 Clouds 1 1030 100 10000 1 240 08:27 28.12.2019
5667 Clouds 1 1030 65 10000 1 0 07:59 28.12.2019
5668 Clouds 1 1030 93 10000 0.5 0 07:39 28.12.2019
5669 Clouds 0 1029 65 10000 1 0 06:50 28.12.2019
5670 Clear 1 1029 65 10000 0.5 0 05:31 28.12.2019
5671 Clear 1 1029 63 10000 1 350 03:47 28.12.2019
5672 Clear 1 1028 63 10000 1 0 02:49 28.12.2019
5673 Clear 1 1028 71 10000 2.1 10 02:19 28.12.2019
5674 Fog 2 1028 71 7000 1 0 01:50 28.12.2019
5675 Fog 1 1027 71 7000 2.1 30 01:20 28.12.2019
5676 Fog 2 1027 71 5000 0.5 0 00:41 28.12.2019
5677 Fog 2 1027 100 7000 0.5 0 00:23 28.12.2019
5678 Fog 2 1027 100 7000 1.5 50 23:45 27.12.2019
5679 Clear 2 1026 100 10000 0.5 0 23:21 27.12.2019
5680 Clear 2 1026 66 10000 0.5 0 22:58 27.12.2019
5681 Clear 2 1026 66 10000 0.5 0 22:39 27.12.2019
5682 Clear 2 1025 86 10000 1.5 150 22:21 27.12.2019
5683 Clear 2 1025 86 10000 1.5 150 21:59 27.12.2019
5684 Clear 2 1025 93 10000 1.5 140 21:40 27.12.2019
5685 Clear 2 1024 93 10000 1 240 21:22 27.12.2019
5686 Clear 3 1024 86 10000 1 0 20:42 27.12.2019
5687 Clear 3 1024 86 10000 2.1 250 20:23 27.12.2019
5688 Clear 3 1023 80 10000 1.5 250 19:55 27.12.2019
5689 Clear 3 1023 80 10000 1.5 250 19:36 27.12.2019
5690 Clear 4 1023 86 10000 0.5 0 19:18 27.12.2019
5691 Clear 4 1023 86 10000 0.5 0 19:18 27.12.2019
5692 Clear 4 1023 86 10000 0.5 0 19:18 27.12.2019
5693 Clear 4 1023 86 10000 1.5 250 18:41 27.12.2019
5694 Clear 4 1023 86 10000 1.5 250 18:23 27.12.2019
5695 Clear 5 1023 81 10000 2.1 250 17:59 27.12.2019
5696 Clear 6 1023 70 10000 2.6 250 17:41 27.12.2019
5697 Clear 6 1023 70 10000 1.5 230 17:19 27.12.2019
5698 Clear 7 1023 70 10000 1.5 230 16:59 27.12.2019
5699 Clear 8 1023 70 10000 2.1 270 16:39 27.12.2019
5700 Clear 8 1022 66 10000 1.5 250 16:20 27.12.2019
5701 Clear 9 1022 57 10000 1.5 250 15:45 27.12.2019
5702 Clear 9 1021 57 10000 0.5 0 15:23 27.12.2019
5703 Clear 9 1021 57 10000 0.5 0 14:58 27.12.2019
5704 Clear 9 1021 57 10000 0.5 0 14:40 27.12.2019
5705 Clouds 9 1021 61 10000 1 0 14:21 27.12.2019
5706 Clouds 9 1022 61 10000 0.5 0 13:57 27.12.2019
5707 Clouds 9 1022 61 10000 0.5 0 13:38 27.12.2019
5708 Clouds 9 1022 61 10000 0.5 0 13:38 27.12.2019
5709 Clouds 8 1022 65 10000 1 0 13:20 27.12.2019
5710 Clouds 8 1022 70 10000 1 0 12:42 27.12.2019
5711 Clouds 8 1022 70 10000 1 0 12:23 27.12.2019
5712 Clouds 7 1023 55 10000 1 0 11:46 27.12.2019
5713 Clouds 5 1023 86 10000 1.5 20 11:26 27.12.2019
5714 Clouds 5 1023 86 10000 1.5 20 10:59 27.12.2019
5715 Clouds 4 1023 70 10000 0.5 0 10:40 27.12.2019
5716 Clouds 4 1022 93 10000 0.5 0 10:22 27.12.2019
5717 Fog 3 1022 93 9000 0.5 0 09:44 27.12.2019
5718 Fog 2 1022 70 9000 0.5 0 09:22 27.12.2019
5719 Fog 2 1022 93 9000 0.5 0 09:22 27.12.2019
5720 Fog 2 1022 70 9000 0.5 0 08:59 27.12.2019
5721 Fog 1 1022 100 7000 0.5 0 08:36 27.12.2019
5722 Fog 1 1022 69 9000 0.5 0 07:52 27.12.2019
5723 Fog 1 1022 69 9000 0.5 0 07:33 27.12.2019
5724 Fog 1 1022 69 8000 1 30 06:38 27.12.2019
5725 Fog 1 1022 69 8000 1 0 05:38 27.12.2019
5726 Clear 1 1023 62 10000 0.5 0 03:44 27.12.2019
5727 Clear 1 1023 58 10000 0.5 0 02:23 27.12.2019
5728 Clear 2 1023 58 10000 1 0 01:42 27.12.2019
5729 Clear 2 1023 58 10000 0.5 0 01:20 27.12.2019
5730 Clear 2 1023 59 10000 0.5 0 00:44 27.12.2019
5731 Clear 2 1023 100 10000 0.5 0 00:24 27.12.2019
5732 Clear 2 1023 100 10000 0.5 0 00:24 27.12.2019
5733 Clear 2 1023 59 10000 0.5 0 23:42 26.12.2019
5734 Clear 2 1023 93 10000 0.5 0 23:22 26.12.2019
5735 Clear 2 1023 86 10000 0.5 0 22:48 26.12.2019
5736 Clear 3 1023 93 10000 1.5 260 22:23 26.12.2019
5737 Clear 3 1023 93 10000 1.5 260 21:59 26.12.2019
5738 Clear 3 1023 100 10000 0.5 0 21:39 26.12.2019
5739 Clear 3 1023 86 10000 1 0 21:20 26.12.2019
5740 Clear 3 1023 93 10000 1.5 290 20:46 26.12.2019
5741 Clear 3 1023 93 10000 1.5 290 20:23 26.12.2019
5742 Clouds 4 1022 80 10000 1 0 19:59 26.12.2019
5743 Clouds 4 1022 75 10000 1 0 19:40 26.12.2019
5744 Clouds 5 1022 75 10000 1 0 19:40 26.12.2019
5745 Clouds 5 1023 80 10000 2.1 270 19:22 26.12.2019
5746 Clouds 5 1023 80 10000 2.1 270 18:58 26.12.2019
5747 Clouds 5 1022 75 10000 1 0 18:39 26.12.2019
5748 Clouds 5 1022 80 10000 1 0 18:19 26.12.2019
5749 Clouds 6 1022 80 10000 1 0 17:57 26.12.2019
5750 Clouds 7 1022 70 10000 0.5 0 17:38 26.12.2019
5751 Clouds 7 1022 70 10000 0.5 0 17:38 26.12.2019
5752 Clouds 7 1022 61 10000 1.5 240 17:18 26.12.2019
5753 Clouds 9 1022 66 10000 1.5 250 16:43 26.12.2019
5754 Clouds 9 1022 61 10000 2.1 240 16:23 26.12.2019
5755 Clouds 9 1022 57 10000 1.5 250 15:56 26.12.2019
5756 Clouds 9 1022 57 10000 1.5 250 15:37 26.12.2019
5757 Clouds 9 1022 57 10000 2.1 240 15:18 26.12.2019
5758 Clouds 10 1022 57 10000 2.1 250 14:40 26.12.2019
5759 Clouds 10 1022 53 10000 2.1 250 14:21 26.12.2019
5760 Clouds 10 1023 57 10000 1.5 240 13:43 26.12.2019
5761 Clouds 10 1023 61 10000 1.5 230 13:21 26.12.2019
5762 Clouds 10 1023 61 10000 1.5 230 13:21 26.12.2019
5763 Clouds 10 1023 57 10000 1.5 220 12:58 26.12.2019
5764 Clouds 10 1023 57 10000 1.5 220 12:58 26.12.2019
5765 Clouds 10 1023 57 10000 1.5 220 12:39 26.12.2019
5766 Clouds 10 1023 66 10000 1.5 250 12:20 26.12.2019
5767 Clouds 10 1023 66 10000 1.5 250 11:57 26.12.2019
5768 Clouds 9 1023 57 10000 0.5 0 11:38 26.12.2019
5769 Clouds 8 1023 61 10000 0.5 0 11:20 26.12.2019
5770 Clouds 7 1023 75 10000 0.5 0 10:47 26.12.2019
5771 Clouds 5 1023 80 10000 1 20 10:19 26.12.2019
5772 Clouds 5 1023 93 10000 0.5 20 09:50 26.12.2019
5773 Clouds 4 1023 93 10000 0.5 20 09:31 26.12.2019
5774 Clouds 2 1022 41 10000 0.85 55 08:43 26.12.2019
5775 Clear 1 1022 100 10000 1.23 348 08:24 26.12.2019
5776 Clear 1 1021 51 10000 0.5 0 07:53 26.12.2019
5777 Clear 2 1021 51 10000 0.5 0 07:28 26.12.2019
5778 Clear 2 1021 51 10000 1.01 5 06:53 26.12.2019
5779 Clear 2 1021 51 10000 1.01 5 06:32 26.12.2019
5780 Clear 2 1020 51 10000 1 0 05:45 26.12.2019
5781 Clear 2 1020 53 10000 1 30 04:57 26.12.2019
5782 Clear 2 1020 53 10000 0.5 0 04:30 26.12.2019
5783 Clear 3 1019 64 10000 2.1 20 02:56 26.12.2019
5784 Clear 3 1019 64 10000 2.1 20 02:34 26.12.2019
5785 Clear 4 1019 55 10000 2.1 150 01:50 26.12.2019
5786 Clear 4 1019 55 10000 2.1 150 01:32 26.12.2019
5787 Clear 4 1018 80 10000 0.5 0 00:50 26.12.2019
5788 Clear 5 1018 54 10000 0.5 0 00:27 26.12.2019
5789 Clear 5 1018 54 10000 0.5 0 23:58 25.12.2019
5790 Clear 5 1018 54 10000 0.5 320 23:39 25.12.2019
5791 Clear 5 1018 50 10000 2.6 160 23:21 25.12.2019
5792 Clear 5 1018 50 10000 2.6 160 22:59 25.12.2019
5793 Clear 6 1017 56 10000 0.5 0 22:39 25.12.2019
5794 Clear 6 1017 52 10000 1.5 210 22:20 25.12.2019
5795 Clear 6 1017 39 10000 3.6 360 21:58 25.12.2019
5796 Clear 6 1017 39 10000 3.6 360 21:39 25.12.2019
5797 Clear 7 1017 30 10000 3.1 350 21:20 25.12.2019
5798 Clear 7 1017 42 10000 1.5 270 20:54 25.12.2019
5799 Clear 7 1017 42 10000 1.5 270 20:36 25.12.2019
5800 Clear 8 1016 34 10000 1 0 20:18 25.12.2019
5801 Clear 7 1016 43 10000 4.1 360 19:43 25.12.2019
5802 Clear 7 1016 43 10000 3.6 360 19:23 25.12.2019
5803 Clear 8 1016 43 10000 3.6 360 18:58 25.12.2019
5804 Clear 8 1015 40 10000 3.1 350 18:36 25.12.2019
5805 Clear 9 1015 53 10000 2.1 350 18:18 25.12.2019
5806 Clear 10 1014 50 10000 2.1 360 17:40 25.12.2019
5807 Clear 10 1014 37 10000 3.6 10 17:19 25.12.2019
5808 Clear 12 1014 38 10000 1 0 16:56 25.12.2019
5809 Clear 12 1014 38 10000 1 0 16:37 25.12.2019
5810 Clear 13 1014 38 10000 1 0 16:18 25.12.2019
5811 Clear 13 1014 38 10000 1 0 15:56 25.12.2019
5812 Clear 13 1014 47 10000 2.1 310 15:37 25.12.2019
5813 Clear 14 1014 31 10000 3.6 300 15:18 25.12.2019
5814 Clear 14 1014 31 10000 3.6 300 15:18 25.12.2019
5815 Clear 14 1014 36 10000 2.6 300 14:55 25.12.2019
5816 Clear 14 1014 36 10000 2.6 300 14:37 25.12.2019
5817 Clear 14 1014 38 10000 2.6 290 14:18 25.12.2019
5818 Clear 14 1014 41 10000 3.1 280 13:42 25.12.2019
5819 Clear 13 1015 40 10000 4.1 280 13:21 25.12.2019
5820 Clear 14 1015 40 10000 3.6 280 12:44 25.12.2019
5821 Clear 13 1015 46 10000 4.1 270 12:22 25.12.2019
5822 Clear 12 1015 46 10000 4.1 270 11:58 25.12.2019
5823 Clear 12 1015 50 10000 2.6 280 11:40 25.12.2019
5824 Clear 10 1016 57 10000 1.5 250 11:21 25.12.2019
5825 Clear 8 1015 65 10000 2.1 270 10:39 25.12.2019
5826 Clear 6 1015 75 10000 2.1 290 10:21 25.12.2019
5827 Clear 6 1015 75 10000 2.1 290 09:58 25.12.2019
5828 Clear 5 1015 75 10000 2.1 230 09:40 25.12.2019
5829 Clear 5 1015 75 10000 2.1 230 09:40 25.12.2019
5830 Clear 5 1015 51 10000 1.5 350 09:21 25.12.2019
5831 Clear 4 1015 74 10000 2.1 310 08:42 25.12.2019
5832 Clear 3 1015 57 10000 1 0 08:23 25.12.2019
5833 Clear 3 1015 74 10000 2.1 310 08:23 25.12.2019
5834 Clear 4 1015 57 10000 1 0 07:42 25.12.2019
5835 Clear 4 1015 57 10000 1 0 07:22 25.12.2019
5836 Clear 3 1014 86 10000 0.5 0 06:24 25.12.2019
5837 Clear 4 1014 57 10000 1.5 300 05:49 25.12.2019
5838 Clear 4 1014 80 10000 2.1 280 04:42 25.12.2019
5839 Clear 4 1014 80 10000 2.1 250 04:24 25.12.2019
5840 Clear 4 1014 54 10000 1 0 03:43 25.12.2019
5841 Clear 4 1014 80 10000 1 0 02:57 25.12.2019
5842 Clear 4 1014 71 10000 1 0 02:28 25.12.2019
5843 Clear 5 1014 72 10000 1 0 01:36 25.12.2019
5844 Clear 5 1014 80 10000 1 310 01:18 25.12.2019
5845 Clear 5 1014 86 10000 1.5 310 00:40 25.12.2019
5846 Clear 5 1014 75 10000 0.5 0 00:22 25.12.2019
5847 Clear 5 1014 80 10000 2.1 350 23:39 24.12.2019
5848 Clear 5 1014 75 10000 2.1 350 23:20 24.12.2019
5849 Clear 5 1014 75 10000 2.1 350 23:20 24.12.2019
5850 Clear 5 1014 80 10000 2.1 340 22:42 24.12.2019
5851 Clear 6 1014 65 10000 1 0 22:23 24.12.2019
5852 Clear 5 1014 65 10000 2.1 300 21:55 24.12.2019
5853 Clear 5 1014 65 10000 2.1 300 21:36 24.12.2019
5854 Clear 5 1014 61 10000 1.5 320 21:18 24.12.2019
5855 Clear 6 1014 65 10000 2.6 260 20:41 24.12.2019
5856 Clouds 6 1013 61 10000 3.1 260 20:19 24.12.2019
5857 Clouds 6 1014 61 10000 3.1 250 19:46 24.12.2019
5858 Clouds 6 1014 66 10000 2.6 250 19:22 24.12.2019
5859 Clouds 7 1014 66 10000 1 0 18:58 24.12.2019
5860 Clouds 7 1014 66 10000 1 0 18:40 24.12.2019
5861 Clouds 8 1014 66 10000 1.5 250 18:18 24.12.2019
5862 Clouds 8 1014 66 10000 1.5 260 17:42 24.12.2019
5863 Clear 9 1013 57 10000 1.5 250 17:21 24.12.2019
5864 Clouds 10 1014 54 10000 1.5 260 16:57 24.12.2019
5865 Clouds 10 1014 54 10000 1.5 260 16:38 24.12.2019
5866 Clouds 11 1015 43 10000 1.5 330 16:20 24.12.2019
5867 Clouds 11 1015 43 10000 1.5 330 15:56 24.12.2019
5868 Clouds 11 1015 50 10000 1.5 10 15:36 24.12.2019
5869 Clouds 11 1015 47 10000 1 0 15:18 24.12.2019
5870 Clear 11 1015 54 10000 1 170 14:56 24.12.2019
5871 Clear 11 1015 54 10000 1 170 14:38 24.12.2019
5872 Clouds 11 1015 46 10000 1 0 14:20 24.12.2019
5873 Clouds 11 1016 58 10000 2.1 10 13:55 24.12.2019
5874 Clouds 11 1016 58 10000 2.1 10 13:55 24.12.2019
5875 Clouds 11 1016 58 10000 2.1 10 13:37 24.12.2019
5876 Clouds 11 1016 43 10000 2.1 350 13:19 24.12.2019
5877 Clouds 11 1016 43 10000 2.1 320 12:55 24.12.2019
5878 Clouds 11 1016 43 10000 2.1 320 12:36 24.12.2019
5879 Clouds 11 1016 57 10000 2.1 260 12:18 24.12.2019
5880 Clouds 10 1017 61 10000 2.1 220 11:55 24.12.2019
5881 Clouds 9 1017 61 10000 2.1 220 11:36 24.12.2019
5882 Clouds 8 1017 61 10000 1.5 250 11:18 24.12.2019
5883 Clouds 8 1017 61 10000 1.5 250 11:18 24.12.2019
5884 Clouds 8 1017 61 10000 1.5 270 10:55 24.12.2019
5885 Clouds 8 1017 61 10000 1.5 270 10:55 24.12.2019
5886 Clouds 8 1017 61 10000 1.5 270 10:36 24.12.2019
5887 Clouds 7 1017 65 10000 1.5 250 10:18 24.12.2019
5888 Clouds 7 1017 70 10000 1.5 210 09:54 24.12.2019
5889 Clouds 6 1017 70 10000 1.5 210 09:36 24.12.2019
5890 Clouds 6 1017 48 10000 1.5 250 09:18 24.12.2019
5891 Clouds 5 1017 47 10000 3.1 260 08:42 24.12.2019
5892 Clouds 5 1017 48 10000 3.1 260 08:42 24.12.2019
5893 Clouds 4 1017 69 10000 1.5 240 08:19 24.12.2019
5894 Clouds 4 1016 65 10000 2.6 260 07:45 24.12.2019
5895 Clouds 4 1015 65 10000 2.6 270 07:24 24.12.2019
5896 Clouds 4 1015 65 10000 2.6 270 07:24 24.12.2019
5897 Clouds 4 1015 52 10000 1.5 300 06:44 24.12.2019
5898 Clouds 4 1015 52 10000 1.5 290 06:22 24.12.2019
5899 Clouds 4 1016 49 10000 1.5 320 05:57 24.12.2019
5900 Clear 5 1015 49 10000 2.1 300 05:20 24.12.2019
5901 Clear 5 1015 39 10000 3.6 330 04:33 24.12.2019
5902 Clear 5 1015 43 10000 4.1 310 03:50 24.12.2019
5903 Clear 5 1015 47 10000 2.1 310 02:59 24.12.2019
5904 Clear 6 1015 49 10000 4.1 270 02:18 24.12.2019
5905 Clear 7 1015 49 10000 5.1 280 01:42 24.12.2019
5906 Clear 7 1015 46 10000 5.7 280 01:19 24.12.2019
5907 Clear 7 1015 37 10000 2.6 310 00:41 24.12.2019
5908 Clear 7 1015 37 10000 2.6 310 00:22 24.12.2019
5909 Clear 7 1015 50 10000 3.6 210 23:43 23.12.2019
5910 Clear 7 1015 50 10000 3.6 210 23:24 23.12.2019
5911 Clear 8 1014 40 10000 5.1 320 22:58 23.12.2019
5912 Clear 8 1014 40 10000 5.1 320 22:58 23.12.2019
5913 Clear 8 1014 40 10000 5.1 320 22:38 23.12.2019
5914 Clear 9 1013 40 10000 5.1 320 22:20 23.12.2019
5915 Clear 9 1013 48 10000 4.1 310 21:57 23.12.2019
5916 Clear 9 1013 48 10000 4.1 310 21:37 23.12.2019
5917 Clear 9 1013 48 10000 5.1 310 21:19 23.12.2019
5918 Clear 9 1013 48 10000 4.6 310 20:59 23.12.2019
5919 Clear 9 1013 48 10000 4.6 310 20:41 23.12.2019
5920 Clear 9 1012 51 10000 4.6 310 20:19 23.12.2019
5921 Clear 9 1012 51 10000 4.6 310 19:59 23.12.2019
5922 Clear 10 1012 51 10000 3.6 300 19:41 23.12.2019
5923 Clear 10 1011 37 10000 4.6 320 19:22 23.12.2019
5924 Clear 10 1011 37 10000 4.1 320 18:59 23.12.2019
5925 Clear 10 1011 37 10000 4.1 320 18:39 23.12.2019
5926 Clear 11 1011 35 10000 3.6 320 18:21 23.12.2019
5927 Clear 11 1010 35 10000 4.1 310 17:59 23.12.2019
5928 Clear 12 1010 35 10000 4.1 310 17:41 23.12.2019
5929 Clear 12 1009 30 10000 5.7 320 17:20 23.12.2019
5930 Clear 12 1009 30 10000 5.7 320 17:20 23.12.2019
5931 Clear 12 1009 30 10000 5.7 320 16:59 23.12.2019
5932 Clear 13 1009 30 10000 4.6 300 16:40 23.12.2019
5933 Clear 14 1008 42 10000 4.1 300 16:19 23.12.2019
5934 Clear 13 1008 44 10000 3.6 260 15:58 23.12.2019
5935 Clear 13 1008 44 10000 3.6 260 15:37 23.12.2019
5936 Clear 14 1007 44 10000 3.1 250 15:19 23.12.2019
5937 Clear 14 1007 44 10000 3.1 250 14:56 23.12.2019
5938 Clear 14 1007 50 10000 3.6 250 14:38 23.12.2019
5939 Clear 14 1007 50 10000 4.6 260 14:19 23.12.2019
5940 Clear 14 1007 50 10000 4.6 260 13:56 23.12.2019
5941 Clear 14 1007 50 10000 4.6 250 13:38 23.12.2019
5942 Clear 13 1007 50 10000 3.1 240 13:20 23.12.2019
5943 Clear 14 1007 54 10000 3.1 230 12:55 23.12.2019
5944 Clear 13 1007 54 10000 3.1 230 12:36 23.12.2019
5945 Clear 13 1007 53 10000 3.1 240 12:18 23.12.2019
5946 Clear 13 1007 53 10000 3.1 240 12:18 23.12.2019
5947 Clear 12 1007 53 10000 3.1 240 11:42 23.12.2019
5948 Clear 12 1007 53 10000 3.1 240 11:42 23.12.2019
5949 Clear 12 1007 53 10000 3.1 240 11:42 23.12.2019
5950 Clear 10 1007 57 10000 3.6 270 11:24 23.12.2019
5951 Clear 10 1007 57 10000 3.6 270 10:56 23.12.2019
5952 Clear 9 1006 65 10000 3.1 250 10:38 23.12.2019
5953 Clear 8 1006 70 10000 4.1 270 10:20 23.12.2019
5954 Clear 7 1006 70 10000 4.1 270 09:58 23.12.2019
5955 Clear 7 1005 65 10000 4.1 250 09:39 23.12.2019
5956 Clear 6 1005 70 10000 3.1 250 09:19 23.12.2019
5957 Clear 6 1004 75 10000 3.1 240 08:42 23.12.2019
5958 Clouds 6 1004 75 10000 3.1 250 08:23 23.12.2019
5959 Clouds 6 1003 75 10000 3.6 250 07:57 23.12.2019
5960 Clouds 6 1003 75 10000 3.6 250 07:38 23.12.2019
5961 Clouds 6 1002 80 10000 3.1 260 07:19 23.12.2019
5962 Clouds 6 1002 70 10000 3.1 270 06:43 23.12.2019
5963 Clouds 6 1001 65 10000 3.6 270 06:22 23.12.2019
5964 Clouds 6 1001 70 10000 3.6 290 05:46 23.12.2019
5965 Clouds 7 1000 75 10000 3.1 270 04:55 23.12.2019
5966 Clouds 7 999 75 10000 2.1 260 03:59 23.12.2019
5967 Clouds 7 997 70 10000 2.1 260 02:48 23.12.2019
5968 Clouds 7 997 65 10000 3.6 290 02:20 23.12.2019
5969 Clouds 7 997 75 10000 4.1 270 01:51 23.12.2019
5970 Clouds 7 997 75 10000 4.1 270 01:32 23.12.2019
5971 Clouds 7 996 87 10000 3.1 260 00:49 23.12.2019
5972 Clouds 6 996 87 10000 3.1 260 00:30 23.12.2019
5973 Clouds 7 995 87 10000 3.1 290 23:57 22.12.2019
5974 Clouds 6 996 81 10000 2.1 260 23:57 22.12.2019
5975 Clouds 7 995 87 10000 3.1 290 23:37 22.12.2019
5976 Clear 6 995 87 10000 2.1 290 23:19 22.12.2019
5977 Clear 6 995 87 10000 1 0 22:55 22.12.2019
5978 Clear 6 995 87 10000 1 0 22:37 22.12.2019
5979 Clear 6 994 87 10000 1 0 22:18 22.12.2019
5980 Clear 6 994 81 10000 2.1 260 21:54 22.12.2019
5981 Clear 7 994 81 10000 2.1 260 21:36 22.12.2019
5982 Clear 7 994 81 10000 2.6 260 21:18 22.12.2019
5983 Clear 7 994 76 10000 2.1 260 20:40 22.12.2019
5984 Clear 7 993 71 10000 3.1 270 20:19 22.12.2019
5985 Clear 8 993 76 10000 3.6 260 19:57 22.12.2019
5986 Clear 8 993 76 10000 3.6 260 19:39 22.12.2019
5987 Clear 8 992 81 10000 5.1 270 19:20 22.12.2019
5988 Clear 8 991 87 10000 2.6 270 18:44 22.12.2019
5989 Clear 9 991 81 10000 3.1 250 18:25 22.12.2019
5990 Clear 9 991 81 10000 2.6 270 17:58 22.12.2019
5991 Clear 10 991 81 10000 2.6 270 17:39 22.12.2019
5992 Clear 10 990 81 10000 3.1 240 17:19 22.12.2019
5993 Clear 10 990 81 10000 3.1 240 16:59 22.12.2019
5994 Clear 11 991 76 10000 3.6 250 16:41 22.12.2019
5995 Clear 11 990 76 10000 3.1 280 16:22 22.12.2019
5996 Clear 12 990 76 10000 4.1 280 15:57 22.12.2019
5997 Clear 12 990 76 10000 4.1 280 15:39 22.12.2019
5998 Clear 12 990 71 10000 4.1 270 15:20 22.12.2019
5999 Clear 12 989 76 10000 4.6 260 14:56 22.12.2019
6000 Clear 12 989 76 10000 4.6 260 14:38 22.12.2019
6001 Clouds 12 989 71 10000 4.6 280 14:18 22.12.2019
6002 Clouds 12 989 71 10000 4.6 280 13:55 22.12.2019
6003 Clouds 11 989 76 10000 3.6 280 13:37 22.12.2019
6004 Clouds 11 989 76 10000 5.1 280 13:19 22.12.2019
6005 Clouds 11 990 81 10000 4.1 270 12:56 22.12.2019
6006 Clouds 11 990 81 10000 4.1 270 12:37 22.12.2019
6007 Clouds 10 990 81 10000 4.1 270 12:19 22.12.2019
6008 Clouds 9 990 81 10000 3.6 260 11:56 22.12.2019
6009 Clouds 9 990 81 10000 3.6 260 11:38 22.12.2019
6010 Clouds 9 990 81 10000 2.6 270 11:18 22.12.2019
6011 Clouds 8 990 87 10000 3.6 280 10:55 22.12.2019
6012 Clouds 8 990 87 10000 3.6 280 10:36 22.12.2019
6013 Clouds 7 990 87 10000 2.1 270 10:18 22.12.2019
6014 Clouds 7 989 93 10000 2.6 280 09:56 22.12.2019
6015 Clouds 7 989 93 10000 2.6 280 09:37 22.12.2019
6016 Clouds 7 989 100 10000 2.1 270 09:19 22.12.2019
6017 Clouds 7 989 93 10000 0.5 0 08:39 22.12.2019
6018 Clouds 7 988 93 10000 1.5 280 08:21 22.12.2019
6019 Clouds 7 988 87 10000 1.5 240 07:40 22.12.2019
6020 Clouds 7 988 93 10000 1.5 280 07:21 22.12.2019
6021 Clouds 7 988 87 10000 2.1 310 06:41 22.12.2019
6022 Rain 7 987 93 6000 2.6 90 05:56 22.12.2019
6023 Rain 7 988 93 6000 4.6 360 05:24 22.12.2019
6024 Rain 7 988 93 6000 4.6 10 04:30 22.12.2019
6025 Rain 7 989 93 6000 3.6 60 03:56 22.12.2019
6026 Rain 7 988 87 10000 3.6 140 02:42 22.12.2019
6027 Rain 7 988 87 10000 3.6 140 02:42 22.12.2019
6028 Clouds 7 989 87 10000 2.1 70 01:51 22.12.2019
6029 Clouds 8 989 87 10000 2.1 70 01:30 22.12.2019
6030 Clouds 8 989 87 10000 2.1 70 01:30 22.12.2019
6031 Rain 7 991 87 10000 2.6 60 00:47 22.12.2019
6032 Rain 7 992 100 10000 1 0 00:24 22.12.2019
6033 Rain 7 992 93 10000 1 0 23:57 21.12.2019
6034 Rain 7 992 93 10000 1 0 23:38 21.12.2019
6035 Rain 7 993 100 10000 1 0 23:19 21.12.2019
6036 Clouds 7 993 93 10000 1.5 50 22:41 21.12.2019
6037 Clouds 7 993 100 10000 2.1 70 22:19 21.12.2019
6038 Clouds 7 994 100 10000 2.1 30 21:57 21.12.2019
6039 Clouds 7 994 100 10000 2.1 30 21:38 21.12.2019
6040 Clouds 7 994 100 10000 2.1 360 21:19 21.12.2019
6041 Clouds 7 994 100 10000 2.1 360 20:59 21.12.2019
6042 Clouds 7 994 93 10000 2.6 20 20:39 21.12.2019
6043 Clear 7 994 93 10000 2.6 350 20:21 21.12.2019
6044 Clear 7 994 93 10000 3.6 360 19:58 21.12.2019
6045 Clear 8 994 93 10000 3.6 360 19:40 21.12.2019
6046 Clouds 8 994 93 10000 2.6 300 19:19 21.12.2019
6047 Clouds 8 994 93 10000 1 0 18:45 21.12.2019
6048 Clouds 8 994 93 10000 1.5 270 18:24 21.12.2019
6049 Clouds 9 994 87 10000 2.1 250 17:57 21.12.2019
6050 Clouds 9 994 87 10000 2.1 250 17:57 21.12.2019
6051 Clouds 9 994 87 10000 2.1 250 17:39 21.12.2019
6052 Clouds 9 994 93 10000 3.1 250 17:21 21.12.2019
6053 Clouds 10 993 87 10000 2.6 250 16:58 21.12.2019
6054 Clouds 10 993 87 10000 2.6 250 16:40 21.12.2019
6055 Clouds 11 993 87 10000 3.1 240 16:18 21.12.2019
6056 Clouds 11 993 87 10000 3.1 240 16:18 21.12.2019
6057 Clouds 11 993 87 10000 2.6 260 15:57 21.12.2019
6058 Clouds 11 993 87 10000 2.6 260 15:57 21.12.2019
6059 Clouds 11 993 87 10000 2.6 260 15:38 21.12.2019
6060 Clouds 11 993 87 10000 3.1 250 15:19 21.12.2019
6061 Clouds 11 993 93 10000 3.1 260 14:55 21.12.2019
6062 Clouds 11 993 93 10000 3.1 260 14:37 21.12.2019
6063 Clouds 11 993 93 10000 2.6 250 14:18 21.12.2019
6064 Clouds 11 993 93 6000 2.6 250 13:54 21.12.2019
6065 Clouds 11 993 93 6000 2.6 250 13:36 21.12.2019
6066 Mist 10 993 100 4000 2.1 240 13:18 21.12.2019
6067 Mist 10 994 100 4000 3.1 260 12:54 21.12.2019
6068 Mist 9 994 100 4000 3.1 260 12:36 21.12.2019
6069 Rain 9 994 100 5000 3.1 250 12:18 21.12.2019
6070 Rain 9 994 93 9000 1.5 230 11:41 21.12.2019
6071 Rain 9 994 93 5000 2.6 210 11:22 21.12.2019
6072 Rain 9 994 93 5000 1 0 10:42 21.12.2019
6073 Rain 9 993 100 5000 1.5 360 10:23 21.12.2019
6074 Rain 9 993 100 5000 1.5 360 09:59 21.12.2019
6075 Rain 9 993 93 3000 2.1 250 09:41 21.12.2019
6076 Rain 8 993 100 4000 1.5 100 09:20 21.12.2019
6077 Rain 9 993 100 5000 3.1 110 08:53 21.12.2019
6078 Rain 8 993 100 8000 2.6 120 08:27 21.12.2019
6079 Rain 8 993 100 8000 2.6 120 07:59 21.12.2019
6080 Rain 8 994 93 8000 4.1 140 07:41 21.12.2019
6081 Rain 8 994 93 8000 4.6 120 07:21 21.12.2019
6082 Rain 8 994 93 8000 2.1 130 06:42 21.12.2019
6083 Rain 8 995 93 7000 1.5 170 06:24 21.12.2019
6084 Rain 8 995 93 10000 0.5 0 05:43 21.12.2019
6085 Rain 8 996 100 6000 4.1 360 04:55 21.12.2019
6086 Clouds 8 997 100 10000 1.5 350 03:56 21.12.2019
6087 Clouds 8 998 100 10000 1 0 02:26 21.12.2019
6088 Mist 9 998 100 3500 3.6 360 01:53 21.12.2019
6089 Clouds 9 999 93 10000 1.5 210 01:26 21.12.2019
6090 Clouds 9 999 93 10000 2.1 190 00:49 21.12.2019
6091 Clouds 9 999 93 9000 1.5 150 00:28 21.12.2019
6092 Clouds 9 999 93 10000 2.6 170 23:40 20.12.2019
6093 Clouds 9 1000 93 9000 3.1 190 23:21 20.12.2019
6094 Clouds 9 1000 93 9000 3.1 190 22:59 20.12.2019
6095 Clouds 9 999 93 10000 4.6 190 22:39 20.12.2019
6096 Clouds 9 998 87 10000 4.6 160 22:19 20.12.2019
6097 Rain 9 998 87 10000 5.7 150 21:54 20.12.2019
6098 Rain 9 998 87 10000 5.7 150 21:36 20.12.2019
6099 Rain 9 998 87 6000 5.7 150 21:18 20.12.2019
6100 Rain 9 998 87 6000 5.7 150 21:18 20.12.2019
6101 Rain 9 998 87 6000 5.7 150 21:18 20.12.2019
6102 Rain 10 997 87 6000 7.2 130 20:38 20.12.2019
6103 Rain 9 997 87 10000 10.8 110 20:19 20.12.2019
6104 Rain 9 997 87 7000 9.8 100 19:56 20.12.2019
6105 Rain 9 997 87 7000 9.8 100 19:38 20.12.2019
6106 Rain 9 998 87 7000 9.3 100 19:18 20.12.2019
6107 Rain 9 999 87 10000 8.2 100 18:41 20.12.2019
6108 Rain 9 999 87 8000 8.7 100 18:23 20.12.2019
6109 Rain 9 999 87 8000 8.7 100 17:58 20.12.2019
6110 Rain 9 1000 93 8000 7.2 100 17:39 20.12.2019
6111 Rain 9 1000 93 8000 7.2 100 17:20 20.12.2019
6112 Rain 9 1001 93 3000 7.2 110 16:56 20.12.2019
6113 Rain 10 1002 87 5000 7.7 110 16:38 20.12.2019
6114 Rain 10 1002 87 5000 7.7 110 16:38 20.12.2019
6115 Rain 10 1002 87 5000 7.7 110 16:38 20.12.2019
6116 Rain 10 1002 87 5000 7.7 110 16:19 20.12.2019
6117 Rain 10 1002 87 7000 7.2 110 15:54 20.12.2019
6118 Rain 10 1003 87 7000 6.2 110 15:36 20.12.2019
6119 Rain 10 1003 87 7000 6.2 110 15:18 20.12.2019
6120 Rain 10 1003 87 8000 7.2 110 14:42 20.12.2019
6121 Rain 10 1004 87 5000 6.7 110 14:24 20.12.2019
6122 Rain 10 1005 93 5000 6.7 110 13:57 20.12.2019
6123 Rain 10 1005 93 2500 6.7 80 13:37 20.12.2019
6124 Rain 10 1005 93 2500 6.7 80 13:18 20.12.2019
6125 Rain 10 1007 93 4000 5.7 100 12:55 20.12.2019
6126 Rain 10 1007 93 3000 5.1 100 12:36 20.12.2019
6127 Rain 10 1007 93 3000 5.1 100 12:18 20.12.2019
6128 Rain 10 1008 93 3000 4.1 100 11:57 20.12.2019
6129 Rain 10 1009 93 3000 4.1 90 11:38 20.12.2019
6130 Rain 9 1009 93 3000 4.1 90 11:18 20.12.2019
6131 Rain 9 1009 100 2000 3.6 90 10:55 20.12.2019
6132 Rain 9 1010 100 2000 3.6 100 10:37 20.12.2019
6133 Rain 9 1010 100 2000 3.6 100 10:19 20.12.2019
6134 Rain 9 1010 100 600 4.1 100 09:42 20.12.2019
6135 Rain 9 1010 93 500 4.1 100 09:21 20.12.2019
6136 Drizzle 9 1010 100 500 2.6 90 08:54 20.12.2019
6137 Drizzle 9 1011 100 400 1.5 100 08:36 20.12.2019
6138 Drizzle 9 1011 100 400 1.5 100 08:18 20.12.2019
6139 Drizzle 9 1011 100 300 2.6 110 07:42 20.12.2019
6140 Rain 9 1011 93 150 3.1 90 07:23 20.12.2019
6141 Rain 9 1011 100 200 3.1 100 06:55 20.12.2019
6142 Rain 9 1011 93 200 2.1 110 06:36 20.12.2019
6143 Rain 9 1011 93 200 2.1 110 06:18 20.12.2019
6144 Rain 9 1012 100 200 1 0 05:45 20.12.2019
6145 Rain 9 1013 100 2000 1 0 04:46 20.12.2019
6146 Fog 9 1014 100 500 0.5 0 03:32 20.12.2019
6147 Rain 9 1014 93 1300 1 110 02:45 20.12.2019
6148 Rain 9 1015 93 2700 1 70 01:54 20.12.2019
6149 Mist 9 1016 93 3700 1 0 01:34 20.12.2019
6150 Mist 9 1016 93 2900 1 0 00:49 20.12.2019
6151 Mist 9 1016 93 3800 1.5 230 00:30 20.12.2019
6152 Fog 9 1016 100 500 2.6 200 23:56 19.12.2019
6153 Mist 9 1016 100 5000 1 0 23:38 19.12.2019
6154 Mist 9 1016 100 5000 1 0 23:18 19.12.2019
6155 Mist 9 1017 100 5000 1 0 22:38 19.12.2019
6156 Mist 9 1017 100 3000 1 0 22:20 19.12.2019
6157 Mist 9 1017 100 3000 1 0 21:56 19.12.2019
6158 Fog 9 1017 100 500 1.5 230 21:37 19.12.2019
6159 Rain 9 1017 100 500 1.5 230 21:19 19.12.2019
6160 Rain 9 1018 100 600 1 240 20:56 19.12.2019
6161 Rain 9 1018 93 1300 1 260 20:37 19.12.2019
6162 Fog 9 1018 93 1300 1 260 20:18 19.12.2019
6163 Mist 10 1018 100 2500 1 0 19:57 19.12.2019
6164 Mist 10 1018 100 2500 1 0 19:57 19.12.2019
6165 Mist 10 1018 100 3000 1.5 110 19:39 19.12.2019
6166 Mist 10 1018 100 3000 1.5 110 19:39 19.12.2019
6167 Mist 10 1018 100 3000 1.5 110 19:19 19.12.2019
6168 Mist 10 1018 100 3000 1.5 110 19:19 19.12.2019
6169 Fog 10 1018 100 2000 1.5 110 18:41 19.12.2019
6170 Fog 10 1018 100 2000 1.5 110 18:23 19.12.2019
6171 Fog 10 1018 100 1300 1.5 110 17:58 19.12.2019
6172 Fog 10 1018 100 1300 1.5 110 17:40 19.12.2019
6173 Fog 10 1018 100 600 2.6 100 17:19 19.12.2019
6174 Fog 10 1018 100 600 2.6 100 17:19 19.12.2019
6175 Fog 10 1018 100 800 2.1 80 16:59 19.12.2019
6176 Fog 10 1018 100 1500 3.1 110 16:41 19.12.2019
6177 Fog 10 1018 100 1500 3.1 110 16:22 19.12.2019
6178 Rain 10 1019 93 3000 3.1 100 15:59 19.12.2019
6179 Rain 10 1019 93 3000 3.1 100 15:40 19.12.2019
6180 Rain 10 1019 93 4000 3.1 110 15:20 19.12.2019
6181 Rain 10 1019 100 4000 2.1 100 14:59 19.12.2019
6182 Rain 10 1019 93 4000 2.1 70 14:41 19.12.2019
6183 Rain 10 1019 93 4000 2.1 70 14:41 19.12.2019
6184 Rain 10 1019 93 4000 2.1 70 14:19 19.12.2019
6185 Rain 10 1020 93 5000 2.1 70 13:57 19.12.2019
6186 Rain 10 1020 93 4000 2.6 60 13:37 19.12.2019
6187 Rain 10 1020 93 4000 2.6 60 13:18 19.12.2019
6188 Rain 10 1020 93 4000 2.6 60 12:55 19.12.2019
6189 Rain 10 1020 93 4000 2.6 60 12:55 19.12.2019
6190 Rain 10 1021 93 4000 1.5 60 12:37 19.12.2019
6191 Rain 10 1021 93 4000 1.5 60 12:18 19.12.2019
6192 Rain 10 1022 93 3000 2.1 70 11:57 19.12.2019
6193 Drizzle 10 1022 93 3000 1.5 70 11:38 19.12.2019
6194 Drizzle 10 1022 93 3000 1.5 70 11:18 19.12.2019
6195 Drizzle 10 1022 93 3000 1.5 80 10:39 19.12.2019
6196 Drizzle 9 1022 93 3000 1.5 80 10:20 19.12.2019
6197 Drizzle 9 1022 100 2500 1.5 60 09:59 19.12.2019
6198 Mist 9 1022 100 3000 1.5 70 09:38 19.12.2019
6199 Mist 9 1022 100 3000 1.5 70 09:20 19.12.2019
6200 Drizzle 9 1022 100 3000 1 0 08:57 19.12.2019
6201 Mist 9 1022 100 4000 1 0 08:39 19.12.2019
6202 Mist 9 1022 100 4000 1 0 08:19 19.12.2019
6203 Mist 9 1022 93 4000 1 280 07:56 19.12.2019
6204 Mist 9 1022 93 2000 0.5 0 07:37 19.12.2019
6205 Mist 9 1022 93 2000 0.5 0 07:19 19.12.2019
6206 Mist 9 1022 93 2000 1 200 06:45 19.12.2019
6207 Rain 9 1022 93 2000 1 200 06:26 19.12.2019
6208 Rain 9 1022 100 10000 2.1 20 05:49 19.12.2019
6209 Rain 9 1022 100 10000 2.6 20 05:28 19.12.2019
6210 Rain 9 1022 100 6000 0.5 0 04:43 19.12.2019
6211 Clouds 9 1023 100 6000 2.1 350 02:48 19.12.2019
6212 Clouds 9 1023 100 10000 4.1 360 01:46 19.12.2019
6213 Clouds 9 1023 100 6000 0.5 0 01:21 19.12.2019
6214 Clouds 9 1024 100 6000 1 290 00:39 19.12.2019
6215 Clouds 9 1024 100 6000 1 290 00:39 19.12.2019
6216 Clouds 9 1024 100 6000 1 290 00:39 19.12.2019
6217 Clouds 9 1024 100 6000 1 290 00:39 19.12.2019
6218 Clouds 9 1024 100 6000 1 290 00:39 19.12.2019
6219 Clouds 9 1024 100 6000 1 290 00:20 19.12.2019
6220 Clouds 9 1024 100 6000 1 0 23:45 18.12.2019
6221 Clouds 9 1024 100 6000 1 0 23:45 18.12.2019
6222 Clouds 9 1024 100 8000 0.5 220 23:19 18.12.2019
6223 Clouds 9 1024 100 8000 0.5 0 22:58 18.12.2019
6224 Clouds 9 1024 100 8000 0.5 0 22:40 18.12.2019
6225 Clouds 9 1024 100 8000 0.5 0 22:22 18.12.2019
6226 Clouds 9 1024 100 8000 0.5 0 21:59 18.12.2019
6227 Clouds 9 1024 100 8000 1 340 21:41 18.12.2019
6228 Clouds 9 1024 100 8000 1 340 21:21 18.12.2019
6229 Clouds 9 1024 93 8000 1 0 20:58 18.12.2019
6230 Clouds 9 1024 93 8000 0.5 0 20:39 18.12.2019
6231 Clouds 9 1024 93 8000 0.5 0 20:20 18.12.2019
6232 Clouds 9 1024 93 8000 0.5 0 19:57 18.12.2019
6233 Clouds 9 1024 93 6000 0.5 0 19:39 18.12.2019
6234 Clouds 9 1024 93 6000 0.5 0 19:19 18.12.2019
6235 Clouds 9 1024 93 6000 0.5 210 18:56 18.12.2019
6236 Mist 9 1024 93 5000 1 250 18:38 18.12.2019
6237 Mist 9 1024 93 5000 1 250 18:20 18.12.2019
6238 Mist 9 1024 93 5000 1 200 17:55 18.12.2019
6239 Mist 9 1024 93 5000 1 200 17:55 18.12.2019
6240 Mist 9 1024 93 3500 1 200 17:37 18.12.2019
6241 Mist 9 1024 93 3500 1 200 17:19 18.12.2019
6242 Mist 10 1023 93 3500 1 0 16:42 18.12.2019
6243 Mist 10 1023 93 3500 1 240 16:24 18.12.2019
6244 Mist 10 1023 93 3500 1 240 15:59 18.12.2019
6245 Mist 10 1023 93 3000 1 250 15:39 18.12.2019
6246 Drizzle 10 1023 100 5000 1.5 60 15:21 18.12.2019
6247 Drizzle 10 1023 100 5000 1.5 60 14:57 18.12.2019
6248 Mist 9 1023 100 2000 1 0 14:39 18.12.2019
6249 Mist 9 1023 93 2000 0.5 0 14:19 18.12.2019
6250 Mist 9 1023 93 2000 0.5 0 13:55 18.12.2019
6251 Rain 9 1023 93 2000 0.5 0 13:37 18.12.2019
6252 Rain 9 1024 93 2000 1 0 13:19 18.12.2019
6253 Rain 9 1024 100 2000 0.5 340 12:54 18.12.2019
6254 Rain 9 1024 100 2000 0.5 340 12:54 18.12.2019
6255 Rain 9 1024 100 2000 0.5 340 12:36 18.12.2019
6256 Rain 9 1024 93 2000 1 270 12:18 18.12.2019
6257 Mist 9 1024 93 2000 1 190 11:54 18.12.2019
6258 Mist 9 1024 93 2000 1 190 11:36 18.12.2019
6259 Mist 9 1024 93 2000 1 0 11:18 18.12.2019
6260 Mist 9 1024 93 2000 1 0 10:54 18.12.2019
6261 Mist 9 1024 93 2000 1 0 10:36 18.12.2019
6262 Mist 9 1023 93 2000 1 0 10:18 18.12.2019
6263 Mist 8 1023 93 2000 1 0 09:21 18.12.2019
6264 Mist 8 1023 93 2000 1 0 08:57 18.12.2019
6265 Mist 8 1023 93 2000 1 0 08:57 18.12.2019
6266 Mist 8 1023 93 2000 1 0 08:57 18.12.2019
6267 Mist 8 1022 100 2000 1 0 08:39 18.12.2019
6268 Mist 8 1022 100 3000 1 0 08:20 18.12.2019
6269 Mist 8 1022 93 3000 0.5 0 07:42 18.12.2019
6270 Mist 8 1022 100 4000 1 0 07:21 18.12.2019
6271 Mist 8 1022 93 4000 1 0 06:53 18.12.2019
6272 Mist 8 1022 93 4000 1 0 06:26 18.12.2019
6273 Clouds 8 1021 93 6000 1 0 05:39 18.12.2019
6274 Rain 8 1022 93 6000 1.5 250 04:35 18.12.2019
6275 Rain 8 1021 93 6000 1 0 02:50 18.12.2019
6276 Rain 8 1021 93 6000 1 0 02:30 18.12.2019
6277 Rain 8 1021 93 5000 1 0 01:47 18.12.2019
6278 Rain 8 1021 93 5000 1 0 01:28 18.12.2019
6279 Rain 8 1021 93 5000 1.5 240 00:59 18.12.2019
6280 Rain 8 1021 93 5000 1.5 240 00:39 18.12.2019
6281 Rain 8 1021 93 5000 2.1 240 00:21 18.12.2019
6282 Rain 8 1021 93 5000 2.1 250 23:44 17.12.2019
6283 Rain 8 1021 93 5000 1.5 250 23:24 17.12.2019
6284 Rain 8 1021 93 5000 1.5 250 22:57 17.12.2019
6285 Rain 8 1021 93 5000 1.5 250 22:39 17.12.2019
6286 Rain 8 1021 100 5000 1.5 230 22:20 17.12.2019
6287 Rain 8 1021 100 5000 1.5 230 21:57 17.12.2019
6288 Rain 8 1021 100 5000 1 260 21:39 17.12.2019
6289 Rain 8 1021 93 5000 2.1 200 21:20 17.12.2019
6290 Rain 8 1021 93 5000 2.1 200 20:59 17.12.2019
6291 Rain 8 1020 100 5000 0.5 0 20:40 17.12.2019
6292 Rain 8 1020 100 5000 1 0 20:19 17.12.2019
6293 Rain 8 1020 100 5000 1 0 19:59 17.12.2019
6294 Rain 8 1020 100 5000 1 0 19:41 17.12.2019
6295 Rain 8 1020 100 6000 0.5 0 19:20 17.12.2019
6296 Rain 8 1020 100 6000 0.5 0 18:57 17.12.2019
6297 Rain 8 1020 100 6000 0.5 0 18:38 17.12.2019
6298 Rain 8 1020 100 5000 0.5 0 18:20 17.12.2019
6299 Rain 8 1019 100 5000 0.6 22 17:55 17.12.2019
6300 Rain 8 1019 100 5000 0.6 22 17:37 17.12.2019
6301 Rain 8 1019 100 2500 1 0 17:18 17.12.2019
6302 Rain 8 1019 100 1200 1.5 250 16:55 17.12.2019
6303 Rain 8 1019 100 1200 1.5 250 16:36 17.12.2019
6304 Rain 8 1019 100 1200 1.5 260 16:18 17.12.2019
6305 Rain 8 1019 100 1200 1.5 260 16:18 17.12.2019
6306 Rain 8 1019 100 1200 1.5 260 16:18 17.12.2019
6307 Mist 8 1019 100 1500 1.5 250 15:38 17.12.2019
6308 Mist 8 1018 93 2500 1.5 220 15:20 17.12.2019
6309 Mist 8 1018 93 4000 2.1 180 14:56 17.12.2019
6310 Mist 8 1018 93 4000 2.1 180 14:38 17.12.2019
6311 Rain 8 1018 93 4000 2.6 130 14:19 17.12.2019
6312 Rain 8 1018 93 4000 2.6 130 13:58 17.12.2019
6313 Rain 8 1019 93 4000 2.1 120 13:39 17.12.2019
6314 Mist 8 1019 87 5000 1.5 100 13:19 17.12.2019
6315 Mist 8 1019 87 5000 1.5 100 12:59 17.12.2019
6316 Mist 8 1019 87 5000 1.5 60 12:38 17.12.2019
6317 Mist 8 1019 87 5000 1.5 50 12:18 17.12.2019
6318 Mist 8 1019 87 5000 1.5 50 12:18 17.12.2019
6319 Mist 8 1019 87 5000 0.5 0 11:56 17.12.2019
6320 Mist 8 1019 87 5000 0.5 0 11:37 17.12.2019
6321 Mist 8 1020 87 5000 1.5 130 11:18 17.12.2019
6322 Drizzle 8 1020 87 5000 1 0 10:57 17.12.2019
6323 Drizzle 8 1020 87 5000 1 0 10:38 17.12.2019
6324 Mist 8 1019 93 5000 0.5 0 10:19 17.12.2019
6325 Mist 8 1019 93 5000 0.5 0 09:43 17.12.2019
6326 Mist 8 1019 93 5000 1 0 09:22 17.12.2019
6327 Mist 8 1019 93 5000 1 0 08:59 17.12.2019
6328 Clouds 7 1019 93 6000 1 0 08:40 17.12.2019
6329 Clouds 7 1019 93 6000 0.5 0 08:22 17.12.2019
6330 Clouds 7 1019 93 6000 0.5 0 08:22 17.12.2019
6331 Clouds 7 1019 93 6000 0.5 0 07:58 17.12.2019
6332 Rain 7 1019 93 7000 1 0 07:39 17.12.2019
6333 Rain 7 1019 100 6000 1.5 20 07:21 17.12.2019
6334 Clouds 7 1019 100 6000 0.5 0 06:42 17.12.2019
6335 Clouds 7 1019 100 6000 0.5 0 06:24 17.12.2019
6336 Clouds 7 1019 100 6000 0.5 0 06:24 17.12.2019
6337 Clouds 7 1019 100 6000 2.49 58 05:41 17.12.2019
6338 Clouds 7 1019 93 6000 0.5 0 04:51 17.12.2019
6339 Clouds 7 1020 93 6000 1.5 80 03:40 17.12.2019
6340 Mist 7 1020 93 3500 1.5 10 02:22 17.12.2019
6341 Mist 7 1020 100 2500 1 50 01:21 17.12.2019
6342 Mist 7 1020 100 2500 1.5 60 00:45 17.12.2019
6343 Mist 7 1021 100 2500 0.5 0 00:21 17.12.2019
6344 Mist 7 1021 100 2500 1 0 23:43 16.12.2019
6345 Mist 7 1020 100 3500 0.5 0 23:20 16.12.2019
6346 Mist 7 1020 100 3500 0.5 0 22:58 16.12.2019
6347 Mist 7 1021 100 3500 1 180 22:38 16.12.2019
6348 Mist 7 1021 93 3500 0.5 0 22:20 16.12.2019
6349 Mist 7 1021 93 3500 0.5 0 21:57 16.12.2019
6350 Mist 7 1021 100 2500 0.5 0 21:38 16.12.2019
6351 Mist 7 1021 100 2000 0.5 260 21:20 16.12.2019
6352 Mist 7 1021 100 2000 0.5 260 20:58 16.12.2019
6353 Mist 7 1021 100 2000 1 230 20:39 16.12.2019
6354 Mist 7 1021 100 2000 1.5 260 20:19 16.12.2019
6355 Mist 7 1021 100 2000 1.5 260 19:56 16.12.2019
6356 Mist 7 1021 93 5000 1 240 19:37 16.12.2019
6357 Mist 7 1021 93 5000 1 260 19:19 16.12.2019
6358 Mist 7 1021 93 5000 0.5 0 18:58 16.12.2019
6359 Mist 7 1021 93 5000 0.5 0 18:40 16.12.2019
6360 Mist 7 1021 93 5000 0.5 230 18:20 16.12.2019
6361 Mist 7 1021 93 5000 0.5 0 17:57 16.12.2019
6362 Mist 7 1021 93 5000 0.5 0 17:57 16.12.2019
6363 Mist 7 1021 93 5000 0.5 0 17:38 16.12.2019
6364 Mist 7 1021 93 3000 0.5 190 17:20 16.12.2019
6365 Mist 7 1021 93 3000 0.5 190 16:57 16.12.2019
6366 Mist 7 1021 93 3500 0.5 0 16:38 16.12.2019
6367 Mist 7 1021 93 3000 0.5 0 16:19 16.12.2019
6368 Mist 7 1021 93 3500 1 0 15:57 16.12.2019
6369 Mist 7 1021 93 3500 1 0 15:38 16.12.2019
6370 Rain 7 1021 93 3500 1 0 15:20 16.12.2019
6371 Rain 7 1021 93 2500 2.1 350 14:55 16.12.2019
6372 Rain 7 1021 93 2500 2.1 350 14:37 16.12.2019
6373 Drizzle 7 1021 100 1600 1 0 14:18 16.12.2019
6374 Drizzle 7 1021 100 1600 1 0 14:18 16.12.2019
6375 Drizzle 7 1021 100 1600 1.5 250 13:56 16.12.2019
6376 Drizzle 7 1021 100 1600 1.5 250 13:37 16.12.2019
6377 Drizzle 7 1022 100 1600 2.1 240 13:19 16.12.2019
6378 Drizzle 7 1022 100 1600 1 0 12:56 16.12.2019
6379 Drizzle 7 1022 100 1600 1 0 12:38 16.12.2019
6380 Drizzle 7 1022 100 1600 1.5 240 12:18 16.12.2019
6381 Drizzle 7 1022 100 1600 1.5 240 11:57 16.12.2019
6382 Drizzle 7 1022 100 1500 1 0 11:38 16.12.2019
6383 Drizzle 7 1022 100 2000 2.1 210 11:19 16.12.2019
6384 Drizzle 7 1022 100 2000 1 200 10:40 16.12.2019
6385 Drizzle 7 1021 100 2000 1 0 10:22 16.12.2019
6386 Drizzle 7 1021 100 2000 1 0 09:59 16.12.2019
6387 Drizzle 6 1021 100 2000 0.5 0 09:41 16.12.2019
6388 Drizzle 6 1021 100 2000 0.5 0 09:23 16.12.2019
6389 Drizzle 6 1021 100 2000 0.5 0 08:40 16.12.2019
6390 Drizzle 6 1021 100 2000 0.5 0 08:19 16.12.2019
6391 Drizzle 6 1020 100 2000 0.5 0 07:52 16.12.2019
6392 Drizzle 6 1020 100 2000 0.5 0 07:31 16.12.2019
6393 Mist 6 1020 100 2500 1 230 06:52 16.12.2019
6394 Mist 6 1020 100 2500 1 0 06:27 16.12.2019
6395 Mist 6 1020 100 2500 1.5 250 05:59 16.12.2019
6396 Mist 6 1020 100 2500 1.5 250 05:40 16.12.2019
6397 Mist 6 1020 100 2500 1 0 05:22 16.12.2019
6398 Mist 6 1020 100 2500 1 0 02:59 16.12.2019
6399 Rain 6 1019 100 2500 0.5 0 01:45 16.12.2019
6400 Mist 6 1020 93 3500 2.1 250 00:56 16.12.2019
6401 Mist 6 1020 93 3500 2.1 250 00:38 16.12.2019
6402 Mist 6 1019 93 4000 0.5 0 00:18 16.12.2019
6403 Mist 5 1019 93 4000 1.5 250 23:41 15.12.2019
6404 Mist 5 1019 100 4000 0.5 0 23:22 15.12.2019
6405 Mist 5 1019 93 4000 0.5 0 22:57 15.12.2019
6406 Mist 5 1019 100 4000 0.5 0 22:57 15.12.2019
6407 Mist 5 1019 93 4000 0.5 0 22:38 15.12.2019
6408 Mist 5 1019 93 5000 1 0 22:19 15.12.2019
6409 Mist 6 1019 93 5000 1 0 21:57 15.12.2019
6410 Mist 6 1019 93 5000 1 0 21:38 15.12.2019
6411 Mist 6 1019 93 5000 1 0 21:38 15.12.2019
6412 Mist 6 1019 93 5000 1.5 240 21:19 15.12.2019
6413 Mist 6 1019 93 5000 1.5 240 21:19 15.12.2019
6414 Mist 6 1019 93 5000 1.5 240 20:57 15.12.2019
6415 Rain 5 1018 93 4000 1 240 20:38 15.12.2019
6416 Rain 5 1018 93 4000 1 240 20:38 15.12.2019
6417 Drizzle 5 1018 93 4000 1 250 20:19 15.12.2019
6418 Drizzle 6 1018 93 4000 1 250 19:57 15.12.2019
6419 Drizzle 6 1018 93 4000 1.5 260 19:39 15.12.2019
6420 Drizzle 6 1018 93 4000 1.5 260 19:39 15.12.2019
6421 Drizzle 6 1018 93 4000 1.5 250 19:19 15.12.2019
6422 Drizzle 6 1017 93 4000 2.1 260 18:57 15.12.2019
6423 Drizzle 6 1017 93 4000 2.1 260 18:38 15.12.2019
6424 Drizzle 6 1017 93 3000 1 0 18:18 15.12.2019
6425 Drizzle 6 1017 93 3000 1.5 290 17:56 15.12.2019
6426 Drizzle 6 1017 93 3000 1.5 290 17:37 15.12.2019
6427 Drizzle 6 1017 100 3000 0.5 0 17:19 15.12.2019
6428 Drizzle 6 1017 93 3000 1 0 16:56 15.12.2019
6429 Drizzle 6 1017 93 3000 1 0 16:38 15.12.2019
6430 Drizzle 6 1017 93 4000 1.5 260 16:20 15.12.2019
6431 Drizzle 7 1016 87 8000 2.1 210 15:55 15.12.2019
6432 Drizzle 7 1016 87 8000 2.1 210 15:55 15.12.2019
6433 Drizzle 7 1016 87 8000 2.1 210 15:36 15.12.2019
6434 Clouds 7 1016 87 10000 1.5 200 15:18 15.12.2019
6435 Clouds 7 1016 81 10000 1.5 250 14:55 15.12.2019
6436 Clouds 7 1016 81 10000 1.5 250 14:36 15.12.2019
6437 Clouds 7 1016 81 10000 2.1 220 14:18 15.12.2019
6438 Clouds 7 1016 81 10000 1 0 13:54 15.12.2019
6439 Clouds 7 1016 81 10000 1 0 13:36 15.12.2019
6440 Clouds 7 1016 81 10000 0.5 0 13:18 15.12.2019
6441 Clouds 7 1016 81 10000 0.5 0 13:18 15.12.2019
6442 Clouds 7 1016 75 10000 1 0 12:55 15.12.2019
6443 Clouds 7 1016 75 10000 1 0 12:37 15.12.2019
6444 Clouds 7 1016 75 10000 1 0 12:19 15.12.2019
6445 Clouds 6 1016 87 10000 1.5 210 11:38 15.12.2019
6446 Clouds 6 1016 81 10000 0.5 0 11:19 15.12.2019
6447 Clouds 6 1016 81 10000 0.5 0 11:19 15.12.2019
6448 Clouds 6 1016 93 10000 0.5 0 10:56 15.12.2019
6449 Clouds 6 1016 93 10000 0.5 0 10:38 15.12.2019
6450 Clouds 6 1016 93 10000 0.5 0 10:38 15.12.2019
6451 Clouds 5 1016 93 10000 0.5 0 10:19 15.12.2019
6452 Clouds 5 1016 93 10000 0.5 0 09:57 15.12.2019
6453 Clouds 5 1015 93 10000 1 330 09:37 15.12.2019
6454 Clouds 5 1015 86 10000 0.5 0 09:19 15.12.2019
6455 Clouds 4 1014 93 10000 0.5 0 08:42 15.12.2019
6456 Clouds 4 1014 93 10000 0.5 0 08:42 15.12.2019
6457 Clouds 4 1014 93 10000 0.5 0 08:23 15.12.2019
6458 Clouds 4 1014 93 10000 0.5 0 07:59 15.12.2019
6459 Clouds 4 1014 100 10000 1 0 07:38 15.12.2019
6460 Clouds 4 1013 82 10000 0.5 0 07:19 15.12.2019
6461 Clear 3 1012 82 10000 1.5 30 06:24 15.12.2019
6462 Clear 3 1012 82 10000 1 0 05:42 15.12.2019
6463 Clouds 3 1012 93 10000 1 40 05:20 15.12.2019
6464 Clouds 3 1012 80 10000 2.1 70 04:19 15.12.2019
6465 Clouds 3 1011 86 10000 2.6 50 02:49 15.12.2019
6466 Clouds 3 1011 86 10000 2.6 50 02:30 15.12.2019
6467 Clear 3 1011 86 10000 1.5 70 01:40 15.12.2019
6468 Clear 3 1010 86 10000 2.6 80 01:18 15.12.2019
6469 Clear 4 1010 86 10000 1.5 50 00:47 15.12.2019
6470 Clear 4 1010 86 10000 1.5 50 00:47 15.12.2019
6471 Clear 4 1010 80 10000 2.6 70 00:29 15.12.2019
6472 Clear 4 1010 80 10000 2.6 80 23:41 14.12.2019
6473 Clear 4 1009 93 10000 2.6 50 23:22 14.12.2019
6474 Clear 4 1009 93 10000 0.5 0 22:59 14.12.2019
6475 Clear 4 1009 93 10000 0.5 0 22:41 14.12.2019
6476 Clear 4 1008 93 10000 2.1 170 22:22 14.12.2019
6477 Clear 4 1008 86 10000 0.5 0 21:56 14.12.2019
6478 Clear 4 1008 86 10000 0.5 0 21:38 14.12.2019
6479 Clear 4 1007 86 10000 1 0 21:19 14.12.2019
6480 Clear 4 1007 86 10000 1 0 20:57 14.12.2019
6481 Clear 4 1007 86 10000 1 0 20:39 14.12.2019
6482 Clear 4 1007 86 10000 1 0 20:19 14.12.2019
6483 Clear 5 1007 86 10000 1 0 19:57 14.12.2019
6484 Clear 5 1006 86 10000 1.5 350 19:37 14.12.2019
6485 Clear 5 1006 80 10000 1 0 19:19 14.12.2019
6486 Clear 5 1006 75 10000 1.5 0 18:56 14.12.2019
6487 Clear 5 1006 75 10000 1.5 0 18:37 14.12.2019
6488 Clear 5 1005 75 10000 1 40 18:19 14.12.2019
6489 Clear 6 1005 75 10000 1.5 290 17:43 14.12.2019
6490 Clear 7 1005 75 10000 1.5 300 17:24 14.12.2019
6491 Clear 8 1004 61 10000 1 0 16:58 14.12.2019
6492 Clear 7 1004 61 10000 1 0 16:38 14.12.2019
6493 Clear 7 1004 61 10000 1 0 16:38 14.12.2019
6494 Clear 8 1004 66 10000 2.1 260 16:18 14.12.2019
6495 Clear 8 1003 61 10000 3.1 250 15:43 14.12.2019
6496 Clear 9 1003 61 10000 3.1 260 15:21 14.12.2019
6497 Clear 9 1003 61 10000 3.1 260 14:58 14.12.2019
6498 Clear 10 1003 57 10000 3.1 240 14:38 14.12.2019
6499 Clear 10 1003 66 10000 2.6 240 14:19 14.12.2019
6500 Clear 9 1002 66 10000 2.1 240 13:45 14.12.2019
6501 Clear 10 1002 65 10000 2.1 240 13:21 14.12.2019
6502 Clear 10 1002 65 10000 2.1 240 13:21 14.12.2019
6503 Clear 9 1002 65 10000 2.1 240 12:59 14.12.2019
6504 Clear 10 1002 66 10000 2.1 220 12:41 14.12.2019
6505 Clear 9 1002 65 10000 2.6 210 12:21 14.12.2019
6506 Clear 9 1002 65 10000 2.6 210 12:21 14.12.2019
6507 Clear 9 1002 65 10000 2.6 210 11:59 14.12.2019
6508 Clear 8 1002 61 10000 0.5 0 11:39 14.12.2019
6509 Clear 7 1002 70 10000 0.5 0 11:20 14.12.2019
6510 Clear 6 1002 75 10000 1 0 10:59 14.12.2019
6511 Clear 5 1002 75 10000 1 0 10:40 14.12.2019
6512 Clear 4 1001 75 10000 0.5 0 10:22 14.12.2019
6513 Clear 4 1001 75 10000 0.5 0 09:57 14.12.2019
6514 Clear 4 1000 62 10000 0.5 0 09:39 14.12.2019
6515 Clear 3 1000 86 10000 1 0 09:19 14.12.2019
6516 Clear 2 999 62 10000 0.5 0 08:43 14.12.2019
6517 Clear 1 999 63 10000 2.1 350 08:20 14.12.2019
6518 Clear 1 998 63 10000 1.5 350 07:44 14.12.2019
6519 Clear 1 998 63 10000 1.5 360 07:23 14.12.2019
6520 Clear 1 998 63 10000 2.6 350 06:57 14.12.2019
6521 Clear 1 998 63 10000 2.6 350 06:37 14.12.2019
6522 Clear 1 997 86 10000 2.6 10 05:59 14.12.2019
6523 Clear 1 997 80 10000 3.1 260 04:48 14.12.2019
6524 Clear 2 995 60 10000 2.6 250 02:35 14.12.2019
6525 Clouds 1 996 52 10000 5.1 260 01:56 14.12.2019
6526 Clouds 1 996 52 10000 5.1 260 01:56 14.12.2019
6527 Clouds 1 994 50 10000 3.6 250 01:37 14.12.2019
6528 Clear 2 994 50 10000 5.1 250 00:47 14.12.2019
6529 Clear 1 994 50 10000 5.1 250 00:27 14.12.2019
6530 Clear 1 993 50 10000 4.6 250 23:56 13.12.2019
6531 Clear 2 993 50 10000 4.6 250 23:37 13.12.2019
6532 Clear 1 993 70 10000 4.1 240 23:18 13.12.2019
6533 Clear 1 992 70 10000 4.1 240 22:40 13.12.2019
6534 Clear 1 992 70 10000 5.1 270 22:19 13.12.2019
6535 Clear 1 992 70 10000 5.1 250 21:56 13.12.2019
6536 Clear 1 992 70 10000 5.1 250 21:37 13.12.2019
6537 Clear 1 992 70 10000 4.6 250 21:19 13.12.2019
6538 Clear 1 992 93 10000 6.2 270 20:41 13.12.2019
6539 Clouds 1 991 93 10000 4.1 270 20:22 13.12.2019
6540 Clouds 1 991 93 10000 4.1 270 19:59 13.12.2019
6541 Clouds 1 990 93 10000 3.1 260 19:40 13.12.2019
6542 Clouds 1 990 93 10000 3.1 260 19:22 13.12.2019
6543 Clouds 1 990 86 10000 5.7 270 18:58 13.12.2019
6544 Clouds 1 990 86 10000 4.1 260 18:40 13.12.2019
6545 Clouds 1 990 86 10000 4.1 260 18:19 13.12.2019
6546 Clouds 1 989 86 10000 3.6 250 17:43 13.12.2019
6547 Clouds 2 989 86 10000 3.6 250 17:20 13.12.2019
6548 Clouds 2 989 86 10000 3.6 250 17:20 13.12.2019
6549 Clouds 2 989 86 10000 3.6 250 16:59 13.12.2019
6550 Clouds 2 988 86 10000 3.6 240 16:39 13.12.2019
6551 Clouds 2 988 86 10000 3.6 240 16:20 13.12.2019
6552 Clouds 3 987 86 10000 2.6 210 15:43 13.12.2019
6553 Clouds 3 987 86 10000 2.6 210 15:23 13.12.2019
6554 Clouds 3 987 86 10000 2.6 210 15:23 13.12.2019
6555 Clouds 3 988 86 10000 2.1 240 14:59 13.12.2019
6556 Clouds 3 988 93 10000 1 0 14:41 13.12.2019
6557 Rain 3 988 93 10000 1 0 14:20 13.12.2019
6558 Rain 2 989 100 8000 1 0 13:57 13.12.2019
6559 Rain 2 989 100 1600 2.6 340 13:37 13.12.2019
6560 Rain 2 989 100 1600 2.6 340 13:19 13.12.2019
6561 Rain 1 990 95 800 1.5 350 12:42 13.12.2019
6562 Rain 1 990 95 800 1.5 350 12:20 13.12.2019
6563 Rain 1 990 95 800 1.5 350 12:20 13.12.2019
6564 Rain 1 991 95 800 1.5 310 11:57 13.12.2019
6565 Rain 1 991 95 800 1.5 10 11:39 13.12.2019
6566 Rain 1 991 96 800 1.5 10 11:19 13.12.2019
6567 Rain 1 991 96 800 2.1 80 10:42 13.12.2019
6568 Rain 1 991 96 800 2.1 80 10:22 13.12.2019
6569 Rain 1 993 96 800 1 0 09:54 13.12.2019
6570 Rain 1 993 96 1600 2.1 50 09:36 13.12.2019
6571 Rain 1 993 96 1600 2.1 50 09:18 13.12.2019
6572 Rain 1 993 96 1600 2.1 50 09:18 13.12.2019
6573 Rain 1 994 96 1600 1.5 70 08:40 13.12.2019
6574 Rain 1 994 93 1600 1.5 70 08:22 13.12.2019
6575 Rain 1 995 93 1200 0.5 0 07:44 13.12.2019
6576 Rain 1 995 93 1200 0.5 0 07:20 13.12.2019
6577 Rain 1 995 93 2000 0.5 0 06:50 13.12.2019
6578 Rain 1 995 93 2000 2.1 90 06:28 13.12.2019
6579 Rain 1 996 100 3000 1 60 05:44 13.12.2019
6580 Rain 1 996 91 3000 2.1 360 05:24 13.12.2019
6581 Rain 1 997 93 4000 0.5 0 04:35 13.12.2019
6582 Rain 1 998 93 6000 1 0 03:30 13.12.2019
6583 Clouds 1 999 93 10000 1.5 100 02:32 13.12.2019
6584 Clouds 1 999 93 10000 1.5 100 02:32 13.12.2019
6585 Clouds 1 1000 84 10000 1 170 01:40 13.12.2019
6586 Clouds 1 1001 86 10000 1 0 00:51 13.12.2019
6587 Clouds 1 1001 86 10000 0.5 0 00:32 13.12.2019
6588 Clouds 1 1002 86 10000 0.5 0 23:47 12.12.2019
6589 Clouds 1 1002 86 10000 2.1 240 23:27 12.12.2019
6590 Clouds 1 1003 86 10000 1.5 250 22:59 12.12.2019
6591 Clouds 1 1003 86 10000 2.6 260 22:41 12.12.2019
6592 Clouds 1 1003 86 10000 1.5 250 22:41 12.12.2019
6593 Clouds 1 1003 86 10000 2.6 260 22:22 12.12.2019
6594 Clouds 2 1003 86 10000 2.6 250 21:56 12.12.2019
6595 Clear 1 1003 86 10000 1.5 250 21:38 12.12.2019
6596 Clear 1 1003 86 10000 1.5 250 21:20 12.12.2019
6597 Clear 1 1003 86 10000 1.5 250 21:20 12.12.2019
6598 Clear 1 1003 86 10000 1.5 250 20:59 12.12.2019
6599 Clouds 2 1004 86 10000 1 230 20:40 12.12.2019
6600 Clouds 2 1004 77 10000 1 230 20:22 12.12.2019
6601 Clouds 2 1004 86 10000 1.5 240 19:56 12.12.2019
6602 Clouds 2 1004 80 10000 1.5 230 19:38 12.12.2019
6603 Clouds 2 1004 80 10000 1.5 230 19:20 12.12.2019
6604 Clouds 3 1005 80 10000 1.5 230 18:56 12.12.2019
6605 Clouds 3 1005 80 10000 1.5 210 18:38 12.12.2019
6606 Clouds 3 1005 80 10000 2.1 230 18:19 12.12.2019
6607 Clouds 3 1005 80 10000 2.1 230 17:57 12.12.2019
6608 Clouds 3 1005 86 10000 1.5 220 17:38 12.12.2019
6609 Clouds 3 1005 86 10000 1.5 220 17:19 12.12.2019
6610 Clouds 3 1005 86 10000 1.5 250 16:55 12.12.2019
6611 Clouds 3 1005 80 10000 1 0 16:36 12.12.2019
6612 Clouds 3 1005 80 10000 1 0 16:18 12.12.2019
6613 Clouds 3 1006 86 8000 1.5 180 15:42 12.12.2019
6614 Clouds 3 1006 80 8000 1 0 15:20 12.12.2019
6615 Clouds 3 1006 80 8000 1 0 14:57 12.12.2019
6616 Clouds 3 1006 80 8000 1 0 14:37 12.12.2019
6617 Clouds 3 1006 80 8000 1 0 14:19 12.12.2019
6618 Clouds 3 1006 80 8000 2.1 150 13:55 12.12.2019
6619 Clouds 3 1006 89 8000 2.1 170 13:37 12.12.2019
6620 Clouds 3 1006 88 8000 2.1 170 13:19 12.12.2019
6621 Clouds 3 1007 86 8000 1.5 190 12:55 12.12.2019
6622 Clouds 3 1007 93 6000 1.5 100 12:37 12.12.2019
6623 Rain 2 1007 93 6000 1.5 100 12:18 12.12.2019
6624 Rain 2 1008 93 5000 2.1 70 11:40 12.12.2019
6625 Mist 2 1008 93 5000 2.1 70 11:22 12.12.2019
6626 Rain 2 1007 93 5000 1.5 60 10:59 12.12.2019
6627 Rain 2 1007 93 5000 1.5 60 10:59 12.12.2019
6628 Rain 2 1007 93 5000 1.5 60 10:41 12.12.2019
6629 Rain 2 1007 93 5000 2.1 90 10:22 12.12.2019
6630 Rain 2 1007 93 4000 1.5 60 09:56 12.12.2019
6631 Rain 2 1007 93 4000 1.5 60 09:56 12.12.2019
6632 Rain 2 1007 93 4000 2.6 30 09:38 12.12.2019
6633 Rain 1 1007 93 4000 2.6 30 09:20 12.12.2019
6634 Rain 1 1007 93 4000 3.1 20 08:50 12.12.2019
6635 Rain 1 1007 93 3000 1.5 320 08:29 12.12.2019
6636 Rain 1 1006 93 5000 2.1 90 07:56 12.12.2019
6637 Rain 1 1006 93 5000 2.1 90 07:56 12.12.2019
6638 Rain 1 1006 93 5000 1.5 70 07:37 12.12.2019
6639 Rain 1 1006 93 5000 1.5 70 07:19 12.12.2019
6640 Rain 1 1006 93 8000 2.6 70 06:41 12.12.2019
6641 Rain 1 1006 93 8000 2.6 70 06:22 12.12.2019
6642 Rain 1 1006 93 10000 1 0 05:32 12.12.2019
6643 Rain 2 1006 93 10000 1 0 04:47 12.12.2019
6644 Clouds 2 1007 86 10000 1.5 230 02:43 12.12.2019
6645 Clouds 3 1007 86 10000 2.1 220 02:24 12.12.2019
6646 Clouds 3 1008 80 10000 2.1 200 01:59 12.12.2019
6647 Clouds 3 1008 80 10000 1 210 01:36 12.12.2019
6648 Clouds 3 1009 80 10000 1 0 00:50 12.12.2019
6649 Clouds 3 1009 80 10000 2.1 260 00:22 12.12.2019
6650 Clouds 3 1009 80 10000 2.1 240 23:58 11.12.2019
6651 Clouds 3 1009 80 10000 1 180 23:38 11.12.2019
6652 Clouds 3 1009 80 10000 1 180 23:18 11.12.2019
6653 Clouds 3 1009 86 10000 2.1 200 22:56 11.12.2019
6654 Clouds 3 1009 86 10000 2.1 200 22:56 11.12.2019
6655 Clouds 3 1010 75 10000 2.1 200 22:38 11.12.2019
6656 Clouds 4 1010 75 10000 2.1 200 22:18 11.12.2019
6657 Clouds 3 1010 75 10000 2.1 200 22:18 11.12.2019
6658 Clouds 4 1010 75 10000 1 200 21:54 11.12.2019
6659 Clouds 4 1010 75 10000 1 200 21:36 11.12.2019
6660 Clouds 4 1010 75 10000 1 200 21:18 11.12.2019
6661 Clouds 4 1011 57 10000 1.5 250 20:54 11.12.2019
6662 Clouds 4 1011 75 10000 1 240 20:36 11.12.2019
6663 Clouds 4 1011 75 10000 1 240 20:18 11.12.2019
6664 Clouds 4 1011 57 10000 0.5 0 19:41 11.12.2019
6665 Clouds 4 1011 57 10000 1 0 19:23 11.12.2019
6666 Clouds 4 1012 57 10000 1 280 18:59 11.12.2019
6667 Clouds 4 1012 57 10000 0.5 0 18:39 11.12.2019
6668 Clouds 4 1012 57 10000 0.5 0 18:19 11.12.2019
6669 Clouds 5 1012 60 10000 1 180 17:56 11.12.2019
6670 Clouds 5 1013 65 10000 0.5 180 17:37 11.12.2019
6671 Clouds 5 1013 60 10000 0.5 0 17:18 11.12.2019
6672 Clouds 5 1013 60 10000 0.5 0 16:55 11.12.2019
6673 Clouds 5 1013 56 10000 1 0 16:37 11.12.2019
6674 Clouds 5 1013 56 10000 1 0 16:18 11.12.2019
6675 Clouds 6 1014 56 10000 2.1 140 15:55 11.12.2019
6676 Clouds 6 1014 56 10000 3.1 110 15:37 11.12.2019
6677 Clouds 6 1014 56 10000 3.1 110 15:18 11.12.2019
6678 Clouds 6 1015 52 10000 1.5 150 14:54 11.12.2019
6679 Clouds 6 1015 52 10000 1 0 14:36 11.12.2019
6680 Clouds 6 1015 52 10000 1 0 14:18 11.12.2019
6681 Clouds 7 1016 56 10000 2.1 140 13:42 11.12.2019
6682 Clouds 7 1017 56 10000 2.1 140 13:21 11.12.2019
6683 Clouds 7 1017 56 10000 2.1 120 12:57 11.12.2019
6684 Clouds 7 1017 52 10000 1 0 12:38 11.12.2019
6685 Clouds 6 1017 52 10000 1 0 12:20 11.12.2019
6686 Clouds 6 1018 56 10000 1 0 11:58 11.12.2019
6687 Clouds 6 1019 60 10000 2.1 100 11:38 11.12.2019
6688 Clouds 6 1019 60 10000 2.1 100 11:18 11.12.2019
6689 Clouds 5 1019 64 10000 1.5 120 10:56 11.12.2019
6690 Clouds 5 1019 74 10000 1 180 10:38 11.12.2019
6691 Clouds 4 1019 74 10000 1 180 10:19 11.12.2019
6692 Clouds 3 1019 74 10000 1.5 190 09:43 11.12.2019
6693 Clouds 2 1019 74 10000 1.5 190 09:21 11.12.2019
6694 Clouds 1 1019 74 10000 0.5 0 08:58 11.12.2019
6695 Clouds 1 1019 41 10000 0.5 0 08:38 11.12.2019
6696 Clouds 0 1019 36 10000 0.5 0 08:19 11.12.2019
6697 Clouds 0 1019 36 10000 1 0 07:56 11.12.2019
6698 Clouds 0 1019 36 10000 1 350 07:38 11.12.2019
6699 Clouds 0 1019 36 10000 1 350 07:19 11.12.2019
6700 Clouds 0 1019 36 10000 1.5 360 06:44 11.12.2019
6701 Clouds 0 1020 36 10000 1.5 360 06:22 11.12.2019
6702 Clouds 0 1020 36 10000 1.5 360 05:41 11.12.2019
6703 Clear 0 1020 30 10000 1.5 360 05:20 11.12.2019
6704 Clear 1 1021 30 10000 1.5 360 04:28 11.12.2019
6705 Clear 1 1022 80 10000 1 360 02:49 11.12.2019
6706 Clear 2 1022 69 10000 0.5 0 01:25 11.12.2019
6707 Clear 2 1022 69 10000 2.1 160 00:49 11.12.2019
6708 Clear 2 1023 74 10000 1 0 00:22 11.12.2019
6709 Clear 2 1022 69 10000 1.5 350 23:50 10.12.2019
6710 Clear 2 1022 80 10000 2.1 360 23:30 10.12.2019
6711 Clear 2 1022 80 10000 1.5 30 22:59 10.12.2019
6712 Clear 2 1022 80 10000 1.5 30 22:59 10.12.2019
6713 Clear 3 1022 29 10000 1.5 80 22:40 10.12.2019
6714 Clear 3 1022 29 10000 1.5 80 22:40 10.12.2019
6715 Clear 3 1022 29 10000 1.5 80 22:40 10.12.2019
6716 Clear 2 1022 29 10000 1.5 80 22:22 10.12.2019
6717 Clear 2 1021 86 10000 0.5 0 21:57 10.12.2019
6718 Clear 3 1021 80 10000 1 0 21:39 10.12.2019
6719 Clear 3 1021 80 10000 1 0 21:21 10.12.2019
6720 Clear 3 1021 75 10000 1 350 20:57 10.12.2019
6721 Clear 3 1020 75 10000 1.5 30 20:37 10.12.2019
6722 Clear 4 1020 75 10000 1.5 30 20:19 10.12.2019
6723 Clear 4 1020 60 10000 1.5 90 19:55 10.12.2019
6724 Clear 4 1020 51 10000 0.5 0 19:37 10.12.2019
6725 Clear 5 1019 40 10000 1 330 19:18 10.12.2019
6726 Clear 7 1019 31 10000 1.5 140 18:40 10.12.2019
6727 Clear 7 1019 31 10000 1.5 140 18:20 10.12.2019
6728 Clear 8 1019 36 10000 0.5 0 17:58 10.12.2019
6729 Clear 9 1018 29 10000 1 320 17:39 10.12.2019
6730 Clear 9 1018 29 10000 1 320 17:20 10.12.2019
6731 Clear 10 1018 25 10000 2.6 350 16:44 10.12.2019
6732 Clear 11 1018 16 10000 3.1 350 16:21 10.12.2019
6733 Clear 11 1018 24 10000 2.6 350 15:59 10.12.2019
6734 Clear 11 1018 19 10000 4.1 350 15:38 10.12.2019
6735 Clear 12 1018 19 10000 4.1 350 15:18 10.12.2019
6736 Clear 12 1018 19 10000 4.1 350 15:18 10.12.2019
6737 Clear 13 1018 22 10000 3.1 340 14:56 10.12.2019
6738 Clear 13 1018 24 10000 3.6 10 14:37 10.12.2019
6739 Clear 13 1018 24 10000 3.6 10 14:37 10.12.2019
6740 Clear 13 1018 24 10000 3.6 10 14:19 10.12.2019
6741 Clear 13 1018 20 10000 5.7 10 13:56 10.12.2019
6742 Clear 13 1018 20 10000 5.1 360 13:38 10.12.2019
6743 Clear 13 1018 20 10000 5.1 360 13:19 10.12.2019
6744 Clear 12 1018 20 10000 8.2 360 12:45 10.12.2019
6745 Clear 12 1018 20 10000 8.7 360 12:45 10.12.2019
6746 Clear 12 1018 20 10000 8.7 360 12:25 10.12.2019
6747 Clear 12 1018 20 10000 10.3 360 11:45 10.12.2019
6748 Clear 12 1018 24 10000 8.2 360 11:25 10.12.2019
6749 Clear 9 1018 26 10000 6.7 350 10:57 10.12.2019
6750 Clear 9 1017 30 10000 7.7 360 10:39 10.12.2019
6751 Clear 9 1017 30 10000 7.7 360 10:39 10.12.2019
6752 Clear 8 1017 30 10000 7.7 360 10:21 10.12.2019
6753 Clear 8 1017 30 10000 6.7 350 09:56 10.12.2019
6754 Clear 8 1017 30 10000 6.7 350 09:56 10.12.2019
6755 Clear 8 1016 34 10000 5.7 350 09:38 10.12.2019
6756 Clear 8 1016 34 10000 5.7 350 09:38 10.12.2019
6757 Clear 8 1016 34 10000 5.7 350 09:20 10.12.2019
6758 Clear 7 1016 34 10000 6.2 330 08:55 10.12.2019
6759 Clear 7 1015 34 10000 6.2 330 08:37 10.12.2019
6760 Clouds 5 1015 34 10000 6.2 330 08:18 10.12.2019
6761 Clouds 5 1015 34 10000 6.7 330 07:44 10.12.2019
6762 Clouds 5 1014 37 10000 6.7 330 07:25 10.12.2019
6763 Clouds 5 1014 37 10000 7.2 330 06:48 10.12.2019
6764 Clouds 5 1013 37 10000 7.2 330 06:22 10.12.2019
6765 Clouds 5 1013 37 10000 6.2 330 05:55 10.12.2019
6766 Clouds 5 1012 37 10000 5.1 330 04:56 10.12.2019
6767